<?xml version='1.0' encoding='UTF-8'?><gpx version="1.1" creator="JPX - https://github.com/jenetics/jpx" xmlns="http://www.topografix.com/GPX/1/1"><trk><trkseg><trkpt lat="41.766391406932726" lon="13.381737468105733"><ele>527.0</ele><time>2026-04-05T05:51:48.002Z</time></trkpt><trkpt lat="41.76643552594334" lon="13.381854210772907"><ele>527.0</ele><time>2026-04-05T05:52:25.001Z</time></trkpt><trkpt lat="41.76647930414282" lon="13.381943970262146"><ele>527.0</ele><time>2026-04-05T05:52:27.001Z</time></trkpt><trkpt lat="41.766537900967805" lon="13.382057501265871"><ele>527.0</ele><time>2026-04-05T05:52:29.001Z</time></trkpt><trkpt lat="41.7666035576359" lon="13.382131285512546"><ele>527.0</ele><time>2026-04-05T05:52:31.001Z</time></trkpt><trkpt lat="41.76667292894112" lon="13.382178729576555"><ele>527.0</ele><time>2026-04-05T05:52:35.001Z</time></trkpt><trkpt lat="41.76673963712368" lon="13.382226356396904"><ele>526.3333333333333</ele><time>2026-04-05T05:52:39.001Z</time></trkpt><trkpt lat="41.76675253239991" lon="13.382344010227634"><ele>525.6666666666666</ele><time>2026-04-05T05:52:44.001Z</time></trkpt><trkpt lat="41.766766598927084" lon="13.382496970413662"><ele>525.0</ele><time>2026-04-05T05:52:46.001Z</time></trkpt><trkpt lat="41.76679208293099" lon="13.382577609352703"><ele>524.3333333333334</ele><time>2026-04-05T05:52:47.001Z</time></trkpt><trkpt lat="41.7668652666527" lon="13.382667607150307"><ele>523.6666666666667</ele><time>2026-04-05T05:52:49.001Z</time></trkpt><trkpt lat="41.76693630693872" lon="13.382691991114992"><ele>523.0</ele><time>2026-04-05T05:52:51.001Z</time></trkpt><trkpt lat="41.76704384069031" lon="13.382805228972279"><ele>526.1999999999999</ele><time>2026-04-05T05:52:53.001Z</time></trkpt><trkpt lat="41.76708498687143" lon="13.382879041870819"><ele>529.4</ele><time>2026-04-05T05:52:54.001Z</time></trkpt><trkpt lat="41.76714248930282" lon="13.382930434478341"><ele>532.5999999999999</ele><time>2026-04-05T05:52:55.001Z</time></trkpt><trkpt lat="41.76726396583172" lon="13.38301287683862"><ele>535.8</ele><time>2026-04-05T05:52:57.001Z</time></trkpt><trkpt lat="41.76732889402119" lon="13.383072612125774"><ele>539.0</ele><time>2026-04-05T05:52:58.001Z</time></trkpt><trkpt lat="41.767415990361506" lon="13.383161375888328"><ele>539.0</ele><time>2026-04-05T05:53:00.001Z</time></trkpt><trkpt lat="41.76749788922191" lon="13.38325024381722"><ele>539.0</ele><time>2026-04-05T05:53:02.001Z</time></trkpt><trkpt lat="41.767557722528366" lon="13.383341463311671"><ele>539.0</ele><time>2026-04-05T05:53:04.001Z</time></trkpt><trkpt lat="41.76758004679589" lon="13.38346602436318"><ele>539.0</ele><time>2026-04-05T05:53:06.001Z</time></trkpt><trkpt lat="41.767602407765246" lon="13.383622259401697"><ele>539.0</ele><time>2026-04-05T05:53:08.001Z</time></trkpt><trkpt lat="41.76767391023116" lon="13.383748897807447"><ele>542.4</ele><time>2026-04-05T05:53:10.001Z</time></trkpt><trkpt lat="41.76771393772495" lon="13.38387044152092"><ele>545.8</ele><time>2026-04-05T05:53:12.001Z</time></trkpt><trkpt lat="41.76776011780972" lon="13.383986544407586"><ele>549.2</ele><time>2026-04-05T05:53:14.001Z</time></trkpt><trkpt lat="41.767830509805606" lon="13.384119504246437"><ele>552.6</ele><time>2026-04-05T05:53:16.001Z</time></trkpt><trkpt lat="41.767870060126704" lon="13.384197003112236"><ele>556.0</ele><time>2026-04-05T05:53:17.001Z</time></trkpt><trkpt lat="41.76790452287066" lon="13.38428866658998"><ele>556.0</ele><time>2026-04-05T05:53:18.001Z</time></trkpt><trkpt lat="41.76793924698265" lon="13.384364296944861"><ele>556.0</ele><time>2026-04-05T05:53:19.002Z</time></trkpt><trkpt lat="41.767983326604565" lon="13.38442860448709"><ele>556.0</ele><time>2026-04-05T05:53:20.002Z</time></trkpt><trkpt lat="41.768034227755976" lon="13.38452255400148"><ele>556.0</ele><time>2026-04-05T05:53:21.002Z</time></trkpt><trkpt lat="41.768073709447705" lon="13.384602383956617"><ele>556.0</ele><time>2026-04-05T05:53:22.002Z</time></trkpt><trkpt lat="41.76813150138951" lon="13.384744771913779"><ele>556.0</ele><time>2026-04-05T05:53:24.002Z</time></trkpt><trkpt lat="41.76817766059152" lon="13.38480417692243"><ele>556.2</ele><time>2026-04-05T05:53:25.002Z</time></trkpt><trkpt lat="41.7681983451105" lon="13.384900117611277"><ele>556.4000000000001</ele><time>2026-04-05T05:53:27.002Z</time></trkpt><trkpt lat="41.768184674889596" lon="13.38500597951433"><ele>556.6</ele><time>2026-04-05T05:53:29.002Z</time></trkpt><trkpt lat="41.7681811189608" lon="13.385166919250233"><ele>556.8000000000001</ele><time>2026-04-05T05:53:31.002Z</time></trkpt><trkpt lat="41.76820180939011" lon="13.385344882515945"><ele>557.0</ele><time>2026-04-05T05:53:33.002Z</time></trkpt><trkpt lat="41.76820221457605" lon="13.385489803540924"><ele>556.8000000000001</ele><time>2026-04-05T05:53:35.002Z</time></trkpt><trkpt lat="41.76822458218138" lon="13.385589450740424"><ele>556.6</ele><time>2026-04-05T05:53:37.002Z</time></trkpt><trkpt lat="41.76821670768584" lon="13.385731472762512"><ele>556.4000000000001</ele><time>2026-04-05T05:53:40.002Z</time></trkpt><trkpt lat="41.76826045145117" lon="13.385839673473633"><ele>556.2</ele><time>2026-04-05T05:53:42.002Z</time></trkpt><trkpt lat="41.76825354721345" lon="13.385985685664965"><ele>556.0</ele><time>2026-04-05T05:53:44.002Z</time></trkpt><trkpt lat="41.7682085016729" lon="13.38613541780271"><ele>556.0</ele><time>2026-04-05T05:53:46.002Z</time></trkpt><trkpt lat="41.76821406653403" lon="13.386285378731714"><ele>556.0</ele><time>2026-04-05T05:53:48.002Z</time></trkpt><trkpt lat="41.76821552956524" lon="13.386419485682225"><ele>556.0</ele><time>2026-04-05T05:53:50.002Z</time></trkpt><trkpt lat="41.76816603869225" lon="13.386547359897486"><ele>556.0</ele><time>2026-04-05T05:53:52.002Z</time></trkpt><trkpt lat="41.76813865938071" lon="13.386680901443984"><ele>556.0</ele><time>2026-04-05T05:53:54.002Z</time></trkpt><trkpt lat="41.76812402846106" lon="13.386800191325081"><ele>555.1666666666667</ele><time>2026-04-05T05:53:56.002Z</time></trkpt><trkpt lat="41.7681396677882" lon="13.386904939542331"><ele>554.3333333333334</ele><time>2026-04-05T05:53:58Z</time></trkpt><trkpt lat="41.76814083346745" lon="13.38700787532911"><ele>553.5</ele><time>2026-04-05T05:53:59Z</time></trkpt><trkpt lat="41.7681112111038" lon="13.387102574582553"><ele>552.6666666666666</ele><time>2026-04-05T05:54:00Z</time></trkpt><trkpt lat="41.76808804062766" lon="13.38722236157786"><ele>551.8333333333333</ele><time>2026-04-05T05:54:02Z</time></trkpt><trkpt lat="41.76809068999389" lon="13.387364646986507"><ele>551.0</ele><time>2026-04-05T05:54:04Z</time></trkpt><trkpt lat="41.7681024685573" lon="13.387539557937222"><ele>550.9999999999999</ele><time>2026-04-05T05:54:06Z</time></trkpt><trkpt lat="41.7681019827172" lon="13.38763478239501"><ele>551.0</ele><time>2026-04-05T05:54:07Z</time></trkpt><trkpt lat="41.76811542786319" lon="13.387720930009587"><ele>551.0</ele><time>2026-04-05T05:54:08Z</time></trkpt><trkpt lat="41.76812048845668" lon="13.387809066043047"><ele>551.0</ele><time>2026-04-05T05:54:09Z</time></trkpt><trkpt lat="41.76812157552222" lon="13.387909831002993"><ele>551.0</ele><time>2026-04-05T05:54:10Z</time></trkpt><trkpt lat="41.768145548240376" lon="13.388018289885341"><ele>550.9999999999999</ele><time>2026-04-05T05:54:11Z</time></trkpt><trkpt lat="41.76816261237289" lon="13.38811551491774"><ele>551.0</ele><time>2026-04-05T05:54:12Z</time></trkpt><trkpt lat="41.768194372136314" lon="13.388191165929623"><ele>551.2</ele><time>2026-04-05T05:54:13Z</time></trkpt><trkpt lat="41.76824076905765" lon="13.38835248422179"><ele>551.4000000000001</ele><time>2026-04-05T05:54:15Z</time></trkpt><trkpt lat="41.76831282226218" lon="13.388473812385776"><ele>551.6</ele><time>2026-04-05T05:54:17Z</time></trkpt><trkpt lat="41.76836459605011" lon="13.388561149604298"><ele>551.8000000000001</ele><time>2026-04-05T05:54:19Z</time></trkpt><trkpt lat="41.768337980614284" lon="13.388718738900392"><ele>552.0</ele><time>2026-04-05T05:54:21Z</time></trkpt><trkpt lat="41.768354214467024" lon="13.38881109530669"><ele>553.5</ele><time>2026-04-05T05:54:22Z</time></trkpt><trkpt lat="41.76839315655809" lon="13.388897694053501"><ele>555.0</ele><time>2026-04-05T05:54:23Z</time></trkpt><trkpt lat="41.768432129429335" lon="13.388967246574195"><ele>556.5</ele><time>2026-04-05T05:54:24Z</time></trkpt><trkpt lat="41.768514988800675" lon="13.389085322934084"><ele>558.0</ele><time>2026-04-05T05:54:26Z</time></trkpt><trkpt lat="41.76858771735924" lon="13.38921635086631"><ele>559.5</ele><time>2026-04-05T05:54:28Z</time></trkpt><trkpt lat="41.76863883856497" lon="13.389270760040638"><ele>561.0</ele><time>2026-04-05T05:54:29Z</time></trkpt><trkpt lat="41.76868638731326" lon="13.389373712248805"><ele>561.4</ele><time>2026-04-05T05:54:31Z</time></trkpt><trkpt lat="41.768665764555436" lon="13.389552443391107"><ele>561.8</ele><time>2026-04-05T05:54:33Z</time></trkpt><trkpt lat="41.7686920594907" lon="13.38967980655303"><ele>562.1999999999999</ele><time>2026-04-05T05:54:34.001Z</time></trkpt><trkpt lat="41.7687316955692" lon="13.38981849887771"><ele>562.6</ele><time>2026-04-05T05:54:35.001Z</time></trkpt><trkpt lat="41.76877261261529" lon="13.389931471864465"><ele>563.0</ele><time>2026-04-05T05:54:36.001Z</time></trkpt><trkpt lat="41.76882055480609" lon="13.390034002143404"><ele>563.6666666666666</ele><time>2026-04-05T05:54:37.001Z</time></trkpt><trkpt lat="41.768873281874" lon="13.390130936771365"><ele>564.3333333333333</ele><time>2026-04-05T05:54:38.001Z</time></trkpt><trkpt lat="41.768927693569225" lon="13.390224504650329"><ele>565.0</ele><time>2026-04-05T05:54:39.001Z</time></trkpt><trkpt lat="41.76896592620134" lon="13.390337191868877"><ele>565.6666666666666</ele><time>2026-04-05T05:54:40.001Z</time></trkpt><trkpt lat="41.76899884794755" lon="13.390429617822335"><ele>566.3333333333334</ele><time>2026-04-05T05:54:41.001Z</time></trkpt><trkpt lat="41.769020181075426" lon="13.39053536238849"><ele>567.0</ele><time>2026-04-05T05:54:43.001Z</time></trkpt><trkpt lat="41.769038189535365" lon="13.390621780307155"><ele>567.0</ele><time>2026-04-05T05:55:37.002Z</time></trkpt><trkpt lat="41.768968203098574" lon="13.390657851191394"><ele>567.0</ele><time>2026-04-05T05:57:09.001Z</time></trkpt><trkpt lat="41.76903372912644" lon="13.390666289461304"><ele>567.0</ele><time>2026-04-05T05:57:42.002Z</time></trkpt><trkpt lat="41.76904179076934" lon="13.390757082951712"><ele>567.0</ele><time>2026-04-05T06:00:46Z</time></trkpt><trkpt lat="41.769095405617826" lon="13.390842100351911"><ele>567.0</ele><time>2026-04-05T06:00:48Z</time></trkpt><trkpt lat="41.76912620008717" lon="13.390969794863688"><ele>567.0</ele><time>2026-04-05T06:00:50Z</time></trkpt><trkpt lat="41.769162312941624" lon="13.391082822259621"><ele>567.0</ele><time>2026-04-05T06:00:52Z</time></trkpt><trkpt lat="41.76918022274959" lon="13.391188362266103"><ele>567.0</ele><time>2026-04-05T06:00:54.001Z</time></trkpt><trkpt lat="41.76919018105146" lon="13.3913506079639"><ele>567.0</ele><time>2026-04-05T06:00:56.001Z</time></trkpt><trkpt lat="41.76923715605854" lon="13.391443874194637"><ele>567.0</ele><time>2026-04-05T06:00:59.001Z</time></trkpt><trkpt lat="41.7692615943898" lon="13.391548509961108"><ele>567.0</ele><time>2026-04-05T06:01:02.001Z</time></trkpt><trkpt lat="41.769317988181335" lon="13.391747807361742"><ele>570.1666666666666</ele><time>2026-04-05T06:01:04.001Z</time></trkpt><trkpt lat="41.769395843158016" lon="13.391740879145267"><ele>573.3333333333334</ele><time>2026-04-05T06:01:07.001Z</time></trkpt><trkpt lat="41.769424773597116" lon="13.391865231212668"><ele>576.5</ele><time>2026-04-05T06:01:11.001Z</time></trkpt><trkpt lat="41.76948786404864" lon="13.391855175491136"><ele>579.6666666666667</ele><time>2026-04-05T06:01:17.001Z</time></trkpt><trkpt lat="41.76948006992986" lon="13.391989379821764"><ele>582.8333333333334</ele><time>2026-04-05T06:01:23.001Z</time></trkpt><trkpt lat="41.76944862482919" lon="13.392066462710078"><ele>586.0</ele><time>2026-04-05T06:01:25.001Z</time></trkpt><trkpt lat="41.76949552184756" lon="13.392127270131887"><ele>585.5</ele><time>2026-04-05T06:01:56.002Z</time></trkpt><trkpt lat="41.769511816984966" lon="13.392211450953555"><ele>585.0</ele><time>2026-04-05T06:02:22Z</time></trkpt><trkpt lat="41.769570931882036" lon="13.392270696462134"><ele>584.5</ele><time>2026-04-05T06:02:25Z</time></trkpt><trkpt lat="41.76958554668808" lon="13.39236852242111"><ele>584.0</ele><time>2026-04-05T06:02:27Z</time></trkpt><trkpt lat="41.769627207487126" lon="13.392474988334296"><ele>583.5</ele><time>2026-04-05T06:02:29Z</time></trkpt><trkpt lat="41.76965709182874" lon="13.392560333468786"><ele>583.0</ele><time>2026-04-05T06:02:35Z</time></trkpt><trkpt lat="41.769571184591456" lon="13.392577637156311"><ele>583.0</ele><time>2026-04-05T06:02:39Z</time></trkpt><trkpt lat="41.76950479388928" lon="13.392521234734003"><ele>583.0</ele><time>2026-04-05T06:02:42Z</time></trkpt><trkpt lat="41.76949381929758" lon="13.392606787332026"><ele>583.0</ele><time>2026-04-05T06:02:53Z</time></trkpt><trkpt lat="41.76942554323541" lon="13.392577987242637"><ele>583.0</ele><time>2026-04-05T06:02:58.001Z</time></trkpt><trkpt lat="41.76941942433295" lon="13.39266767906079"><ele>583.0</ele><time>2026-04-05T06:03:06.001Z</time></trkpt><trkpt lat="41.76943517912718" lon="13.392825713149925"><ele>583.0</ele><time>2026-04-05T06:03:34.001Z</time></trkpt><trkpt lat="41.76949238317221" lon="13.392883135286814"><ele>583.0</ele><time>2026-04-05T06:03:44.001Z</time></trkpt><trkpt lat="41.769548631759065" lon="13.392982139394261"><ele>583.0</ele><time>2026-04-05T06:03:47.001Z</time></trkpt><trkpt lat="41.76957877490506" lon="13.393080762630333"><ele>583.0</ele><time>2026-04-05T06:03:54.001Z</time></trkpt><trkpt lat="41.76957447977558" lon="13.393178002685818"><ele>583.0</ele><time>2026-04-05T06:03:59.002Z</time></trkpt><trkpt lat="41.76958050156104" lon="13.393266924696336"><ele>583.0</ele><time>2026-04-05T06:04:21.002Z</time></trkpt><trkpt lat="41.769619075224945" lon="13.393370662412925"><ele>583.0</ele><time>2026-04-05T06:04:25.002Z</time></trkpt><trkpt lat="41.769638714835644" lon="13.393479316907367"><ele>588.5</ele><time>2026-04-05T06:04:29Z</time></trkpt><trkpt lat="41.7696554217376" lon="13.393579753272741"><ele>594.0</ele><time>2026-04-05T06:04:31Z</time></trkpt><trkpt lat="41.769684701824076" lon="13.393662201332814"><ele>599.5</ele><time>2026-04-05T06:04:33Z</time></trkpt><trkpt lat="41.7696977565352" lon="13.393766526060913"><ele>605.0</ele><time>2026-04-05T06:04:35Z</time></trkpt><trkpt lat="41.769741682584836" lon="13.39384956587211"><ele>610.5</ele><time>2026-04-05T06:04:45Z</time></trkpt><trkpt lat="41.7698126503027" lon="13.393883517617592"><ele>616.0</ele><time>2026-04-05T06:04:47Z</time></trkpt><trkpt lat="41.7698640949426" lon="13.393989675320089"><ele>621.6666666666667</ele><time>2026-04-05T06:04:49Z</time></trkpt><trkpt lat="41.76991877667098" lon="13.394077281997088"><ele>627.3333333333334</ele><time>2026-04-05T06:04:51Z</time></trkpt><trkpt lat="41.769939738049345" lon="13.394162338341735"><ele>633.0</ele><time>2026-04-05T06:04:53Z</time></trkpt><trkpt lat="41.76998245605554" lon="13.394251011739483"><ele>638.6666666666666</ele><time>2026-04-05T06:04:55Z</time></trkpt><trkpt lat="41.770027398508965" lon="13.394378504030172"><ele>644.3333333333333</ele><time>2026-04-05T06:04:57Z</time></trkpt><trkpt lat="41.77009833703522" lon="13.394496243012556"><ele>650.0</ele><time>2026-04-05T06:04:59Z</time></trkpt><trkpt lat="41.770139652136244" lon="13.394575662531421"><ele>650.8</ele><time>2026-04-05T06:05:00Z</time></trkpt><trkpt lat="41.77020322602007" lon="13.394739498530493"><ele>651.6</ele><time>2026-04-05T06:05:02Z</time></trkpt><trkpt lat="41.770235568275524" lon="13.394823235558967"><ele>652.4000000000001</ele><time>2026-04-05T06:05:03Z</time></trkpt><trkpt lat="41.77028640827354" lon="13.394988858831558"><ele>653.2</ele><time>2026-04-05T06:05:05Z</time></trkpt><trkpt lat="41.77031253678263" lon="13.395072801933587"><ele>654.0</ele><time>2026-04-05T06:05:06.001Z</time></trkpt><trkpt lat="41.7703115527212" lon="13.395200475685188"><ele>654.0</ele><time>2026-04-05T06:05:08.001Z</time></trkpt><trkpt lat="41.77027807982711" lon="13.395352396662057"><ele>654.0</ele><time>2026-04-05T06:05:10.001Z</time></trkpt><trkpt lat="41.77026719196373" lon="13.395465368607649"><ele>654.0</ele><time>2026-04-05T06:05:12.001Z</time></trkpt><trkpt lat="41.77026363372159" lon="13.395576169423183"><ele>654.0</ele><time>2026-04-05T06:05:17.001Z</time></trkpt><trkpt lat="41.7701892253536" lon="13.395582374561425"><ele>654.0</ele><time>2026-04-05T06:05:20.001Z</time></trkpt><trkpt lat="41.77021206924911" lon="13.395683466691663"><ele>654.0</ele><time>2026-04-05T06:05:24.001Z</time></trkpt><trkpt lat="41.77026946049229" lon="13.395733359338891"><ele>659.4285714285714</ele><time>2026-04-05T06:05:27.001Z</time></trkpt><trkpt lat="41.77026352903941" lon="13.395828664949828"><ele>664.8571428571429</ele><time>2026-04-05T06:05:42.001Z</time></trkpt><trkpt lat="41.77029414894868" lon="13.395912856936498"><ele>670.2857142857142</ele><time>2026-04-05T06:06:32.002Z</time></trkpt><trkpt lat="41.77031131477455" lon="13.39601355151284"><ele>675.7142857142858</ele><time>2026-04-05T06:06:40Z</time></trkpt><trkpt lat="41.77036573340692" lon="13.396063468484906"><ele>681.1428571428572</ele><time>2026-04-05T06:06:44Z</time></trkpt><trkpt lat="41.77043645987186" lon="13.396112188342451"><ele>686.5714285714286</ele><time>2026-04-05T06:06:48Z</time></trkpt><trkpt lat="41.77050066652093" lon="13.396173024959088"><ele>692.0</ele><time>2026-04-05T06:06:51Z</time></trkpt><trkpt lat="41.7705718521434" lon="13.396222885699633"><ele>692.0</ele><time>2026-04-05T06:06:53Z</time></trkpt><trkpt lat="41.770618072212905" lon="13.396289411751475"><ele>692.0</ele><time>2026-04-05T06:06:58Z</time></trkpt><trkpt lat="41.77069361254062" lon="13.396360324961739"><ele>692.0</ele><time>2026-04-05T06:07:05Z</time></trkpt><trkpt lat="41.77073918735774" lon="13.396428079880772"><ele>692.0</ele><time>2026-04-05T06:07:08Z</time></trkpt><trkpt lat="41.77065874945536" lon="13.39649097911814"><ele>692.0</ele><time>2026-04-05T06:07:12Z</time></trkpt><trkpt lat="41.77058784970963" lon="13.396526848701367"><ele>692.0</ele><time>2026-04-05T06:07:15.001Z</time></trkpt><trkpt lat="41.77052722299277" lon="13.396568856240151"><ele>699.5</ele><time>2026-04-05T06:07:18.001Z</time></trkpt><trkpt lat="41.77047629998021" lon="13.396632675295841"><ele>707.0</ele><time>2026-04-05T06:07:20.001Z</time></trkpt><trkpt lat="41.770384842798265" lon="13.39664736549223"><ele>714.5</ele><time>2026-04-05T06:07:22.001Z</time></trkpt><trkpt lat="41.77029114009695" lon="13.39663456937239"><ele>722.0</ele><time>2026-04-05T06:07:24.001Z</time></trkpt><trkpt lat="41.770228176250086" lon="13.396662309389908"><ele>729.5</ele><time>2026-04-05T06:07:29.001Z</time></trkpt><trkpt lat="41.77029566859117" lon="13.396704696587172"><ele>737.0</ele><time>2026-04-05T06:07:32.001Z</time></trkpt><trkpt lat="41.7704214888073" lon="13.39681409229152"><ele>737.0</ele><time>2026-04-05T06:07:36.001Z</time></trkpt><trkpt lat="41.77069295826493" lon="13.396933175301132"><ele>737.0</ele><time>2026-04-05T06:07:39.001Z</time></trkpt><trkpt lat="41.7707661023879" lon="13.396944273601187"><ele>737.0</ele><time>2026-04-05T06:07:40.001Z</time></trkpt><trkpt lat="41.770827529725935" lon="13.396998886238416"><ele>737.0</ele><time>2026-04-05T06:07:41.001Z</time></trkpt><trkpt lat="41.770896779611206" lon="13.397100707904633"><ele>737.0</ele><time>2026-04-05T06:07:43.001Z</time></trkpt><trkpt lat="41.77095905974199" lon="13.397132581256537"><ele>737.0</ele><time>2026-04-05T06:07:45.001Z</time></trkpt><trkpt lat="41.77087823693316" lon="13.397149550941702"><ele>737.0</ele><time>2026-04-05T06:07:47.001Z</time></trkpt><trkpt lat="41.77082041481649" lon="13.39709961675683"><ele>737.0</ele><time>2026-04-05T06:07:49.001Z</time></trkpt><trkpt lat="41.77073135176608" lon="13.397060029830609"><ele>737.0</ele><time>2026-04-05T06:07:51.001Z</time></trkpt><trkpt lat="41.77065167933068" lon="13.397063986685072"><ele>737.0</ele><time>2026-04-05T06:07:52.001Z</time></trkpt><trkpt lat="41.7705817094153" lon="13.397098338779049"><ele>737.0</ele><time>2026-04-05T06:07:53.001Z</time></trkpt><trkpt lat="41.770524406991555" lon="13.397141020486654"><ele>737.0</ele><time>2026-04-05T06:07:54.001Z</time></trkpt><trkpt lat="41.77044056896734" lon="13.397199854060027"><ele>737.0</ele><time>2026-04-05T06:07:55.001Z</time></trkpt><trkpt lat="41.770334920728736" lon="13.397230465564483"><ele>737.0</ele><time>2026-04-05T06:07:56.001Z</time></trkpt><trkpt lat="41.77025187402219" lon="13.397239673781469"><ele>737.0</ele><time>2026-04-05T06:07:57.001Z</time></trkpt><trkpt lat="41.770209811322246" lon="13.397152019259181"><ele>737.0</ele><time>2026-04-05T06:07:58.001Z</time></trkpt><trkpt lat="41.770139701322016" lon="13.39710235403314"><ele>739.8</ele><time>2026-04-05T06:07:59.001Z</time></trkpt><trkpt lat="41.770056446449146" lon="13.39704472220867"><ele>742.6</ele><time>2026-04-05T06:08:00.001Z</time></trkpt><trkpt lat="41.76997393599148" lon="13.396993150795383"><ele>745.4</ele><time>2026-04-05T06:08:01.001Z</time></trkpt><trkpt lat="41.769899325858184" lon="13.396961320726179"><ele>748.1999999999999</ele><time>2026-04-05T06:08:02.001Z</time></trkpt><trkpt lat="41.76979722225455" lon="13.396955827904195"><ele>751.0</ele><time>2026-04-05T06:08:04.001Z</time></trkpt><trkpt lat="41.76970910972764" lon="13.39700854162357"><ele>751.0</ele><time>2026-04-05T06:08:06.001Z</time></trkpt><trkpt lat="41.769695992118415" lon="13.397101047966446"><ele>751.0</ele><time>2026-04-05T06:08:10.001Z</time></trkpt><trkpt lat="41.76977764393229" lon="13.397109933766446"><ele>751.0</ele><time>2026-04-05T06:08:12.001Z</time></trkpt><trkpt lat="41.76991857552594" lon="13.39714369495381"><ele>751.0</ele><time>2026-04-05T06:08:14.001Z</time></trkpt><trkpt lat="41.7699869655308" lon="13.397173543209522"><ele>751.0</ele><time>2026-04-05T06:08:15.002Z</time></trkpt><trkpt lat="41.77005260339165" lon="13.397210740387662"><ele>751.0</ele><time>2026-04-05T06:08:16.002Z</time></trkpt><trkpt lat="41.77011075086999" lon="13.397253771259075"><ele>756.6666666666667</ele><time>2026-04-05T06:08:17.002Z</time></trkpt><trkpt lat="41.77018337370461" lon="13.397338997114973"><ele>762.3333333333334</ele><time>2026-04-05T06:08:19.002Z</time></trkpt><trkpt lat="41.7702256640126" lon="13.397422112967696"><ele>768.0</ele><time>2026-04-05T06:08:20.002Z</time></trkpt><trkpt lat="41.77028507535524" lon="13.397538270872342"><ele>773.6666666666667</ele><time>2026-04-05T06:08:22.002Z</time></trkpt><trkpt lat="41.7703581046129" lon="13.397594168665478"><ele>779.3333333333334</ele><time>2026-04-05T06:08:24.002Z</time></trkpt><trkpt lat="41.7704161750683" lon="13.397518773889894"><ele>785.0</ele><time>2026-04-05T06:08:26.002Z</time></trkpt><trkpt lat="41.770490821960806" lon="13.397434138806158"><ele>785.0000000000001</ele><time>2026-04-05T06:08:28.002Z</time></trkpt><trkpt lat="41.77062405157241" lon="13.397460049315438"><ele>785.0</ele><time>2026-04-05T06:08:30.002Z</time></trkpt><trkpt lat="41.77069159081382" lon="13.397496232180304"><ele>785.0</ele><time>2026-04-05T06:08:31.002Z</time></trkpt><trkpt lat="41.77075929104951" lon="13.397551841071214"><ele>785.0</ele><time>2026-04-05T06:08:32.002Z</time></trkpt><trkpt lat="41.770826048007294" lon="13.397608891017995"><ele>785.0000000000001</ele><time>2026-04-05T06:08:33.002Z</time></trkpt><trkpt lat="41.770893864717756" lon="13.39764544301769"><ele>785.0</ele><time>2026-04-05T06:08:34.002Z</time></trkpt><trkpt lat="41.770969935497845" lon="13.397680655066432"><ele>785.7142857142858</ele><time>2026-04-05T06:08:35.002Z</time></trkpt><trkpt lat="41.771041209464066" lon="13.397681580893007"><ele>786.4285714285713</ele><time>2026-04-05T06:08:36.002Z</time></trkpt><trkpt lat="41.771110510791274" lon="13.397685655037579"><ele>787.1428571428571</ele><time>2026-04-05T06:08:37.002Z</time></trkpt><trkpt lat="41.77117313863505" lon="13.397666330247064"><ele>787.8571428571429</ele><time>2026-04-05T06:08:38.002Z</time></trkpt><trkpt lat="41.771245279137176" lon="13.397654631953317"><ele>788.5714285714287</ele><time>2026-04-05T06:08:39.002Z</time></trkpt><trkpt lat="41.77132969866658" lon="13.397623813690819"><ele>789.2857142857142</ele><time>2026-04-05T06:08:40Z</time></trkpt><trkpt lat="41.771406699086995" lon="13.397594105919943"><ele>790.0</ele><time>2026-04-05T06:08:41Z</time></trkpt><trkpt lat="41.77146922744736" lon="13.397580248183731"><ele>790.0</ele><time>2026-04-05T06:08:42Z</time></trkpt><trkpt lat="41.771553980510866" lon="13.397663340101037"><ele>790.0</ele><time>2026-04-05T06:08:45Z</time></trkpt><trkpt lat="41.77162148299119" lon="13.397776967550257"><ele>790.0</ele><time>2026-04-05T06:08:47Z</time></trkpt><trkpt lat="41.77172682208223" lon="13.397801572535432"><ele>790.0</ele><time>2026-04-05T06:08:49Z</time></trkpt><trkpt lat="41.771808131634316" lon="13.397794246745232"><ele>790.0</ele><time>2026-04-05T06:08:50Z</time></trkpt><trkpt lat="41.77187294641574" lon="13.397807294411946"><ele>792.6666666666666</ele><time>2026-04-05T06:08:51Z</time></trkpt><trkpt lat="41.771929629350616" lon="13.397880551486201"><ele>795.3333333333333</ele><time>2026-04-05T06:08:53Z</time></trkpt><trkpt lat="41.77198247414349" lon="13.39803166186789"><ele>798.0</ele><time>2026-04-05T06:08:55Z</time></trkpt><trkpt lat="41.772021852208844" lon="13.398123747481135"><ele>800.6666666666667</ele><time>2026-04-05T06:08:56Z</time></trkpt><trkpt lat="41.772044595151755" lon="13.39820792665291"><ele>803.3333333333334</ele><time>2026-04-05T06:08:57Z</time></trkpt><trkpt lat="41.77205923065023" lon="13.398298220096674"><ele>806.0</ele><time>2026-04-05T06:08:58Z</time></trkpt><trkpt lat="41.77209039764313" lon="13.39844519922587"><ele>807.4</ele><time>2026-04-05T06:09:00Z</time></trkpt><trkpt lat="41.772177307184876" lon="13.398567213591884"><ele>808.8</ele><time>2026-04-05T06:09:02Z</time></trkpt><trkpt lat="41.77223694315505" lon="13.398646051591914"><ele>810.1999999999999</ele><time>2026-04-05T06:09:03Z</time></trkpt><trkpt lat="41.772308921355304" lon="13.398744440471024"><ele>811.5999999999999</ele><time>2026-04-05T06:09:04Z</time></trkpt><trkpt lat="41.77239850871717" lon="13.398834855232462"><ele>813.0</ele><time>2026-04-05T06:09:05Z</time></trkpt><trkpt lat="41.7724799163077" lon="13.39891509022558"><ele>813.3333333333334</ele><time>2026-04-05T06:09:06Z</time></trkpt><trkpt lat="41.772566690024036" lon="13.398993104367605"><ele>813.6666666666667</ele><time>2026-04-05T06:09:08Z</time></trkpt><trkpt lat="41.772642550374194" lon="13.399102320732531"><ele>814.0</ele><time>2026-04-05T06:09:10Z</time></trkpt><trkpt lat="41.772692879282566" lon="13.399181978007146"><ele>814.3333333333334</ele><time>2026-04-05T06:09:11Z</time></trkpt><trkpt lat="41.77274671162528" lon="13.3992544927297"><ele>814.6666666666667</ele><time>2026-04-05T06:09:12Z</time></trkpt><trkpt lat="41.77279759509346" lon="13.399321285952533"><ele>815.0</ele><time>2026-04-05T06:09:13Z</time></trkpt><trkpt lat="41.77284539092373" lon="13.399378755697025"><ele>813.8333333333334</ele><time>2026-04-05T06:09:14Z</time></trkpt><trkpt lat="41.77289504474384" lon="13.39943658054855"><ele>812.6666666666667</ele><time>2026-04-05T06:09:15Z</time></trkpt><trkpt lat="41.77294084613279" lon="13.399497844184912"><ele>811.5</ele><time>2026-04-05T06:09:16Z</time></trkpt><trkpt lat="41.77299799966648" lon="13.39963861013715"><ele>810.3333333333333</ele><time>2026-04-05T06:09:18Z</time></trkpt><trkpt lat="41.77300491113778" lon="13.399726586698621"><ele>809.1666666666666</ele><time>2026-04-05T06:09:19Z</time></trkpt><trkpt lat="41.773036591761944" lon="13.399881897711852"><ele>808.0</ele><time>2026-04-05T06:09:21Z</time></trkpt><trkpt lat="41.77306666762155" lon="13.39996007148992"><ele>808.0</ele><time>2026-04-05T06:09:22.001Z</time></trkpt><trkpt lat="41.77310665060957" lon="13.400031783927602"><ele>808.0</ele><time>2026-04-05T06:09:23.001Z</time></trkpt><trkpt lat="41.77314718747149" lon="13.400107010133487"><ele>808.0</ele><time>2026-04-05T06:09:24.001Z</time></trkpt><trkpt lat="41.773201023343546" lon="13.40018347110915"><ele>808.0</ele><time>2026-04-05T06:09:25.001Z</time></trkpt><trkpt lat="41.77325494311445" lon="13.400259088409458"><ele>808.0</ele><time>2026-04-05T06:09:26.001Z</time></trkpt><trkpt lat="41.773300940002564" lon="13.400324170999122"><ele>808.0</ele><time>2026-04-05T06:09:27.001Z</time></trkpt><trkpt lat="41.77334074834494" lon="13.400403172435015"><ele>808.0</ele><time>2026-04-05T06:09:28.001Z</time></trkpt><trkpt lat="41.77337811896467" lon="13.400483227313497"><ele>808.5999999999999</ele><time>2026-04-05T06:09:29.001Z</time></trkpt><trkpt lat="41.77338872175222" lon="13.400656966332905"><ele>809.1999999999999</ele><time>2026-04-05T06:09:31.001Z</time></trkpt><trkpt lat="41.773375940265254" lon="13.40078120629055"><ele>809.8</ele><time>2026-04-05T06:09:32.001Z</time></trkpt><trkpt lat="41.77335338514876" lon="13.400884670531875"><ele>810.4</ele><time>2026-04-05T06:09:33.001Z</time></trkpt><trkpt lat="41.773334065913495" lon="13.400976745150139"><ele>811.0</ele><time>2026-04-05T06:09:34.001Z</time></trkpt><trkpt lat="41.773328193356214" lon="13.401076724127082"><ele>810.9999999999999</ele><time>2026-04-05T06:09:35.001Z</time></trkpt><trkpt lat="41.77333328711153" lon="13.40118198601677"><ele>811.0</ele><time>2026-04-05T06:09:36.001Z</time></trkpt><trkpt lat="41.77335121916371" lon="13.401280167509135"><ele>811.0</ele><time>2026-04-05T06:09:37.001Z</time></trkpt><trkpt lat="41.77336943669191" lon="13.401370552498815"><ele>811.0</ele><time>2026-04-05T06:09:38.001Z</time></trkpt><trkpt lat="41.773385110429274" lon="13.40146320590784"><ele>810.9999999999999</ele><time>2026-04-05T06:09:39.001Z</time></trkpt><trkpt lat="41.77341677832355" lon="13.401633030254851"><ele>811.0</ele><time>2026-04-05T06:09:41.001Z</time></trkpt><trkpt lat="41.77343546245914" lon="13.401715054898931"><ele>810.4</ele><time>2026-04-05T06:09:42.001Z</time></trkpt><trkpt lat="41.77348192028775" lon="13.401845419627595"><ele>809.8</ele><time>2026-04-05T06:09:44.001Z</time></trkpt><trkpt lat="41.77355393286624" lon="13.401963577193012"><ele>809.1999999999999</ele><time>2026-04-05T06:09:46.001Z</time></trkpt><trkpt lat="41.773617564832506" lon="13.402019950153063"><ele>808.5999999999999</ele><time>2026-04-05T06:09:47.001Z</time></trkpt><trkpt lat="41.77367913111242" lon="13.402082417419114"><ele>808.0</ele><time>2026-04-05T06:09:48.001Z</time></trkpt><trkpt lat="41.77374785685027" lon="13.402140115392363"><ele>805.8</ele><time>2026-04-05T06:09:49.001Z</time></trkpt><trkpt lat="41.77384274970437" lon="13.402188869892388"><ele>803.5999999999999</ele><time>2026-04-05T06:09:50.001Z</time></trkpt><trkpt lat="41.773926930532184" lon="13.402266766420656"><ele>801.4000000000001</ele><time>2026-04-05T06:09:51.001Z</time></trkpt><trkpt lat="41.77400041596245" lon="13.402363482189708"><ele>799.2</ele><time>2026-04-05T06:09:52.001Z</time></trkpt><trkpt lat="41.77401751803259" lon="13.402492169059954"><ele>797.0</ele><time>2026-04-05T06:09:53.001Z</time></trkpt><trkpt lat="41.77404464244613" lon="13.402593380892075"><ele>797.0</ele><time>2026-04-05T06:09:54.001Z</time></trkpt><trkpt lat="41.774034510866116" lon="13.402765125600183"><ele>797.0</ele><time>2026-04-05T06:09:56.001Z</time></trkpt><trkpt lat="41.77404091857498" lon="13.40285554917541"><ele>797.0</ele><time>2026-04-05T06:09:57.001Z</time></trkpt><trkpt lat="41.77406338744895" lon="13.402986661082165"><ele>797.0</ele><time>2026-04-05T06:09:59.001Z</time></trkpt><trkpt lat="41.7740691490878" lon="13.403071846719484"><ele>797.0</ele><time>2026-04-05T06:10:01.001Z</time></trkpt><trkpt lat="41.77410939464501" lon="13.403203718283807"><ele>799.4000000000001</ele><time>2026-04-05T06:10:03.001Z</time></trkpt><trkpt lat="41.77412838723434" lon="13.403333669537396"><ele>801.8000000000001</ele><time>2026-04-05T06:10:05.001Z</time></trkpt><trkpt lat="41.77411814418565" lon="13.403437973120703"><ele>804.2</ele><time>2026-04-05T06:10:07.001Z</time></trkpt><trkpt lat="41.7741094780153" lon="13.403562086562319"><ele>806.6</ele><time>2026-04-05T06:10:09.001Z</time></trkpt><trkpt lat="41.77413596876248" lon="13.403655260546865"><ele>809.0</ele><time>2026-04-05T06:10:10.001Z</time></trkpt><trkpt lat="41.77421125936215" lon="13.403781629509465"><ele>809.8333333333334</ele><time>2026-04-05T06:10:12.001Z</time></trkpt><trkpt lat="41.774244962805184" lon="13.403855360094767"><ele>810.6666666666667</ele><time>2026-04-05T06:10:13.001Z</time></trkpt><trkpt lat="41.77427947649409" lon="13.403943522269289"><ele>811.5</ele><time>2026-04-05T06:10:14.001Z</time></trkpt><trkpt lat="41.77430240545966" lon="13.404044757647252"><ele>812.3333333333333</ele><time>2026-04-05T06:10:15.001Z</time></trkpt><trkpt lat="41.77432790184837" lon="13.404149293578632"><ele>813.1666666666666</ele><time>2026-04-05T06:10:16.001Z</time></trkpt><trkpt lat="41.77435490594269" lon="13.40424884290594"><ele>814.0</ele><time>2026-04-05T06:10:17.001Z</time></trkpt><trkpt lat="41.77438688099232" lon="13.404337957859846"><ele>812.0</ele><time>2026-04-05T06:10:18.001Z</time></trkpt><trkpt lat="41.77442294746942" lon="13.404428069707881"><ele>810.0</ele><time>2026-04-05T06:10:19.001Z</time></trkpt><trkpt lat="41.77447407880353" lon="13.40456222345725"><ele>808.0</ele><time>2026-04-05T06:10:21.002Z</time></trkpt><trkpt lat="41.77452488647601" lon="13.40469031671465"><ele>806.0</ele><time>2026-04-05T06:10:23.002Z</time></trkpt><trkpt lat="41.774575390776114" lon="13.404817931134962"><ele>804.0</ele><time>2026-04-05T06:10:25.002Z</time></trkpt><trkpt lat="41.77462796335193" lon="13.404947841272987"><ele>804.0</ele><time>2026-04-05T06:10:27.002Z</time></trkpt><trkpt lat="41.774689517313504" lon="13.40506229972214"><ele>804.0</ele><time>2026-04-05T06:10:29.002Z</time></trkpt><trkpt lat="41.774739737705154" lon="13.405202528044851"><ele>804.0</ele><time>2026-04-05T06:11:50.001Z</time></trkpt><trkpt lat="41.77477928925362" lon="13.40528623208466"><ele>804.0</ele><time>2026-04-05T06:11:51.001Z</time></trkpt><trkpt lat="41.7748250044425" lon="13.405395984921372"><ele>804.0</ele><time>2026-04-05T06:11:52.001Z</time></trkpt><trkpt lat="41.77486985843129" lon="13.405521572486785"><ele>806.1666666666666</ele><time>2026-04-05T06:11:53.001Z</time></trkpt><trkpt lat="41.774904244704686" lon="13.405647666701599"><ele>808.3333333333333</ele><time>2026-04-05T06:11:54.001Z</time></trkpt><trkpt lat="41.77492725575615" lon="13.405776109553356"><ele>810.5</ele><time>2026-04-05T06:11:55.001Z</time></trkpt><trkpt lat="41.774918799103745" lon="13.405878127213201"><ele>812.6666666666666</ele><time>2026-04-05T06:11:56.001Z</time></trkpt><trkpt lat="41.77494199534744" lon="13.405968178368516"><ele>814.8333333333333</ele><time>2026-04-05T06:11:57.001Z</time></trkpt><trkpt lat="41.77494874192473" lon="13.406056987190219"><ele>817.0</ele><time>2026-04-05T06:11:58.001Z</time></trkpt><trkpt lat="41.7749672246125" lon="13.4061478522648"><ele>817.0</ele><time>2026-04-05T06:11:59.001Z</time></trkpt><trkpt lat="41.77498493293811" lon="13.406260736076781"><ele>817.0</ele><time>2026-04-05T06:12:00.001Z</time></trkpt><trkpt lat="41.774989554179015" lon="13.406388094515519"><ele>817.0</ele><time>2026-04-05T06:12:01.001Z</time></trkpt><trkpt lat="41.7750028680939" lon="13.406521374454508"><ele>817.0</ele><time>2026-04-05T06:12:02.001Z</time></trkpt><trkpt lat="41.77501458070694" lon="13.406663378142127"><ele>817.0</ele><time>2026-04-05T06:12:03.001Z</time></trkpt><trkpt lat="41.77502597616029" lon="13.406794177857645"><ele>819.0</ele><time>2026-04-05T06:12:04.001Z</time></trkpt><trkpt lat="41.775042844201515" lon="13.406921862383262"><ele>821.0</ele><time>2026-04-05T06:12:05.001Z</time></trkpt><trkpt lat="41.77506502132503" lon="13.407048320433278"><ele>823.0</ele><time>2026-04-05T06:12:06.001Z</time></trkpt><trkpt lat="41.77509124544657" lon="13.40716617348083"><ele>825.0</ele><time>2026-04-05T06:12:07.001Z</time></trkpt><trkpt lat="41.77512673743589" lon="13.407281807718036"><ele>827.0</ele><time>2026-04-05T06:12:08.001Z</time></trkpt><trkpt lat="41.775176381136106" lon="13.40738821142652"><ele>825.8333333333334</ele><time>2026-04-05T06:12:09.001Z</time></trkpt><trkpt lat="41.77523935427461" lon="13.407470879678472"><ele>824.6666666666667</ele><time>2026-04-05T06:12:10.001Z</time></trkpt><trkpt lat="41.775276220988516" lon="13.407583509167027"><ele>823.5</ele><time>2026-04-05T06:12:11.001Z</time></trkpt><trkpt lat="41.7753132573902" lon="13.407689053203384"><ele>822.3333333333333</ele><time>2026-04-05T06:12:12.001Z</time></trkpt><trkpt lat="41.77534170914517" lon="13.407798820894198"><ele>821.1666666666666</ele><time>2026-04-05T06:12:13.001Z</time></trkpt><trkpt lat="41.77536303995196" lon="13.407911192993542"><ele>820.0</ele><time>2026-04-05T06:12:14.001Z</time></trkpt><trkpt lat="41.77537266473259" lon="13.40801559699476"><ele>822.6666666666666</ele><time>2026-04-05T06:12:15.001Z</time></trkpt><trkpt lat="41.77537908498184" lon="13.408127121234076"><ele>825.3333333333333</ele><time>2026-04-05T06:12:16.001Z</time></trkpt><trkpt lat="41.77537833152266" lon="13.408242822754854"><ele>828.0</ele><time>2026-04-05T06:12:17.001Z</time></trkpt><trkpt lat="41.775385265750785" lon="13.40833819091329"><ele>830.6666666666667</ele><time>2026-04-05T06:12:18.001Z</time></trkpt><trkpt lat="41.775452754117765" lon="13.408414861547223"><ele>833.3333333333334</ele><time>2026-04-05T06:12:19.001Z</time></trkpt><trkpt lat="41.775510274647516" lon="13.408494229273916"><ele>836.0</ele><time>2026-04-05T06:12:20.001Z</time></trkpt><trkpt lat="41.775536785974154" lon="13.408594545181709"><ele>836.0000000000001</ele><time>2026-04-05T06:12:21.001Z</time></trkpt><trkpt lat="41.77555180868139" lon="13.408687284978335"><ele>836.0</ele><time>2026-04-05T06:12:22.001Z</time></trkpt><trkpt lat="41.77557762517409" lon="13.408773149934948"><ele>836.0</ele><time>2026-04-05T06:12:23.001Z</time></trkpt><trkpt lat="41.775568295563254" lon="13.408886799356464"><ele>836.0</ele><time>2026-04-05T06:12:24.001Z</time></trkpt><trkpt lat="41.775578089092924" lon="13.408996723212635"><ele>836.0000000000001</ele><time>2026-04-05T06:12:25.001Z</time></trkpt><trkpt lat="41.77558703355045" lon="13.409113627845098"><ele>836.0</ele><time>2026-04-05T06:12:26.002Z</time></trkpt><trkpt lat="41.77560725998176" lon="13.409221541729647"><ele>838.8</ele><time>2026-04-05T06:12:27.002Z</time></trkpt><trkpt lat="41.77563093033612" lon="13.409335284315626"><ele>841.5999999999999</ele><time>2026-04-05T06:12:28.002Z</time></trkpt><trkpt lat="41.77567293677596" lon="13.409430385399807"><ele>844.4</ele><time>2026-04-05T06:12:29.002Z</time></trkpt><trkpt lat="41.7757270627048" lon="13.409515476018429"><ele>847.2</ele><time>2026-04-05T06:12:30.002Z</time></trkpt><trkpt lat="41.77580973458406" lon="13.40962651650666"><ele>850.0</ele><time>2026-04-05T06:12:31.002Z</time></trkpt><trkpt lat="41.77587720556105" lon="13.409710538123564"><ele>850.6</ele><time>2026-04-05T06:12:32.002Z</time></trkpt><trkpt lat="41.77595235104647" lon="13.409792110938099"><ele>851.2</ele><time>2026-04-05T06:12:33.002Z</time></trkpt><trkpt lat="41.77603505117381" lon="13.40986401322595"><ele>851.8</ele><time>2026-04-05T06:12:34.002Z</time></trkpt><trkpt lat="41.77611210364112" lon="13.409944234933883"><ele>852.4</ele><time>2026-04-05T06:12:35.002Z</time></trkpt><trkpt lat="41.77619599505414" lon="13.410020313387603"><ele>853.0</ele><time>2026-04-05T06:12:36.002Z</time></trkpt><trkpt lat="41.77628198516487" lon="13.410095491433319"><ele>853.8</ele><time>2026-04-05T06:12:37.002Z</time></trkpt><trkpt lat="41.77637952949542" lon="13.410158077286628"><ele>854.5999999999999</ele><time>2026-04-05T06:12:38.002Z</time></trkpt><trkpt lat="41.77646825192861" lon="13.410243466278667"><ele>855.4000000000001</ele><time>2026-04-05T06:12:39.002Z</time></trkpt><trkpt lat="41.77655808683147" lon="13.410300158750465"><ele>856.2</ele><time>2026-04-05T06:12:40.002Z</time></trkpt><trkpt lat="41.77665823845561" lon="13.410343622323605"><ele>857.0</ele><time>2026-04-05T06:12:41.002Z</time></trkpt><trkpt lat="41.77676755518478" lon="13.410387353481262"><ele>855.25</ele><time>2026-04-05T06:12:42.002Z</time></trkpt><trkpt lat="41.77688117717861" lon="13.410440295722099"><ele>853.5</ele><time>2026-04-05T06:12:43.002Z</time></trkpt><trkpt lat="41.776990780119654" lon="13.410494489331526"><ele>851.75</ele><time>2026-04-05T06:12:44.002Z</time></trkpt><trkpt lat="41.77708862333317" lon="13.410576743564455"><ele>850.0</ele><time>2026-04-05T06:12:45.002Z</time></trkpt><trkpt lat="41.777187722764374" lon="13.410650400204348"><ele>850.0</ele><time>2026-04-05T06:12:46.002Z</time></trkpt><trkpt lat="41.777276055655186" lon="13.410732721322281"><ele>850.0</ele><time>2026-04-05T06:12:47.002Z</time></trkpt><trkpt lat="41.777358856961754" lon="13.410814759101838"><ele>850.0</ele><time>2026-04-05T06:12:48.002Z</time></trkpt><trkpt lat="41.77742612869262" lon="13.41089249629364"><ele>850.0</ele><time>2026-04-05T06:12:49.002Z</time></trkpt><trkpt lat="41.777491055947664" lon="13.410980102020789"><ele>850.0</ele><time>2026-04-05T06:12:50.002Z</time></trkpt><trkpt lat="41.77756302948032" lon="13.41108728460429"><ele>849.9999999999999</ele><time>2026-04-05T06:12:51.002Z</time></trkpt><trkpt lat="41.77764902062985" lon="13.411186527515616"><ele>850.0</ele><time>2026-04-05T06:12:52Z</time></trkpt><trkpt lat="41.77771193677219" lon="13.41129341238882"><ele>850.0</ele><time>2026-04-05T06:12:53Z</time></trkpt><trkpt lat="41.77774078948377" lon="13.411385304402417"><ele>850.0</ele><time>2026-04-05T06:12:54Z</time></trkpt><trkpt lat="41.77777518971721" lon="13.411466206237604"><ele>849.9999999999999</ele><time>2026-04-05T06:12:55Z</time></trkpt><trkpt lat="41.77779991147318" lon="13.411548893243284"><ele>850.0</ele><time>2026-04-05T06:12:56Z</time></trkpt><trkpt lat="41.77783173977388" lon="13.41163960456917"><ele>854.75</ele><time>2026-04-05T06:12:57Z</time></trkpt><trkpt lat="41.77786215532018" lon="13.411726289551863"><ele>859.5</ele><time>2026-04-05T06:12:58Z</time></trkpt><trkpt lat="41.77795066403876" lon="13.411859254581188"><ele>864.25</ele><time>2026-04-05T06:13:00Z</time></trkpt><trkpt lat="41.77799372358853" lon="13.41192628882596"><ele>869.0</ele><time>2026-04-05T06:13:01Z</time></trkpt><trkpt lat="41.7783661608553" lon="13.411789184022503"><ele>869.0</ele><time>2026-04-05T06:13:02Z</time></trkpt><trkpt lat="41.77842941276797" lon="13.4118221822691"><ele>869.0000000000001</ele><time>2026-04-05T06:13:03Z</time></trkpt><trkpt lat="41.77851513712243" lon="13.41187328043458"><ele>869.0000000000001</ele><time>2026-04-05T06:13:05Z</time></trkpt><trkpt lat="41.778586579262765" lon="13.411929184630806"><ele>869.0</ele><time>2026-04-05T06:13:08Z</time></trkpt><trkpt lat="41.778694358379425" lon="13.411943702617936"><ele>869.0</ele><time>2026-04-05T06:13:11Z</time></trkpt><trkpt lat="41.77881547612284" lon="13.411950910268155"><ele>868.8333333333334</ele><time>2026-04-05T06:13:13Z</time></trkpt><trkpt lat="41.7789023604997" lon="13.411998753099043"><ele>868.6666666666667</ele><time>2026-04-05T06:13:15Z</time></trkpt><trkpt lat="41.77899077138791" lon="13.412058750130878"><ele>868.5</ele><time>2026-04-05T06:13:17Z</time></trkpt><trkpt lat="41.779068977891974" lon="13.412104116795575"><ele>868.3333333333333</ele><time>2026-04-05T06:13:18Z</time></trkpt><trkpt lat="41.77912930861599" lon="13.412168371234577"><ele>868.1666666666666</ele><time>2026-04-05T06:13:19Z</time></trkpt><trkpt lat="41.77919299465577" lon="13.412245536650792"><ele>868.0</ele><time>2026-04-05T06:13:20Z</time></trkpt><trkpt lat="41.77925613454181" lon="13.412308809885868"><ele>867.0</ele><time>2026-04-05T06:13:21Z</time></trkpt><trkpt lat="41.77931524586981" lon="13.412375798525213"><ele>866.0</ele><time>2026-04-05T06:13:22Z</time></trkpt><trkpt lat="41.77937422944443" lon="13.412473919526231"><ele>865.0</ele><time>2026-04-05T06:13:24Z</time></trkpt><trkpt lat="41.779375294170094" lon="13.412612943462934"><ele>864.0</ele><time>2026-04-05T06:13:26Z</time></trkpt><trkpt lat="41.779380438829676" lon="13.412724947649572"><ele>863.0</ele><time>2026-04-05T06:13:27Z</time></trkpt><trkpt lat="41.779391930961005" lon="13.41285016398388"><ele>863.0</ele><time>2026-04-05T06:13:28Z</time></trkpt><trkpt lat="41.77942376144948" lon="13.41294448079819"><ele>863.0</ele><time>2026-04-05T06:13:29Z</time></trkpt><trkpt lat="41.77950027143318" lon="13.413090851413385"><ele>863.0</ele><time>2026-04-05T06:13:31Z</time></trkpt><trkpt lat="41.77958826688634" lon="13.413221415881122"><ele>863.0</ele><time>2026-04-05T06:13:33.001Z</time></trkpt><trkpt lat="41.77963389652002" lon="13.413335076767904"><ele>863.0</ele><time>2026-04-05T06:13:35.001Z</time></trkpt><trkpt lat="41.779658766525394" lon="13.41347130134974"><ele>865.8333333333334</ele><time>2026-04-05T06:13:37.001Z</time></trkpt><trkpt lat="41.77965451324925" lon="13.413576933599101"><ele>868.6666666666667</ele><time>2026-04-05T06:13:38.001Z</time></trkpt><trkpt lat="41.77969922517264" lon="13.413691955222337"><ele>871.5</ele><time>2026-04-05T06:13:39.001Z</time></trkpt><trkpt lat="41.779748596285636" lon="13.413822386495484"><ele>874.3333333333333</ele><time>2026-04-05T06:13:41.001Z</time></trkpt><trkpt lat="41.779757871480534" lon="13.413907060305247"><ele>877.1666666666666</ele><time>2026-04-05T06:13:42.001Z</time></trkpt><trkpt lat="41.77976803140189" lon="13.413991553956253"><ele>880.0</ele><time>2026-04-05T06:13:43.001Z</time></trkpt><trkpt lat="41.77979238794317" lon="13.414074715870735"><ele>883.8</ele><time>2026-04-05T06:13:44.001Z</time></trkpt><trkpt lat="41.77986037307742" lon="13.414189360649473"><ele>887.6</ele><time>2026-04-05T06:13:46.001Z</time></trkpt><trkpt lat="41.77992566146061" lon="13.414239782023385"><ele>891.4000000000001</ele><time>2026-04-05T06:13:47.001Z</time></trkpt><trkpt lat="41.779985294969634" lon="13.414291036784899"><ele>895.2</ele><time>2026-04-05T06:13:48.001Z</time></trkpt><trkpt lat="41.78011018578106" lon="13.414319115291478"><ele>899.0</ele><time>2026-04-05T06:13:50.001Z</time></trkpt><trkpt lat="41.78018844049514" lon="13.414412602580635"><ele>892.4000000000001</ele><time>2026-04-05T06:13:52.001Z</time></trkpt><trkpt lat="41.78026969643546" lon="13.414510060733111"><ele>885.8000000000001</ele><time>2026-04-05T06:13:54.001Z</time></trkpt><trkpt lat="41.780276883837345" lon="13.414659176645056"><ele>879.1999999999999</ele><time>2026-04-05T06:13:56.001Z</time></trkpt><trkpt lat="41.780281137024154" lon="13.414757213538541"><ele>872.5999999999999</ele><time>2026-04-05T06:13:57.001Z</time></trkpt><trkpt lat="41.78028827814216" lon="13.414857284121045"><ele>866.0</ele><time>2026-04-05T06:13:58.001Z</time></trkpt><trkpt lat="41.78026128755779" lon="13.414969795900355"><ele>865.9999999999999</ele><time>2026-04-05T06:13:59.001Z</time></trkpt><trkpt lat="41.78023972959352" lon="13.415061175295197"><ele>866.0</ele><time>2026-04-05T06:14:00.001Z</time></trkpt><trkpt lat="41.780231394865574" lon="13.415153834016841"><ele>866.0</ele><time>2026-04-05T06:14:01.001Z</time></trkpt><trkpt lat="41.78022665478337" lon="13.415240735592194"><ele>866.0</ele><time>2026-04-05T06:14:02.001Z</time></trkpt><trkpt lat="41.780234692291295" lon="13.415333801642273"><ele>866.0</ele><time>2026-04-05T06:14:03.001Z</time></trkpt><trkpt lat="41.78020279029935" lon="13.415420823504883"><ele>865.9999999999999</ele><time>2026-04-05T06:14:04.001Z</time></trkpt><trkpt lat="41.780170659891716" lon="13.415498587287086"><ele>866.0</ele><time>2026-04-05T06:14:05.001Z</time></trkpt><trkpt lat="41.78014108109645" lon="13.415639634189912"><ele>873.0000000000001</ele><time>2026-04-05T06:14:07.001Z</time></trkpt><trkpt lat="41.78012324384302" lon="13.415723710048956"><ele>880.0</ele><time>2026-04-05T06:14:08.001Z</time></trkpt><trkpt lat="41.78010562512875" lon="13.415811073282699"><ele>887.0</ele><time>2026-04-05T06:14:09.001Z</time></trkpt><trkpt lat="41.78010163492634" lon="13.415899024380545"><ele>894.0</ele><time>2026-04-05T06:14:10.001Z</time></trkpt><trkpt lat="41.780099931746186" lon="13.416005345231742"><ele>901.0000000000001</ele><time>2026-04-05T06:14:12.001Z</time></trkpt><trkpt lat="41.780091930088744" lon="13.416144854594064"><ele>908.0</ele><time>2026-04-05T06:14:14.001Z</time></trkpt><trkpt lat="41.780094935815825" lon="13.416251438403847"><ele>908.4</ele><time>2026-04-05T06:14:15.001Z</time></trkpt><trkpt lat="41.780101144179746" lon="13.416336680484147"><ele>908.8</ele><time>2026-04-05T06:14:16.001Z</time></trkpt><trkpt lat="41.78015408272287" lon="13.416476116439851"><ele>909.2</ele><time>2026-04-05T06:14:18.001Z</time></trkpt><trkpt lat="41.780195929580906" lon="13.416562492436094"><ele>909.6</ele><time>2026-04-05T06:14:19.001Z</time></trkpt><trkpt lat="41.780244026677806" lon="13.416682440762512"><ele>910.0</ele><time>2026-04-05T06:14:21.001Z</time></trkpt><trkpt lat="41.78028554362546" lon="13.416836194033253"><ele>905.9999999999999</ele><time>2026-04-05T06:14:23.001Z</time></trkpt><trkpt lat="41.78029169264395" lon="13.416920818480218"><ele>902.0</ele><time>2026-04-05T06:14:24.001Z</time></trkpt><trkpt lat="41.780367785373485" lon="13.41702266675565"><ele>898.0</ele><time>2026-04-05T06:14:26.001Z</time></trkpt><trkpt lat="41.780430209042265" lon="13.417105396291248"><ele>894.0</ele><time>2026-04-05T06:14:27.001Z</time></trkpt><trkpt lat="41.78048286486766" lon="13.417167890740432"><ele>889.9999999999999</ele><time>2026-04-05T06:14:28.001Z</time></trkpt><trkpt lat="41.78054259401588" lon="13.417205308709054"><ele>886.0</ele><time>2026-04-05T06:14:29.001Z</time></trkpt><trkpt lat="41.78059172954882" lon="13.417260186615898"><ele>885.9999999999999</ele><time>2026-04-05T06:14:30.001Z</time></trkpt><trkpt lat="41.780676431589185" lon="13.417410055804215"><ele>886.0</ele><time>2026-04-05T06:14:32.002Z</time></trkpt><trkpt lat="41.78072094498078" lon="13.41748810731254"><ele>886.0</ele><time>2026-04-05T06:14:33.002Z</time></trkpt><trkpt lat="41.78075676416934" lon="13.417569775280336"><ele>886.0</ele><time>2026-04-05T06:14:34.002Z</time></trkpt><trkpt lat="41.78079120659477" lon="13.417682948286313"><ele>885.9999999999999</ele><time>2026-04-05T06:14:35.002Z</time></trkpt><trkpt lat="41.7808197592361" lon="13.417766599857991"><ele>886.0</ele><time>2026-04-05T06:14:36.002Z</time></trkpt><trkpt lat="41.78084473019819" lon="13.417890494947583"><ele>888.9999999999999</ele><time>2026-04-05T06:14:38.002Z</time></trkpt><trkpt lat="41.78084800171786" lon="13.418004821222608"><ele>892.0</ele><time>2026-04-05T06:14:40.002Z</time></trkpt><trkpt lat="41.78082460436047" lon="13.41815100059392"><ele>895.0</ele><time>2026-04-05T06:14:42.002Z</time></trkpt><trkpt lat="41.78080869069923" lon="13.418278070807682"><ele>898.0</ele><time>2026-04-05T06:14:44.002Z</time></trkpt><trkpt lat="41.780851364906816" lon="13.418360761234883"><ele>900.9999999999999</ele><time>2026-04-05T06:14:46.002Z</time></trkpt><trkpt lat="41.78091591874544" lon="13.418393388658181"><ele>904.0</ele><time>2026-04-05T06:14:47.002Z</time></trkpt><trkpt lat="41.780998205572985" lon="13.418414891666725"><ele>898.0</ele><time>2026-04-05T06:14:48.002Z</time></trkpt><trkpt lat="41.78110849357794" lon="13.418458533163339"><ele>892.0</ele><time>2026-04-05T06:14:50.002Z</time></trkpt><trkpt lat="41.78116599461475" lon="13.41857720733129"><ele>886.0</ele><time>2026-04-05T06:14:52.002Z</time></trkpt><trkpt lat="41.78122553212385" lon="13.418757045399058"><ele>880.0</ele><time>2026-04-05T06:14:54.002Z</time></trkpt><trkpt lat="41.78125993076144" lon="13.418869439857401"><ele>879.9999999999999</ele><time>2026-04-05T06:14:55.002Z</time></trkpt><trkpt lat="41.78129807066449" lon="13.418952701777918"><ele>880.0</ele><time>2026-04-05T06:14:56.002Z</time></trkpt><trkpt lat="41.78132938908087" lon="13.419028933071345"><ele>880.0</ele><time>2026-04-05T06:14:57.002Z</time></trkpt><trkpt lat="41.781343948625114" lon="13.419113686250515"><ele>880.0</ele><time>2026-04-05T06:14:58Z</time></trkpt><trkpt lat="41.78135229164691" lon="13.419251126969483"><ele>879.9999999999999</ele><time>2026-04-05T06:15:00Z</time></trkpt><trkpt lat="41.78136203702854" lon="13.419388708793562"><ele>880.0</ele><time>2026-04-05T06:15:02Z</time></trkpt><trkpt lat="41.781334771432135" lon="13.419502988835232"><ele>879.9999999999999</ele><time>2026-04-05T06:15:04Z</time></trkpt><trkpt lat="41.78131106641124" lon="13.419581672795614"><ele>880.0</ele><time>2026-04-05T06:15:05Z</time></trkpt><trkpt lat="41.78129823620251" lon="13.41966533581111"><ele>880.0</ele><time>2026-04-05T06:15:06Z</time></trkpt><trkpt lat="41.781283987966894" lon="13.419823722433138"><ele>880.0</ele><time>2026-04-05T06:15:08Z</time></trkpt><trkpt lat="41.7812738443565" lon="13.419934876017699"><ele>879.9999999999999</ele><time>2026-04-05T06:15:10Z</time></trkpt><trkpt lat="41.78132296983494" lon="13.42002189936899"><ele>880.0</ele><time>2026-04-05T06:15:12Z</time></trkpt><trkpt lat="41.78138790621466" lon="13.420083529666158"><ele>882.7142857142857</ele><time>2026-04-05T06:15:15Z</time></trkpt><trkpt lat="41.781423317298234" lon="13.420158662126966"><ele>885.4285714285713</ele><time>2026-04-05T06:15:17Z</time></trkpt><trkpt lat="41.7814812161574" lon="13.420210372256347"><ele>888.1428571428571</ele><time>2026-04-05T06:15:19Z</time></trkpt><trkpt lat="41.7815194024654" lon="13.42027784900609"><ele>890.8571428571428</ele><time>2026-04-05T06:15:21Z</time></trkpt><trkpt lat="41.78155000944106" lon="13.42038323111782"><ele>893.5714285714286</ele><time>2026-04-05T06:15:23Z</time></trkpt><trkpt lat="41.781566026307786" lon="13.420484703415392"><ele>896.2857142857141</ele><time>2026-04-05T06:15:25Z</time></trkpt><trkpt lat="41.78155613232656" lon="13.420577709313813"><ele>898.9999999999999</ele><time>2026-04-05T06:15:28Z</time></trkpt><trkpt lat="41.781556679538085" lon="13.420703398804463"><ele>901.8333333333334</ele><time>2026-04-05T06:15:30Z</time></trkpt><trkpt lat="41.78153098366281" lon="13.420790548760404"><ele>904.6666666666667</ele><time>2026-04-05T06:15:31Z</time></trkpt><trkpt lat="41.78152781244582" lon="13.420903686532615"><ele>907.5</ele><time>2026-04-05T06:15:33Z</time></trkpt><trkpt lat="41.78156128500888" lon="13.421014126175793"><ele>910.3333333333333</ele><time>2026-04-05T06:15:35Z</time></trkpt><trkpt lat="41.781589642450086" lon="13.421120103261734"><ele>913.1666666666666</ele><time>2026-04-05T06:15:38.001Z</time></trkpt><trkpt lat="41.78160517094301" lon="13.42120495142297"><ele>916.0</ele><time>2026-04-05T06:15:41.001Z</time></trkpt><trkpt lat="41.7816068481919" lon="13.42111682457786"><ele>916.0</ele><time>2026-04-05T06:15:48.001Z</time></trkpt><trkpt lat="41.78153637369967" lon="13.421021850783534"><ele>916.0</ele><time>2026-04-05T06:15:50.001Z</time></trkpt><trkpt lat="41.78144313387239" lon="13.420927056172522"><ele>916.0</ele><time>2026-04-05T06:15:53.001Z</time></trkpt><trkpt lat="41.78138317194375" lon="13.42097855623312"><ele>916.0</ele><time>2026-04-05T06:15:56.001Z</time></trkpt><trkpt lat="41.781197503175974" lon="13.42112555998559"><ele>915.9999999999999</ele><time>2026-04-05T06:15:59.001Z</time></trkpt><trkpt lat="41.78123716404701" lon="13.421224350794585"><ele>916.0</ele><time>2026-04-05T06:16:02.001Z</time></trkpt><trkpt lat="41.78124380975947" lon="13.421326539092332"><ele>916.0</ele><time>2026-04-05T06:16:05.001Z</time></trkpt><trkpt lat="41.78122610419142" lon="13.421412449551116"><ele>916.0</ele><time>2026-04-05T06:16:07.001Z</time></trkpt><trkpt lat="41.78121375331779" lon="13.421528601494174"><ele>915.9999999999999</ele><time>2026-04-05T06:16:10.001Z</time></trkpt><trkpt lat="41.78113953730033" lon="13.421470394860535"><ele>916.0</ele><time>2026-04-05T06:16:55.002Z</time></trkpt><trkpt lat="41.78103612295733" lon="13.421412173090278"><ele>924.4999999999999</ele><time>2026-04-05T06:16:57.002Z</time></trkpt><trkpt lat="41.780942155298206" lon="13.42144194969594"><ele>933.0</ele><time>2026-04-05T06:17:00.002Z</time></trkpt><trkpt lat="41.78089270874387" lon="13.421524209927327"><ele>941.5</ele><time>2026-04-05T06:17:03.002Z</time></trkpt><trkpt lat="41.78086280722781" lon="13.42160540973147"><ele>950.0</ele><time>2026-04-05T06:17:06Z</time></trkpt><trkpt lat="41.78081618014485" lon="13.421698988669577"><ele>958.4999999999999</ele><time>2026-04-05T06:17:11Z</time></trkpt><trkpt lat="41.78081007789143" lon="13.421783778247786"><ele>967.0</ele><time>2026-04-05T06:17:14Z</time></trkpt><trkpt lat="41.78079939579606" lon="13.421885432072497"><ele>966.9999999999999</ele><time>2026-04-05T06:17:18Z</time></trkpt><trkpt lat="41.78076601557588" lon="13.421994303526127"><ele>967.0</ele><time>2026-04-05T06:17:21Z</time></trkpt><trkpt lat="41.780780864562445" lon="13.42208138769454"><ele>967.0</ele><time>2026-04-05T06:17:23Z</time></trkpt><trkpt lat="41.78078703066067" lon="13.42221333048308"><ele>967.0</ele><time>2026-04-05T06:17:25Z</time></trkpt><trkpt lat="41.78079494051553" lon="13.422314636738788"><ele>966.9999999999999</ele><time>2026-04-05T06:17:26Z</time></trkpt><trkpt lat="41.78083202037991" lon="13.42239663654129"><ele>967.0</ele><time>2026-04-05T06:17:28Z</time></trkpt><trkpt lat="41.78083489908826" lon="13.42248980204548"><ele>969.6666666666666</ele><time>2026-04-05T06:17:30Z</time></trkpt><trkpt lat="41.78078323910462" lon="13.422590599159376"><ele>972.3333333333333</ele><time>2026-04-05T06:17:32Z</time></trkpt><trkpt lat="41.78070291697999" lon="13.42263980094398"><ele>975.0</ele><time>2026-04-05T06:17:36Z</time></trkpt><trkpt lat="41.780703189038384" lon="13.42275822829542"><ele>977.6666666666667</ele><time>2026-04-05T06:18:08.001Z</time></trkpt><trkpt lat="41.780636867267965" lon="13.422793334348142"><ele>980.3333333333334</ele><time>2026-04-05T06:18:12.001Z</time></trkpt><trkpt lat="41.78058248275475" lon="13.422878986673952"><ele>983.0</ele><time>2026-04-05T06:18:15.001Z</time></trkpt><trkpt lat="41.78052674821083" lon="13.422929497301475"><ele>986.3333333333334</ele><time>2026-04-05T06:18:23.001Z</time></trkpt><trkpt lat="41.78047724540939" lon="13.42298921066754"><ele>989.6666666666667</ele><time>2026-04-05T06:18:26.001Z</time></trkpt><trkpt lat="41.78042115826489" lon="13.423056202681012"><ele>993.0</ele><time>2026-04-05T06:18:30.001Z</time></trkpt><trkpt lat="41.78038906295176" lon="13.423145667181204"><ele>996.3333333333333</ele><time>2026-04-05T06:19:21Z</time></trkpt><trkpt lat="41.780326682653026" lon="13.42318885394906"><ele>999.6666666666666</ele><time>2026-04-05T06:19:24Z</time></trkpt><trkpt lat="41.78022592844732" lon="13.423228807449304"><ele>1003.0</ele><time>2026-04-05T06:19:27Z</time></trkpt><trkpt lat="41.78016115389081" lon="13.423295034602686"><ele>1009.1666666666666</ele><time>2026-04-05T06:19:30Z</time></trkpt><trkpt lat="41.78009430539796" lon="13.423329023260647"><ele>1015.3333333333333</ele><time>2026-04-05T06:19:33Z</time></trkpt><trkpt lat="41.780030282219755" lon="13.423418409649669"><ele>1021.5</ele><time>2026-04-05T06:19:38Z</time></trkpt><trkpt lat="41.7799500453997" lon="13.423411353224557"><ele>1027.6666666666667</ele><time>2026-04-05T06:19:41Z</time></trkpt><trkpt lat="41.779891801584796" lon="13.423452704835363"><ele>1033.8333333333335</ele><time>2026-04-05T06:19:52.001Z</time></trkpt><trkpt lat="41.779819554030695" lon="13.423473844244153"><ele>1040.0</ele><time>2026-04-05T06:24:52.001Z</time></trkpt><trkpt lat="41.779873954724756" lon="13.42353951671422"><ele>1040.0</ele><time>2026-04-05T06:31:12.001Z</time></trkpt><trkpt lat="41.77988081335359" lon="13.423653736794167"><ele>1040.0</ele><time>2026-04-05T06:31:14.001Z</time></trkpt><trkpt lat="41.77991378005481" lon="13.423758616073698"><ele>1040.0</ele><time>2026-04-05T06:31:16.001Z</time></trkpt><trkpt lat="41.77993096242896" lon="13.423882626802136"><ele>1040.0</ele><time>2026-04-05T06:31:18.001Z</time></trkpt><trkpt lat="41.77996194580433" lon="13.424038096200245"><ele>1040.0</ele><time>2026-04-05T06:31:20.001Z</time></trkpt><trkpt lat="41.77998755699887" lon="13.424124851474344"><ele>1041.6666666666667</ele><time>2026-04-05T06:31:22.001Z</time></trkpt><trkpt lat="41.77999161008314" lon="13.424243016183683"><ele>1043.3333333333335</ele><time>2026-04-05T06:31:24.001Z</time></trkpt><trkpt lat="41.77998669820869" lon="13.42435703198057"><ele>1045.0</ele><time>2026-04-05T06:31:26.001Z</time></trkpt><trkpt lat="41.78001635457801" lon="13.42444473217984"><ele>1046.6666666666667</ele><time>2026-04-05T06:31:29.002Z</time></trkpt><trkpt lat="41.780041199591864" lon="13.424528862999008"><ele>1048.3333333333333</ele><time>2026-04-05T06:31:32.002Z</time></trkpt><trkpt lat="41.78005167542271" lon="13.42463842957164"><ele>1050.0</ele><time>2026-04-05T06:31:34.002Z</time></trkpt><trkpt lat="41.78001320818259" lon="13.424740990269964"><ele>1052.5</ele><time>2026-04-05T06:31:36.002Z</time></trkpt><trkpt lat="41.77996115935631" lon="13.424850520642533"><ele>1055.0</ele><time>2026-04-05T06:31:38.002Z</time></trkpt><trkpt lat="41.77997614474987" lon="13.424964123107637"><ele>1057.5</ele><time>2026-04-05T06:31:40.002Z</time></trkpt><trkpt lat="41.77999348281809" lon="13.425067100519476"><ele>1060.0</ele><time>2026-04-05T06:31:43.002Z</time></trkpt><trkpt lat="41.78002267590824" lon="13.425167486962113"><ele>1062.5</ele><time>2026-04-05T06:31:46Z</time></trkpt><trkpt lat="41.78002017917147" lon="13.425254317845022"><ele>1065.0</ele><time>2026-04-05T06:31:59Z</time></trkpt><trkpt lat="41.78005763940465" lon="13.42532501759975"><ele>1065.0</ele><time>2026-04-05T06:32:10Z</time></trkpt><trkpt lat="41.780124387018915" lon="13.425368619987967"><ele>1065.0</ele><time>2026-04-05T06:32:18Z</time></trkpt><trkpt lat="41.78019212927121" lon="13.42534132269967"><ele>1065.0</ele><time>2026-04-05T06:32:21Z</time></trkpt><trkpt lat="41.780264366949105" lon="13.425346757203942"><ele>1065.0</ele><time>2026-04-05T06:32:23Z</time></trkpt><trkpt lat="41.78032585766442" lon="13.425392444012562"><ele>1065.0</ele><time>2026-04-05T06:32:25Z</time></trkpt><trkpt lat="41.78039655640137" lon="13.42546407552567"><ele>1065.0</ele><time>2026-04-05T06:32:27Z</time></trkpt><trkpt lat="41.78048532324313" lon="13.425608277965749"><ele>1065.3333333333333</ele><time>2026-04-05T06:32:29Z</time></trkpt><trkpt lat="41.78053212395223" lon="13.425669619232846"><ele>1065.6666666666667</ele><time>2026-04-05T06:32:30Z</time></trkpt><trkpt lat="41.78054695793667" lon="13.425800088358807"><ele>1066.0</ele><time>2026-04-05T06:32:33.001Z</time></trkpt><trkpt lat="41.78053463038738" lon="13.425962445673512"><ele>1066.3333333333335</ele><time>2026-04-05T06:32:35.001Z</time></trkpt><trkpt lat="41.78054274807805" lon="13.426055010534904"><ele>1066.6666666666667</ele><time>2026-04-05T06:32:36.001Z</time></trkpt><trkpt lat="41.78055324617322" lon="13.426175183212854"><ele>1067.0</ele><time>2026-04-05T06:32:37.001Z</time></trkpt><trkpt lat="41.78055793475628" lon="13.426308105796013"><ele>1070.8333333333335</ele><time>2026-04-05T06:32:38.001Z</time></trkpt><trkpt lat="41.78056835180076" lon="13.426420880950374"><ele>1074.6666666666667</ele><time>2026-04-05T06:32:39.001Z</time></trkpt><trkpt lat="41.78055385458733" lon="13.426520084829034"><ele>1078.5</ele><time>2026-04-05T06:32:41.001Z</time></trkpt><trkpt lat="41.780540695451805" lon="13.426633048771423"><ele>1082.3333333333333</ele><time>2026-04-05T06:32:43.001Z</time></trkpt><trkpt lat="41.78054295464002" lon="13.42672208913208"><ele>1086.1666666666665</ele><time>2026-04-05T06:32:48.001Z</time></trkpt><trkpt lat="41.78056128797381" lon="13.426831593070471"><ele>1090.0</ele><time>2026-04-05T06:32:54.001Z</time></trkpt><trkpt lat="41.78060703863672" lon="13.426903048594635"><ele>1090.0</ele><time>2026-04-05T06:32:58.001Z</time></trkpt><trkpt lat="41.780676053156725" lon="13.426972501275166"><ele>1090.0</ele><time>2026-04-05T06:33:01.001Z</time></trkpt><trkpt lat="41.78071607984001" lon="13.427048102103376"><ele>1090.0</ele><time>2026-04-05T06:33:05.001Z</time></trkpt><trkpt lat="41.78070364691812" lon="13.427147847771026"><ele>1090.0</ele><time>2026-04-05T06:33:09.001Z</time></trkpt><trkpt lat="41.780718522333146" lon="13.427232448775829"><ele>1090.0</ele><time>2026-04-05T06:33:13.001Z</time></trkpt><trkpt lat="41.78076505849582" lon="13.427307287327665"><ele>1090.0</ele><time>2026-04-05T06:33:15.001Z</time></trkpt><trkpt lat="41.78085980606083" lon="13.42735883326978"><ele>1094.2</ele><time>2026-04-05T06:33:17.001Z</time></trkpt><trkpt lat="41.78095436017798" lon="13.427405753014588"><ele>1098.4</ele><time>2026-04-05T06:33:19.001Z</time></trkpt><trkpt lat="41.78101665847841" lon="13.427436972623266"><ele>1102.6</ele><time>2026-04-05T06:33:21.001Z</time></trkpt><trkpt lat="41.78118550533606" lon="13.42754072977118"><ele>1106.8</ele><time>2026-04-05T06:33:23.001Z</time></trkpt><trkpt lat="41.78124798950463" lon="13.427558626558728"><ele>1111.0</ele><time>2026-04-05T06:33:24.001Z</time></trkpt><trkpt lat="41.78136151025838" lon="13.427579693519883"><ele>1111.2</ele><time>2026-04-05T06:33:26.001Z</time></trkpt><trkpt lat="41.78151364993345" lon="13.427555721734928"><ele>1111.3999999999999</ele><time>2026-04-05T06:33:28.001Z</time></trkpt><trkpt lat="41.781610833845654" lon="13.427517021242618"><ele>1111.6</ele><time>2026-04-05T06:33:29.001Z</time></trkpt><trkpt lat="41.78168758073578" lon="13.427465857717507"><ele>1111.8</ele><time>2026-04-05T06:33:30.001Z</time></trkpt><trkpt lat="41.781752739101975" lon="13.427415260558151"><ele>1112.0</ele><time>2026-04-05T06:33:31.001Z</time></trkpt><trkpt lat="41.78181150773191" lon="13.427353374555643"><ele>1113.1666666666667</ele><time>2026-04-05T06:33:32.001Z</time></trkpt><trkpt lat="41.78186222925769" lon="13.427281349507748"><ele>1114.3333333333335</ele><time>2026-04-05T06:33:33.002Z</time></trkpt><trkpt lat="41.78190936480176" lon="13.427208435309852"><ele>1115.5</ele><time>2026-04-05T06:33:34.002Z</time></trkpt><trkpt lat="41.78195525780931" lon="13.427129424082302"><ele>1116.6666666666667</ele><time>2026-04-05T06:33:35.002Z</time></trkpt><trkpt lat="41.781996089750514" lon="13.427064394733693"><ele>1117.8333333333333</ele><time>2026-04-05T06:33:36.002Z</time></trkpt><trkpt lat="41.78207433643192" lon="13.426936967156403"><ele>1119.0</ele><time>2026-04-05T06:33:38.002Z</time></trkpt><trkpt lat="41.782138503102914" lon="13.426873504355624"><ele>1114.8</ele><time>2026-04-05T06:33:39.002Z</time></trkpt><trkpt lat="41.782213721097975" lon="13.426871085856158"><ele>1110.6000000000001</ele><time>2026-04-05T06:33:40.002Z</time></trkpt><trkpt lat="41.7823238129204" lon="13.42690291725816"><ele>1106.4</ele><time>2026-04-05T06:33:42.002Z</time></trkpt><trkpt lat="41.7824248806181" lon="13.426961164881943"><ele>1102.2</ele><time>2026-04-05T06:33:43.002Z</time></trkpt><trkpt lat="41.782540061804276" lon="13.427036416745787"><ele>1098.0</ele><time>2026-04-05T06:33:44.002Z</time></trkpt><trkpt lat="41.78264775804559" lon="13.427063932227625"><ele>1096.5</ele><time>2026-04-05T06:33:45.002Z</time></trkpt><trkpt lat="41.78273675492469" lon="13.427102683299724"><ele>1095.0</ele><time>2026-04-05T06:33:46.002Z</time></trkpt><trkpt lat="41.78280122325041" lon="13.42717127787954"><ele>1093.5</ele><time>2026-04-05T06:33:47.002Z</time></trkpt><trkpt lat="41.78285081874958" lon="13.427234413963523"><ele>1092.0</ele><time>2026-04-05T06:33:48.002Z</time></trkpt><trkpt lat="41.782898686970775" lon="13.427290890373907"><ele>1090.5</ele><time>2026-04-05T06:33:49.002Z</time></trkpt><trkpt lat="41.78296409842228" lon="13.427312924566197"><ele>1089.0</ele><time>2026-04-05T06:33:50.002Z</time></trkpt><trkpt lat="41.78304162612309" lon="13.427304839768155"><ele>1094.4</ele><time>2026-04-05T06:33:51.002Z</time></trkpt><trkpt lat="41.78313202926238" lon="13.427267264717145"><ele>1099.8000000000002</ele><time>2026-04-05T06:33:52Z</time></trkpt><trkpt lat="41.78321263451539" lon="13.42722838152836"><ele>1105.1999999999998</ele><time>2026-04-05T06:33:53Z</time></trkpt><trkpt lat="41.783287462602054" lon="13.427169166958237"><ele>1110.6</ele><time>2026-04-05T06:33:54Z</time></trkpt><trkpt lat="41.78335718007649" lon="13.427144399051528"><ele>1116.0</ele><time>2026-04-05T06:33:55Z</time></trkpt><trkpt lat="41.78346188232068" lon="13.427211127784023"><ele>1116.0</ele><time>2026-04-05T06:33:57Z</time></trkpt><trkpt lat="41.78350089064094" lon="13.427380036801667"><ele>1116.0</ele><time>2026-04-05T06:33:59Z</time></trkpt><trkpt lat="41.78349766883209" lon="13.427469500292553"><ele>1116.0</ele><time>2026-04-05T06:34:00Z</time></trkpt><trkpt lat="41.78353667017424" lon="13.427581579926162"><ele>1116.0</ele><time>2026-04-05T06:34:02Z</time></trkpt><trkpt lat="41.78366245885227" lon="13.427613348249812"><ele>1116.0</ele><time>2026-04-05T06:34:04Z</time></trkpt><trkpt lat="41.7837611058545" lon="13.427576991248586"><ele>1117.0</ele><time>2026-04-05T06:34:05Z</time></trkpt><trkpt lat="41.783861617242366" lon="13.427546175836747"><ele>1118.0</ele><time>2026-04-05T06:34:06Z</time></trkpt><trkpt lat="41.78394037501462" lon="13.427514225859833"><ele>1119.0</ele><time>2026-04-05T06:34:07Z</time></trkpt><trkpt lat="41.7840063403212" lon="13.427473383529668"><ele>1120.0</ele><time>2026-04-05T06:34:08Z</time></trkpt><trkpt lat="41.7840506120051" lon="13.427408122004527"><ele>1121.0</ele><time>2026-04-05T06:34:09Z</time></trkpt><trkpt lat="41.78409198064919" lon="13.427331288760048"><ele>1122.0</ele><time>2026-04-05T06:34:10Z</time></trkpt><trkpt lat="41.78411799815059" lon="13.427234822104982"><ele>1118.4</ele><time>2026-04-05T06:34:11Z</time></trkpt><trkpt lat="41.784137022913534" lon="13.427107770917454"><ele>1114.8000000000002</ele><time>2026-04-05T06:34:12Z</time></trkpt><trkpt lat="41.784135797952324" lon="13.426966642570218"><ele>1111.2</ele><time>2026-04-05T06:34:13Z</time></trkpt><trkpt lat="41.784118443796714" lon="13.426858840090802"><ele>1107.6000000000001</ele><time>2026-04-05T06:34:14Z</time></trkpt><trkpt lat="41.78410828604964" lon="13.42677457285683"><ele>1104.0</ele><time>2026-04-05T06:34:15Z</time></trkpt><trkpt lat="41.78414661272091" lon="13.42664723438928"><ele>1104.0</ele><time>2026-04-05T06:34:17Z</time></trkpt><trkpt lat="41.784250833904004" lon="13.426629519902495"><ele>1104.0</ele><time>2026-04-05T06:34:19Z</time></trkpt><trkpt lat="41.784328988100945" lon="13.42675551356154"><ele>1104.0</ele><time>2026-04-05T06:34:21Z</time></trkpt><trkpt lat="41.78434625995239" lon="13.42684225198964"><ele>1104.0</ele><time>2026-04-05T06:34:22Z</time></trkpt><trkpt lat="41.78437479195882" lon="13.42692329040046"><ele>1104.0</ele><time>2026-04-05T06:34:23Z</time></trkpt><trkpt lat="41.78442403954328" lon="13.427000736464457"><ele>1104.0</ele><time>2026-04-05T06:34:24Z</time></trkpt><trkpt lat="41.78448061220312" lon="13.427056062205281"><ele>1105.4</ele><time>2026-04-05T06:34:25Z</time></trkpt><trkpt lat="41.784614092348505" lon="13.427027295761524"><ele>1106.8000000000002</ele><time>2026-04-05T06:34:27Z</time></trkpt><trkpt lat="41.78467771563511" lon="13.42698106641887"><ele>1108.1999999999998</ele><time>2026-04-05T06:34:28Z</time></trkpt><trkpt lat="41.784742104504055" lon="13.426953857165161"><ele>1109.6</ele><time>2026-04-05T06:34:29Z</time></trkpt><trkpt lat="41.78480677587585" lon="13.426956398689814"><ele>1111.0</ele><time>2026-04-05T06:34:30Z</time></trkpt><trkpt lat="41.784902365017246" lon="13.427055024690663"><ele>1111.0</ele><time>2026-04-05T06:34:32Z</time></trkpt><trkpt lat="41.784955668096075" lon="13.427128222254952"><ele>1111.0</ele><time>2026-04-05T06:34:33Z</time></trkpt><trkpt lat="41.785023106858134" lon="13.427172393071109"><ele>1111.0</ele><time>2026-04-05T06:34:34.001Z</time></trkpt><trkpt lat="41.78511648245898" lon="13.427184627737045"><ele>1111.0</ele><time>2026-04-05T06:34:35.001Z</time></trkpt><trkpt lat="41.78522200511335" lon="13.427173195451445"><ele>1111.0</ele><time>2026-04-05T06:34:36.001Z</time></trkpt><trkpt lat="41.785338448964865" lon="13.427161174278984"><ele>1115.6</ele><time>2026-04-05T06:34:37.001Z</time></trkpt><trkpt lat="41.78544739100475" lon="13.427149004619336"><ele>1120.1999999999998</ele><time>2026-04-05T06:34:38.001Z</time></trkpt><trkpt lat="41.78551327669301" lon="13.427098226695382"><ele>1124.8000000000002</ele><time>2026-04-05T06:34:39.001Z</time></trkpt><trkpt lat="41.78558290678934" lon="13.42705029942915"><ele>1129.4</ele><time>2026-04-05T06:34:40.001Z</time></trkpt><trkpt lat="41.785630854749485" lon="13.42694485057873"><ele>1134.0</ele><time>2026-04-05T06:34:41.001Z</time></trkpt><trkpt lat="41.78567417822856" lon="13.426804960479156"><ele>1134.0</ele><time>2026-04-05T06:34:42.001Z</time></trkpt><trkpt lat="41.78569639564039" lon="13.426671123634028"><ele>1134.0</ele><time>2026-04-05T06:34:43.001Z</time></trkpt><trkpt lat="41.7857235899263" lon="13.426527473757893"><ele>1134.0</ele><time>2026-04-05T06:34:44.001Z</time></trkpt><trkpt lat="41.78574403238174" lon="13.426391536253917"><ele>1134.0</ele><time>2026-04-05T06:34:45.001Z</time></trkpt><trkpt lat="41.78573714629102" lon="13.426256891276536"><ele>1134.0</ele><time>2026-04-05T06:34:46.001Z</time></trkpt><trkpt lat="41.78572859426388" lon="13.426112276091716"><ele>1133.6000000000001</ele><time>2026-04-05T06:34:47.001Z</time></trkpt><trkpt lat="41.785737652961025" lon="13.425982296939496"><ele>1133.2</ele><time>2026-04-05T06:34:48.001Z</time></trkpt><trkpt lat="41.785757066467916" lon="13.425879269038637"><ele>1132.8000000000002</ele><time>2026-04-05T06:34:49.001Z</time></trkpt><trkpt lat="41.78586183108567" lon="13.425790351060536"><ele>1132.4</ele><time>2026-04-05T06:34:51.001Z</time></trkpt><trkpt lat="41.78594727329802" lon="13.425775033597315"><ele>1132.0</ele><time>2026-04-05T06:34:52.001Z</time></trkpt><trkpt lat="41.78605637492886" lon="13.425757785890218"><ele>1132.0</ele><time>2026-04-05T06:34:53.001Z</time></trkpt><trkpt lat="41.78616536138398" lon="13.425746312314626"><ele>1132.0</ele><time>2026-04-05T06:34:54.001Z</time></trkpt><trkpt lat="41.786246225785725" lon="13.425745143187099"><ele>1132.0</ele><time>2026-04-05T06:34:55.001Z</time></trkpt><trkpt lat="41.786314365847105" lon="13.425765392721086"><ele>1132.0</ele><time>2026-04-05T06:34:56.001Z</time></trkpt><trkpt lat="41.78640656353507" lon="13.425833552445082"><ele>1132.0</ele><time>2026-04-05T06:34:58.001Z</time></trkpt><trkpt lat="41.786457408708344" lon="13.425918089402698"><ele>1132.0</ele><time>2026-04-05T06:35:00.001Z</time></trkpt><trkpt lat="41.78648637866527" lon="13.426017485286792"><ele>1132.0</ele><time>2026-04-05T06:35:02.001Z</time></trkpt><trkpt lat="41.786483033063796" lon="13.426113261104872"><ele>1132.0</ele><time>2026-04-05T06:35:04.001Z</time></trkpt><trkpt lat="41.78652537783669" lon="13.42617849060456"><ele>1132.0</ele><time>2026-04-05T06:35:07.001Z</time></trkpt><trkpt lat="41.7865721069832" lon="13.42624538355724"><ele>1132.0</ele><time>2026-04-05T06:35:09.001Z</time></trkpt><trkpt lat="41.78662328816851" lon="13.426305323058514"><ele>1132.0</ele><time>2026-04-05T06:35:10.001Z</time></trkpt><trkpt lat="41.78669305985847" lon="13.426373475782363"><ele>1132.0</ele><time>2026-04-05T06:35:11.001Z</time></trkpt><trkpt lat="41.7867610156569" lon="13.426421924668936"><ele>1132.0</ele><time>2026-04-05T06:35:12.001Z</time></trkpt><trkpt lat="41.78684845491524" lon="13.426463326440306"><ele>1133.5</ele><time>2026-04-05T06:35:13.001Z</time></trkpt><trkpt lat="41.786945921611725" lon="13.426486626721916"><ele>1135.0</ele><time>2026-04-05T06:35:14.001Z</time></trkpt><trkpt lat="41.787035536345876" lon="13.426534582772476"><ele>1136.5</ele><time>2026-04-05T06:35:15.001Z</time></trkpt><trkpt lat="41.78710119604244" lon="13.426592570495721"><ele>1138.0</ele><time>2026-04-05T06:35:16.001Z</time></trkpt><trkpt lat="41.78718114191281" lon="13.426655947179091"><ele>1139.5</ele><time>2026-04-05T06:35:17.001Z</time></trkpt><trkpt lat="41.78723359580579" lon="13.426708465590268"><ele>1141.0</ele><time>2026-04-05T06:35:18.001Z</time></trkpt><trkpt lat="41.78726783739615" lon="13.426792443912124"><ele>1141.0</ele><time>2026-04-05T06:35:19.001Z</time></trkpt><trkpt lat="41.787293222436986" lon="13.426898047105402"><ele>1141.0</ele><time>2026-04-05T06:35:20.001Z</time></trkpt><trkpt lat="41.78733001027917" lon="13.427009968524"><ele>1141.0</ele><time>2026-04-05T06:35:21.001Z</time></trkpt><trkpt lat="41.78738935112174" lon="13.427123453167818"><ele>1141.0</ele><time>2026-04-05T06:35:22.001Z</time></trkpt><trkpt lat="41.78745555413105" lon="13.427238005783522"><ele>1141.0</ele><time>2026-04-05T06:35:23.001Z</time></trkpt><trkpt lat="41.78752513414943" lon="13.427324211041025"><ele>1141.6666666666665</ele><time>2026-04-05T06:35:24.001Z</time></trkpt><trkpt lat="41.78760777116217" lon="13.427407166317774"><ele>1142.3333333333333</ele><time>2026-04-05T06:35:25.001Z</time></trkpt><trkpt lat="41.78766553315019" lon="13.427513391455141"><ele>1143.0</ele><time>2026-04-05T06:35:26.001Z</time></trkpt><trkpt lat="41.787719936685704" lon="13.427574626102762"><ele>1143.6666666666667</ele><time>2026-04-05T06:35:27.001Z</time></trkpt><trkpt lat="41.7877845023939" lon="13.427643938764058"><ele>1144.3333333333335</ele><time>2026-04-05T06:35:28.001Z</time></trkpt><trkpt lat="41.78784190704967" lon="13.427700914904275"><ele>1145.0</ele><time>2026-04-05T06:35:29.001Z</time></trkpt><trkpt lat="41.78789639267943" lon="13.427761373113736"><ele>1145.0</ele><time>2026-04-05T06:35:30.001Z</time></trkpt><trkpt lat="41.78794471225993" lon="13.427829190905321"><ele>1145.0</ele><time>2026-04-05T06:35:31.001Z</time></trkpt><trkpt lat="41.788003466560106" lon="13.427880762006568"><ele>1145.0</ele><time>2026-04-05T06:35:32.001Z</time></trkpt><trkpt lat="41.78805022583987" lon="13.428020763398266"><ele>1145.0</ele><time>2026-04-05T06:35:34.001Z</time></trkpt><trkpt lat="41.7880651677594" lon="13.42811990255551"><ele>1145.0</ele><time>2026-04-05T06:35:35.001Z</time></trkpt><trkpt lat="41.78806425208331" lon="13.428238184827809"><ele>1145.0</ele><time>2026-04-05T06:35:36.001Z</time></trkpt><trkpt lat="41.78807486809037" lon="13.428382506166557"><ele>1146.0</ele><time>2026-04-05T06:35:37.002Z</time></trkpt><trkpt lat="41.78807504202024" lon="13.428539629385186"><ele>1147.0</ele><time>2026-04-05T06:35:38.002Z</time></trkpt><trkpt lat="41.78809478297556" lon="13.428729729289824"><ele>1148.0</ele><time>2026-04-05T06:35:39.002Z</time></trkpt><trkpt lat="41.78810686426384" lon="13.428902938069996"><ele>1149.0</ele><time>2026-04-05T06:35:40.002Z</time></trkpt><trkpt lat="41.78810923217798" lon="13.429066382247674"><ele>1150.75</ele><time>2026-04-05T06:35:41.002Z</time></trkpt><trkpt lat="41.788124568276395" lon="13.42920238001329"><ele>1152.5</ele><time>2026-04-05T06:35:42.002Z</time></trkpt><trkpt lat="41.78814291691904" lon="13.42936797211727"><ele>1154.25</ele><time>2026-04-05T06:35:43.002Z</time></trkpt><trkpt lat="41.78815026352712" lon="13.429530225177285"><ele>1156.0</ele><time>2026-04-05T06:35:44.002Z</time></trkpt><trkpt lat="41.7881282110203" lon="13.429694052965898"><ele>1158.0</ele><time>2026-04-05T06:35:45.002Z</time></trkpt><trkpt lat="41.788106379090564" lon="13.429837696456406"><ele>1160.0</ele><time>2026-04-05T06:35:46.002Z</time></trkpt><trkpt lat="41.78811283518708" lon="13.429987640386432"><ele>1162.0</ele><time>2026-04-05T06:35:47.002Z</time></trkpt><trkpt lat="41.78810010837382" lon="13.430124872041533"><ele>1164.0</ele><time>2026-04-05T06:35:48.002Z</time></trkpt><trkpt lat="41.7880780851611" lon="13.430246440643947"><ele>1166.0</ele><time>2026-04-05T06:35:49.002Z</time></trkpt><trkpt lat="41.78806162841052" lon="13.430382282277133"><ele>1169.8</ele><time>2026-04-05T06:35:50.002Z</time></trkpt><trkpt lat="41.788039933582986" lon="13.43052849285632"><ele>1173.6</ele><time>2026-04-05T06:35:51.002Z</time></trkpt><trkpt lat="41.7880204689502" lon="13.430645515514778"><ele>1177.4</ele><time>2026-04-05T06:35:52.002Z</time></trkpt><trkpt lat="41.787976946460596" lon="13.430760646575434"><ele>1181.2</ele><time>2026-04-05T06:35:53.002Z</time></trkpt><trkpt lat="41.787944525862315" lon="13.430883902029938"><ele>1185.0</ele><time>2026-04-05T06:35:54.002Z</time></trkpt><trkpt lat="41.7879218069209" lon="13.431002014067552"><ele>1185.0</ele><time>2026-04-05T06:35:55.002Z</time></trkpt><trkpt lat="41.78790241779762" lon="13.431128019592094"><ele>1185.0</ele><time>2026-04-05T06:35:56.002Z</time></trkpt><trkpt lat="41.78787665120796" lon="13.431268340480022"><ele>1185.0</ele><time>2026-04-05T06:35:57.002Z</time></trkpt><trkpt lat="41.787868625630146" lon="13.431386583309191"><ele>1185.0</ele><time>2026-04-05T06:35:58Z</time></trkpt><trkpt lat="41.78793078843275" lon="13.4315273816681"><ele>1185.0</ele><time>2026-04-05T06:36:00Z</time></trkpt><trkpt lat="41.78798506235346" lon="13.431582374304238"><ele>1187.6</ele><time>2026-04-05T06:36:01Z</time></trkpt><trkpt lat="41.78804473999991" lon="13.43165236347935"><ele>1190.2</ele><time>2026-04-05T06:36:02Z</time></trkpt><trkpt lat="41.78813165919785" lon="13.43174064548184"><ele>1192.8</ele><time>2026-04-05T06:36:04Z</time></trkpt><trkpt lat="41.78824472832597" lon="13.43181680337947"><ele>1195.4</ele><time>2026-04-05T06:36:06Z</time></trkpt><trkpt lat="41.78831301911293" lon="13.431853711175991"><ele>1198.0</ele><time>2026-04-05T06:36:07Z</time></trkpt><trkpt lat="41.78837712464879" lon="13.431889112294046"><ele>1198.0</ele><time>2026-04-05T06:36:08Z</time></trkpt><trkpt lat="41.78842845866266" lon="13.431939495178948"><ele>1198.0</ele><time>2026-04-05T06:36:09Z</time></trkpt><trkpt lat="41.788483664326144" lon="13.432121179296175"><ele>1198.0</ele><time>2026-04-05T06:36:11Z</time></trkpt><trkpt lat="41.78849161646159" lon="13.432244142468285"><ele>1198.0</ele><time>2026-04-05T06:36:12Z</time></trkpt><trkpt lat="41.7884888249304" lon="13.43234586684676"><ele>1198.0</ele><time>2026-04-05T06:36:13Z</time></trkpt><trkpt lat="41.788481426747516" lon="13.43243941402361"><ele>1198.0</ele><time>2026-04-05T06:36:14Z</time></trkpt><trkpt lat="41.78845771155559" lon="13.432546593760598"><ele>1196.6666666666665</ele><time>2026-04-05T06:36:15Z</time></trkpt><trkpt lat="41.788446022982676" lon="13.432652309217817"><ele>1195.3333333333333</ele><time>2026-04-05T06:36:16Z</time></trkpt><trkpt lat="41.78843703351481" lon="13.43276070294735"><ele>1194.0</ele><time>2026-04-05T06:36:17Z</time></trkpt><trkpt lat="41.78844914794361" lon="13.432875352929539"><ele>1192.6666666666667</ele><time>2026-04-05T06:36:18Z</time></trkpt><trkpt lat="41.78846865198427" lon="13.432978417952285"><ele>1191.3333333333335</ele><time>2026-04-05T06:36:19Z</time></trkpt><trkpt lat="41.78850295563944" lon="13.433080666709488"><ele>1190.0</ele><time>2026-04-05T06:36:20Z</time></trkpt><trkpt lat="41.78854495201817" lon="13.433192042274946"><ele>1190.0</ele><time>2026-04-05T06:36:21Z</time></trkpt><trkpt lat="41.7885844339553" lon="13.433311235283112"><ele>1190.0</ele><time>2026-04-05T06:36:22Z</time></trkpt><trkpt lat="41.78860924038332" lon="13.433436399586851"><ele>1190.0</ele><time>2026-04-05T06:36:23Z</time></trkpt><trkpt lat="41.78862498358386" lon="13.43357024885198"><ele>1190.0</ele><time>2026-04-05T06:36:24Z</time></trkpt><trkpt lat="41.78863972157653" lon="13.433697633878417"><ele>1190.0</ele><time>2026-04-05T06:36:25Z</time></trkpt><trkpt lat="41.78865424951667" lon="13.433824398710689"><ele>1193.4</ele><time>2026-04-05T06:36:26Z</time></trkpt><trkpt lat="41.78865580955515" lon="13.433969509593402"><ele>1196.8</ele><time>2026-04-05T06:36:27Z</time></trkpt><trkpt lat="41.788667417397754" lon="13.43410780972101"><ele>1200.2</ele><time>2026-04-05T06:36:28Z</time></trkpt><trkpt lat="41.788701130585906" lon="13.434240071511466"><ele>1203.6</ele><time>2026-04-05T06:36:29Z</time></trkpt><trkpt lat="41.78873909298431" lon="13.434379140843832"><ele>1207.0</ele><time>2026-04-05T06:36:30Z</time></trkpt><trkpt lat="41.78878925717327" lon="13.434506789472705"><ele>1207.0</ele><time>2026-04-05T06:36:31Z</time></trkpt><trkpt lat="41.788865113210925" lon="13.434618881732257"><ele>1207.0</ele><time>2026-04-05T06:36:32Z</time></trkpt><trkpt lat="41.78895552271833" lon="13.434719877890629"><ele>1207.0</ele><time>2026-04-05T06:36:33Z</time></trkpt><trkpt lat="41.78904437387417" lon="13.434768370181615"><ele>1207.0</ele><time>2026-04-05T06:36:34Z</time></trkpt><trkpt lat="41.789160348674294" lon="13.434788321274599"><ele>1207.0</ele><time>2026-04-05T06:36:35Z</time></trkpt><trkpt lat="41.78929722008735" lon="13.434822676970052"><ele>1210.0</ele><time>2026-04-05T06:36:36Z</time></trkpt><trkpt lat="41.789439608348665" lon="13.434866663229199"><ele>1213.0</ele><time>2026-04-05T06:36:37Z</time></trkpt><trkpt lat="41.789554650680685" lon="13.434894880268214"><ele>1216.0</ele><time>2026-04-05T06:36:38Z</time></trkpt><trkpt lat="41.78964530466492" lon="13.434902555870849"><ele>1219.0</ele><time>2026-04-05T06:36:39Z</time></trkpt><trkpt lat="41.789714153300345" lon="13.434931313643945"><ele>1222.0</ele><time>2026-04-05T06:36:40.001Z</time></trkpt><trkpt lat="41.78978841864322" lon="13.435063669099504"><ele>1222.0</ele><time>2026-04-05T06:36:42.001Z</time></trkpt><trkpt lat="41.78981842229506" lon="13.435178312258277"><ele>1222.0</ele><time>2026-04-05T06:36:43.001Z</time></trkpt><trkpt lat="41.78986007367812" lon="13.435286755126306"><ele>1222.0</ele><time>2026-04-05T06:36:44.001Z</time></trkpt><trkpt lat="41.78989521439434" lon="13.435432520012876"><ele>1222.0</ele><time>2026-04-05T06:36:45.001Z</time></trkpt><trkpt lat="41.78995492912861" lon="13.435569649713127"><ele>1222.0</ele><time>2026-04-05T06:36:46.001Z</time></trkpt><trkpt lat="41.790021060556384" lon="13.43571028529564"><ele>1220.2</ele><time>2026-04-05T06:36:47.001Z</time></trkpt><trkpt lat="41.790096091700505" lon="13.435843883978976"><ele>1218.4</ele><time>2026-04-05T06:36:48.001Z</time></trkpt><trkpt lat="41.790155568883165" lon="13.435962594015727"><ele>1216.6</ele><time>2026-04-05T06:36:49.001Z</time></trkpt><trkpt lat="41.79022114688954" lon="13.436067948836419"><ele>1214.8</ele><time>2026-04-05T06:36:50.001Z</time></trkpt><trkpt lat="41.79029693045006" lon="13.436155965775614"><ele>1213.0</ele><time>2026-04-05T06:36:51.001Z</time></trkpt><trkpt lat="41.790395458285765" lon="13.436217861193821"><ele>1213.0</ele><time>2026-04-05T06:36:52.001Z</time></trkpt><trkpt lat="41.790500506296446" lon="13.43625129813006"><ele>1213.0</ele><time>2026-04-05T06:36:53.001Z</time></trkpt><trkpt lat="41.790588433910514" lon="13.436281640039185"><ele>1213.0</ele><time>2026-04-05T06:36:54.001Z</time></trkpt><trkpt lat="41.79064842341947" lon="13.436308299837902"><ele>1213.0</ele><time>2026-04-05T06:36:55.001Z</time></trkpt><trkpt lat="41.790681107889604" lon="13.436381459722329"><ele>1213.0</ele><time>2026-04-05T06:36:56.001Z</time></trkpt><trkpt lat="41.79070367026834" lon="13.436488864717429"><ele>1213.0</ele><time>2026-04-05T06:36:57.001Z</time></trkpt><trkpt lat="41.7907273191875" lon="13.436618695214989"><ele>1219.2</ele><time>2026-04-05T06:36:58.001Z</time></trkpt><trkpt lat="41.79078760787984" lon="13.43674774948333"><ele>1225.4</ele><time>2026-04-05T06:36:59.001Z</time></trkpt><trkpt lat="41.79086981930687" lon="13.436845924506684"><ele>1231.6000000000001</ele><time>2026-04-05T06:37:00.001Z</time></trkpt><trkpt lat="41.79094370515956" lon="13.436931376625383"><ele>1237.8</ele><time>2026-04-05T06:37:01.001Z</time></trkpt><trkpt lat="41.7909755333886" lon="13.437011774416076"><ele>1244.0</ele><time>2026-04-05T06:37:02.001Z</time></trkpt><trkpt lat="41.79098624967624" lon="13.437108853348963"><ele>1248.2</ele><time>2026-04-05T06:37:03.001Z</time></trkpt><trkpt lat="41.79097231398843" lon="13.437210471183208"><ele>1252.4</ele><time>2026-04-05T06:37:04.001Z</time></trkpt><trkpt lat="41.790956815221826" lon="13.437325639464998"><ele>1256.6</ele><time>2026-04-05T06:37:05.001Z</time></trkpt><trkpt lat="41.79095261750608" lon="13.437429738431582"><ele>1260.8</ele><time>2026-04-05T06:37:06.001Z</time></trkpt><trkpt lat="41.79095324898599" lon="13.437576153264155"><ele>1265.0</ele><time>2026-04-05T06:37:07.001Z</time></trkpt><trkpt lat="41.79096258258172" lon="13.437710397101801"><ele>1265.0</ele><time>2026-04-05T06:37:08.001Z</time></trkpt><trkpt lat="41.79095010139491" lon="13.437848473465937"><ele>1265.0</ele><time>2026-04-05T06:37:09.001Z</time></trkpt><trkpt lat="41.79090151114301" lon="13.438001050506426"><ele>1265.0</ele><time>2026-04-05T06:37:10.001Z</time></trkpt><trkpt lat="41.79085837897908" lon="13.438158815409741"><ele>1265.0</ele><time>2026-04-05T06:37:11.001Z</time></trkpt><trkpt lat="41.790833699293" lon="13.438314647834849"><ele>1266.5</ele><time>2026-04-05T06:37:12.001Z</time></trkpt><trkpt lat="41.79082774840168" lon="13.438469826073616"><ele>1268.0</ele><time>2026-04-05T06:37:13.001Z</time></trkpt><trkpt lat="41.790807846630216" lon="13.438659699860414"><ele>1269.5</ele><time>2026-04-05T06:37:14.001Z</time></trkpt><trkpt lat="41.79081403363048" lon="13.438836038989136"><ele>1271.0</ele><time>2026-04-05T06:37:15.001Z</time></trkpt><trkpt lat="41.79082523610658" lon="13.438984073136897"><ele>1272.5</ele><time>2026-04-05T06:37:16.001Z</time></trkpt><trkpt lat="41.79084137062978" lon="13.439122680654098"><ele>1274.0</ele><time>2026-04-05T06:37:17.001Z</time></trkpt><trkpt lat="41.790854789200175" lon="13.43928402453251"><ele>1275.5</ele><time>2026-04-05T06:37:18.001Z</time></trkpt><trkpt lat="41.79086670302323" lon="13.43947098876248"><ele>1277.0</ele><time>2026-04-05T06:37:19.001Z</time></trkpt><trkpt lat="41.790867882963575" lon="13.439637634481851"><ele>1278.6</ele><time>2026-04-05T06:37:20.001Z</time></trkpt><trkpt lat="41.79086338872329" lon="13.439779599846448"><ele>1280.2</ele><time>2026-04-05T06:37:21.001Z</time></trkpt><trkpt lat="41.79086268131593" lon="13.439907008587168"><ele>1281.8</ele><time>2026-04-05T06:37:22.001Z</time></trkpt><trkpt lat="41.790856084491374" lon="13.440030411675279"><ele>1283.4</ele><time>2026-04-05T06:37:23.001Z</time></trkpt><trkpt lat="41.79084464366052" lon="13.44011884987776"><ele>1285.0</ele><time>2026-04-05T06:37:24.001Z</time></trkpt><trkpt lat="41.79084078352133" lon="13.440247055881999"><ele>1285.0</ele><time>2026-04-05T06:37:25.001Z</time></trkpt><trkpt lat="41.79084391069265" lon="13.440375110035637"><ele>1285.0</ele><time>2026-04-05T06:37:26.001Z</time></trkpt><trkpt lat="41.79086835711134" lon="13.44049735954483"><ele>1285.0</ele><time>2026-04-05T06:37:27.001Z</time></trkpt><trkpt lat="41.790815634101406" lon="13.440610156942931"><ele>1285.0</ele><time>2026-04-05T06:37:28.001Z</time></trkpt><trkpt lat="41.790760355679346" lon="13.440700130780236"><ele>1285.0</ele><time>2026-04-05T06:37:29.001Z</time></trkpt><trkpt lat="41.79070002182415" lon="13.440817891988356"><ele>1285.6666666666665</ele><time>2026-04-05T06:37:30.001Z</time></trkpt><trkpt lat="41.790636873683155" lon="13.440904620546926"><ele>1286.3333333333333</ele><time>2026-04-05T06:37:31.001Z</time></trkpt><trkpt lat="41.79055952393015" lon="13.440977554197792"><ele>1287.0</ele><time>2026-04-05T06:37:32.001Z</time></trkpt><trkpt lat="41.79051265645183" lon="13.441050183450914"><ele>1287.6666666666667</ele><time>2026-04-05T06:37:33.001Z</time></trkpt><trkpt lat="41.79046915618593" lon="13.441160476987921"><ele>1288.3333333333335</ele><time>2026-04-05T06:37:35.001Z</time></trkpt><trkpt lat="41.790502267775764" lon="13.441236576992305"><ele>1289.0</ele><time>2026-04-05T06:37:37.001Z</time></trkpt><trkpt lat="41.790615369878" lon="13.441166561088924"><ele>1289.0</ele><time>2026-04-05T06:37:39.001Z</time></trkpt><trkpt lat="41.79066427974929" lon="13.441090074372173"><ele>1289.0</ele><time>2026-04-05T06:37:40.001Z</time></trkpt><trkpt lat="41.79072772839886" lon="13.441009210011947"><ele>1289.0</ele><time>2026-04-05T06:37:41.001Z</time></trkpt><trkpt lat="41.790799421418875" lon="13.440903315104801"><ele>1289.0</ele><time>2026-04-05T06:37:42.001Z</time></trkpt><trkpt lat="41.79086623305621" lon="13.44079320691826"><ele>1289.0</ele><time>2026-04-05T06:37:43.001Z</time></trkpt><trkpt lat="41.79095063971242" lon="13.440686774515292"><ele>1292.4</ele><time>2026-04-05T06:37:44.001Z</time></trkpt><trkpt lat="41.79101915990598" lon="13.440574963762506"><ele>1295.8000000000002</ele><time>2026-04-05T06:37:45.002Z</time></trkpt><trkpt lat="41.79107159946224" lon="13.440467894827783"><ele>1299.1999999999998</ele><time>2026-04-05T06:37:46.002Z</time></trkpt><trkpt lat="41.79112352777916" lon="13.44037529786091"><ele>1302.6</ele><time>2026-04-05T06:37:47.002Z</time></trkpt><trkpt lat="41.79117363174547" lon="13.440279642818998"><ele>1306.0</ele><time>2026-04-05T06:37:48.002Z</time></trkpt><trkpt lat="41.7912269990519" lon="13.440179345038024"><ele>1306.0</ele><time>2026-04-05T06:37:49.002Z</time></trkpt><trkpt lat="41.791293833592334" lon="13.44007571121314"><ele>1306.0</ele><time>2026-04-05T06:37:50.002Z</time></trkpt><trkpt lat="41.79137082905451" lon="13.439981714745846"><ele>1306.0</ele><time>2026-04-05T06:37:51.002Z</time></trkpt><trkpt lat="41.79144107149237" lon="13.439887574974836"><ele>1306.0</ele><time>2026-04-05T06:37:52.002Z</time></trkpt><trkpt lat="41.79149764697776" lon="13.439791713946061"><ele>1306.0</ele><time>2026-04-05T06:37:53.002Z</time></trkpt><trkpt lat="41.791548561724895" lon="13.43970541773873"><ele>1307.1999999999998</ele><time>2026-04-05T06:37:54.002Z</time></trkpt><trkpt lat="41.791605122018794" lon="13.439604134736866"><ele>1308.3999999999999</ele><time>2026-04-05T06:37:55.002Z</time></trkpt><trkpt lat="41.791669399099845" lon="13.439507055613705"><ele>1309.6</ele><time>2026-04-05T06:37:56.002Z</time></trkpt><trkpt lat="41.79173411234685" lon="13.43942801007203"><ele>1310.8</ele><time>2026-04-05T06:37:57.002Z</time></trkpt><trkpt lat="41.791815285778554" lon="13.439359926653234"><ele>1312.0</ele><time>2026-04-05T06:37:58.002Z</time></trkpt><trkpt lat="41.79190427278509" lon="13.439294666188937"><ele>1312.0</ele><time>2026-04-05T06:37:59.002Z</time></trkpt><trkpt lat="41.79198009843082" lon="13.439211394509652"><ele>1312.0</ele><time>2026-04-05T06:38:00.002Z</time></trkpt><trkpt lat="41.7920564897883" lon="13.43912369632273"><ele>1312.0</ele><time>2026-04-05T06:38:01.002Z</time></trkpt><trkpt lat="41.7921449938922" lon="13.439035631411313"><ele>1312.0</ele><time>2026-04-05T06:38:02.002Z</time></trkpt><trkpt lat="41.79224155336584" lon="13.438947252118002"><ele>1312.0</ele><time>2026-04-05T06:38:03.002Z</time></trkpt><trkpt lat="41.7923290984299" lon="13.438864143824727"><ele>1306.6</ele><time>2026-04-05T06:38:04Z</time></trkpt><trkpt lat="41.79239910014758" lon="13.438771901307804"><ele>1301.1999999999998</ele><time>2026-04-05T06:38:05Z</time></trkpt><trkpt lat="41.79247369902156" lon="13.438655261992892"><ele>1295.8</ele><time>2026-04-05T06:38:06Z</time></trkpt><trkpt lat="41.79254038970564" lon="13.438537287415834"><ele>1290.4</ele><time>2026-04-05T06:38:07Z</time></trkpt><trkpt lat="41.792598186563296" lon="13.438409092895624"><ele>1285.0</ele><time>2026-04-05T06:38:08Z</time></trkpt><trkpt lat="41.792640541750856" lon="13.438288607208662"><ele>1287.6666666666665</ele><time>2026-04-05T06:38:09Z</time></trkpt><trkpt lat="41.79267916348613" lon="13.438167692231891"><ele>1290.3333333333333</ele><time>2026-04-05T06:38:10Z</time></trkpt><trkpt lat="41.79271862220263" lon="13.438050752242278"><ele>1293.0</ele><time>2026-04-05T06:38:11Z</time></trkpt><trkpt lat="41.79274977453881" lon="13.43796234363141"><ele>1295.6666666666667</ele><time>2026-04-05T06:38:12Z</time></trkpt><trkpt lat="41.79279367864333" lon="13.437901752866846"><ele>1298.3333333333335</ele><time>2026-04-05T06:38:13Z</time></trkpt><trkpt lat="41.79290794305652" lon="13.437876655157876"><ele>1301.0</ele><time>2026-04-05T06:38:15Z</time></trkpt><trkpt lat="41.79296601437254" lon="13.437928883679609"><ele>1303.1666666666667</ele><time>2026-04-05T06:38:16Z</time></trkpt><trkpt lat="41.793005316864644" lon="13.437999938227549"><ele>1305.3333333333335</ele><time>2026-04-05T06:38:17Z</time></trkpt><trkpt lat="41.79302465749587" lon="13.438083437541867"><ele>1307.5</ele><time>2026-04-05T06:38:18Z</time></trkpt><trkpt lat="41.79302252479179" lon="13.43817488074221"><ele>1309.6666666666667</ele><time>2026-04-05T06:38:19Z</time></trkpt><trkpt lat="41.793014647944915" lon="13.438264420829192"><ele>1311.8333333333333</ele><time>2026-04-05T06:38:20Z</time></trkpt><trkpt lat="41.79303166156146" lon="13.438396155758209"><ele>1314.0</ele><time>2026-04-05T06:38:22Z</time></trkpt><trkpt lat="41.79311299402137" lon="13.43843941200251"><ele>1314.0</ele><time>2026-04-05T06:38:24Z</time></trkpt><trkpt lat="41.793211305918604" lon="13.438314001636416"><ele>1314.0</ele><time>2026-04-05T06:38:26Z</time></trkpt><trkpt lat="41.79326257177598" lon="13.438213442026957"><ele>1314.0</ele><time>2026-04-05T06:38:27Z</time></trkpt><trkpt lat="41.79331555340579" lon="13.438128242426197"><ele>1314.0</ele><time>2026-04-05T06:38:28Z</time></trkpt><trkpt lat="41.793375217708004" lon="13.438055985974414"><ele>1314.0</ele><time>2026-04-05T06:38:29Z</time></trkpt><trkpt lat="41.793437489337265" lon="13.43801545487746"><ele>1317.2</ele><time>2026-04-05T06:38:30Z</time></trkpt><trkpt lat="41.79356350553032" lon="13.437988939825653"><ele>1320.4</ele><time>2026-04-05T06:38:32Z</time></trkpt><trkpt lat="41.79368188721025" lon="13.438017874738748"><ele>1323.6</ele><time>2026-04-05T06:38:34Z</time></trkpt><trkpt lat="41.79374370578526" lon="13.438065014212842"><ele>1326.8</ele><time>2026-04-05T06:38:35Z</time></trkpt><trkpt lat="41.79379692218082" lon="13.438127294863296"><ele>1330.0</ele><time>2026-04-05T06:38:36Z</time></trkpt><trkpt lat="41.79385822858604" lon="13.438195969286582"><ele>1330.0</ele><time>2026-04-05T06:38:37Z</time></trkpt><trkpt lat="41.79391539514344" lon="13.438252079196172"><ele>1330.0</ele><time>2026-04-05T06:38:38Z</time></trkpt><trkpt lat="41.7939842302368" lon="13.438292498071789"><ele>1330.0</ele><time>2026-04-05T06:38:39Z</time></trkpt><trkpt lat="41.79405505590306" lon="13.4383562572925"><ele>1330.0</ele><time>2026-04-05T06:38:41Z</time></trkpt><trkpt lat="41.79402112462762" lon="13.438465615442228"><ele>1330.0</ele><time>2026-04-05T06:38:44Z</time></trkpt><trkpt lat="41.79391137543958" lon="13.438464844106997"><ele>1330.0</ele><time>2026-04-05T06:38:46.001Z</time></trkpt><trkpt lat="41.793836099658975" lon="13.438468646561352"><ele>1330.0</ele><time>2026-04-05T06:38:47.001Z</time></trkpt><trkpt lat="41.79376230398039" lon="13.438483326927813"><ele>1330.0</ele><time>2026-04-05T06:38:48.001Z</time></trkpt><trkpt lat="41.793703706029476" lon="13.4385157715144"><ele>1330.0</ele><time>2026-04-05T06:38:49.001Z</time></trkpt><trkpt lat="41.79362585428862" lon="13.438647109167569"><ele>1330.0</ele><time>2026-04-05T06:38:51.001Z</time></trkpt><trkpt lat="41.793610276260466" lon="13.438745318728701"><ele>1330.0</ele><time>2026-04-05T06:38:52.001Z</time></trkpt><trkpt lat="41.7936085503693" lon="13.438848012976136"><ele>1330.0</ele><time>2026-04-05T06:38:53.001Z</time></trkpt><trkpt lat="41.793630731888" lon="13.438941443534803"><ele>1330.6666666666665</ele><time>2026-04-05T06:38:54.001Z</time></trkpt><trkpt lat="41.79366283923865" lon="13.439021598866042"><ele>1331.3333333333333</ele><time>2026-04-05T06:38:55.001Z</time></trkpt><trkpt lat="41.79370732120534" lon="13.439105653121109"><ele>1332.0</ele><time>2026-04-05T06:38:56.001Z</time></trkpt><trkpt lat="41.79376141044901" lon="13.439192743489086"><ele>1332.6666666666667</ele><time>2026-04-05T06:38:57.001Z</time></trkpt><trkpt lat="41.79380496772597" lon="13.439296157618635"><ele>1333.3333333333335</ele><time>2026-04-05T06:38:58.001Z</time></trkpt><trkpt lat="41.793825437484244" lon="13.439402245817913"><ele>1334.0</ele><time>2026-04-05T06:38:59.001Z</time></trkpt><trkpt lat="41.79382464750411" lon="13.439510460949302"><ele>1334.0000000000002</ele><time>2026-04-05T06:39:00.001Z</time></trkpt><trkpt lat="41.79379739190557" lon="13.439612248195598"><ele>1334.0</ele><time>2026-04-05T06:39:01.001Z</time></trkpt><trkpt lat="41.79376988992868" lon="13.439705697960688"><ele>1334.0</ele><time>2026-04-05T06:39:02.001Z</time></trkpt><trkpt lat="41.79374505000391" lon="13.439790413239397"><ele>1334.0</ele><time>2026-04-05T06:39:03.001Z</time></trkpt><trkpt lat="41.79371057100621" lon="13.439904241008914"><ele>1334.0</ele><time>2026-04-05T06:39:05.001Z</time></trkpt><trkpt lat="41.79368319407516" lon="13.439987328343554"><ele>1334.0000000000002</ele><time>2026-04-05T06:39:07.001Z</time></trkpt><trkpt lat="41.79370952985998" lon="13.44006468163102"><ele>1334.0</ele><time>2026-04-05T06:39:10.001Z</time></trkpt><trkpt lat="41.79377917504055" lon="13.440093464567756"><ele>1335.3333333333335</ele><time>2026-04-05T06:39:12.001Z</time></trkpt><trkpt lat="41.79385685382023" lon="13.440092421537672"><ele>1336.6666666666667</ele><time>2026-04-05T06:39:15.001Z</time></trkpt><trkpt lat="41.793793316775094" lon="13.440048613027706"><ele>1338.0</ele><time>2026-04-05T06:40:33Z</time></trkpt><trkpt lat="41.79371111034044" lon="13.440004084286436"><ele>1339.3333333333333</ele><time>2026-04-05T06:40:36Z</time></trkpt><trkpt lat="41.79363602248557" lon="13.439964836423886"><ele>1340.6666666666665</ele><time>2026-04-05T06:40:39Z</time></trkpt><trkpt lat="41.79354377503082" lon="13.439915482251038"><ele>1342.0</ele><time>2026-04-05T06:40:41Z</time></trkpt><trkpt lat="41.793464047640924" lon="13.439929424998079"><ele>1342.0</ele><time>2026-04-05T06:40:43Z</time></trkpt><trkpt lat="41.79340862169749" lon="13.440066395616666"><ele>1342.0</ele><time>2026-04-05T06:40:46Z</time></trkpt><trkpt lat="41.79340199722145" lon="13.440155307265544"><ele>1342.0</ele><time>2026-04-05T06:40:47Z</time></trkpt><trkpt lat="41.793472951488184" lon="13.440308241301183"><ele>1342.0</ele><time>2026-04-05T06:40:49Z</time></trkpt><trkpt lat="41.79353319949674" lon="13.440388710897034"><ele>1342.0</ele><time>2026-04-05T06:40:50Z</time></trkpt><trkpt lat="41.793598772156116" lon="13.440468241290835"><ele>1345.5</ele><time>2026-04-05T06:40:51.001Z</time></trkpt><trkpt lat="41.7936788900038" lon="13.44058583560384"><ele>1349.0</ele><time>2026-04-05T06:40:53.001Z</time></trkpt><trkpt lat="41.79368428214895" lon="13.440689015994877"><ele>1352.5</ele><time>2026-04-05T06:40:55.001Z</time></trkpt><trkpt lat="41.79361375901568" lon="13.440820009196814"><ele>1356.0</ele><time>2026-04-05T06:40:57.001Z</time></trkpt><trkpt lat="41.79354076413779" lon="13.44097280995355"><ele>1356.0</ele><time>2026-04-05T06:40:59.001Z</time></trkpt><trkpt lat="41.79351270897319" lon="13.441083517802154"><ele>1356.0</ele><time>2026-04-05T06:41:01.001Z</time></trkpt><trkpt lat="41.79351189980086" lon="13.441187825170287"><ele>1356.0</ele><time>2026-04-05T06:41:04.001Z</time></trkpt><trkpt lat="41.79360156139462" lon="13.441255397647314"><ele>1356.0</ele><time>2026-04-05T06:41:07.001Z</time></trkpt><trkpt lat="41.79371827929594" lon="13.441246946888018"><ele>1356.0</ele><time>2026-04-05T06:41:09.001Z</time></trkpt><trkpt lat="41.79383583881791" lon="13.441178295522588"><ele>1356.0</ele><time>2026-04-05T06:41:12.001Z</time></trkpt><trkpt lat="41.79388964529321" lon="13.441085983296793"><ele>1356.0</ele><time>2026-04-05T06:41:13.001Z</time></trkpt><trkpt lat="41.793952275585575" lon="13.440990125607161"><ele>1356.0</ele><time>2026-04-05T06:41:14.001Z</time></trkpt><trkpt lat="41.793989234292624" lon="13.440901681220181"><ele>1356.0</ele><time>2026-04-05T06:41:15.001Z</time></trkpt><trkpt lat="41.794084825567595" lon="13.440806205073743"><ele>1356.0</ele><time>2026-04-05T06:41:17.001Z</time></trkpt><trkpt lat="41.79417848147096" lon="13.440818841457126"><ele>1356.0</ele><time>2026-04-05T06:41:19.001Z</time></trkpt><trkpt lat="41.794282893611566" lon="13.440942138625315"><ele>1356.0</ele><time>2026-04-05T06:41:21.001Z</time></trkpt><trkpt lat="41.79432878727098" lon="13.44101278193806"><ele>1356.0</ele><time>2026-04-05T06:41:22.001Z</time></trkpt><trkpt lat="41.7943511914603" lon="13.441129541120649"><ele>1356.0</ele><time>2026-04-05T06:41:25.001Z</time></trkpt><trkpt lat="41.79432444236022" lon="13.441216312742247"><ele>1356.0</ele><time>2026-04-05T06:41:26.001Z</time></trkpt><trkpt lat="41.79428968611018" lon="13.441307447767306"><ele>1356.0</ele><time>2026-04-05T06:41:27.001Z</time></trkpt><trkpt lat="41.79425038632941" lon="13.441398040305236"><ele>1356.1999999999998</ele><time>2026-04-05T06:41:28.001Z</time></trkpt><trkpt lat="41.79423508704682" lon="13.441488383976417"><ele>1356.3999999999999</ele><time>2026-04-05T06:41:29.001Z</time></trkpt><trkpt lat="41.794261744487265" lon="13.44157082290547"><ele>1356.6</ele><time>2026-04-05T06:41:31.001Z</time></trkpt><trkpt lat="41.794324037313935" lon="13.441680042585611"><ele>1356.8</ele><time>2026-04-05T06:41:32.001Z</time></trkpt><trkpt lat="41.79441050490306" lon="13.441772161255559"><ele>1357.0</ele><time>2026-04-05T06:41:33.001Z</time></trkpt><trkpt lat="41.79448936389863" lon="13.441895451438992"><ele>1357.0</ele><time>2026-04-05T06:41:34.001Z</time></trkpt><trkpt lat="41.794575484902715" lon="13.44197608736241"><ele>1357.0</ele><time>2026-04-05T06:41:35.001Z</time></trkpt><trkpt lat="41.79463118177013" lon="13.442063237479953"><ele>1357.0</ele><time>2026-04-05T06:41:36.001Z</time></trkpt><trkpt lat="41.794703294342824" lon="13.442166276005283"><ele>1357.0</ele><time>2026-04-05T06:41:37.001Z</time></trkpt><trkpt lat="41.79477607660301" lon="13.442300768078903"><ele>1357.0</ele><time>2026-04-05T06:41:38.001Z</time></trkpt><trkpt lat="41.794856791854436" lon="13.442404541481245"><ele>1358.0</ele><time>2026-04-05T06:41:39.001Z</time></trkpt><trkpt lat="41.79493561861647" lon="13.442496462019111"><ele>1359.0</ele><time>2026-04-05T06:41:40.001Z</time></trkpt><trkpt lat="41.79499420075898" lon="13.44257997436211"><ele>1360.0</ele><time>2026-04-05T06:41:41.001Z</time></trkpt><trkpt lat="41.79504962361813" lon="13.442676768751454"><ele>1361.0</ele><time>2026-04-05T06:41:42.001Z</time></trkpt><trkpt lat="41.79508301484314" lon="13.442769315406318"><ele>1362.0</ele><time>2026-04-05T06:41:43.001Z</time></trkpt><trkpt lat="41.79510058863785" lon="13.442854313269917"><ele>1363.0</ele><time>2026-04-05T06:41:44.001Z</time></trkpt><trkpt lat="41.79511494046571" lon="13.442989013839721"><ele>1364.0</ele><time>2026-04-05T06:41:46.001Z</time></trkpt><trkpt lat="41.79517614314683" lon="13.4430520665185"><ele>1365.0</ele><time>2026-04-05T06:41:48.001Z</time></trkpt><trkpt lat="41.79522464035566" lon="13.443121477529981"><ele>1366.0</ele><time>2026-04-05T06:41:51.001Z</time></trkpt><trkpt lat="41.79528837200001" lon="13.44304911860089"><ele>1367.0</ele><time>2026-04-05T06:41:52.001Z</time></trkpt><trkpt lat="41.79539371875421" lon="13.443017548199297"><ele>1368.0</ele><time>2026-04-05T06:41:53.001Z</time></trkpt><trkpt lat="41.795482517036646" lon="13.443008565787819"><ele>1369.0</ele><time>2026-04-05T06:41:54.001Z</time></trkpt><trkpt lat="41.79557592240991" lon="13.442995468624922"><ele>1369.0</ele><time>2026-04-05T06:41:55.001Z</time></trkpt><trkpt lat="41.795652565460294" lon="13.442984304149544"><ele>1369.0</ele><time>2026-04-05T06:41:57.001Z</time></trkpt><trkpt lat="41.79571243797993" lon="13.443116045414254"><ele>1369.0</ele><time>2026-04-05T06:41:59.001Z</time></trkpt><trkpt lat="41.79576516635974" lon="13.443228350722546"><ele>1369.0</ele><time>2026-04-05T06:42:01.002Z</time></trkpt><trkpt lat="41.79585388027349" lon="13.44330032445112"><ele>1369.0</ele><time>2026-04-05T06:42:03.002Z</time></trkpt><trkpt lat="41.79594890164476" lon="13.443272359472719"><ele>1369.75</ele><time>2026-04-05T06:42:05.002Z</time></trkpt><trkpt lat="41.796012560311944" lon="13.443217637141988"><ele>1370.5</ele><time>2026-04-05T06:42:08.002Z</time></trkpt><trkpt lat="41.79620972283986" lon="13.443155008300895"><ele>1371.25</ele><time>2026-04-05T06:42:09.002Z</time></trkpt><trkpt lat="41.79634494511918" lon="13.443139263251933"><ele>1372.0</ele><time>2026-04-05T06:42:10.002Z</time></trkpt><trkpt lat="41.79645237245328" lon="13.44318469614182"><ele>1372.0</ele><time>2026-04-05T06:42:11.002Z</time></trkpt><trkpt lat="41.796532769979876" lon="13.443244611072705"><ele>1372.0</ele><time>2026-04-05T06:42:12.002Z</time></trkpt><trkpt lat="41.7966258942722" lon="13.44326965674636"><ele>1372.0</ele><time>2026-04-05T06:42:13.002Z</time></trkpt><trkpt lat="41.79672589653922" lon="13.443283514150506"><ele>1372.0</ele><time>2026-04-05T06:42:14.002Z</time></trkpt><trkpt lat="41.796821403644955" lon="13.44329498823564"><ele>1372.0</ele><time>2026-04-05T06:42:15.002Z</time></trkpt><trkpt lat="41.796908246057455" lon="13.443280674622384"><ele>1373.0</ele><time>2026-04-05T06:42:16Z</time></trkpt><trkpt lat="41.796993073850594" lon="13.443225239026022"><ele>1374.0</ele><time>2026-04-05T06:42:17Z</time></trkpt><trkpt lat="41.797053925323105" lon="13.44318763387628"><ele>1375.0</ele><time>2026-04-05T06:42:18Z</time></trkpt><trkpt lat="41.79712922519901" lon="13.443100434625517"><ele>1376.0</ele><time>2026-04-05T06:42:19Z</time></trkpt><trkpt lat="41.79719486052059" lon="13.44292607493099"><ele>1377.0</ele><time>2026-04-05T06:42:20Z</time></trkpt><trkpt lat="41.79725297241907" lon="13.442839790044536"><ele>1374.6</ele><time>2026-04-05T06:42:21Z</time></trkpt><trkpt lat="41.79731084919584" lon="13.442753187647364"><ele>1372.1999999999998</ele><time>2026-04-05T06:42:22Z</time></trkpt><trkpt lat="41.79732726161352" lon="13.442631621525756"><ele>1369.8</ele><time>2026-04-05T06:42:24Z</time></trkpt><trkpt lat="41.79731321430687" lon="13.442534914316774"><ele>1367.4</ele><time>2026-04-05T06:42:25Z</time></trkpt><trkpt lat="41.79721880013804" lon="13.442400899508819"><ele>1365.0</ele><time>2026-04-05T06:42:27Z</time></trkpt><trkpt lat="41.79718384733324" lon="13.442273945837973"><ele>1362.8333333333333</ele><time>2026-04-05T06:42:29Z</time></trkpt><trkpt lat="41.79717750294927" lon="13.442114106545487"><ele>1360.6666666666667</ele><time>2026-04-05T06:42:31Z</time></trkpt><trkpt lat="41.79718420265025" lon="13.44199888159217"><ele>1358.5</ele><time>2026-04-05T06:42:33Z</time></trkpt><trkpt lat="41.797203806958386" lon="13.441899887070013"><ele>1356.3333333333335</ele><time>2026-04-05T06:42:34Z</time></trkpt><trkpt lat="41.797252197783386" lon="13.44181155278205"><ele>1354.1666666666667</ele><time>2026-04-05T06:42:35Z</time></trkpt><trkpt lat="41.79730514708055" lon="13.441750069606128"><ele>1352.0</ele><time>2026-04-05T06:42:36Z</time></trkpt><trkpt lat="41.797314571476754" lon="13.441610949488432"><ele>1352.0</ele><time>2026-04-05T06:42:38Z</time></trkpt><trkpt lat="41.79727989667555" lon="13.441524010178139"><ele>1352.0</ele><time>2026-04-05T06:42:41Z</time></trkpt><trkpt lat="41.79718389947417" lon="13.441479500412806"><ele>1352.0</ele><time>2026-04-05T06:42:43Z</time></trkpt><trkpt lat="41.79709271661787" lon="13.44147241596606"><ele>1352.0</ele><time>2026-04-05T06:42:45Z</time></trkpt><trkpt lat="41.796997324184595" lon="13.44138848198685"><ele>1352.0</ele><time>2026-04-05T06:42:47Z</time></trkpt><trkpt lat="41.79695759915575" lon="13.441259012515095"><ele>1349.1666666666667</ele><time>2026-04-05T06:42:49Z</time></trkpt><trkpt lat="41.79695466857396" lon="13.441153427102462"><ele>1346.3333333333335</ele><time>2026-04-05T06:42:50Z</time></trkpt><trkpt lat="41.79695937866409" lon="13.44106294816938"><ele>1343.5</ele><time>2026-04-05T06:42:51Z</time></trkpt><trkpt lat="41.797000652284616" lon="13.440954658101242"><ele>1340.6666666666667</ele><time>2026-04-05T06:42:53.001Z</time></trkpt><trkpt lat="41.797096633393686" lon="13.440881971100504"><ele>1337.8333333333333</ele><time>2026-04-05T06:42:55.001Z</time></trkpt><trkpt lat="41.79716946292274" lon="13.440858754442171"><ele>1335.0</ele><time>2026-04-05T06:42:56.001Z</time></trkpt><trkpt lat="41.797245831493115" lon="13.4408288542889"><ele>1335.0</ele><time>2026-04-05T06:42:57.001Z</time></trkpt><trkpt lat="41.79732244287611" lon="13.440802663440856"><ele>1335.0</ele><time>2026-04-05T06:42:58.001Z</time></trkpt><trkpt lat="41.79741097962874" lon="13.440794763479595"><ele>1335.0</ele><time>2026-04-05T06:42:59.001Z</time></trkpt><trkpt lat="41.79748725779904" lon="13.440768802514388"><ele>1335.0</ele><time>2026-04-05T06:43:00.001Z</time></trkpt><trkpt lat="41.79755586996235" lon="13.440741854979256"><ele>1335.0</ele><time>2026-04-05T06:43:01.001Z</time></trkpt><trkpt lat="41.797629030479484" lon="13.44070179508092"><ele>1335.0</ele><time>2026-04-05T06:43:02.001Z</time></trkpt><trkpt lat="41.7977617781572" lon="13.440617687636454"><ele>1335.8333333333333</ele><time>2026-04-05T06:43:04.001Z</time></trkpt><trkpt lat="41.797833416696484" lon="13.440571429163116"><ele>1336.6666666666667</ele><time>2026-04-05T06:43:05.001Z</time></trkpt><trkpt lat="41.79792122149687" lon="13.440527257647217"><ele>1337.5</ele><time>2026-04-05T06:43:06.001Z</time></trkpt><trkpt lat="41.797994211520766" lon="13.44048592606884"><ele>1338.3333333333335</ele><time>2026-04-05T06:43:07.001Z</time></trkpt><trkpt lat="41.798076896813335" lon="13.44044095356248"><ele>1339.1666666666667</ele><time>2026-04-05T06:43:08.001Z</time></trkpt><trkpt lat="41.79815949705228" lon="13.440404721024384"><ele>1340.0</ele><time>2026-04-05T06:43:09.001Z</time></trkpt><trkpt lat="41.798238636926556" lon="13.440370141984726"><ele>1332.6666666666667</ele><time>2026-04-05T06:43:10.001Z</time></trkpt><trkpt lat="41.79832180499947" lon="13.440342765801567"><ele>1325.3333333333335</ele><time>2026-04-05T06:43:11.001Z</time></trkpt><trkpt lat="41.798403794154616" lon="13.440313117073318"><ele>1318.0</ele><time>2026-04-05T06:43:12.001Z</time></trkpt><trkpt lat="41.798481045057045" lon="13.440274588398747"><ele>1310.6666666666667</ele><time>2026-04-05T06:43:13.001Z</time></trkpt><trkpt lat="41.798546252899584" lon="13.440236258333524"><ele>1303.3333333333333</ele><time>2026-04-05T06:43:14.001Z</time></trkpt><trkpt lat="41.79861308897361" lon="13.440204741241027"><ele>1296.0</ele><time>2026-04-05T06:43:15.001Z</time></trkpt><trkpt lat="41.79867957204949" lon="13.440185147637036"><ele>1296.0</ele><time>2026-04-05T06:43:16.001Z</time></trkpt><trkpt lat="41.798753943133065" lon="13.440192155238448"><ele>1296.0</ele><time>2026-04-05T06:43:17.001Z</time></trkpt><trkpt lat="41.798827908807006" lon="13.440215059063293"><ele>1296.0</ele><time>2026-04-05T06:43:18.001Z</time></trkpt><trkpt lat="41.798907440453846" lon="13.440254033124335"><ele>1296.0</ele><time>2026-04-05T06:43:19.001Z</time></trkpt><trkpt lat="41.79901763709351" lon="13.440290391009022"><ele>1296.0</ele><time>2026-04-05T06:43:20.001Z</time></trkpt><trkpt lat="41.79913090695516" lon="13.440317533959801"><ele>1296.0</ele><time>2026-04-05T06:43:21.001Z</time></trkpt><trkpt lat="41.799228557005414" lon="13.440346560481164"><ele>1296.0</ele><time>2026-04-05T06:43:22.001Z</time></trkpt><trkpt lat="41.79933620605833" lon="13.440365995998743"><ele>1296.0</ele><time>2026-04-05T06:43:23.001Z</time></trkpt><trkpt lat="41.79943087056144" lon="13.440394060860207"><ele>1296.0</ele><time>2026-04-05T06:43:24.001Z</time></trkpt><trkpt lat="41.79952875213624" lon="13.440406244103425"><ele>1296.0</ele><time>2026-04-05T06:43:25.001Z</time></trkpt><trkpt lat="41.79962962759644" lon="13.440422518229575"><ele>1294.5</ele><time>2026-04-05T06:43:26.001Z</time></trkpt><trkpt lat="41.79971531984501" lon="13.440439595746904"><ele>1293.0</ele><time>2026-04-05T06:43:27.001Z</time></trkpt><trkpt lat="41.799782610267734" lon="13.440471735483847"><ele>1291.5</ele><time>2026-04-05T06:43:28.001Z</time></trkpt><trkpt lat="41.79985048026322" lon="13.440466933192017"><ele>1290.0</ele><time>2026-04-05T06:43:29.001Z</time></trkpt><trkpt lat="41.7999184840587" lon="13.440451255544692"><ele>1288.5</ele><time>2026-04-05T06:43:30.001Z</time></trkpt><trkpt lat="41.800000190589174" lon="13.44045930912425"><ele>1287.0</ele><time>2026-04-05T06:43:31.001Z</time></trkpt><trkpt lat="41.800084495819945" lon="13.44047837635335"><ele>1292.6666666666667</ele><time>2026-04-05T06:43:32.001Z</time></trkpt><trkpt lat="41.800169887085055" lon="13.440471199512686"><ele>1298.3333333333333</ele><time>2026-04-05T06:43:33.001Z</time></trkpt><trkpt lat="41.80025128561208" lon="13.440476689825042"><ele>1304.0</ele><time>2026-04-05T06:43:34.001Z</time></trkpt><trkpt lat="41.800332340380635" lon="13.440498303138785"><ele>1309.6666666666665</ele><time>2026-04-05T06:43:35.001Z</time></trkpt><trkpt lat="41.80040827492089" lon="13.440532253799079"><ele>1315.3333333333333</ele><time>2026-04-05T06:43:36.001Z</time></trkpt><trkpt lat="41.800470338129806" lon="13.440560982166042"><ele>1321.0</ele><time>2026-04-05T06:43:37.001Z</time></trkpt><trkpt lat="41.800568489497884" lon="13.440621072915187"><ele>1321.0</ele><time>2026-04-05T06:43:39.001Z</time></trkpt><trkpt lat="41.80063011776173" lon="13.440677141526901"><ele>1321.0</ele><time>2026-04-05T06:43:40.001Z</time></trkpt><trkpt lat="41.800696773795636" lon="13.440742338943943"><ele>1321.0</ele><time>2026-04-05T06:43:41.001Z</time></trkpt><trkpt lat="41.80077395944419" lon="13.440818216740187"><ele>1321.0</ele><time>2026-04-05T06:43:42.001Z</time></trkpt><trkpt lat="41.80085619766413" lon="13.440900864224472"><ele>1321.0</ele><time>2026-04-05T06:43:43.001Z</time></trkpt><trkpt lat="41.80093373636639" lon="13.440974456058356"><ele>1324.5</ele><time>2026-04-05T06:43:44.001Z</time></trkpt><trkpt lat="41.80100422907571" lon="13.441078413943568"><ele>1328.0</ele><time>2026-04-05T06:43:46.001Z</time></trkpt><trkpt lat="41.80104789539388" lon="13.441245239341395"><ele>1331.5</ele><time>2026-04-05T06:43:48.001Z</time></trkpt><trkpt lat="41.80106016389507" lon="13.441430133552672"><ele>1335.0</ele><time>2026-04-05T06:43:50.001Z</time></trkpt><trkpt lat="41.80107810679434" lon="13.441532731123367"><ele>1336.4</ele><time>2026-04-05T06:43:51.001Z</time></trkpt><trkpt lat="41.80110520846938" lon="13.441655195049249"><ele>1337.8</ele><time>2026-04-05T06:43:52.001Z</time></trkpt><trkpt lat="41.80114167256964" lon="13.44180782081518"><ele>1339.1999999999998</ele><time>2026-04-05T06:43:53.001Z</time></trkpt><trkpt lat="41.80119390507254" lon="13.441920485476835"><ele>1340.6</ele><time>2026-04-05T06:43:54.001Z</time></trkpt><trkpt lat="41.801234262527416" lon="13.4420093391229"><ele>1342.0</ele><time>2026-04-05T06:43:55.001Z</time></trkpt><trkpt lat="41.801274646493795" lon="13.442113052017087"><ele>1343.2857142857142</ele><time>2026-04-05T06:43:56.001Z</time></trkpt><trkpt lat="41.80130993071179" lon="13.442185816008244"><ele>1344.5714285714287</ele><time>2026-04-05T06:43:57.001Z</time></trkpt><trkpt lat="41.80135044390709" lon="13.442272331280343"><ele>1345.857142857143</ele><time>2026-04-05T06:44:00.001Z</time></trkpt><trkpt lat="41.801352740420434" lon="13.442390973843045"><ele>1347.142857142857</ele><time>2026-04-05T06:44:09.002Z</time></trkpt><trkpt lat="41.80136062886821" lon="13.44248091673405"><ele>1348.4285714285716</ele><time>2026-04-05T06:44:12.002Z</time></trkpt><trkpt lat="41.80139629488196" lon="13.4425525964626"><ele>1349.7142857142858</ele><time>2026-04-05T06:44:22Z</time></trkpt><trkpt lat="41.80139998217503" lon="13.442638085913863"><ele>1351.0</ele><time>2026-04-05T06:44:34Z</time></trkpt><trkpt lat="41.801443567345956" lon="13.442558167118666"><ele>1351.0</ele><time>2026-04-05T06:45:47.001Z</time></trkpt><trkpt lat="41.801464623904025" lon="13.442473954644985"><ele>1351.0</ele><time>2026-04-05T06:45:55.001Z</time></trkpt><trkpt lat="41.80149610563276" lon="13.442395007235362"><ele>1351.0</ele><time>2026-04-05T06:45:59.001Z</time></trkpt><trkpt lat="41.80149353446649" lon="13.4422784086924"><ele>1351.0</ele><time>2026-04-05T06:46:03.001Z</time></trkpt><trkpt lat="41.80151753342722" lon="13.442175902738013"><ele>1351.0</ele><time>2026-04-05T06:46:05.001Z</time></trkpt><trkpt lat="41.80154135184373" lon="13.442064728410323"><ele>1351.0</ele><time>2026-04-05T06:46:07.001Z</time></trkpt><trkpt lat="41.8015559549726" lon="13.441972386760357"><ele>1349.5</ele><time>2026-04-05T06:46:09.001Z</time></trkpt><trkpt lat="41.80158404294586" lon="13.44188142456104"><ele>1348.0</ele><time>2026-04-05T06:46:11.001Z</time></trkpt><trkpt lat="41.80163336780483" lon="13.441769244433424"><ele>1346.5</ele><time>2026-04-05T06:46:13.001Z</time></trkpt><trkpt lat="41.80168422182397" lon="13.441667545119719"><ele>1345.0</ele><time>2026-04-05T06:46:15.001Z</time></trkpt><trkpt lat="41.80169781151007" lon="13.441576313138691"><ele>1343.5</ele><time>2026-04-05T06:46:17.001Z</time></trkpt><trkpt lat="41.80171618930584" lon="13.441470390176978"><ele>1342.0</ele><time>2026-04-05T06:46:19.001Z</time></trkpt><trkpt lat="41.80174983130096" lon="13.441371642978197"><ele>1340.8333333333333</ele><time>2026-04-05T06:46:21.002Z</time></trkpt><trkpt lat="41.80178236918608" lon="13.441228596791133"><ele>1339.6666666666665</ele><time>2026-04-05T06:46:23.002Z</time></trkpt><trkpt lat="41.80182448771819" lon="13.441126570756824"><ele>1338.5</ele><time>2026-04-05T06:46:25.002Z</time></trkpt><trkpt lat="41.801852049472025" lon="13.441034002565077"><ele>1337.3333333333333</ele><time>2026-04-05T06:46:27.002Z</time></trkpt><trkpt lat="41.80186434074083" lon="13.44093332429938"><ele>1336.1666666666667</ele><time>2026-04-05T06:46:29Z</time></trkpt><trkpt lat="41.80188377403546" lon="13.440815958515143"><ele>1335.0</ele><time>2026-04-05T06:46:32Z</time></trkpt><trkpt lat="41.80188015115878" lon="13.440711744238559"><ele>1339.3333333333333</ele><time>2026-04-05T06:46:34Z</time></trkpt><trkpt lat="41.801885429883114" lon="13.440624311555567"><ele>1343.6666666666667</ele><time>2026-04-05T06:46:36Z</time></trkpt><trkpt lat="41.801933140267565" lon="13.440510387808931"><ele>1348.0</ele><time>2026-04-05T06:46:44Z</time></trkpt><trkpt lat="41.80197750638505" lon="13.44041881509767"><ele>1352.3333333333335</ele><time>2026-04-05T06:46:49Z</time></trkpt><trkpt lat="41.802008243941714" lon="13.440333608137848"><ele>1356.6666666666667</ele><time>2026-04-05T06:46:51Z</time></trkpt><trkpt lat="41.802068597576714" lon="13.440221836533269"><ele>1361.0</ele><time>2026-04-05T06:46:53Z</time></trkpt><trkpt lat="41.80214168057916" lon="13.440140967148075"><ele>1361.0</ele><time>2026-04-05T06:46:55Z</time></trkpt><trkpt lat="41.80218581950478" lon="13.44007539065348"><ele>1361.0</ele><time>2026-04-05T06:48:23.001Z</time></trkpt><trkpt lat="41.80225914306186" lon="13.44005485039099"><ele>1361.0</ele><time>2026-04-05T06:48:27.001Z</time></trkpt><trkpt lat="41.80232722166203" lon="13.440023950969337"><ele>1361.0</ele><time>2026-04-05T06:48:31.002Z</time></trkpt><trkpt lat="41.80239670644615" lon="13.439956366330371"><ele>1361.0</ele><time>2026-04-05T06:48:38Z</time></trkpt><trkpt lat="41.802475738021144" lon="13.439922255283255"><ele>1361.0</ele><time>2026-04-05T06:48:42Z</time></trkpt><trkpt lat="41.80255768322893" lon="13.439896959108719"><ele>1361.0</ele><time>2026-04-05T06:48:45Z</time></trkpt><trkpt lat="41.80261907533126" lon="13.439860742130282"><ele>1361.0</ele><time>2026-04-05T06:48:49Z</time></trkpt><trkpt lat="41.802679552987485" lon="13.439822247056089"><ele>1361.0</ele><time>2026-04-05T06:48:53Z</time></trkpt><trkpt lat="41.802758029446295" lon="13.439815880510928"><ele>1361.0</ele><time>2026-04-05T06:48:57Z</time></trkpt><trkpt lat="41.80287803511046" lon="13.439821753176693"><ele>1361.0</ele><time>2026-04-05T06:49:00Z</time></trkpt><trkpt lat="41.80295760090273" lon="13.439845740116388"><ele>1361.0</ele><time>2026-04-05T06:49:02Z</time></trkpt><trkpt lat="41.80303719470912" lon="13.439843781030024"><ele>1362.0</ele><time>2026-04-05T06:49:05Z</time></trkpt><trkpt lat="41.80311100032239" lon="13.439850613801816"><ele>1363.0</ele><time>2026-04-05T06:49:07Z</time></trkpt><trkpt lat="41.803179993969124" lon="13.439836212680511"><ele>1364.0</ele><time>2026-04-05T06:49:47.001Z</time></trkpt><trkpt lat="41.803276316479625" lon="13.439840357049556"><ele>1365.0</ele><time>2026-04-05T06:49:50.001Z</time></trkpt><trkpt lat="41.8033766202906" lon="13.439841166692943"><ele>1366.0</ele><time>2026-04-05T06:49:55.001Z</time></trkpt><trkpt lat="41.80346711621556" lon="13.43983983993335"><ele>1367.0</ele><time>2026-04-05T06:49:57.001Z</time></trkpt><trkpt lat="41.80354032268233" lon="13.439820232795213"><ele>1368.6666666666667</ele><time>2026-04-05T06:49:59.001Z</time></trkpt><trkpt lat="41.80360572983125" lon="13.4397925012683"><ele>1370.3333333333335</ele><time>2026-04-05T06:50:03.001Z</time></trkpt><trkpt lat="41.80367944234749" lon="13.439774965036253"><ele>1372.0</ele><time>2026-04-05T06:50:10.001Z</time></trkpt><trkpt lat="41.80375670358352" lon="13.439760108296413"><ele>1373.6666666666667</ele><time>2026-04-05T06:50:13.001Z</time></trkpt><trkpt lat="41.80385325154799" lon="13.439740512679661"><ele>1375.3333333333333</ele><time>2026-04-05T06:50:15.001Z</time></trkpt><trkpt lat="41.80391928149679" lon="13.439727458427951"><ele>1377.0</ele><time>2026-04-05T06:50:17.001Z</time></trkpt><trkpt lat="41.803982441783916" lon="13.439702117837932"><ele>1377.0</ele><time>2026-04-05T06:50:19.001Z</time></trkpt><trkpt lat="41.80404505440017" lon="13.439673545999396"><ele>1377.0</ele><time>2026-04-05T06:50:21.001Z</time></trkpt><trkpt lat="41.804131337888045" lon="13.439632851765653"><ele>1377.0</ele><time>2026-04-05T06:50:24.001Z</time></trkpt><trkpt lat="41.804198051424706" lon="13.439603321043302"><ele>1377.0</ele><time>2026-04-05T06:50:26.001Z</time></trkpt><trkpt lat="41.80426052013165" lon="13.439591051635535"><ele>1377.0</ele><time>2026-04-05T06:50:32.001Z</time></trkpt><trkpt lat="41.80435330196781" lon="13.439575125703673"><ele>1377.0</ele><time>2026-04-05T06:50:34.001Z</time></trkpt><trkpt lat="41.804456898925736" lon="13.439559838470311"><ele>1387.5</ele><time>2026-04-05T06:50:36.002Z</time></trkpt><trkpt lat="41.8045210611497" lon="13.43955242619718"><ele>1398.0</ele><time>2026-04-05T06:50:38.002Z</time></trkpt><trkpt lat="41.812658512043946" lon="13.443047201595963"><ele>1398.0</ele><time>2026-04-05T06:54:37.001Z</time></trkpt><trkpt lat="41.812793703264134" lon="13.443042361439783"><ele>1398.0</ele><time>2026-04-05T06:54:39.001Z</time></trkpt><trkpt lat="41.81285749597143" lon="13.443039438243673"><ele>1398.0</ele><time>2026-04-05T06:54:40.001Z</time></trkpt><trkpt lat="41.812964042170485" lon="13.443057072231692"><ele>1398.0</ele><time>2026-04-05T06:54:42.001Z</time></trkpt><trkpt lat="41.813075712300645" lon="13.443103680215563"><ele>1398.0</ele><time>2026-04-05T06:54:44.001Z</time></trkpt><trkpt lat="41.813175093013975" lon="13.443175322151916"><ele>1398.0</ele><time>2026-04-05T06:54:46.001Z</time></trkpt><trkpt lat="41.81323649715432" lon="13.443219145233344"><ele>1398.0</ele><time>2026-04-05T06:54:47.001Z</time></trkpt><trkpt lat="41.81330982951008" lon="13.443293948669977"><ele>1398.0</ele><time>2026-04-05T06:54:49.001Z</time></trkpt><trkpt lat="41.81342169621605" lon="13.443398308434443"><ele>1398.0</ele><time>2026-04-05T06:54:51.002Z</time></trkpt><trkpt lat="41.81350292287141" lon="13.443482205697496"><ele>1398.0</ele><time>2026-04-05T06:54:52Z</time></trkpt><trkpt lat="41.81364947276908" lon="13.443589415714147"><ele>1396.0</ele><time>2026-04-05T06:54:55Z</time></trkpt><trkpt lat="41.81375524049323" lon="13.443644677573614"><ele>1394.0</ele><time>2026-04-05T06:54:57Z</time></trkpt><trkpt lat="41.81388775201523" lon="13.443678629966588"><ele>1392.0</ele><time>2026-04-05T06:54:59Z</time></trkpt><trkpt lat="41.813994865705375" lon="13.443739521629201"><ele>1390.0</ele><time>2026-04-05T06:55:01Z</time></trkpt><trkpt lat="41.814092472253414" lon="13.443753061124427"><ele>1390.0</ele><time>2026-04-05T06:55:03Z</time></trkpt><trkpt lat="41.81416814575414" lon="13.443730615031713"><ele>1390.0</ele><time>2026-04-05T06:55:05Z</time></trkpt><trkpt lat="41.81428253969167" lon="13.443732572694612"><ele>1390.0</ele><time>2026-04-05T06:55:07Z</time></trkpt><trkpt lat="41.814373257985075" lon="13.443772869721641"><ele>1390.0</ele><time>2026-04-05T06:55:09Z</time></trkpt><trkpt lat="41.81445123527575" lon="13.443804875705833"><ele>1390.0</ele><time>2026-04-05T06:55:10Z</time></trkpt><trkpt lat="41.814540339658066" lon="13.44388852540735"><ele>1398.25</ele><time>2026-04-05T06:55:12Z</time></trkpt><trkpt lat="41.81462156975841" lon="13.443955265493528"><ele>1406.5</ele><time>2026-04-05T06:55:14Z</time></trkpt><trkpt lat="41.81477961842128" lon="13.44410526833046"><ele>1414.75</ele><time>2026-04-05T06:55:18Z</time></trkpt><trkpt lat="41.814838850074096" lon="13.444155950935524"><ele>1423.0</ele><time>2026-04-05T06:55:19Z</time></trkpt><trkpt lat="41.81493505297568" lon="13.444229149982842"><ele>1423.0</ele><time>2026-04-05T06:55:21Z</time></trkpt><trkpt lat="41.81499273212816" lon="13.444266518625325"><ele>1423.0</ele><time>2026-04-05T06:55:27Z</time></trkpt><trkpt lat="41.815056417162445" lon="13.44430530282102"><ele>1423.0</ele><time>2026-04-05T06:55:30Z</time></trkpt><trkpt lat="41.81513331738976" lon="13.444285793973483"><ele>1423.0</ele><time>2026-04-05T06:55:33Z</time></trkpt><trkpt lat="41.81520105628057" lon="13.444321802130538"><ele>1423.0</ele><time>2026-04-05T06:55:35Z</time></trkpt><trkpt lat="41.815387746472005" lon="13.444453660324942"><ele>1422.1666666666665</ele><time>2026-04-05T06:55:39Z</time></trkpt><trkpt lat="41.815467931320654" lon="13.444439101282608"><ele>1421.3333333333333</ele><time>2026-04-05T06:55:42.001Z</time></trkpt><trkpt lat="41.81555023130199" lon="13.444479887224869"><ele>1420.5</ele><time>2026-04-05T06:55:44.001Z</time></trkpt><trkpt lat="41.81561484851004" lon="13.444514981847952"><ele>1419.6666666666667</ele><time>2026-04-05T06:55:45.001Z</time></trkpt><trkpt lat="41.81567838037727" lon="13.44451312329541"><ele>1418.8333333333335</ele><time>2026-04-05T06:55:46.001Z</time></trkpt><trkpt lat="41.81575467959964" lon="13.444536661468197"><ele>1418.0</ele><time>2026-04-05T06:55:47.001Z</time></trkpt><trkpt lat="41.81584195016992" lon="13.444572111580332"><ele>1418.0</ele><time>2026-04-05T06:55:48.001Z</time></trkpt><trkpt lat="41.81594363491081" lon="13.444542099004511"><ele>1418.0</ele><time>2026-04-05T06:55:50.001Z</time></trkpt><trkpt lat="41.81604111892252" lon="13.444560893638606"><ele>1418.0</ele><time>2026-04-05T06:55:52.001Z</time></trkpt><trkpt lat="41.816140953953905" lon="13.444552909787017"><ele>1418.0</ele><time>2026-04-05T06:55:54.001Z</time></trkpt><trkpt lat="41.81621796895514" lon="13.44455792262599"><ele>1418.0</ele><time>2026-04-05T06:55:56.001Z</time></trkpt><trkpt lat="41.816385649820674" lon="13.44458406382928"><ele>1417.0</ele><time>2026-04-05T06:56:00.001Z</time></trkpt><trkpt lat="41.816451637339405" lon="13.444604557817248"><ele>1416.0</ele><time>2026-04-05T06:56:02.001Z</time></trkpt><trkpt lat="41.816507383691935" lon="13.444712754416475"><ele>1415.0</ele><time>2026-04-05T06:56:07.001Z</time></trkpt><trkpt lat="41.816535330171675" lon="13.444865998392602"><ele>1414.0</ele><time>2026-04-05T06:56:09.001Z</time></trkpt><trkpt lat="41.816593042887234" lon="13.44497006881073"><ele>1413.0</ele><time>2026-04-05T06:56:11.001Z</time></trkpt><trkpt lat="41.81661248203316" lon="13.445055403583677"><ele>1412.0</ele><time>2026-04-05T06:56:13.001Z</time></trkpt><trkpt lat="41.81665379147433" lon="13.445136957831949"><ele>1417.3999999999999</ele><time>2026-04-05T06:56:15.001Z</time></trkpt><trkpt lat="41.81672115735851" lon="13.445148044132255"><ele>1422.8</ele><time>2026-04-05T06:56:44.001Z</time></trkpt><trkpt lat="41.81685086867352" lon="13.44517828889042"><ele>1428.2</ele><time>2026-04-05T06:56:54.001Z</time></trkpt><trkpt lat="41.816910769141856" lon="13.445219938723318"><ele>1433.6</ele><time>2026-04-05T06:57:02Z</time></trkpt><trkpt lat="41.816982999223114" lon="13.445259959750047"><ele>1439.0</ele><time>2026-04-05T06:57:17Z</time></trkpt><trkpt lat="41.81712411882076" lon="13.445317755521195"><ele>1439.0</ele><time>2026-04-05T06:57:23Z</time></trkpt><trkpt lat="41.817123316067416" lon="13.445200171093894"><ele>1439.0</ele><time>2026-04-05T06:57:30Z</time></trkpt><trkpt lat="41.81715869351845" lon="13.44512470073317"><ele>1439.0</ele><time>2026-04-05T06:57:39Z</time></trkpt><trkpt lat="41.81719311857849" lon="13.445051444975727"><ele>1439.0</ele><time>2026-04-05T06:57:53.001Z</time></trkpt><trkpt lat="41.81722101601382" lon="13.444836469063512"><ele>1439.0</ele><time>2026-04-05T06:58:27.001Z</time></trkpt><trkpt lat="41.817206517010455" lon="13.444652330018883"><ele>1436.4</ele><time>2026-04-05T06:58:44.001Z</time></trkpt><trkpt lat="41.81727949872746" lon="13.44460365320566"><ele>1433.8000000000002</ele><time>2026-04-05T06:58:49.001Z</time></trkpt><trkpt lat="41.81742958434878" lon="13.444586032355113"><ele>1431.1999999999998</ele><time>2026-04-05T06:58:55.001Z</time></trkpt><trkpt lat="41.81746019178441" lon="13.444474117207752"><ele>1428.6</ele><time>2026-04-05T06:59:00.001Z</time></trkpt><trkpt lat="41.81741698846229" lon="13.444371085199279"><ele>1426.0</ele><time>2026-04-05T06:59:04Z</time></trkpt><trkpt lat="41.817340475939076" lon="13.444256889887628"><ele>1426.0</ele><time>2026-04-05T06:59:07Z</time></trkpt><trkpt lat="41.817153296275244" lon="13.444004493614916"><ele>1426.0</ele><time>2026-04-05T06:59:10Z</time></trkpt><trkpt lat="41.81712681638416" lon="13.443824494833455"><ele>1426.0</ele><time>2026-04-05T06:59:12Z</time></trkpt><trkpt lat="41.817144803292756" lon="13.44365886486128"><ele>1429.4</ele><time>2026-04-05T06:59:14Z</time></trkpt><trkpt lat="41.81718948135967" lon="13.443556637771723"><ele>1432.8</ele><time>2026-04-05T06:59:15Z</time></trkpt><trkpt lat="41.81712006637975" lon="13.443437386038397"><ele>1436.2</ele><time>2026-04-05T06:59:17Z</time></trkpt><trkpt lat="41.817023335329004" lon="13.443349539006578"><ele>1439.6000000000001</ele><time>2026-04-05T06:59:19Z</time></trkpt><trkpt lat="41.81691038819259" lon="13.443272454356295"><ele>1443.0</ele><time>2026-04-05T06:59:21Z</time></trkpt><trkpt lat="41.81685537557843" lon="13.44318474782357"><ele>1440.6000000000001</ele><time>2026-04-05T06:59:22Z</time></trkpt><trkpt lat="41.81678624482685" lon="13.443116348797487"><ele>1438.2</ele><time>2026-04-05T06:59:23Z</time></trkpt><trkpt lat="41.81667060609752" lon="13.443028137479901"><ele>1435.8</ele><time>2026-04-05T06:59:25Z</time></trkpt><trkpt lat="41.816611195932886" lon="13.442981744356407"><ele>1433.4</ele><time>2026-04-05T06:59:26Z</time></trkpt><trkpt lat="41.816491415633266" lon="13.442887068253404"><ele>1431.0</ele><time>2026-04-05T06:59:29Z</time></trkpt><trkpt lat="41.81643122249682" lon="13.442851484675097"><ele>1431.0</ele><time>2026-04-05T06:59:30Z</time></trkpt><trkpt lat="41.816377745467875" lon="13.442801456349752"><ele>1431.0</ele><time>2026-04-05T06:59:31Z</time></trkpt><trkpt lat="41.81624587844904" lon="13.442684605027035"><ele>1431.0</ele><time>2026-04-05T06:59:34Z</time></trkpt><trkpt lat="41.81619525303041" lon="13.442601184844886"><ele>1431.0</ele><time>2026-04-05T06:59:35Z</time></trkpt><trkpt lat="41.81616383642388" lon="13.442525501679222"><ele>1431.0</ele><time>2026-04-05T06:59:36Z</time></trkpt><trkpt lat="41.81614348289012" lon="13.442436255324838"><ele>1431.0</ele><time>2026-04-05T06:59:37Z</time></trkpt><trkpt lat="41.816109082107445" lon="13.442305189008225"><ele>1431.0</ele><time>2026-04-05T06:59:39Z</time></trkpt><trkpt lat="41.81604103592527" lon="13.44223527044815"><ele>1431.0</ele><time>2026-04-05T06:59:43Z</time></trkpt><trkpt lat="41.81595792253879" lon="13.442103333094064"><ele>1431.0</ele><time>2026-04-05T06:59:45Z</time></trkpt><trkpt lat="41.815902912071515" lon="13.442002451149301"><ele>1431.0</ele><time>2026-04-05T06:59:46Z</time></trkpt><trkpt lat="41.81585516549378" lon="13.441884693753849"><ele>1431.0</ele><time>2026-04-05T06:59:47Z</time></trkpt><trkpt lat="41.815825933892086" lon="13.441786848891573"><ele>1430.75</ele><time>2026-04-05T06:59:48Z</time></trkpt><trkpt lat="41.81580625398029" lon="13.441701548690403"><ele>1430.5</ele><time>2026-04-05T06:59:49Z</time></trkpt><trkpt lat="41.815778653052014" lon="13.441565690433048"><ele>1430.25</ele><time>2026-04-05T06:59:51Z</time></trkpt><trkpt lat="41.81573861262929" lon="13.441441342284712"><ele>1430.0</ele><time>2026-04-05T06:59:53Z</time></trkpt><trkpt lat="41.81563823637882" lon="13.44111584703957"><ele>1430.0</ele><time>2026-04-05T06:59:57.001Z</time></trkpt><trkpt lat="41.81560864300519" lon="13.44101099770908"><ele>1430.0</ele><time>2026-04-05T06:59:58.001Z</time></trkpt><trkpt lat="41.81555941364373" lon="13.440918502525749"><ele>1430.0</ele><time>2026-04-05T06:59:59.001Z</time></trkpt><trkpt lat="41.81551127339957" lon="13.440841542155807"><ele>1430.0</ele><time>2026-04-05T07:00:00.001Z</time></trkpt><trkpt lat="41.81547723948895" lon="13.44075106600149"><ele>1430.0</ele><time>2026-04-05T07:00:02.001Z</time></trkpt><trkpt lat="41.815444548635234" lon="13.440632498763701"><ele>1430.0</ele><time>2026-04-05T07:00:04.001Z</time></trkpt><trkpt lat="41.815394164223974" lon="13.44055462612268"><ele>1435.2</ele><time>2026-04-05T07:00:06.001Z</time></trkpt><trkpt lat="41.815364796715784" lon="13.440408809968321"><ele>1440.4</ele><time>2026-04-05T07:00:08.001Z</time></trkpt><trkpt lat="41.81532978212719" lon="13.440331662844795"><ele>1445.6</ele><time>2026-04-05T07:00:09.001Z</time></trkpt><trkpt lat="41.815267838821846" lon="13.4401961666333"><ele>1450.8</ele><time>2026-04-05T07:00:11.001Z</time></trkpt><trkpt lat="41.815247053404015" lon="13.440111474022595"><ele>1456.0</ele><time>2026-04-05T07:00:12.001Z</time></trkpt><trkpt lat="41.815215169506146" lon="13.440002165741307"><ele>1456.0</ele><time>2026-04-05T07:00:13.001Z</time></trkpt><trkpt lat="41.8151792542126" lon="13.439868399724554"><ele>1456.0</ele><time>2026-04-05T07:00:14.001Z</time></trkpt><trkpt lat="41.81510723025423" lon="13.439608404774761"><ele>1456.0</ele><time>2026-04-05T07:00:16.001Z</time></trkpt><trkpt lat="41.81509198355859" lon="13.439501397168891"><ele>1456.0</ele><time>2026-04-05T07:00:17.001Z</time></trkpt><trkpt lat="41.81507342916379" lon="13.439400400907008"><ele>1451.8333333333333</ele><time>2026-04-05T07:00:18.001Z</time></trkpt><trkpt lat="41.81505013439095" lon="13.43930714812742"><ele>1447.6666666666665</ele><time>2026-04-05T07:00:19.001Z</time></trkpt><trkpt lat="41.815052059966256" lon="13.439187498399484"><ele>1443.5</ele><time>2026-04-05T07:00:20.001Z</time></trkpt><trkpt lat="41.81503037554061" lon="13.439083822968508"><ele>1439.3333333333333</ele><time>2026-04-05T07:00:21.001Z</time></trkpt><trkpt lat="41.815006572488954" lon="13.438985614373944"><ele>1435.1666666666667</ele><time>2026-04-05T07:00:22.001Z</time></trkpt><trkpt lat="41.81496927969028" lon="13.438886584899638"><ele>1431.0</ele><time>2026-04-05T07:00:23.001Z</time></trkpt><trkpt lat="41.81493713306954" lon="13.438798320260075"><ele>1431.0</ele><time>2026-04-05T07:00:24.001Z</time></trkpt><trkpt lat="41.814902669661315" lon="13.438695034611179"><ele>1431.0</ele><time>2026-04-05T07:00:25.001Z</time></trkpt><trkpt lat="41.8148473136397" lon="13.438571394727754"><ele>1431.0</ele><time>2026-04-05T07:00:26.001Z</time></trkpt><trkpt lat="41.81482796506399" lon="13.438484675829075"><ele>1431.0</ele><time>2026-04-05T07:00:27.001Z</time></trkpt><trkpt lat="41.814827848565585" lon="13.438395244761855"><ele>1431.0</ele><time>2026-04-05T07:00:28.001Z</time></trkpt><trkpt lat="41.81480933674165" lon="13.438302736809103"><ele>1431.0</ele><time>2026-04-05T07:00:29.001Z</time></trkpt><trkpt lat="41.81479213298523" lon="13.438136581788259"><ele>1431.0</ele><time>2026-04-05T07:00:31.001Z</time></trkpt><trkpt lat="41.814796168051316" lon="13.438031392530915"><ele>1431.0</ele><time>2026-04-05T07:00:32.001Z</time></trkpt><trkpt lat="41.81482326096985" lon="13.437947290045402"><ele>1431.0</ele><time>2026-04-05T07:00:33.001Z</time></trkpt><trkpt lat="41.81490645542848" lon="13.437790408628238"><ele>1431.0</ele><time>2026-04-05T07:00:35.001Z</time></trkpt><trkpt lat="41.815017616286" lon="13.437587197618393"><ele>1429.1999999999998</ele><time>2026-04-05T07:00:37.001Z</time></trkpt><trkpt lat="41.815090009255265" lon="13.437473308088803"><ele>1427.3999999999999</ele><time>2026-04-05T07:00:38.001Z</time></trkpt><trkpt lat="41.81514469388936" lon="13.437394234084795"><ele>1425.6</ele><time>2026-04-05T07:00:39.001Z</time></trkpt><trkpt lat="41.81519599049662" lon="13.437308023795174"><ele>1423.8</ele><time>2026-04-05T07:00:40.001Z</time></trkpt><trkpt lat="41.81527738007223" lon="13.43720448059804"><ele>1422.0</ele><time>2026-04-05T07:00:41.001Z</time></trkpt><trkpt lat="41.815358267162196" lon="13.43709147316335"><ele>1421.3999999999999</ele><time>2026-04-05T07:00:42.001Z</time></trkpt><trkpt lat="41.81543936931211" lon="13.437015958187875"><ele>1420.8</ele><time>2026-04-05T07:00:43.001Z</time></trkpt><trkpt lat="41.81552088976368" lon="13.436970303027453"><ele>1420.2</ele><time>2026-04-05T07:00:44.001Z</time></trkpt><trkpt lat="41.815607921185915" lon="13.436940742375121"><ele>1419.6</ele><time>2026-04-05T07:00:45.001Z</time></trkpt><trkpt lat="41.815712913300715" lon="13.436899407698746"><ele>1419.0</ele><time>2026-04-05T07:00:46.001Z</time></trkpt><trkpt lat="41.81582137612718" lon="13.43685905380557"><ele>1419.0</ele><time>2026-04-05T07:00:47.001Z</time></trkpt><trkpt lat="41.81592126240253" lon="13.436828050321493"><ele>1419.0</ele><time>2026-04-05T07:00:48.001Z</time></trkpt><trkpt lat="41.8160077022626" lon="13.436793395142768"><ele>1419.0</ele><time>2026-04-05T07:00:49.001Z</time></trkpt><trkpt lat="41.81608433143989" lon="13.43675633900864"><ele>1419.0</ele><time>2026-04-05T07:00:50.001Z</time></trkpt><trkpt lat="41.81615570603381" lon="13.436736692409463"><ele>1419.0</ele><time>2026-04-05T07:00:51.001Z</time></trkpt><trkpt lat="41.81622623583164" lon="13.436706848316257"><ele>1419.0</ele><time>2026-04-05T07:00:52.001Z</time></trkpt><trkpt lat="41.81629577440995" lon="13.436682122113"><ele>1421.4</ele><time>2026-04-05T07:00:53.001Z</time></trkpt><trkpt lat="41.81636824725392" lon="13.436666148115007"><ele>1423.8000000000002</ele><time>2026-04-05T07:00:54.001Z</time></trkpt><trkpt lat="41.816437551000206" lon="13.436649868390637"><ele>1426.1999999999998</ele><time>2026-04-05T07:00:55.001Z</time></trkpt><trkpt lat="41.816510441173946" lon="13.436646571225324"><ele>1428.6</ele><time>2026-04-05T07:00:56.001Z</time></trkpt><trkpt lat="41.81667306820489" lon="13.436639542621492"><ele>1431.0</ele><time>2026-04-05T07:00:58.001Z</time></trkpt><trkpt lat="41.816752933235314" lon="13.43661911270642"><ele>1431.1666666666667</ele><time>2026-04-05T07:00:59.001Z</time></trkpt><trkpt lat="41.816832473738984" lon="13.436593656189048"><ele>1431.3333333333333</ele><time>2026-04-05T07:01:00.001Z</time></trkpt><trkpt lat="41.81692076709925" lon="13.43656608515904"><ele>1431.5</ele><time>2026-04-05T07:01:01.001Z</time></trkpt><trkpt lat="41.817004457048476" lon="13.436537471395985"><ele>1431.6666666666665</ele><time>2026-04-05T07:01:02.001Z</time></trkpt><trkpt lat="41.81708228519222" lon="13.436508611228025"><ele>1431.8333333333333</ele><time>2026-04-05T07:01:03.001Z</time></trkpt><trkpt lat="41.81716933416301" lon="13.436457707288039"><ele>1432.0</ele><time>2026-04-05T07:01:05.001Z</time></trkpt><trkpt lat="41.81728105282891" lon="13.436461183545175"><ele>1432.0</ele><time>2026-04-05T07:01:07.001Z</time></trkpt><trkpt lat="41.81737195725259" lon="13.43645987654068"><ele>1432.0</ele><time>2026-04-05T07:01:09.002Z</time></trkpt><trkpt lat="41.8174711734826" lon="13.436406393593717"><ele>1432.0</ele><time>2026-04-05T07:01:12Z</time></trkpt><trkpt lat="41.81749953030291" lon="13.43631561443251"><ele>1432.0</ele><time>2026-04-05T07:01:13Z</time></trkpt><trkpt lat="41.81751218824853" lon="13.436155392639174"><ele>1432.0</ele><time>2026-04-05T07:01:15Z</time></trkpt><trkpt lat="41.81749509446956" lon="13.436072214893624"><ele>1427.3999999999999</ele><time>2026-04-05T07:01:16Z</time></trkpt><trkpt lat="41.81748299592986" lon="13.435971184487128"><ele>1422.8</ele><time>2026-04-05T07:01:17Z</time></trkpt><trkpt lat="41.817504478921734" lon="13.435748241940479"><ele>1418.2</ele><time>2026-04-05T07:01:19Z</time></trkpt><trkpt lat="41.81751863176755" lon="13.435631569440574"><ele>1413.6</ele><time>2026-04-05T07:01:20Z</time></trkpt><trkpt lat="41.8175343520902" lon="13.435502560325503"><ele>1409.0</ele><time>2026-04-05T07:01:21Z</time></trkpt><trkpt lat="41.81756261231162" lon="13.435360202177623"><ele>1406.7142857142858</ele><time>2026-04-05T07:01:22Z</time></trkpt><trkpt lat="41.81759410825875" lon="13.435251668473095"><ele>1404.4285714285713</ele><time>2026-04-05T07:01:23Z</time></trkpt><trkpt lat="41.81763594416809" lon="13.435169401233226"><ele>1402.142857142857</ele><time>2026-04-05T07:01:24Z</time></trkpt><trkpt lat="41.81768893880005" lon="13.435104634193147"><ele>1399.857142857143</ele><time>2026-04-05T07:01:25Z</time></trkpt><trkpt lat="41.81774520745945" lon="13.435046211488904"><ele>1397.5714285714284</ele><time>2026-04-05T07:01:26Z</time></trkpt><trkpt lat="41.81779612130585" lon="13.43498279783273"><ele>1395.2857142857142</ele><time>2026-04-05T07:01:27Z</time></trkpt><trkpt lat="41.817838548048265" lon="13.434908404609395"><ele>1393.0</ele><time>2026-04-05T07:01:28Z</time></trkpt><trkpt lat="41.817859559074954" lon="13.434721167628194"><ele>1397.6000000000001</ele><time>2026-04-05T07:01:30Z</time></trkpt><trkpt lat="41.81785686483578" lon="13.434610762202974"><ele>1402.2</ele><time>2026-04-05T07:01:31Z</time></trkpt><trkpt lat="41.817851357707504" lon="13.43449338830798"><ele>1406.8</ele><time>2026-04-05T07:01:32Z</time></trkpt><trkpt lat="41.81786228004719" lon="13.434367524741946"><ele>1411.4</ele><time>2026-04-05T07:01:33Z</time></trkpt><trkpt lat="41.81787933048877" lon="13.434229907058105"><ele>1416.0</ele><time>2026-04-05T07:01:34Z</time></trkpt><trkpt lat="41.81789721642877" lon="13.434107804183805"><ele>1416.0</ele><time>2026-04-05T07:01:35Z</time></trkpt><trkpt lat="41.817902503334814" lon="13.43399596392678"><ele>1416.0</ele><time>2026-04-05T07:01:36Z</time></trkpt><trkpt lat="41.81790153995425" lon="13.433900083980665"><ele>1416.0</ele><time>2026-04-05T07:01:37Z</time></trkpt><trkpt lat="41.81790476267364" lon="13.433806552801222"><ele>1416.0</ele><time>2026-04-05T07:01:38Z</time></trkpt><trkpt lat="41.81790851592044" lon="13.433612977298225"><ele>1416.0</ele><time>2026-04-05T07:01:40Z</time></trkpt><trkpt lat="41.817911132952965" lon="13.433505601093865"><ele>1416.0</ele><time>2026-04-05T07:01:41Z</time></trkpt><trkpt lat="41.817918219530966" lon="13.433390280397207"><ele>1413.8333333333333</ele><time>2026-04-05T07:01:42Z</time></trkpt><trkpt lat="41.817931530853244" lon="13.43327696794797"><ele>1411.6666666666667</ele><time>2026-04-05T07:01:43Z</time></trkpt><trkpt lat="41.81795380823445" lon="13.433168955270999"><ele>1409.5</ele><time>2026-04-05T07:01:44Z</time></trkpt><trkpt lat="41.817988767618715" lon="13.433061958797884"><ele>1407.3333333333335</ele><time>2026-04-05T07:01:45Z</time></trkpt><trkpt lat="41.81803610558632" lon="13.432958888778394"><ele>1405.1666666666667</ele><time>2026-04-05T07:01:46Z</time></trkpt><trkpt lat="41.818088322738326" lon="13.43284855401178"><ele>1403.0</ele><time>2026-04-05T07:01:47Z</time></trkpt><trkpt lat="41.81814379498027" lon="13.432718102193585"><ele>1399.8000000000002</ele><time>2026-04-05T07:01:48Z</time></trkpt><trkpt lat="41.818195437287216" lon="13.43259457801247"><ele>1396.6</ele><time>2026-04-05T07:01:49Z</time></trkpt><trkpt lat="41.818238949791905" lon="13.432486174206536"><ele>1393.4</ele><time>2026-04-05T07:01:50Z</time></trkpt><trkpt lat="41.818281434855926" lon="13.432380474336057"><ele>1390.1999999999998</ele><time>2026-04-05T07:01:51Z</time></trkpt><trkpt lat="41.81832025553603" lon="13.432285904079862"><ele>1387.0</ele><time>2026-04-05T07:01:52Z</time></trkpt><trkpt lat="41.8183592947954" lon="13.432185519479194"><ele>1387.1666666666665</ele><time>2026-04-05T07:01:53Z</time></trkpt><trkpt lat="41.818405286577246" lon="13.4320764926909"><ele>1387.3333333333333</ele><time>2026-04-05T07:01:54Z</time></trkpt><trkpt lat="41.81845280709667" lon="13.431966893259442"><ele>1387.5</ele><time>2026-04-05T07:01:55Z</time></trkpt><trkpt lat="41.81849163373184" lon="13.43187794404073"><ele>1387.6666666666667</ele><time>2026-04-05T07:01:56Z</time></trkpt><trkpt lat="41.81853116086904" lon="13.4318048175904"><ele>1387.8333333333335</ele><time>2026-04-05T07:01:57Z</time></trkpt><trkpt lat="41.81858202858939" lon="13.431743992190317"><ele>1388.0</ele><time>2026-04-05T07:01:58Z</time></trkpt><trkpt lat="41.81863922364847" lon="13.431681317498372"><ele>1388.0</ele><time>2026-04-05T07:01:59Z</time></trkpt><trkpt lat="41.81875058789425" lon="13.431537954956516"><ele>1388.0</ele><time>2026-04-05T07:02:01.001Z</time></trkpt><trkpt lat="41.818808253207735" lon="13.431479466343314"><ele>1388.0</ele><time>2026-04-05T07:02:02.001Z</time></trkpt><trkpt lat="41.81887820710797" lon="13.431426143676418"><ele>1388.0</ele><time>2026-04-05T07:02:03.001Z</time></trkpt><trkpt lat="41.81894865607933" lon="13.431382270731564"><ele>1388.0</ele><time>2026-04-05T07:02:04.001Z</time></trkpt><trkpt lat="41.819057591894776" lon="13.431330690843009"><ele>1384.0</ele><time>2026-04-05T07:02:06.001Z</time></trkpt><trkpt lat="41.81918015548605" lon="13.431295201769627"><ele>1380.0</ele><time>2026-04-05T07:02:08.001Z</time></trkpt><trkpt lat="41.81924687325714" lon="13.431268541526771"><ele>1376.0</ele><time>2026-04-05T07:02:09.001Z</time></trkpt><trkpt lat="41.81931370368387" lon="13.43122540673484"><ele>1372.0</ele><time>2026-04-05T07:02:10.001Z</time></trkpt><trkpt lat="41.81936787147278" lon="13.431168372014291"><ele>1368.0</ele><time>2026-04-05T07:02:11.001Z</time></trkpt><trkpt lat="41.81943298589877" lon="13.431099711895747"><ele>1364.0</ele><time>2026-04-05T07:02:12.001Z</time></trkpt><trkpt lat="41.81948676823469" lon="13.431042723908586"><ele>1364.0</ele><time>2026-04-05T07:02:13.001Z</time></trkpt><trkpt lat="41.81952621747165" lon="13.430970799453311"><ele>1364.0</ele><time>2026-04-05T07:02:14.001Z</time></trkpt><trkpt lat="41.81957456999703" lon="13.43091056918461"><ele>1364.0</ele><time>2026-04-05T07:02:15.001Z</time></trkpt><trkpt lat="41.8196735467112" lon="13.43081750623629"><ele>1364.0</ele><time>2026-04-05T07:02:17.001Z</time></trkpt><trkpt lat="41.819746902217695" lon="13.43075228607022"><ele>1364.0</ele><time>2026-04-05T07:02:19.001Z</time></trkpt><trkpt lat="41.8198210434413" lon="13.430703062406424"><ele>1364.0</ele><time>2026-04-05T07:02:21.001Z</time></trkpt><trkpt lat="41.81998283812139" lon="13.430643141679711"><ele>1364.0</ele><time>2026-04-05T07:02:25.001Z</time></trkpt><trkpt lat="41.82005981225945" lon="13.43059214280418"><ele>1364.0</ele><time>2026-04-05T07:02:34.001Z</time></trkpt><trkpt lat="41.820180426769404" lon="13.43056333009999"><ele>1364.0</ele><time>2026-04-05T07:02:36.001Z</time></trkpt><trkpt lat="41.820259556842785" lon="13.430539566747077"><ele>1364.0</ele><time>2026-04-05T07:02:37.001Z</time></trkpt><trkpt lat="41.820330016550706" lon="13.43052653205974"><ele>1364.0</ele><time>2026-04-05T07:02:38.001Z</time></trkpt><trkpt lat="41.8204123135778" lon="13.430497134378157"><ele>1364.0</ele><time>2026-04-05T07:02:40.001Z</time></trkpt><trkpt lat="41.82051257977723" lon="13.430436543843685"><ele>1355.5</ele><time>2026-04-05T07:02:42.001Z</time></trkpt><trkpt lat="41.820637339130954" lon="13.4303628114244"><ele>1347.0</ele><time>2026-04-05T07:02:48.001Z</time></trkpt><trkpt lat="41.82068722579853" lon="13.430309719299107"><ele>1338.5</ele><time>2026-04-05T07:03:17Z</time></trkpt><trkpt lat="41.82083983469211" lon="13.430179906305625"><ele>1330.0</ele><time>2026-04-05T07:03:21Z</time></trkpt><trkpt lat="41.82093065326188" lon="13.430116342013193"><ele>1329.6</ele><time>2026-04-05T07:03:24Z</time></trkpt><trkpt lat="41.82101515374484" lon="13.430092948175684"><ele>1329.2</ele><time>2026-04-05T07:03:26Z</time></trkpt><trkpt lat="41.821084407430995" lon="13.430095845659544"><ele>1328.8000000000002</ele><time>2026-04-05T07:03:27Z</time></trkpt><trkpt lat="41.82119881414268" lon="13.4300868327345"><ele>1328.4</ele><time>2026-04-05T07:03:29Z</time></trkpt><trkpt lat="41.8212619149567" lon="13.430099259520476"><ele>1328.0</ele><time>2026-04-05T07:03:30Z</time></trkpt><trkpt lat="41.821377502299796" lon="13.430100633063002"><ele>1328.0</ele><time>2026-04-05T07:03:32Z</time></trkpt><trkpt lat="41.821456551844975" lon="13.430077327206911"><ele>1328.0</ele><time>2026-04-05T07:03:33Z</time></trkpt><trkpt lat="41.821525228446184" lon="13.430048422882402"><ele>1328.0</ele><time>2026-04-05T07:03:34Z</time></trkpt><trkpt lat="41.82158985551403" lon="13.430022515315503"><ele>1328.0</ele><time>2026-04-05T07:03:35Z</time></trkpt><trkpt lat="41.821646459001904" lon="13.429979697283036"><ele>1328.0</ele><time>2026-04-05T07:03:36Z</time></trkpt><trkpt lat="41.82175860852445" lon="13.429883943536856"><ele>1328.0</ele><time>2026-04-05T07:03:38Z</time></trkpt><trkpt lat="41.82189884150141" lon="13.429840560983196"><ele>1326.8333333333335</ele><time>2026-04-05T07:03:40Z</time></trkpt><trkpt lat="41.82200659956308" lon="13.429805745604718"><ele>1325.6666666666667</ele><time>2026-04-05T07:03:42Z</time></trkpt><trkpt lat="41.822122318022735" lon="13.429802533392817"><ele>1324.5</ele><time>2026-04-05T07:03:44Z</time></trkpt><trkpt lat="41.82218250792517" lon="13.429837671424313"><ele>1323.3333333333333</ele><time>2026-04-05T07:03:45Z</time></trkpt><trkpt lat="41.822246624277724" lon="13.429864997845705"><ele>1322.1666666666665</ele><time>2026-04-05T07:03:46Z</time></trkpt><trkpt lat="41.822322257993555" lon="13.429926507605325"><ele>1321.0</ele><time>2026-04-05T07:03:47Z</time></trkpt><trkpt lat="41.82241301353448" lon="13.429960836615777"><ele>1321.0</ele><time>2026-04-05T07:03:48Z</time></trkpt><trkpt lat="41.82250663025222" lon="13.429987100796646"><ele>1321.0</ele><time>2026-04-05T07:03:49Z</time></trkpt><trkpt lat="41.82259601818893" lon="13.430004454414235"><ele>1321.0</ele><time>2026-04-05T07:03:50Z</time></trkpt><trkpt lat="41.82268127121642" lon="13.429999333414269"><ele>1321.0</ele><time>2026-04-05T07:03:51Z</time></trkpt><trkpt lat="41.82276983633502" lon="13.42999783985572"><ele>1321.0</ele><time>2026-04-05T07:03:52Z</time></trkpt><trkpt lat="41.822846739240134" lon="13.429972657839997"><ele>1321.0</ele><time>2026-04-05T07:03:53Z</time></trkpt><trkpt lat="41.82292101091503" lon="13.429938947132392"><ele>1319.4</ele><time>2026-04-05T07:03:54Z</time></trkpt><trkpt lat="41.823001322336545" lon="13.429906402115558"><ele>1317.8</ele><time>2026-04-05T07:03:55Z</time></trkpt><trkpt lat="41.82311533891651" lon="13.429835527025238"><ele>1316.2</ele><time>2026-04-05T07:03:57Z</time></trkpt><trkpt lat="41.823179893404046" lon="13.42980862205289"><ele>1314.6000000000001</ele><time>2026-04-05T07:03:58Z</time></trkpt><trkpt lat="41.82328852731234" lon="13.429784330470039"><ele>1313.0</ele><time>2026-04-05T07:04:00Z</time></trkpt><trkpt lat="41.82344442495531" lon="13.429677985840295"><ele>1313.2</ele><time>2026-04-05T07:04:04Z</time></trkpt><trkpt lat="41.82349827928381" lon="13.429628115058758"><ele>1313.4</ele><time>2026-04-05T07:04:06Z</time></trkpt><trkpt lat="41.82356560577336" lon="13.429571159736657"><ele>1313.6000000000001</ele><time>2026-04-05T07:04:09.001Z</time></trkpt><trkpt lat="41.82355722996991" lon="13.429465769384898"><ele>1313.8000000000002</ele><time>2026-04-05T07:04:48.001Z</time></trkpt><trkpt lat="41.82343604576122" lon="13.429318273654342"><ele>1314.0</ele><time>2026-04-05T07:04:55.001Z</time></trkpt><trkpt lat="41.82336149564649" lon="13.429256377731292"><ele>1310.0</ele><time>2026-04-05T07:04:58.001Z</time></trkpt><trkpt lat="41.82328541013328" lon="13.429179958302768"><ele>1306.0</ele><time>2026-04-05T07:05:00.001Z</time></trkpt><trkpt lat="41.82322975050035" lon="13.429108783145377"><ele>1302.0</ele><time>2026-04-05T07:05:02.001Z</time></trkpt><trkpt lat="41.8231822927073" lon="13.429045545320736"><ele>1298.0</ele><time>2026-04-05T07:05:04.001Z</time></trkpt><trkpt lat="41.823136939324456" lon="13.428940494691833"><ele>1294.0</ele><time>2026-04-05T07:05:08.001Z</time></trkpt><trkpt lat="41.823059819296745" lon="13.428916294206363"><ele>1290.0</ele><time>2026-04-05T07:05:10.001Z</time></trkpt><trkpt lat="41.822924595977796" lon="13.428866197939964"><ele>1290.0</ele><time>2026-04-05T07:05:15.001Z</time></trkpt><trkpt lat="41.822847170699504" lon="13.42883833198084"><ele>1290.0</ele><time>2026-04-05T07:05:17.001Z</time></trkpt><trkpt lat="41.82277025676997" lon="13.428823231711306"><ele>1290.0</ele><time>2026-04-05T07:05:19.001Z</time></trkpt><trkpt lat="41.82270258566206" lon="13.428801618870208"><ele>1290.0</ele><time>2026-04-05T07:05:21.002Z</time></trkpt><trkpt lat="41.82263057976613" lon="13.428754099533425"><ele>1290.0</ele><time>2026-04-05T07:05:23Z</time></trkpt><trkpt lat="41.82256092655685" lon="13.428707112332283"><ele>1290.0</ele><time>2026-04-05T07:05:25Z</time></trkpt><trkpt lat="41.822518186721766" lon="13.428619552446776"><ele>1286.3333333333333</ele><time>2026-04-05T07:05:27Z</time></trkpt><trkpt lat="41.82248099857281" lon="13.42850964539371"><ele>1282.6666666666665</ele><time>2026-04-05T07:05:29Z</time></trkpt><trkpt lat="41.82241818529168" lon="13.428369188661337"><ele>1279.0</ele><time>2026-04-05T07:05:31Z</time></trkpt><trkpt lat="41.82237031201714" lon="13.42805562591114"><ele>1275.5</ele><time>2026-04-05T07:05:35Z</time></trkpt><trkpt lat="41.82234003651939" lon="13.427885043136458"><ele>1272.0</ele><time>2026-04-05T07:05:37Z</time></trkpt><trkpt lat="41.8223111168633" lon="13.42774827995183"><ele>1268.5</ele><time>2026-04-05T07:05:39Z</time></trkpt><trkpt lat="41.82230399909428" lon="13.427577581367416"><ele>1265.0</ele><time>2026-04-05T07:05:41Z</time></trkpt><trkpt lat="41.822299509222695" lon="13.427438120931873"><ele>1265.0</ele><time>2026-04-05T07:05:43Z</time></trkpt><trkpt lat="41.82233862939392" lon="13.427320904132303"><ele>1265.0</ele><time>2026-04-05T07:05:45Z</time></trkpt><trkpt lat="41.82240992277085" lon="13.427217435014823"><ele>1265.0</ele><time>2026-04-05T07:05:47Z</time></trkpt><trkpt lat="41.82243111444733" lon="13.427135827829723"><ele>1265.0</ele><time>2026-04-05T07:05:49Z</time></trkpt><trkpt lat="41.822493000459254" lon="13.42704500758146"><ele>1265.0</ele><time>2026-04-05T07:05:52Z</time></trkpt><trkpt lat="41.82260812259857" lon="13.426947489047977"><ele>1265.3333333333335</ele><time>2026-04-05T07:05:56Z</time></trkpt><trkpt lat="41.82265887422002" lon="13.426867986216644"><ele>1265.6666666666667</ele><time>2026-04-05T07:05:59Z</time></trkpt><trkpt lat="41.8227024124237" lon="13.426782256223834"><ele>1266.0</ele><time>2026-04-05T07:06:01Z</time></trkpt><trkpt lat="41.82273159142098" lon="13.42668734503694"><ele>1266.3333333333333</ele><time>2026-04-05T07:06:03Z</time></trkpt><trkpt lat="41.82276292609309" lon="13.426597714796664"><ele>1266.6666666666665</ele><time>2026-04-05T07:06:05Z</time></trkpt><trkpt lat="41.8227460688125" lon="13.426461502658492"><ele>1267.0</ele><time>2026-04-05T07:06:09Z</time></trkpt><trkpt lat="41.82288443213261" lon="13.426150559371656"><ele>1267.0</ele><time>2026-04-05T07:06:10Z</time></trkpt><trkpt lat="41.82291610190776" lon="13.426044010598583"><ele>1267.0</ele><time>2026-04-05T07:06:11Z</time></trkpt><trkpt lat="41.82293171757066" lon="13.425933518043866"><ele>1267.0</ele><time>2026-04-05T07:06:12.001Z</time></trkpt><trkpt lat="41.82299432246099" lon="13.425825375909886"><ele>1267.0</ele><time>2026-04-05T07:06:13.001Z</time></trkpt><trkpt lat="41.82310723377667" lon="13.425639864878427"><ele>1265.0</ele><time>2026-04-05T07:06:15.001Z</time></trkpt><trkpt lat="41.82321644655427" lon="13.425461004746857"><ele>1263.0</ele><time>2026-04-05T07:06:17.001Z</time></trkpt><trkpt lat="41.82327632825176" lon="13.42534764704234"><ele>1261.0</ele><time>2026-04-05T07:06:18.001Z</time></trkpt><trkpt lat="41.82330781936094" lon="13.425234318534226"><ele>1259.0</ele><time>2026-04-05T07:06:19.001Z</time></trkpt><trkpt lat="41.82333887039828" lon="13.425110729985851"><ele>1259.0</ele><time>2026-04-05T07:06:20.001Z</time></trkpt><trkpt lat="41.823347657071295" lon="13.424938811781555"><ele>1259.0</ele><time>2026-04-05T07:06:21.001Z</time></trkpt><trkpt lat="41.823358772353956" lon="13.424817538946607"><ele>1259.0</ele><time>2026-04-05T07:06:22.001Z</time></trkpt><trkpt lat="41.823392840498755" lon="13.424729246100501"><ele>1259.0</ele><time>2026-04-05T07:06:23.001Z</time></trkpt><trkpt lat="41.82342874502042" lon="13.424653178282707"><ele>1259.0</ele><time>2026-04-05T07:06:24.001Z</time></trkpt><trkpt lat="41.82352074215421" lon="13.42455481064225"><ele>1260.25</ele><time>2026-04-05T07:06:25.001Z</time></trkpt><trkpt lat="41.823578093997625" lon="13.424457778862124"><ele>1261.5</ele><time>2026-04-05T07:06:26.001Z</time></trkpt><trkpt lat="41.82365919140668" lon="13.424361639663658"><ele>1262.75</ele><time>2026-04-05T07:06:27.001Z</time></trkpt><trkpt lat="41.82375155406594" lon="13.4242439163348"><ele>1264.0</ele><time>2026-04-05T07:06:28.001Z</time></trkpt><trkpt lat="41.82386330414251" lon="13.424112394326347"><ele>1264.0</ele><time>2026-04-05T07:06:29.001Z</time></trkpt><trkpt lat="41.82390595819987" lon="13.42401426015114"><ele>1264.0</ele><time>2026-04-05T07:06:30.001Z</time></trkpt><trkpt lat="41.82394238917105" lon="13.42391241726088"><ele>1264.0</ele><time>2026-04-05T07:06:31.001Z</time></trkpt><trkpt lat="41.823967935000816" lon="13.423811081209058"><ele>1264.0</ele><time>2026-04-05T07:06:32.001Z</time></trkpt><trkpt lat="41.82404581895726" lon="13.42365564179488"><ele>1264.0</ele><time>2026-04-05T07:06:34.001Z</time></trkpt><trkpt lat="41.824204234719495" lon="13.4235667623786"><ele>1263.2</ele><time>2026-04-05T07:06:36.001Z</time></trkpt><trkpt lat="41.82430819769368" lon="13.423540326203511"><ele>1262.4</ele><time>2026-04-05T07:06:37.001Z</time></trkpt><trkpt lat="41.82440851675047" lon="13.423505102182757"><ele>1261.6</ele><time>2026-04-05T07:06:38.001Z</time></trkpt><trkpt lat="41.82449998874591" lon="13.42346334937492"><ele>1260.8</ele><time>2026-04-05T07:06:39.001Z</time></trkpt><trkpt lat="41.82457953708266" lon="13.423396823380974"><ele>1260.0</ele><time>2026-04-05T07:06:40.001Z</time></trkpt><trkpt lat="41.824641905045844" lon="13.423314801170065"><ele>1260.0</ele><time>2026-04-05T07:06:41.001Z</time></trkpt><trkpt lat="41.824709409801244" lon="13.423245809764499"><ele>1260.0</ele><time>2026-04-05T07:06:42.001Z</time></trkpt><trkpt lat="41.82478025670421" lon="13.42318748732309"><ele>1260.0</ele><time>2026-04-05T07:06:43.001Z</time></trkpt><trkpt lat="41.82488098695763" lon="13.423137628922003"><ele>1260.0</ele><time>2026-04-05T07:06:44.001Z</time></trkpt><trkpt lat="41.82502760279204" lon="13.423064375058997"><ele>1260.0</ele><time>2026-04-05T07:06:45.001Z</time></trkpt><trkpt lat="41.8251637172032" lon="13.422995701826656"><ele>1259.0</ele><time>2026-04-05T07:06:46.001Z</time></trkpt><trkpt lat="41.82528112674154" lon="13.422908099200377"><ele>1258.0</ele><time>2026-04-05T07:06:47.001Z</time></trkpt><trkpt lat="41.8254045202513" lon="13.422820898618204"><ele>1257.0</ele><time>2026-04-05T07:06:48.001Z</time></trkpt><trkpt lat="41.825503643690624" lon="13.42274484349385"><ele>1256.0</ele><time>2026-04-05T07:06:49.001Z</time></trkpt><trkpt lat="41.825584204988196" lon="13.42269264149433"><ele>1256.0</ele><time>2026-04-05T07:06:50.001Z</time></trkpt><trkpt lat="41.82566072147096" lon="13.422632061036586"><ele>1256.0</ele><time>2026-04-05T07:06:51.001Z</time></trkpt><trkpt lat="41.82575206779791" lon="13.42257586185217"><ele>1256.0</ele><time>2026-04-05T07:06:52.001Z</time></trkpt><trkpt lat="41.82585426355387" lon="13.422479884452088"><ele>1256.0</ele><time>2026-04-05T07:06:53.001Z</time></trkpt><trkpt lat="41.82596526652024" lon="13.422362255959714"><ele>1258.0</ele><time>2026-04-05T07:06:54.001Z</time></trkpt><trkpt lat="41.826094303430274" lon="13.422248990145242"><ele>1260.0</ele><time>2026-04-05T07:06:55.001Z</time></trkpt><trkpt lat="41.82629670713778" lon="13.42204516834415"><ele>1262.0</ele><time>2026-04-05T07:06:57.001Z</time></trkpt><trkpt lat="41.826413814758894" lon="13.421952082747422"><ele>1260.8</ele><time>2026-04-05T07:06:58.001Z</time></trkpt><trkpt lat="41.82650696333719" lon="13.421867870916701"><ele>1259.6</ele><time>2026-04-05T07:06:59.001Z</time></trkpt><trkpt lat="41.826604373994435" lon="13.42178345094606"><ele>1258.3999999999999</ele><time>2026-04-05T07:07:00.001Z</time></trkpt><trkpt lat="41.82668407307366" lon="13.42171035180486"><ele>1257.2</ele><time>2026-04-05T07:07:01.001Z</time></trkpt><trkpt lat="41.82678531789758" lon="13.42166586454471"><ele>1256.0</ele><time>2026-04-05T07:07:02.001Z</time></trkpt><trkpt lat="41.8268818614492" lon="13.42165313679984"><ele>1256.0</ele><time>2026-04-05T07:07:03.001Z</time></trkpt><trkpt lat="41.826976906970415" lon="13.42162535049946"><ele>1256.0</ele><time>2026-04-05T07:07:04.001Z</time></trkpt><trkpt lat="41.827017729217964" lon="13.42155844152457"><ele>1256.0</ele><time>2026-04-05T07:07:05.001Z</time></trkpt><trkpt lat="41.82707480964536" lon="13.421447129685683"><ele>1256.0</ele><time>2026-04-05T07:07:06.001Z</time></trkpt><trkpt lat="41.82713148571326" lon="13.421327938468485"><ele>1256.0</ele><time>2026-04-05T07:07:07.001Z</time></trkpt><trkpt lat="41.827202413779034" lon="13.421213908927099"><ele>1252.8</ele><time>2026-04-05T07:07:08.001Z</time></trkpt><trkpt lat="41.82728647801641" lon="13.421117248369438"><ele>1249.6</ele><time>2026-04-05T07:07:09.001Z</time></trkpt><trkpt lat="41.82736073614067" lon="13.421026971997314"><ele>1246.4</ele><time>2026-04-05T07:07:10.001Z</time></trkpt><trkpt lat="41.827434331333" lon="13.420928357493507"><ele>1243.2</ele><time>2026-04-05T07:07:11.001Z</time></trkpt><trkpt lat="41.82749741337434" lon="13.420818595313323"><ele>1240.0</ele><time>2026-04-05T07:07:12.001Z</time></trkpt><trkpt lat="41.8275493345885" lon="13.420706725939121"><ele>1240.0</ele><time>2026-04-05T07:07:13.001Z</time></trkpt><trkpt lat="41.827588196031044" lon="13.420587822132113"><ele>1240.0</ele><time>2026-04-05T07:07:14.001Z</time></trkpt><trkpt lat="41.8276162174526" lon="13.420468768331228"><ele>1240.0</ele><time>2026-04-05T07:07:15.001Z</time></trkpt><trkpt lat="41.827642648833724" lon="13.420352619113231"><ele>1240.0</ele><time>2026-04-05T07:07:16.001Z</time></trkpt><trkpt lat="41.827668540941275" lon="13.420135004135911"><ele>1240.0</ele><time>2026-04-05T07:07:18.001Z</time></trkpt><trkpt lat="41.8276648228861" lon="13.420010866887992"><ele>1240.6</ele><time>2026-04-05T07:07:19.001Z</time></trkpt><trkpt lat="41.82766242093634" lon="13.419888915442677"><ele>1241.2</ele><time>2026-04-05T07:07:20.001Z</time></trkpt><trkpt lat="41.82766285976477" lon="13.419780074870166"><ele>1241.8</ele><time>2026-04-05T07:07:21.001Z</time></trkpt><trkpt lat="41.827652545179255" lon="13.419623481431241"><ele>1242.4</ele><time>2026-04-05T07:07:23.001Z</time></trkpt><trkpt lat="41.82759989917784" lon="13.419484909441108"><ele>1243.0</ele><time>2026-04-05T07:07:25.002Z</time></trkpt><trkpt lat="41.82755993356861" lon="13.41937513363127"><ele>1243.0</ele><time>2026-04-05T07:07:27.002Z</time></trkpt><trkpt lat="41.82757641153067" lon="13.419267197574214"><ele>1243.0</ele><time>2026-04-05T07:07:29Z</time></trkpt><trkpt lat="41.827671837340105" lon="13.419163585822206"><ele>1243.0</ele><time>2026-04-05T07:07:31Z</time></trkpt><trkpt lat="41.827731869729384" lon="13.419133886775306"><ele>1243.0</ele><time>2026-04-05T07:07:32Z</time></trkpt><trkpt lat="41.82779521052688" lon="13.41913154428052"><ele>1243.0</ele><time>2026-04-05T07:07:33Z</time></trkpt><trkpt lat="41.82786074626656" lon="13.419119152364926"><ele>1243.0</ele><time>2026-04-05T07:07:34Z</time></trkpt><trkpt lat="41.82796530029471" lon="13.419157975323435"><ele>1244.0</ele><time>2026-04-05T07:07:36Z</time></trkpt><trkpt lat="41.828016797037385" lon="13.419207976450268"><ele>1244.0</ele><time>2026-04-05T07:07:37Z</time></trkpt><trkpt lat="41.82814890979835" lon="13.419447685073877"><ele>1244.0</ele><time>2026-04-05T07:07:41Z</time></trkpt><trkpt lat="41.828106779222495" lon="13.419538686960022"><ele>1244.0</ele><time>2026-04-05T07:07:44Z</time></trkpt><trkpt lat="41.82803117876083" lon="13.419535879771296"><ele>1244.0</ele><time>2026-04-05T07:09:15.001Z</time></trkpt></trkseg><trkseg><trkpt lat="41.828084986670774" lon="13.419574569050988"><ele>1244.0</ele><time>2026-04-05T07:26:38.001Z</time></trkpt><trkpt lat="41.82813514260382" lon="13.419506051456484"><ele>1244.0</ele><time>2026-04-05T07:28:28.001Z</time></trkpt><trkpt lat="41.82810753585957" lon="13.419586331612358"><ele>1244.0</ele><time>2026-04-05T07:29:14.001Z</time></trkpt><trkpt lat="41.82815426255244" lon="13.419493468762715"><ele>1244.0</ele><time>2026-04-05T07:29:19.001Z</time></trkpt><trkpt lat="41.828245503539634" lon="13.419398664714677"><ele>1244.0</ele><time>2026-04-05T07:29:21.001Z</time></trkpt><trkpt lat="41.82830593834969" lon="13.419317634803805"><ele>1244.0</ele><time>2026-04-05T07:29:22.001Z</time></trkpt><trkpt lat="41.82837817253978" lon="13.41924787190472"><ele>1244.0</ele><time>2026-04-05T07:29:23.001Z</time></trkpt><trkpt lat="41.82842410337091" lon="13.419175348971596"><ele>1244.0</ele><time>2026-04-05T07:29:24.001Z</time></trkpt><trkpt lat="41.82848684287529" lon="13.419104870523402"><ele>1244.0</ele><time>2026-04-05T07:29:25.001Z</time></trkpt><trkpt lat="41.82854699862594" lon="13.419055746027349"><ele>1244.0</ele><time>2026-04-05T07:29:26.001Z</time></trkpt><trkpt lat="41.82863315822493" lon="13.418964747122363"><ele>1244.0</ele><time>2026-04-05T07:29:28.001Z</time></trkpt><trkpt lat="41.82872757744635" lon="13.418871677843628"><ele>1246.1666666666667</ele><time>2026-04-05T07:29:30.001Z</time></trkpt><trkpt lat="41.828791641056924" lon="13.418810825896188"><ele>1248.3333333333335</ele><time>2026-04-05T07:29:31.001Z</time></trkpt><trkpt lat="41.82885287466353" lon="13.418729929874877"><ele>1250.5</ele><time>2026-04-05T07:29:32.001Z</time></trkpt><trkpt lat="41.828908592342565" lon="13.41864528806095"><ele>1252.6666666666667</ele><time>2026-04-05T07:29:33.002Z</time></trkpt><trkpt lat="41.828963792968544" lon="13.418553431068528"><ele>1254.8333333333333</ele><time>2026-04-05T07:29:34.002Z</time></trkpt><trkpt lat="41.829031876623134" lon="13.418464630578994"><ele>1257.0</ele><time>2026-04-05T07:29:35Z</time></trkpt><trkpt lat="41.829088326719784" lon="13.41838766430227"><ele>1257.0</ele><time>2026-04-05T07:29:36Z</time></trkpt><trkpt lat="41.82918123622471" lon="13.418274734620546"><ele>1257.0</ele><time>2026-04-05T07:29:37Z</time></trkpt><trkpt lat="41.829248626936476" lon="13.418197400756652"><ele>1257.0</ele><time>2026-04-05T07:29:38Z</time></trkpt><trkpt lat="41.829308002643614" lon="13.418144458562448"><ele>1257.0</ele><time>2026-04-05T07:29:39Z</time></trkpt><trkpt lat="41.82936341683247" lon="13.418070221831318"><ele>1257.0</ele><time>2026-04-05T07:29:40Z</time></trkpt><trkpt lat="41.82942024154536" lon="13.417998177754376"><ele>1257.0</ele><time>2026-04-05T07:29:41Z</time></trkpt><trkpt lat="41.829451781986045" lon="13.417906384563658"><ele>1258.3333333333333</ele><time>2026-04-05T07:29:42Z</time></trkpt><trkpt lat="41.829511776932065" lon="13.417834882243689"><ele>1259.6666666666667</ele><time>2026-04-05T07:29:43Z</time></trkpt><trkpt lat="41.829579698742755" lon="13.41778424071673"><ele>1261.0</ele><time>2026-04-05T07:29:44Z</time></trkpt><trkpt lat="41.82966614832534" lon="13.417712670521821"><ele>1262.3333333333335</ele><time>2026-04-05T07:29:45Z</time></trkpt><trkpt lat="41.82974660290611" lon="13.417668388448933"><ele>1263.6666666666667</ele><time>2026-04-05T07:29:46Z</time></trkpt><trkpt lat="41.82982030122236" lon="13.417628043616125"><ele>1265.0</ele><time>2026-04-05T07:29:47Z</time></trkpt><trkpt lat="41.829903653997945" lon="13.417556009479599"><ele>1265.0</ele><time>2026-04-05T07:29:48Z</time></trkpt><trkpt lat="41.82998740746005" lon="13.417519780639692"><ele>1265.0</ele><time>2026-04-05T07:29:49Z</time></trkpt><trkpt lat="41.830062031330534" lon="13.417487611366052"><ele>1265.0</ele><time>2026-04-05T07:29:50Z</time></trkpt><trkpt lat="41.83013218346261" lon="13.41747451784474"><ele>1265.0</ele><time>2026-04-05T07:29:51Z</time></trkpt><trkpt lat="41.83024157341053" lon="13.417413635178876"><ele>1265.0</ele><time>2026-04-05T07:29:53Z</time></trkpt><trkpt lat="41.8303365733346" lon="13.417348365440878"><ele>1266.0</ele><time>2026-04-05T07:29:55Z</time></trkpt><trkpt lat="41.830444845055005" lon="13.417295505314078"><ele>1267.0</ele><time>2026-04-05T07:29:57Z</time></trkpt><trkpt lat="41.83050203924827" lon="13.417217102101676"><ele>1268.0</ele><time>2026-04-05T07:29:59Z</time></trkpt><trkpt lat="41.83052470444972" lon="13.417137779919804"><ele>1269.0</ele><time>2026-04-05T07:30:00Z</time></trkpt><trkpt lat="41.83058379544924" lon="13.416971312024637"><ele>1270.0</ele><time>2026-04-05T07:30:02Z</time></trkpt><trkpt lat="41.83061036436847" lon="13.416866751449458"><ele>1271.0</ele><time>2026-04-05T07:30:03Z</time></trkpt><trkpt lat="41.83063437695374" lon="13.41675355496413"><ele>1272.0</ele><time>2026-04-05T07:30:04Z</time></trkpt><trkpt lat="41.83064343479554" lon="13.416649847447037"><ele>1273.0</ele><time>2026-04-05T07:30:05Z</time></trkpt><trkpt lat="41.8306509209043" lon="13.416534177331254"><ele>1274.0</ele><time>2026-04-05T07:30:06Z</time></trkpt><trkpt lat="41.83068083686166" lon="13.416423171796183"><ele>1275.0</ele><time>2026-04-05T07:30:07Z</time></trkpt><trkpt lat="41.83072553766533" lon="13.416293835892233"><ele>1276.0</ele><time>2026-04-05T07:30:08Z</time></trkpt><trkpt lat="41.83077256785574" lon="13.416200552045332"><ele>1276.6</ele><time>2026-04-05T07:30:09Z</time></trkpt><trkpt lat="41.83085760029407" lon="13.416057721259813"><ele>1277.1999999999998</ele><time>2026-04-05T07:30:11Z</time></trkpt><trkpt lat="41.83094014869296" lon="13.415902842304755"><ele>1277.8000000000002</ele><time>2026-04-05T07:30:13Z</time></trkpt><trkpt lat="41.8309699509046" lon="13.415801226051247"><ele>1278.4</ele><time>2026-04-05T07:30:14Z</time></trkpt><trkpt lat="41.83099156197194" lon="13.415705315358501"><ele>1279.0</ele><time>2026-04-05T07:30:15Z</time></trkpt><trkpt lat="41.83103125559069" lon="13.415636264317119"><ele>1279.0</ele><time>2026-04-05T07:30:16Z</time></trkpt><trkpt lat="41.83110060752354" lon="13.41555505666664"><ele>1279.0</ele><time>2026-04-05T07:30:17Z</time></trkpt><trkpt lat="41.8311734032434" lon="13.415384285264253"><ele>1279.0</ele><time>2026-04-05T07:30:19Z</time></trkpt><trkpt lat="41.831230024709015" lon="13.415274951642113"><ele>1279.0</ele><time>2026-04-05T07:30:20Z</time></trkpt><trkpt lat="41.83126335732707" lon="13.415171524398462"><ele>1279.0</ele><time>2026-04-05T07:30:21Z</time></trkpt><trkpt lat="41.83129194814535" lon="13.415067392329782"><ele>1280.2</ele><time>2026-04-05T07:30:22Z</time></trkpt><trkpt lat="41.83131539536207" lon="13.414930023039982"><ele>1281.4</ele><time>2026-04-05T07:30:23Z</time></trkpt><trkpt lat="41.831323637269016" lon="13.414821489242506"><ele>1282.6</ele><time>2026-04-05T07:30:24Z</time></trkpt><trkpt lat="41.831323261903535" lon="13.414666867561136"><ele>1283.8</ele><time>2026-04-05T07:30:26.001Z</time></trkpt><trkpt lat="41.831389264188985" lon="13.41454426534758"><ele>1285.0</ele><time>2026-04-05T07:30:28.001Z</time></trkpt><trkpt lat="41.83143527859548" lon="13.414466326625137"><ele>1286.6666666666665</ele><time>2026-04-05T07:30:29.001Z</time></trkpt><trkpt lat="41.83145104143814" lon="13.41435179209767"><ele>1288.3333333333333</ele><time>2026-04-05T07:30:30.001Z</time></trkpt><trkpt lat="41.83150269267631" lon="13.414273858925917"><ele>1290.0</ele><time>2026-04-05T07:30:32.001Z</time></trkpt><trkpt lat="41.831575428873165" lon="13.414185924647462"><ele>1291.6666666666667</ele><time>2026-04-05T07:30:34.001Z</time></trkpt><trkpt lat="41.831657449724666" lon="13.414136879039027"><ele>1293.3333333333335</ele><time>2026-04-05T07:30:35.001Z</time></trkpt><trkpt lat="41.83170977049543" lon="13.41405570010913"><ele>1295.0</ele><time>2026-04-05T07:30:36.001Z</time></trkpt><trkpt lat="41.83176875684249" lon="13.41400944707118"><ele>1294.8</ele><time>2026-04-05T07:30:37.001Z</time></trkpt><trkpt lat="41.83186643542341" lon="13.41390729199139"><ele>1294.6</ele><time>2026-04-05T07:30:39.001Z</time></trkpt><trkpt lat="41.8319113456979" lon="13.413840536656215"><ele>1294.4</ele><time>2026-04-05T07:30:40.001Z</time></trkpt><trkpt lat="41.831967533550745" lon="13.413774824926282"><ele>1294.2</ele><time>2026-04-05T07:30:41.001Z</time></trkpt><trkpt lat="41.83206868730397" lon="13.413694720615188"><ele>1294.0</ele><time>2026-04-05T07:30:43.001Z</time></trkpt><trkpt lat="41.83215257523644" lon="13.41364098493013"><ele>1295.3333333333333</ele><time>2026-04-05T07:30:45.001Z</time></trkpt><trkpt lat="41.83219567880339" lon="13.413513954454867"><ele>1296.6666666666667</ele><time>2026-04-05T07:30:47.001Z</time></trkpt><trkpt lat="41.832259318885946" lon="13.413508163269897"><ele>1298.0</ele><time>2026-04-05T07:30:51.001Z</time></trkpt><trkpt lat="41.832446367331194" lon="13.413183277325"><ele>1298.0</ele><time>2026-04-05T07:30:52.001Z</time></trkpt><trkpt lat="41.83252031952161" lon="13.413102456537489"><ele>1298.0</ele><time>2026-04-05T07:30:53.001Z</time></trkpt><trkpt lat="41.83259065946483" lon="13.413047262476255"><ele>1298.0</ele><time>2026-04-05T07:30:54.001Z</time></trkpt><trkpt lat="41.83265025116214" lon="13.41298665625005"><ele>1298.0</ele><time>2026-04-05T07:30:55.001Z</time></trkpt><trkpt lat="41.83270735659105" lon="13.412925681104412"><ele>1298.0</ele><time>2026-04-05T07:30:56.001Z</time></trkpt><trkpt lat="41.83275141773834" lon="13.41286339138495"><ele>1298.0</ele><time>2026-04-05T07:30:57.001Z</time></trkpt><trkpt lat="41.83284629365283" lon="13.41275159185729"><ele>1299.5</ele><time>2026-04-05T07:30:59.001Z</time></trkpt><trkpt lat="41.8328983149595" lon="13.412612633906624"><ele>1301.0</ele><time>2026-04-05T07:31:01.001Z</time></trkpt><trkpt lat="41.83290014521252" lon="13.412517312256515"><ele>1302.5</ele><time>2026-04-05T07:31:02.001Z</time></trkpt><trkpt lat="41.83291961171446" lon="13.412411378133939"><ele>1304.0</ele><time>2026-04-05T07:31:03.001Z</time></trkpt><trkpt lat="41.83293471558374" lon="13.412314861430875"><ele>1305.5</ele><time>2026-04-05T07:31:04.001Z</time></trkpt><trkpt lat="41.8329564061718" lon="13.412187877784742"><ele>1307.0</ele><time>2026-04-05T07:31:05.001Z</time></trkpt><trkpt lat="41.833008571340926" lon="13.4120249474301"><ele>1307.0</ele><time>2026-04-05T07:31:06.001Z</time></trkpt><trkpt lat="41.83303943430301" lon="13.411917554794295"><ele>1307.0</ele><time>2026-04-05T07:31:07.001Z</time></trkpt><trkpt lat="41.83305910416343" lon="13.411834110102378"><ele>1307.0</ele><time>2026-04-05T07:31:08.001Z</time></trkpt><trkpt lat="41.83309642248401" lon="13.411736612481226"><ele>1307.0</ele><time>2026-04-05T07:31:09.001Z</time></trkpt><trkpt lat="41.83317824478015" lon="13.411604467511347"><ele>1307.0</ele><time>2026-04-05T07:31:11.001Z</time></trkpt><trkpt lat="41.833242349843786" lon="13.41150945339763"><ele>1307.0</ele><time>2026-04-05T07:31:13.001Z</time></trkpt><trkpt lat="41.833311882376094" lon="13.411396263251556"><ele>1307.0</ele><time>2026-04-05T07:31:15.001Z</time></trkpt><trkpt lat="41.833394791150546" lon="13.411275601452203"><ele>1307.0</ele><time>2026-04-05T07:31:17.001Z</time></trkpt><trkpt lat="41.833429886678886" lon="13.411203400360062"><ele>1307.0</ele><time>2026-04-05T07:31:18.001Z</time></trkpt><trkpt lat="41.833458595992866" lon="13.411102279734843"><ele>1307.0</ele><time>2026-04-05T07:31:19.001Z</time></trkpt><trkpt lat="41.83350903888655" lon="13.411016137905381"><ele>1308.3333333333335</ele><time>2026-04-05T07:31:20.001Z</time></trkpt><trkpt lat="41.83359971971738" lon="13.41093621593103"><ele>1309.6666666666667</ele><time>2026-04-05T07:31:21.001Z</time></trkpt><trkpt lat="41.83369552651289" lon="13.410899713599155"><ele>1311.0</ele><time>2026-04-05T07:31:22.001Z</time></trkpt><trkpt lat="41.83378032886209" lon="13.410867678820187"><ele>1312.3333333333333</ele><time>2026-04-05T07:31:23.001Z</time></trkpt><trkpt lat="41.833853657973194" lon="13.410854545582099"><ele>1313.6666666666665</ele><time>2026-04-05T07:31:24.001Z</time></trkpt><trkpt lat="41.833922340193354" lon="13.410827698549909"><ele>1315.0</ele><time>2026-04-05T07:31:25.001Z</time></trkpt><trkpt lat="41.83401543639795" lon="13.410716902622635"><ele>1315.0</ele><time>2026-04-05T07:31:27.001Z</time></trkpt><trkpt lat="41.834072640676084" lon="13.410635374160828"><ele>1315.0</ele><time>2026-04-05T07:31:28.001Z</time></trkpt><trkpt lat="41.834137102041204" lon="13.410552095687931"><ele>1315.0</ele><time>2026-04-05T07:31:29.001Z</time></trkpt><trkpt lat="41.83423020430769" lon="13.410429124918371"><ele>1315.0</ele><time>2026-04-05T07:31:31.001Z</time></trkpt><trkpt lat="41.83430030188616" lon="13.410332365864484"><ele>1315.0</ele><time>2026-04-05T07:31:32.001Z</time></trkpt><trkpt lat="41.83437616136024" lon="13.410245417285225"><ele>1316.0</ele><time>2026-04-05T07:31:33.001Z</time></trkpt><trkpt lat="41.83442761061884" lon="13.410193042205915"><ele>1317.0</ele><time>2026-04-05T07:31:34.001Z</time></trkpt><trkpt lat="41.83449585899416" lon="13.410082470982868"><ele>1318.0</ele><time>2026-04-05T07:31:36.001Z</time></trkpt><trkpt lat="41.83453541703631" lon="13.40999590317678"><ele>1319.0</ele><time>2026-04-05T07:31:37.001Z</time></trkpt><trkpt lat="41.83455405807108" lon="13.409863476580396"><ele>1320.0</ele><time>2026-04-05T07:31:39.002Z</time></trkpt><trkpt lat="41.83457905490343" lon="13.409761494356182"><ele>1321.0</ele><time>2026-04-05T07:31:40.002Z</time></trkpt><trkpt lat="41.834618875385374" lon="13.409588220854744"><ele>1321.0</ele><time>2026-04-05T07:31:42Z</time></trkpt><trkpt lat="41.834638686881306" lon="13.409435785546574"><ele>1321.0</ele><time>2026-04-05T07:31:44Z</time></trkpt><trkpt lat="41.83462648270443" lon="13.409349498132313"><ele>1321.0</ele><time>2026-04-05T07:31:46Z</time></trkpt><trkpt lat="41.834573731438226" lon="13.409174279978583"><ele>1321.0</ele><time>2026-04-05T07:31:48Z</time></trkpt><trkpt lat="41.834571792088575" lon="13.409040238366366"><ele>1321.0</ele><time>2026-04-05T07:31:49Z</time></trkpt><trkpt lat="41.83457762155258" lon="13.408926480300053"><ele>1321.6</ele><time>2026-04-05T07:31:50Z</time></trkpt><trkpt lat="41.83454489843938" lon="13.408811980780253"><ele>1322.1999999999998</ele><time>2026-04-05T07:31:51Z</time></trkpt><trkpt lat="41.834493402467686" lon="13.408721379090757"><ele>1322.8000000000002</ele><time>2026-04-05T07:31:52Z</time></trkpt><trkpt lat="41.83443441250865" lon="13.408620471867579"><ele>1323.4</ele><time>2026-04-05T07:31:53Z</time></trkpt><trkpt lat="41.834375786969424" lon="13.408525136733072"><ele>1324.0</ele><time>2026-04-05T07:31:54Z</time></trkpt><trkpt lat="41.83429137515272" lon="13.408419061260902"><ele>1324.4</ele><time>2026-04-05T07:31:56Z</time></trkpt><trkpt lat="41.83423634674033" lon="13.408309928695166"><ele>1324.8000000000002</ele><time>2026-04-05T07:31:58Z</time></trkpt><trkpt lat="41.83420336991614" lon="13.408172553309754"><ele>1325.1999999999998</ele><time>2026-04-05T07:32:00Z</time></trkpt><trkpt lat="41.834197485467215" lon="13.407987284973187"><ele>1325.6</ele><time>2026-04-05T07:32:02Z</time></trkpt><trkpt lat="41.8341787617509" lon="13.407867415998599"><ele>1326.0</ele><time>2026-04-05T07:32:03Z</time></trkpt><trkpt lat="41.834130073195844" lon="13.407736265401347"><ele>1327.4</ele><time>2026-04-05T07:32:05Z</time></trkpt><trkpt lat="41.834078399872894" lon="13.407631298917009"><ele>1328.8</ele><time>2026-04-05T07:32:07Z</time></trkpt><trkpt lat="41.83405205419677" lon="13.40747908628612"><ele>1330.2</ele><time>2026-04-05T07:32:09Z</time></trkpt><trkpt lat="41.83403444176555" lon="13.407334955601709"><ele>1331.6000000000001</ele><time>2026-04-05T07:32:10Z</time></trkpt><trkpt lat="41.83402603762154" lon="13.407242960379477"><ele>1333.0</ele><time>2026-04-05T07:32:11Z</time></trkpt><trkpt lat="41.8339987505953" lon="13.407153641936215"><ele>1334.6666666666665</ele><time>2026-04-05T07:32:13Z</time></trkpt><trkpt lat="41.833944920478615" lon="13.407040341582528"><ele>1336.3333333333333</ele><time>2026-04-05T07:32:15Z</time></trkpt><trkpt lat="41.83391386987031" lon="13.40694589683961"><ele>1338.0</ele><time>2026-04-05T07:32:16Z</time></trkpt><trkpt lat="41.833907473938524" lon="13.406844980349952"><ele>1339.6666666666667</ele><time>2026-04-05T07:32:17Z</time></trkpt><trkpt lat="41.83393194369944" lon="13.406752342643907"><ele>1341.3333333333335</ele><time>2026-04-05T07:32:19Z</time></trkpt><trkpt lat="41.833975930638516" lon="13.406677476379539"><ele>1343.0</ele><time>2026-04-05T07:32:22Z</time></trkpt><trkpt lat="41.83405115606276" lon="13.406580733400707"><ele>1343.0</ele><time>2026-04-05T07:32:24Z</time></trkpt><trkpt lat="41.83405024004684" lon="13.40641922439323"><ele>1343.0</ele><time>2026-04-05T07:32:26Z</time></trkpt><trkpt lat="41.834046824518204" lon="13.40631007789385"><ele>1343.0</ele><time>2026-04-05T07:32:27Z</time></trkpt><trkpt lat="41.834062548953405" lon="13.40620266155296"><ele>1343.0</ele><time>2026-04-05T07:32:28.001Z</time></trkpt><trkpt lat="41.834037800278736" lon="13.406046024646399"><ele>1343.0</ele><time>2026-04-05T07:32:30.001Z</time></trkpt><trkpt lat="41.8340213505396" lon="13.405931900146012"><ele>1345.6000000000001</ele><time>2026-04-05T07:32:31.001Z</time></trkpt><trkpt lat="41.83401871506329" lon="13.405797251668282"><ele>1348.2</ele><time>2026-04-05T07:32:33.001Z</time></trkpt><trkpt lat="41.83407108799083" lon="13.405742337026274"><ele>1350.8</ele><time>2026-04-05T07:32:34.001Z</time></trkpt><trkpt lat="41.83414661272404" lon="13.405632184218675"><ele>1353.4</ele><time>2026-04-05T07:32:35.001Z</time></trkpt><trkpt lat="41.8342318682987" lon="13.405515633670268"><ele>1356.0</ele><time>2026-04-05T07:32:36.001Z</time></trkpt><trkpt lat="41.83430786913013" lon="13.405446135293204"><ele>1357.0</ele><time>2026-04-05T07:32:37.001Z</time></trkpt><trkpt lat="41.8343547545625" lon="13.405379745004796"><ele>1358.0</ele><time>2026-04-05T07:32:38.001Z</time></trkpt><trkpt lat="41.834383390644405" lon="13.40530112193512"><ele>1359.0</ele><time>2026-04-05T07:32:39.001Z</time></trkpt><trkpt lat="41.834423860959255" lon="13.405203576514642"><ele>1360.0</ele><time>2026-04-05T07:32:40.001Z</time></trkpt><trkpt lat="41.83446627343032" lon="13.40506432481436"><ele>1361.0</ele><time>2026-04-05T07:32:41.001Z</time></trkpt><trkpt lat="41.83451966428465" lon="13.404897402603448"><ele>1361.0</ele><time>2026-04-05T07:32:42.001Z</time></trkpt><trkpt lat="41.834543694702944" lon="13.404749034710177"><ele>1361.0</ele><time>2026-04-05T07:32:43.001Z</time></trkpt><trkpt lat="41.83454221759435" lon="13.404632854275984"><ele>1361.0</ele><time>2026-04-05T07:32:44.001Z</time></trkpt><trkpt lat="41.834526093427904" lon="13.40453942716411"><ele>1361.0</ele><time>2026-04-05T07:32:45.001Z</time></trkpt><trkpt lat="41.8344958202393" lon="13.404433079861342"><ele>1361.0</ele><time>2026-04-05T07:32:46.001Z</time></trkpt><trkpt lat="41.83444151149685" lon="13.40427699652232"><ele>1363.0</ele><time>2026-04-05T07:32:47.001Z</time></trkpt><trkpt lat="41.834405683166715" lon="13.404097755414934"><ele>1365.0</ele><time>2026-04-05T07:32:48.001Z</time></trkpt><trkpt lat="41.83438106401248" lon="13.403942746438318"><ele>1367.0</ele><time>2026-04-05T07:32:49.001Z</time></trkpt><trkpt lat="41.83437661486773" lon="13.403833796557947"><ele>1369.0</ele><time>2026-04-05T07:32:50.001Z</time></trkpt><trkpt lat="41.83438415309515" lon="13.403733167745273"><ele>1371.0</ele><time>2026-04-05T07:32:51.001Z</time></trkpt><trkpt lat="41.83441093306576" lon="13.403648407568845"><ele>1372.8</ele><time>2026-04-05T07:32:53.001Z</time></trkpt><trkpt lat="41.83436365893938" lon="13.403538712696"><ele>1374.6</ele><time>2026-04-05T07:32:55.001Z</time></trkpt><trkpt lat="41.8343267630799" lon="13.403421540051953"><ele>1376.4</ele><time>2026-04-05T07:32:57.001Z</time></trkpt><trkpt lat="41.83429508503537" lon="13.40332817586337"><ele>1378.2</ele><time>2026-04-05T07:33:01.001Z</time></trkpt><trkpt lat="41.83423122941785" lon="13.403201344396777"><ele>1380.0</ele><time>2026-04-05T07:33:03.001Z</time></trkpt><trkpt lat="41.8341828383016" lon="13.403030820927698"><ele>1381.6666666666667</ele><time>2026-04-05T07:33:05.001Z</time></trkpt><trkpt lat="41.83415348948677" lon="13.402929601813334"><ele>1383.3333333333333</ele><time>2026-04-05T07:33:06.001Z</time></trkpt><trkpt lat="41.834123944219996" lon="13.402843015753941"><ele>1385.0</ele><time>2026-04-05T07:33:07.001Z</time></trkpt><trkpt lat="41.83405558573054" lon="13.402732646785903"><ele>1386.6666666666665</ele><time>2026-04-05T07:33:08.001Z</time></trkpt><trkpt lat="41.83400146494734" lon="13.402634559508467"><ele>1388.3333333333333</ele><time>2026-04-05T07:33:09.001Z</time></trkpt><trkpt lat="41.83396739746211" lon="13.402534683295656"><ele>1390.0</ele><time>2026-04-05T07:33:10.001Z</time></trkpt><trkpt lat="41.83394402802686" lon="13.402439267140677"><ele>1390.0</ele><time>2026-04-05T07:33:11.001Z</time></trkpt><trkpt lat="41.83387829248522" lon="13.402407664610012"><ele>1390.0</ele><time>2026-04-05T07:33:12.001Z</time></trkpt><trkpt lat="41.833793233831756" lon="13.402370452520275"><ele>1390.0</ele><time>2026-04-05T07:33:13.001Z</time></trkpt><trkpt lat="41.8337356486749" lon="13.40232194117708"><ele>1390.0</ele><time>2026-04-05T07:33:14.001Z</time></trkpt><trkpt lat="41.833660167004425" lon="13.402157616741027"><ele>1390.0</ele><time>2026-04-05T07:33:16.001Z</time></trkpt><trkpt lat="41.83361865144142" lon="13.402050245992374"><ele>1392.2</ele><time>2026-04-05T07:33:17.001Z</time></trkpt><trkpt lat="41.83354106403772" lon="13.401980205732695"><ele>1394.4</ele><time>2026-04-05T07:33:18.001Z</time></trkpt><trkpt lat="41.833460556048166" lon="13.401952656301187"><ele>1396.6</ele><time>2026-04-05T07:33:19.001Z</time></trkpt><trkpt lat="41.833383547657824" lon="13.401926008013636"><ele>1398.8</ele><time>2026-04-05T07:33:20.001Z</time></trkpt><trkpt lat="41.833292736730975" lon="13.401787561471012"><ele>1401.0</ele><time>2026-04-05T07:33:22.001Z</time></trkpt><trkpt lat="41.83322181787102" lon="13.401687565186753"><ele>1401.0</ele><time>2026-04-05T07:33:23.001Z</time></trkpt><trkpt lat="41.833114462944316" lon="13.401601436610314"><ele>1401.0</ele><time>2026-04-05T07:33:24.001Z</time></trkpt><trkpt lat="41.83303825223899" lon="13.401539376131236"><ele>1401.0</ele><time>2026-04-05T07:33:25.001Z</time></trkpt><trkpt lat="41.83297959583598" lon="13.401486152471858"><ele>1401.0</ele><time>2026-04-05T07:33:26.001Z</time></trkpt><trkpt lat="41.83289819757357" lon="13.401356587387037"><ele>1401.0</ele><time>2026-04-05T07:33:28.001Z</time></trkpt><trkpt lat="41.83285656052592" lon="13.40125771570291"><ele>1403.6</ele><time>2026-04-05T07:33:29.001Z</time></trkpt><trkpt lat="41.83280195785349" lon="13.40114061283577"><ele>1406.1999999999998</ele><time>2026-04-05T07:33:30.001Z</time></trkpt><trkpt lat="41.83273968174401" lon="13.401031378851236"><ele>1408.8000000000002</ele><time>2026-04-05T07:33:31.001Z</time></trkpt><trkpt lat="41.83264463947306" lon="13.400936431874326"><ele>1411.4</ele><time>2026-04-05T07:33:32.001Z</time></trkpt><trkpt lat="41.832568838561045" lon="13.40083428553221"><ele>1414.0</ele><time>2026-04-05T07:33:33.001Z</time></trkpt><trkpt lat="41.83250493533899" lon="13.400739711272651"><ele>1414.0</ele><time>2026-04-05T07:33:34.001Z</time></trkpt><trkpt lat="41.83244691495226" lon="13.40067713020723"><ele>1414.0</ele><time>2026-04-05T07:33:35.001Z</time></trkpt><trkpt lat="41.832382275205646" lon="13.400614827082094"><ele>1414.0</ele><time>2026-04-05T07:33:36.001Z</time></trkpt><trkpt lat="41.83233544278677" lon="13.400495703892346"><ele>1414.0</ele><time>2026-04-05T07:33:38.001Z</time></trkpt><trkpt lat="41.83227645713889" lon="13.40041047017608"><ele>1414.0</ele><time>2026-04-05T07:33:39.001Z</time></trkpt><trkpt lat="41.83220431059514" lon="13.40036641802306"><ele>1414.0</ele><time>2026-04-05T07:33:40.002Z</time></trkpt><trkpt lat="41.832144194382394" lon="13.40030205197238"><ele>1415.7142857142858</ele><time>2026-04-05T07:33:41.002Z</time></trkpt><trkpt lat="41.832091172212024" lon="13.40020552251032"><ele>1417.4285714285716</ele><time>2026-04-05T07:33:42.002Z</time></trkpt><trkpt lat="41.832046339005686" lon="13.400106920345445"><ele>1419.142857142857</ele><time>2026-04-05T07:33:43.002Z</time></trkpt><trkpt lat="41.832024374597154" lon="13.40002224643217"><ele>1420.857142857143</ele><time>2026-04-05T07:33:44.002Z</time></trkpt><trkpt lat="41.832001406872386" lon="13.39993094815026"><ele>1422.5714285714287</ele><time>2026-04-05T07:33:45.002Z</time></trkpt><trkpt lat="41.83197291838675" lon="13.399847316298796"><ele>1424.2857142857142</ele><time>2026-04-05T07:33:46.002Z</time></trkpt><trkpt lat="41.83193323587223" lon="13.399777359097342"><ele>1426.0</ele><time>2026-04-05T07:33:47Z</time></trkpt><trkpt lat="41.83188816710495" lon="13.39969006519318"><ele>1427.0</ele><time>2026-04-05T07:33:48Z</time></trkpt><trkpt lat="41.83182137575342" lon="13.399587127776114"><ele>1428.0</ele><time>2026-04-05T07:33:50Z</time></trkpt><trkpt lat="41.83175308657523" lon="13.399504613232645"><ele>1429.0</ele><time>2026-04-05T07:33:52Z</time></trkpt><trkpt lat="41.83169198695722" lon="13.39940696348787"><ele>1430.0</ele><time>2026-04-05T07:33:56Z</time></trkpt><trkpt lat="41.83165268834415" lon="13.399312071506095"><ele>1431.0</ele><time>2026-04-05T07:33:59Z</time></trkpt><trkpt lat="41.83159235168747" lon="13.399234367783576"><ele>1431.0</ele><time>2026-04-05T07:34:01Z</time></trkpt><trkpt lat="41.83154031892079" lon="13.399148636689167"><ele>1431.0</ele><time>2026-04-05T07:34:02Z</time></trkpt><trkpt lat="41.831478126449305" lon="13.399060368956416"><ele>1431.0</ele><time>2026-04-05T07:34:05Z</time></trkpt><trkpt lat="41.83144042229532" lon="13.398926752827535"><ele>1431.0</ele><time>2026-04-05T07:34:07Z</time></trkpt><trkpt lat="41.83139423835644" lon="13.398862322781685"><ele>1431.0</ele><time>2026-04-05T07:34:09Z</time></trkpt><trkpt lat="41.8313287697855" lon="13.398813734546257"><ele>1431.0</ele><time>2026-04-05T07:34:10Z</time></trkpt><trkpt lat="41.831270056102845" lon="13.39878226288271"><ele>1433.5</ele><time>2026-04-05T07:34:11Z</time></trkpt><trkpt lat="41.8312156852512" lon="13.398692502091729"><ele>1436.0</ele><time>2026-04-05T07:34:13Z</time></trkpt><trkpt lat="41.83117616689436" lon="13.398529271540104"><ele>1438.5</ele><time>2026-04-05T07:34:15Z</time></trkpt><trkpt lat="41.831151415345836" lon="13.398451321408938"><ele>1441.0</ele><time>2026-04-05T07:34:16Z</time></trkpt><trkpt lat="41.83109763538687" lon="13.398396079670901"><ele>1443.5</ele><time>2026-04-05T07:34:17Z</time></trkpt><trkpt lat="41.83105284239283" lon="13.39829011265092"><ele>1446.0</ele><time>2026-04-05T07:34:19Z</time></trkpt><trkpt lat="41.83097220072" lon="13.39824797721506"><ele>1446.0</ele><time>2026-04-05T07:35:52.002Z</time></trkpt><trkpt lat="41.83100801699505" lon="13.398338524854019"><ele>1446.0</ele><time>2026-04-05T07:36:24Z</time></trkpt><trkpt lat="41.831070536643615" lon="13.398314183290426"><ele>1446.0</ele><time>2026-04-05T07:36:29Z</time></trkpt><trkpt lat="41.83110970927685" lon="13.398414994331777"><ele>1446.0</ele><time>2026-04-05T07:36:33Z</time></trkpt><trkpt lat="41.83111437681193" lon="13.398327801343015"><ele>1446.0</ele><time>2026-04-05T07:36:39Z</time></trkpt><trkpt lat="41.83105514338284" lon="13.398234248109969"><ele>1446.0</ele><time>2026-04-05T07:36:40.001Z</time></trkpt><trkpt lat="41.83100300237727" lon="13.398150296363498"><ele>1446.6</ele><time>2026-04-05T07:36:41.001Z</time></trkpt><trkpt lat="41.83093745062407" lon="13.398049945520194"><ele>1447.1999999999998</ele><time>2026-04-05T07:36:43.001Z</time></trkpt><trkpt lat="41.830856689825985" lon="13.398015214908265"><ele>1447.8000000000002</ele><time>2026-04-05T07:36:46.001Z</time></trkpt><trkpt lat="41.83077733900634" lon="13.397930674778316"><ele>1448.4</ele><time>2026-04-05T07:36:48.001Z</time></trkpt><trkpt lat="41.830719092805154" lon="13.397895171550593"><ele>1449.0</ele><time>2026-04-05T07:36:49.001Z</time></trkpt><trkpt lat="41.83063938315551" lon="13.397785286445735"><ele>1451.3333333333333</ele><time>2026-04-05T07:36:51.001Z</time></trkpt><trkpt lat="41.83058300769259" lon="13.397674011021302"><ele>1453.6666666666665</ele><time>2026-04-05T07:36:53.001Z</time></trkpt><trkpt lat="41.830518765364246" lon="13.397512059520027"><ele>1456.0</ele><time>2026-04-05T07:36:56.001Z</time></trkpt><trkpt lat="41.8303689506147" lon="13.397205648805643"><ele>1459.0</ele><time>2026-04-05T07:36:59.001Z</time></trkpt><trkpt lat="41.830267790092485" lon="13.3970927098649"><ele>1462.0</ele><time>2026-04-05T07:37:01.001Z</time></trkpt><trkpt lat="41.83021084722106" lon="13.397025471088021"><ele>1465.0</ele><time>2026-04-05T07:37:02.001Z</time></trkpt><trkpt lat="41.830145034223314" lon="13.39697206267269"><ele>1468.0</ele><time>2026-04-05T07:37:03.001Z</time></trkpt><trkpt lat="41.830042815113124" lon="13.396893291849075"><ele>1471.0</ele><time>2026-04-05T07:37:05.001Z</time></trkpt><trkpt lat="41.83009981730092" lon="13.396973201531347"><ele>1472.0</ele><time>2026-04-05T07:37:18.001Z</time></trkpt><trkpt lat="41.830198620780585" lon="13.39700422005332"><ele>1473.0</ele><time>2026-04-05T07:38:11Z</time></trkpt><trkpt lat="41.83027521713263" lon="13.397046387593068"><ele>1474.0</ele><time>2026-04-05T07:38:13Z</time></trkpt><trkpt lat="41.830346596408766" lon="13.397134836134247"><ele>1475.0</ele><time>2026-04-05T07:38:15Z</time></trkpt><trkpt lat="41.83039663426115" lon="13.397225176757377"><ele>1476.0</ele><time>2026-04-05T07:38:17Z</time></trkpt><trkpt lat="41.83045111633482" lon="13.39729786439589"><ele>1477.0</ele><time>2026-04-05T07:38:19Z</time></trkpt><trkpt lat="41.830499876837905" lon="13.397408815973996"><ele>1473.5</ele><time>2026-04-05T07:38:21Z</time></trkpt><trkpt lat="41.830527138606264" lon="13.397557933802116"><ele>1470.0</ele><time>2026-04-05T07:38:23Z</time></trkpt><trkpt lat="41.83057810282901" lon="13.397646565347884"><ele>1466.5</ele><time>2026-04-05T07:38:26Z</time></trkpt><trkpt lat="41.83064538414674" lon="13.39771842434987"><ele>1463.0</ele><time>2026-04-05T07:38:28Z</time></trkpt><trkpt lat="41.83070978670783" lon="13.39778583136174"><ele>1459.5</ele><time>2026-04-05T07:38:30Z</time></trkpt><trkpt lat="41.830757763231894" lon="13.397849447187614"><ele>1456.0</ele><time>2026-04-05T07:38:32Z</time></trkpt><trkpt lat="41.830830491079304" lon="13.397904732022182"><ele>1456.0</ele><time>2026-04-05T07:38:34Z</time></trkpt><trkpt lat="41.830902465095114" lon="13.397995392656634"><ele>1456.0</ele><time>2026-04-05T07:38:37Z</time></trkpt><trkpt lat="41.830951501214635" lon="13.398072113790302"><ele>1456.0</ele><time>2026-04-05T07:38:40Z</time></trkpt><trkpt lat="41.83099680810542" lon="13.398172568641977"><ele>1456.0</ele><time>2026-04-05T07:38:43Z</time></trkpt><trkpt lat="41.83104945874538" lon="13.39825136562687"><ele>1456.0</ele><time>2026-04-05T07:38:46.001Z</time></trkpt><trkpt lat="41.83110031061372" lon="13.398350400932832"><ele>1456.0</ele><time>2026-04-05T07:38:48.001Z</time></trkpt><trkpt lat="41.83111947026304" lon="13.39844398370569"><ele>1454.3333333333333</ele><time>2026-04-05T07:38:50.001Z</time></trkpt><trkpt lat="41.83116824690849" lon="13.398526794243326"><ele>1452.6666666666665</ele><time>2026-04-05T07:38:52.001Z</time></trkpt><trkpt lat="41.83123906319748" lon="13.398538825652214"><ele>1451.0</ele><time>2026-04-05T07:38:54.001Z</time></trkpt><trkpt lat="41.83132180890018" lon="13.398607950090739"><ele>1449.3333333333333</ele><time>2026-04-05T07:38:56.001Z</time></trkpt><trkpt lat="41.83139916046219" lon="13.398698623626284"><ele>1447.6666666666667</ele><time>2026-04-05T07:38:58.001Z</time></trkpt><trkpt lat="41.831440288786986" lon="13.398785997510087"><ele>1446.0</ele><time>2026-04-05T07:39:00.001Z</time></trkpt><trkpt lat="41.83149110851621" lon="13.398867468384122"><ele>1443.5</ele><time>2026-04-05T07:39:02.001Z</time></trkpt><trkpt lat="41.831515945415276" lon="13.398949516701782"><ele>1441.0</ele><time>2026-04-05T07:39:04.001Z</time></trkpt><trkpt lat="41.831593471419" lon="13.398965749498592"><ele>1438.5</ele><time>2026-04-05T07:39:07.001Z</time></trkpt><trkpt lat="41.83163342748778" lon="13.399037620304535"><ele>1436.0</ele><time>2026-04-05T07:39:09.001Z</time></trkpt><trkpt lat="41.83166296783002" lon="13.399163334873512"><ele>1433.5</ele><time>2026-04-05T07:39:11.001Z</time></trkpt><trkpt lat="41.831700354328035" lon="13.399266085179779"><ele>1431.0</ele><time>2026-04-05T07:39:15.001Z</time></trkpt><trkpt lat="41.83174562108024" lon="13.399340827210228"><ele>1431.0</ele><time>2026-04-05T07:39:17.001Z</time></trkpt><trkpt lat="41.83177247867338" lon="13.399427404301171"><ele>1431.0</ele><time>2026-04-05T07:39:19.001Z</time></trkpt><trkpt lat="41.83178943248467" lon="13.399512292576649"><ele>1431.0</ele><time>2026-04-05T07:39:20.001Z</time></trkpt><trkpt lat="41.831829460392754" lon="13.39960312686213"><ele>1431.0</ele><time>2026-04-05T07:39:21.001Z</time></trkpt><trkpt lat="41.83188381697546" lon="13.399689900669484"><ele>1431.0</ele><time>2026-04-05T07:39:24.001Z</time></trkpt><trkpt lat="41.83208714972774" lon="13.40015434082068"><ele>1430.1666666666667</ele><time>2026-04-05T07:39:26.001Z</time></trkpt><trkpt lat="41.83212774002274" lon="13.400222930176954"><ele>1429.3333333333333</ele><time>2026-04-05T07:39:27.001Z</time></trkpt><trkpt lat="41.83221327077416" lon="13.400328864746164"><ele>1428.5</ele><time>2026-04-05T07:39:29.001Z</time></trkpt><trkpt lat="41.832294640650964" lon="13.400400142682455"><ele>1427.6666666666665</ele><time>2026-04-05T07:39:31.001Z</time></trkpt><trkpt lat="41.832341660373" lon="13.400464399776158"><ele>1426.8333333333333</ele><time>2026-04-05T07:39:32.001Z</time></trkpt><trkpt lat="41.832396941142456" lon="13.400548690195208"><ele>1426.0</ele><time>2026-04-05T07:39:33.001Z</time></trkpt><trkpt lat="41.832422294177555" lon="13.400470528715097"><ele>1424.3333333333333</ele><time>2026-04-05T07:39:34.001Z</time></trkpt><trkpt lat="41.8324870848135" lon="13.40053990398148"><ele>1422.6666666666665</ele><time>2026-04-05T07:39:35.001Z</time></trkpt><trkpt lat="41.83254803179411" lon="13.400617926442774"><ele>1421.0</ele><time>2026-04-05T07:39:36.001Z</time></trkpt><trkpt lat="41.8325994155447" lon="13.400696328800864"><ele>1419.3333333333333</ele><time>2026-04-05T07:39:37.001Z</time></trkpt><trkpt lat="41.83265977049654" lon="13.40080777331735"><ele>1417.6666666666667</ele><time>2026-04-05T07:39:38.001Z</time></trkpt><trkpt lat="41.83268762250093" lon="13.400901358287614"><ele>1416.0</ele><time>2026-04-05T07:39:39.001Z</time></trkpt><trkpt lat="41.832728107237706" lon="13.400985443554323"><ele>1416.0</ele><time>2026-04-05T07:39:40.001Z</time></trkpt><trkpt lat="41.83278234489919" lon="13.40106730358863"><ele>1416.0</ele><time>2026-04-05T07:39:41.001Z</time></trkpt><trkpt lat="41.83281814510749" lon="13.401150864911976"><ele>1416.0</ele><time>2026-04-05T07:39:42.001Z</time></trkpt><trkpt lat="41.832864476868316" lon="13.40123865186924"><ele>1416.0</ele><time>2026-04-05T07:39:43.001Z</time></trkpt><trkpt lat="41.832909960177645" lon="13.401303486788409"><ele>1416.0</ele><time>2026-04-05T07:39:44.001Z</time></trkpt><trkpt lat="41.833007711127316" lon="13.401405691088636"><ele>1416.0</ele><time>2026-04-05T07:39:46.001Z</time></trkpt><trkpt lat="41.83307620403197" lon="13.40146993391703"><ele>1413.0</ele><time>2026-04-05T07:39:47.001Z</time></trkpt><trkpt lat="41.8331686276792" lon="13.40146989125902"><ele>1410.0</ele><time>2026-04-05T07:39:49.001Z</time></trkpt><trkpt lat="41.833223096136365" lon="13.401531102920359"><ele>1407.0</ele><time>2026-04-05T07:39:51.001Z</time></trkpt><trkpt lat="41.833312643210206" lon="13.401653242371792"><ele>1404.0</ele><time>2026-04-05T07:39:53.001Z</time></trkpt><trkpt lat="41.83339617314587" lon="13.401717498202922"><ele>1401.0</ele><time>2026-04-05T07:39:55.001Z</time></trkpt><trkpt lat="41.83345686741058" lon="13.40176546674675"><ele>1402.0</ele><time>2026-04-05T07:39:56.001Z</time></trkpt><trkpt lat="41.833506651252065" lon="13.401829154980259"><ele>1403.0</ele><time>2026-04-05T07:39:59.001Z</time></trkpt><trkpt lat="41.83369295874285" lon="13.40217755423524"><ele>1404.0</ele><time>2026-04-05T07:40:00.001Z</time></trkpt><trkpt lat="41.83376084606264" lon="13.402227970946093"><ele>1401.2</ele><time>2026-04-05T07:40:02.001Z</time></trkpt><trkpt lat="41.83384426701237" lon="13.402299668792864"><ele>1398.4</ele><time>2026-04-05T07:40:03.002Z</time></trkpt><trkpt lat="41.833933860438044" lon="13.402370108986954"><ele>1395.6</ele><time>2026-04-05T07:40:05Z</time></trkpt><trkpt lat="41.83399252141572" lon="13.402535905976984"><ele>1392.8</ele><time>2026-04-05T07:40:07Z</time></trkpt><trkpt lat="41.834062256319704" lon="13.402645236069128"><ele>1390.0</ele><time>2026-04-05T07:40:09Z</time></trkpt><trkpt lat="41.83411110858526" lon="13.402794976766502"><ele>1390.0</ele><time>2026-04-05T07:40:10Z</time></trkpt><trkpt lat="41.83415593178082" lon="13.40293956939253"><ele>1390.0</ele><time>2026-04-05T07:40:12Z</time></trkpt><trkpt lat="41.83419484477958" lon="13.403101618531387"><ele>1390.0</ele><time>2026-04-05T07:40:14Z</time></trkpt><trkpt lat="41.83423709090097" lon="13.40319592064378"><ele>1390.0</ele><time>2026-04-05T07:40:15Z</time></trkpt><trkpt lat="41.83428112388164" lon="13.403267661748636"><ele>1390.0</ele><time>2026-04-05T07:40:16Z</time></trkpt><trkpt lat="41.834367178895306" lon="13.403318555416456"><ele>1388.8</ele><time>2026-04-05T07:40:18Z</time></trkpt><trkpt lat="41.83444993469314" lon="13.403308905319381"><ele>1387.6</ele><time>2026-04-05T07:40:19Z</time></trkpt><trkpt lat="41.83459478620383" lon="13.403280993837585"><ele>1386.4</ele><time>2026-04-05T07:40:20Z</time></trkpt><trkpt lat="41.83467767652953" lon="13.403300566265564"><ele>1385.2</ele><time>2026-04-05T07:40:21Z</time></trkpt><trkpt lat="41.834805223277925" lon="13.403337146875387"><ele>1384.0</ele><time>2026-04-05T07:40:23Z</time></trkpt><trkpt lat="41.834938574285225" lon="13.403448166694162"><ele>1384.0</ele><time>2026-04-05T07:40:24Z</time></trkpt><trkpt lat="41.83502563376341" lon="13.403492245434355"><ele>1384.0</ele><time>2026-04-05T07:40:25Z</time></trkpt><trkpt lat="41.835069297236664" lon="13.403592025014806"><ele>1384.0</ele><time>2026-04-05T07:40:26Z</time></trkpt><trkpt lat="41.83513400208909" lon="13.403651178622079"><ele>1384.0</ele><time>2026-04-05T07:40:27Z</time></trkpt><trkpt lat="41.83520416374168" lon="13.403802131111922"><ele>1384.0</ele><time>2026-04-05T07:40:29Z</time></trkpt><trkpt lat="41.8352550302101" lon="13.40385313828144"><ele>1383.0</ele><time>2026-04-05T07:40:30Z</time></trkpt><trkpt lat="41.83530545505277" lon="13.40393167450716"><ele>1382.0</ele><time>2026-04-05T07:40:31Z</time></trkpt><trkpt lat="41.83545270296865" lon="13.403940726511237"><ele>1381.0</ele><time>2026-04-05T07:40:32Z</time></trkpt><trkpt lat="41.83558528076876" lon="13.403928112252068"><ele>1380.0</ele><time>2026-04-05T07:40:33Z</time></trkpt><trkpt lat="41.83571435977368" lon="13.404014702960797"><ele>1380.0</ele><time>2026-04-05T07:40:35Z</time></trkpt><trkpt lat="41.83580149984639" lon="13.404080056903775"><ele>1380.0</ele><time>2026-04-05T07:40:36Z</time></trkpt><trkpt lat="41.83588624852661" lon="13.404145225050534"><ele>1380.0</ele><time>2026-04-05T07:40:37Z</time></trkpt><trkpt lat="41.83596836920868" lon="13.40418453833567"><ele>1380.0</ele><time>2026-04-05T07:40:38Z</time></trkpt><trkpt lat="41.83604939411317" lon="13.40421182779185"><ele>1380.0</ele><time>2026-04-05T07:40:39Z</time></trkpt><trkpt lat="41.836134987741026" lon="13.404266195834433"><ele>1380.5</ele><time>2026-04-05T07:40:40Z</time></trkpt><trkpt lat="41.83623690473826" lon="13.404370947973359"><ele>1381.0</ele><time>2026-04-05T07:40:41Z</time></trkpt><trkpt lat="41.83631760832158" lon="13.404482529489163"><ele>1381.5</ele><time>2026-04-05T07:40:42Z</time></trkpt><trkpt lat="41.83639237503124" lon="13.404611807214403"><ele>1382.0</ele><time>2026-04-05T07:40:43Z</time></trkpt><trkpt lat="41.836454784635045" lon="13.404732560602838"><ele>1382.0</ele><time>2026-04-05T07:40:44Z</time></trkpt><trkpt lat="41.83653684857314" lon="13.404882457127412"><ele>1382.0</ele><time>2026-04-05T07:40:45Z</time></trkpt><trkpt lat="41.83660604248894" lon="13.405021958251018"><ele>1382.0</ele><time>2026-04-05T07:40:46Z</time></trkpt><trkpt lat="41.83669374930051" lon="13.40517575894287"><ele>1382.0</ele><time>2026-04-05T07:40:47Z</time></trkpt><trkpt lat="41.83678231786957" lon="13.405333705211525"><ele>1385.75</ele><time>2026-04-05T07:40:48Z</time></trkpt><trkpt lat="41.83685221663902" lon="13.405460056723479"><ele>1389.5</ele><time>2026-04-05T07:40:49Z</time></trkpt><trkpt lat="41.83690486939707" lon="13.40560677740793"><ele>1393.25</ele><time>2026-04-05T07:40:50Z</time></trkpt><trkpt lat="41.83698067219842" lon="13.405762570159931"><ele>1397.0</ele><time>2026-04-05T07:40:51Z</time></trkpt><trkpt lat="41.837042845098274" lon="13.40593225887457"><ele>1397.0</ele><time>2026-04-05T07:40:52Z</time></trkpt><trkpt lat="41.83712026051202" lon="13.406096325666633"><ele>1397.0</ele><time>2026-04-05T07:40:53Z</time></trkpt><trkpt lat="41.83718857162452" lon="13.406224240529154"><ele>1397.0</ele><time>2026-04-05T07:40:54Z</time></trkpt><trkpt lat="41.8372583286599" lon="13.406351307438086"><ele>1397.0</ele><time>2026-04-05T07:40:55.001Z</time></trkpt><trkpt lat="41.8373326402643" lon="13.40647334785113"><ele>1394.6</ele><time>2026-04-05T07:40:56.001Z</time></trkpt><trkpt lat="41.83740474001364" lon="13.406604046075516"><ele>1392.1999999999998</ele><time>2026-04-05T07:40:57.001Z</time></trkpt><trkpt lat="41.83746114315466" lon="13.406685391653081"><ele>1389.8</ele><time>2026-04-05T07:40:58.001Z</time></trkpt><trkpt lat="41.837530690089764" lon="13.406740806762977"><ele>1387.4</ele><time>2026-04-05T07:40:59.001Z</time></trkpt><trkpt lat="41.83763602151505" lon="13.406714129853093"><ele>1385.0</ele><time>2026-04-05T07:41:01.001Z</time></trkpt><trkpt lat="41.83770169983675" lon="13.406677017037554"><ele>1383.8</ele><time>2026-04-05T07:41:02.001Z</time></trkpt><trkpt lat="41.83777806426237" lon="13.406612976126144"><ele>1382.6</ele><time>2026-04-05T07:41:03.001Z</time></trkpt><trkpt lat="41.83784087238949" lon="13.40652348711523"><ele>1381.4</ele><time>2026-04-05T07:41:04.001Z</time></trkpt><trkpt lat="41.837903890758085" lon="13.406439900174817"><ele>1380.2</ele><time>2026-04-05T07:41:05.001Z</time></trkpt><trkpt lat="41.837965882995974" lon="13.406323066828362"><ele>1379.0</ele><time>2026-04-05T07:41:06.001Z</time></trkpt><trkpt lat="41.83800246064892" lon="13.406227357162635"><ele>1379.0</ele><time>2026-04-05T07:41:07.001Z</time></trkpt><trkpt lat="41.838028009337116" lon="13.40614903503353"><ele>1379.0</ele><time>2026-04-05T07:41:08.001Z</time></trkpt><trkpt lat="41.838021935864404" lon="13.406059157193557"><ele>1379.0</ele><time>2026-04-05T07:41:09.001Z</time></trkpt><trkpt lat="41.83798524897858" lon="13.405972639316976"><ele>1379.0</ele><time>2026-04-05T07:41:10.001Z</time></trkpt><trkpt lat="41.83793958322051" lon="13.405823207441786"><ele>1379.0</ele><time>2026-04-05T07:41:11.001Z</time></trkpt><trkpt lat="41.83789172593837" lon="13.405648475844973"><ele>1379.0</ele><time>2026-04-05T07:41:12.001Z</time></trkpt><trkpt lat="41.837854865202964" lon="13.405511945210947"><ele>1379.0</ele><time>2026-04-05T07:41:13.001Z</time></trkpt><trkpt lat="41.83782501104696" lon="13.405352117248826"><ele>1379.0</ele><time>2026-04-05T07:41:14.001Z</time></trkpt><trkpt lat="41.837815797120946" lon="13.405176259341633"><ele>1379.0</ele><time>2026-04-05T07:41:15.001Z</time></trkpt><trkpt lat="41.83780842537955" lon="13.404978624468239"><ele>1377.2</ele><time>2026-04-05T07:41:16.001Z</time></trkpt><trkpt lat="41.8378121263211" lon="13.404808783741327"><ele>1375.4</ele><time>2026-04-05T07:41:17.001Z</time></trkpt><trkpt lat="41.83783225249128" lon="13.404648289870666"><ele>1373.6</ele><time>2026-04-05T07:41:18.001Z</time></trkpt><trkpt lat="41.837841553539214" lon="13.404501720596581"><ele>1371.8</ele><time>2026-04-05T07:41:19.001Z</time></trkpt><trkpt lat="41.83783109100349" lon="13.404397607482643"><ele>1370.0</ele><time>2026-04-05T07:41:20.001Z</time></trkpt><trkpt lat="41.837797659506364" lon="13.40430106019135"><ele>1368.6</ele><time>2026-04-05T07:41:21.001Z</time></trkpt><trkpt lat="41.83774935326359" lon="13.404209757442699"><ele>1367.2</ele><time>2026-04-05T07:41:22.001Z</time></trkpt><trkpt lat="41.837686268524095" lon="13.404097765230812"><ele>1365.8000000000002</ele><time>2026-04-05T07:41:23.001Z</time></trkpt><trkpt lat="41.83761706609175" lon="13.404000033583126"><ele>1364.4</ele><time>2026-04-05T07:41:24.001Z</time></trkpt><trkpt lat="41.83753815971617" lon="13.403893652615023"><ele>1363.0</ele><time>2026-04-05T07:41:25.001Z</time></trkpt><trkpt lat="41.837458660232244" lon="13.403788568798264"><ele>1366.6000000000001</ele><time>2026-04-05T07:41:26.001Z</time></trkpt><trkpt lat="41.83738791363164" lon="13.403707831393847"><ele>1370.2</ele><time>2026-04-05T07:41:27.001Z</time></trkpt><trkpt lat="41.837320729156154" lon="13.403585642843945"><ele>1373.8</ele><time>2026-04-05T07:41:28.001Z</time></trkpt><trkpt lat="41.83725338370066" lon="13.403444793301936"><ele>1377.4</ele><time>2026-04-05T07:41:29.001Z</time></trkpt><trkpt lat="41.837185308282415" lon="13.40332763757632"><ele>1381.0</ele><time>2026-04-05T07:41:30.001Z</time></trkpt><trkpt lat="41.83713590495279" lon="13.403209133683589"><ele>1381.0</ele><time>2026-04-05T07:41:31.001Z</time></trkpt><trkpt lat="41.83711256600187" lon="13.403096752497333"><ele>1381.0</ele><time>2026-04-05T07:41:32.001Z</time></trkpt><trkpt lat="41.837111403758065" lon="13.402966205822862"><ele>1381.0</ele><time>2026-04-05T07:41:33.001Z</time></trkpt><trkpt lat="41.83710843913164" lon="13.402758026198468"><ele>1381.0</ele><time>2026-04-05T07:41:34.001Z</time></trkpt><trkpt lat="41.83710043286185" lon="13.402547645008834"><ele>1377.75</ele><time>2026-04-05T07:41:35.001Z</time></trkpt><trkpt lat="41.83709048009493" lon="13.402362920582828"><ele>1374.5</ele><time>2026-04-05T07:41:36.001Z</time></trkpt><trkpt lat="41.83710441787836" lon="13.402193289963224"><ele>1371.25</ele><time>2026-04-05T07:41:37.001Z</time></trkpt><trkpt lat="41.83713408336135" lon="13.402055541912238"><ele>1368.0</ele><time>2026-04-05T07:41:38.001Z</time></trkpt><trkpt lat="41.83717097397319" lon="13.401866615525865"><ele>1367.2</ele><time>2026-04-05T07:41:40.001Z</time></trkpt><trkpt lat="41.83718294304953" lon="13.401749841033725"><ele>1366.4</ele><time>2026-04-05T07:41:41.001Z</time></trkpt><trkpt lat="41.83716383392424" lon="13.4016593062399"><ele>1365.6000000000001</ele><time>2026-04-05T07:41:42.001Z</time></trkpt><trkpt lat="41.83715312793966" lon="13.401529108997325"><ele>1364.8000000000002</ele><time>2026-04-05T07:41:43.001Z</time></trkpt><trkpt lat="41.83713834359194" lon="13.40138821431549"><ele>1364.0</ele><time>2026-04-05T07:41:44.001Z</time></trkpt><trkpt lat="41.83713686204289" lon="13.401208307241038"><ele>1363.8000000000002</ele><time>2026-04-05T07:41:45.001Z</time></trkpt><trkpt lat="41.83716090217941" lon="13.401046989030576"><ele>1363.6000000000001</ele><time>2026-04-05T07:41:46.001Z</time></trkpt><trkpt lat="41.837199233536914" lon="13.400916654442625"><ele>1363.4</ele><time>2026-04-05T07:41:47.001Z</time></trkpt><trkpt lat="41.83723262914706" lon="13.400762429606315"><ele>1363.2</ele><time>2026-04-05T07:41:48.001Z</time></trkpt><trkpt lat="41.837235471016186" lon="13.400633943906008"><ele>1363.0</ele><time>2026-04-05T07:41:49.001Z</time></trkpt><trkpt lat="41.83722136118883" lon="13.400487518976846"><ele>1363.0</ele><time>2026-04-05T07:41:50.001Z</time></trkpt><trkpt lat="41.837213044154716" lon="13.400347058957575"><ele>1363.0</ele><time>2026-04-05T07:41:51.001Z</time></trkpt><trkpt lat="41.83722082598806" lon="13.400222019746737"><ele>1363.0</ele><time>2026-04-05T07:41:52.001Z</time></trkpt><trkpt lat="41.83725840888005" lon="13.400096686799994"><ele>1363.0</ele><time>2026-04-05T07:41:53.001Z</time></trkpt><trkpt lat="41.83730340310741" lon="13.39996742078267"><ele>1363.0</ele><time>2026-04-05T07:41:54.001Z</time></trkpt><trkpt lat="41.83736491479348" lon="13.399833740671012"><ele>1363.0</ele><time>2026-04-05T07:41:55.001Z</time></trkpt><trkpt lat="41.83739139212522" lon="13.399681224904676"><ele>1363.0</ele><time>2026-04-05T07:41:56.001Z</time></trkpt><trkpt lat="41.83741365128134" lon="13.399561480078532"><ele>1363.0</ele><time>2026-04-05T07:41:57.001Z</time></trkpt><trkpt lat="41.837422709096984" lon="13.399382642622017"><ele>1363.0</ele><time>2026-04-05T07:41:58.001Z</time></trkpt><trkpt lat="41.83743712634392" lon="13.399234692061535"><ele>1364.2</ele><time>2026-04-05T07:41:59.001Z</time></trkpt><trkpt lat="41.83745842869646" lon="13.399094653894307"><ele>1365.4</ele><time>2026-04-05T07:42:00.001Z</time></trkpt><trkpt lat="41.83749103248107" lon="13.398961049260068"><ele>1366.6000000000001</ele><time>2026-04-05T07:42:01.001Z</time></trkpt><trkpt lat="41.83753771606308" lon="13.398821238073566"><ele>1367.8000000000002</ele><time>2026-04-05T07:42:02.001Z</time></trkpt><trkpt lat="41.83759223692845" lon="13.398684376910161"><ele>1369.0</ele><time>2026-04-05T07:42:03.001Z</time></trkpt><trkpt lat="41.83763964403103" lon="13.3985884144472"><ele>1361.0</ele><time>2026-04-05T07:42:04.001Z</time></trkpt><trkpt lat="41.83768693433074" lon="13.398460568441394"><ele>1353.0</ele><time>2026-04-05T07:42:05.001Z</time></trkpt><trkpt lat="41.83772064124842" lon="13.398335767996587"><ele>1345.0</ele><time>2026-04-05T07:42:06.001Z</time></trkpt><trkpt lat="41.837753898232705" lon="13.398222503170892"><ele>1337.0</ele><time>2026-04-05T07:42:07.001Z</time></trkpt><trkpt lat="41.83777257815605" lon="13.398093360392226"><ele>1329.0</ele><time>2026-04-05T07:42:08.001Z</time></trkpt><trkpt lat="41.83778504923246" lon="13.39799254917362"><ele>1329.0</ele><time>2026-04-05T07:42:09.001Z</time></trkpt><trkpt lat="41.83776893727831" lon="13.397885998213734"><ele>1329.0</ele><time>2026-04-05T07:42:10.002Z</time></trkpt><trkpt lat="41.837745747523755" lon="13.397789029592692"><ele>1329.0</ele><time>2026-04-05T07:42:11Z</time></trkpt><trkpt lat="41.83773830720971" lon="13.39763634552144"><ele>1329.0</ele><time>2026-04-05T07:42:12Z</time></trkpt><trkpt lat="41.837736741541626" lon="13.397505510121658"><ele>1329.0</ele><time>2026-04-05T07:42:13Z</time></trkpt><trkpt lat="41.83775731585688" lon="13.397373399158315"><ele>1329.0</ele><time>2026-04-05T07:42:14Z</time></trkpt><trkpt lat="41.837788791080285" lon="13.397251492000231"><ele>1329.0</ele><time>2026-04-05T07:42:15Z</time></trkpt><trkpt lat="41.83782534641674" lon="13.397139917936153"><ele>1329.0</ele><time>2026-04-05T07:42:16Z</time></trkpt><trkpt lat="41.8378411531039" lon="13.397027964808897"><ele>1329.0</ele><time>2026-04-05T07:42:17Z</time></trkpt><trkpt lat="41.8378254285592" lon="13.396868710264842"><ele>1329.0</ele><time>2026-04-05T07:42:19Z</time></trkpt><trkpt lat="41.837797245804644" lon="13.396767075485727"><ele>1329.6</ele><time>2026-04-05T07:42:20Z</time></trkpt><trkpt lat="41.83780202055838" lon="13.396656808669448"><ele>1330.2</ele><time>2026-04-05T07:42:21Z</time></trkpt><trkpt lat="41.8378392114674" lon="13.396542783779166"><ele>1330.8</ele><time>2026-04-05T07:42:22Z</time></trkpt><trkpt lat="41.837882068657116" lon="13.39641426865844"><ele>1331.3999999999999</ele><time>2026-04-05T07:42:23Z</time></trkpt><trkpt lat="41.83793057074264" lon="13.396302042073286"><ele>1332.0</ele><time>2026-04-05T07:42:24Z</time></trkpt><trkpt lat="41.837959352448806" lon="13.396187391902771"><ele>1332.0</ele><time>2026-04-05T07:42:25Z</time></trkpt><trkpt lat="41.8379659339923" lon="13.396049845168932"><ele>1332.0</ele><time>2026-04-05T07:42:26Z</time></trkpt><trkpt lat="41.8379668701933" lon="13.395906737832723"><ele>1332.0</ele><time>2026-04-05T07:42:27Z</time></trkpt><trkpt lat="41.83796199392264" lon="13.395746507189362"><ele>1332.0</ele><time>2026-04-05T07:42:28Z</time></trkpt><trkpt lat="41.837965608689025" lon="13.395639318503198"><ele>1332.0</ele><time>2026-04-05T07:42:29Z</time></trkpt><trkpt lat="41.83796945411618" lon="13.39554200101749"><ele>1330.0</ele><time>2026-04-05T07:42:30Z</time></trkpt><trkpt lat="41.83795136609713" lon="13.395425002973507"><ele>1328.0</ele><time>2026-04-05T07:42:31Z</time></trkpt><trkpt lat="41.83791856297376" lon="13.39527008331969"><ele>1326.0</ele><time>2026-04-05T07:42:32Z</time></trkpt><trkpt lat="41.8379000678295" lon="13.395119503903382"><ele>1324.0</ele><time>2026-04-05T07:42:33Z</time></trkpt><trkpt lat="41.837889443290614" lon="13.394962808668277"><ele>1322.0</ele><time>2026-04-05T07:42:34Z</time></trkpt><trkpt lat="41.83786516487869" lon="13.394807249422845"><ele>1318.25</ele><time>2026-04-05T07:42:35Z</time></trkpt><trkpt lat="41.83783462953391" lon="13.394659252829243"><ele>1314.5</ele><time>2026-04-05T07:42:36Z</time></trkpt><trkpt lat="41.83781313218396" lon="13.39449799612683"><ele>1310.75</ele><time>2026-04-05T07:42:37Z</time></trkpt><trkpt lat="41.83779964343906" lon="13.394342995674405"><ele>1307.0</ele><time>2026-04-05T07:42:38Z</time></trkpt><trkpt lat="41.83776745817436" lon="13.394202381451489"><ele>1307.0</ele><time>2026-04-05T07:42:39Z</time></trkpt><trkpt lat="41.83772352718853" lon="13.394076929269376"><ele>1307.0</ele><time>2026-04-05T07:42:40Z</time></trkpt><trkpt lat="41.837668743348885" lon="13.39395764410807"><ele>1307.0</ele><time>2026-04-05T07:42:41Z</time></trkpt><trkpt lat="41.83762747971189" lon="13.393851599258642"><ele>1307.0</ele><time>2026-04-05T07:42:42Z</time></trkpt><trkpt lat="41.837581827798736" lon="13.393737004292955"><ele>1307.0</ele><time>2026-04-05T07:42:43Z</time></trkpt><trkpt lat="41.837557382622634" lon="13.393621571101601"><ele>1308.5</ele><time>2026-04-05T07:42:44Z</time></trkpt><trkpt lat="41.837553793879714" lon="13.393506603397714"><ele>1310.0</ele><time>2026-04-05T07:42:45Z</time></trkpt><trkpt lat="41.837590023100226" lon="13.393430065790378"><ele>1311.5</ele><time>2026-04-05T07:42:46Z</time></trkpt><trkpt lat="41.837617558923384" lon="13.393310035917088"><ele>1313.0</ele><time>2026-04-05T07:42:47Z</time></trkpt><trkpt lat="41.83761415339743" lon="13.39320253298287"><ele>1314.5</ele><time>2026-04-05T07:42:48Z</time></trkpt><trkpt lat="41.83759412645309" lon="13.393047673013713"><ele>1316.0</ele><time>2026-04-05T07:42:50Z</time></trkpt><trkpt lat="41.83758225653673" lon="13.392955609762733"><ele>1311.6666666666667</ele><time>2026-04-05T07:42:52Z</time></trkpt><trkpt lat="41.83765005597011" lon="13.392921935013046"><ele>1307.3333333333335</ele><time>2026-04-05T07:42:55.001Z</time></trkpt><trkpt lat="41.83771257826096" lon="13.392974108700225"><ele>1303.0</ele><time>2026-04-05T07:42:56.001Z</time></trkpt><trkpt lat="41.83774104509544" lon="13.39309236632449"><ele>1298.6666666666667</ele><time>2026-04-05T07:42:57.001Z</time></trkpt><trkpt lat="41.83774291270659" lon="13.39321084968429"><ele>1294.3333333333333</ele><time>2026-04-05T07:42:58.001Z</time></trkpt><trkpt lat="41.83773889613884" lon="13.393340311344765"><ele>1290.0</ele><time>2026-04-05T07:42:59.001Z</time></trkpt><trkpt lat="41.83772754071831" lon="13.39345371214665"><ele>1290.0</ele><time>2026-04-05T07:43:00.001Z</time></trkpt><trkpt lat="41.83773202889593" lon="13.39354068704813"><ele>1290.0</ele><time>2026-04-05T07:43:01.001Z</time></trkpt><trkpt lat="41.83776228258589" lon="13.393629250683546"><ele>1290.0</ele><time>2026-04-05T07:43:02.001Z</time></trkpt><trkpt lat="41.83783545404603" lon="13.393757044146598"><ele>1290.0</ele><time>2026-04-05T07:43:03.001Z</time></trkpt><trkpt lat="41.83793006315705" lon="13.3938868489696"><ele>1290.0</ele><time>2026-04-05T07:43:04.001Z</time></trkpt><trkpt lat="41.83804253923965" lon="13.394054727142946"><ele>1294.25</ele><time>2026-04-05T07:43:05.001Z</time></trkpt><trkpt lat="41.8381311345464" lon="13.394210591073879"><ele>1298.5</ele><time>2026-04-05T07:43:06.001Z</time></trkpt><trkpt lat="41.8382345564101" lon="13.3943491251123"><ele>1302.75</ele><time>2026-04-05T07:43:07.001Z</time></trkpt><trkpt lat="41.83829813217962" lon="13.394486575354628"><ele>1307.0</ele><time>2026-04-05T07:43:08.001Z</time></trkpt><trkpt lat="41.83837388339436" lon="13.39461093090122"><ele>1310.0</ele><time>2026-04-05T07:43:09.001Z</time></trkpt><trkpt lat="41.83844603753372" lon="13.394745332228032"><ele>1313.0</ele><time>2026-04-05T07:43:10.001Z</time></trkpt><trkpt lat="41.83850612578234" lon="13.394879352584041"><ele>1316.0</ele><time>2026-04-05T07:43:11.001Z</time></trkpt><trkpt lat="41.83855899839268" lon="13.394994089417308"><ele>1319.0</ele><time>2026-04-05T07:43:12.001Z</time></trkpt><trkpt lat="41.83861655112447" lon="13.395101272961941"><ele>1322.0</ele><time>2026-04-05T07:43:13.001Z</time></trkpt><trkpt lat="41.83866613760639" lon="13.39521208128159"><ele>1315.3999999999999</ele><time>2026-04-05T07:43:14.001Z</time></trkpt><trkpt lat="41.83869195654211" lon="13.395331138542549"><ele>1308.8</ele><time>2026-04-05T07:43:15.001Z</time></trkpt><trkpt lat="41.83870349764115" lon="13.395448322618925"><ele>1302.2</ele><time>2026-04-05T07:43:16.001Z</time></trkpt><trkpt lat="41.83870433454973" lon="13.395584327134621"><ele>1295.6</ele><time>2026-04-05T07:43:17.001Z</time></trkpt><trkpt lat="41.838683859594326" lon="13.395732360972776"><ele>1289.0</ele><time>2026-04-05T07:43:18.001Z</time></trkpt><trkpt lat="41.838663038976215" lon="13.395886524799407"><ele>1289.0</ele><time>2026-04-05T07:43:19.001Z</time></trkpt><trkpt lat="41.83865845515895" lon="13.396020072329726"><ele>1289.0</ele><time>2026-04-05T07:43:20.001Z</time></trkpt><trkpt lat="41.83868426918876" lon="13.39614174276059"><ele>1289.0</ele><time>2026-04-05T07:43:21.001Z</time></trkpt><trkpt lat="41.838714681073434" lon="13.396254185490173"><ele>1289.0</ele><time>2026-04-05T07:43:22.001Z</time></trkpt><trkpt lat="41.8387238146674" lon="13.396361136578411"><ele>1289.0</ele><time>2026-04-05T07:43:23.001Z</time></trkpt><trkpt lat="41.83878461879846" lon="13.396456681448301"><ele>1288.6</ele><time>2026-04-05T07:43:24.001Z</time></trkpt><trkpt lat="41.838860614529" lon="13.39655613216866"><ele>1288.2</ele><time>2026-04-05T07:43:25.001Z</time></trkpt><trkpt lat="41.83887689343597" lon="13.396654729730011"><ele>1287.8</ele><time>2026-04-05T07:43:26.001Z</time></trkpt><trkpt lat="41.83889655962814" lon="13.396777916469354"><ele>1287.3999999999999</ele><time>2026-04-05T07:43:27.001Z</time></trkpt><trkpt lat="41.83888821090266" lon="13.396906816376239"><ele>1287.0</ele><time>2026-04-05T07:43:28.001Z</time></trkpt><trkpt lat="41.83885452277906" lon="13.397029788334757"><ele>1287.0</ele><time>2026-04-05T07:43:29.001Z</time></trkpt><trkpt lat="41.838849257375415" lon="13.397161977661078"><ele>1287.0</ele><time>2026-04-05T07:43:30.001Z</time></trkpt><trkpt lat="41.83888712736039" lon="13.39727451408468"><ele>1287.0</ele><time>2026-04-05T07:43:31.001Z</time></trkpt><trkpt lat="41.83892145335261" lon="13.397391248356662"><ele>1287.0</ele><time>2026-04-05T07:43:32.001Z</time></trkpt><trkpt lat="41.83895532934757" lon="13.397504379873235"><ele>1287.0</ele><time>2026-04-05T07:43:33.001Z</time></trkpt><trkpt lat="41.83896718605112" lon="13.397594038164133"><ele>1287.0</ele><time>2026-04-05T07:43:34.001Z</time></trkpt><trkpt lat="41.83896294708544" lon="13.397699176528498"><ele>1286.1999999999998</ele><time>2026-04-05T07:43:35.001Z</time></trkpt><trkpt lat="41.838914054001194" lon="13.397790417402177"><ele>1285.4</ele><time>2026-04-05T07:43:36.001Z</time></trkpt><trkpt lat="41.83885173918176" lon="13.39789942106654"><ele>1284.6</ele><time>2026-04-05T07:43:37.001Z</time></trkpt><trkpt lat="41.83882497666431" lon="13.398011226268025"><ele>1283.8000000000002</ele><time>2026-04-05T07:43:38.001Z</time></trkpt><trkpt lat="41.83883761642715" lon="13.39813435974627"><ele>1283.0</ele><time>2026-04-05T07:43:39.001Z</time></trkpt><trkpt lat="41.8388432185492" lon="13.398291979073237"><ele>1282.5</ele><time>2026-04-05T07:43:40.001Z</time></trkpt><trkpt lat="41.83886964929391" lon="13.398507933380039"><ele>1282.0</ele><time>2026-04-05T07:43:41.001Z</time></trkpt><trkpt lat="41.83887358797546" lon="13.398694559609023"><ele>1281.5</ele><time>2026-04-05T07:43:42.001Z</time></trkpt><trkpt lat="41.83888407974533" lon="13.398832246776768"><ele>1281.0</ele><time>2026-04-05T07:43:43.001Z</time></trkpt><trkpt lat="41.83895253344102" lon="13.398968871058827"><ele>1279.25</ele><time>2026-04-05T07:43:44.001Z</time></trkpt><trkpt lat="41.83900689052636" lon="13.399105195732828"><ele>1277.5</ele><time>2026-04-05T07:43:45.001Z</time></trkpt><trkpt lat="41.83902207684115" lon="13.39922911298869"><ele>1275.75</ele><time>2026-04-05T07:43:46.001Z</time></trkpt><trkpt lat="41.838995429408904" lon="13.399372799763215"><ele>1274.0</ele><time>2026-04-05T07:43:47.001Z</time></trkpt><trkpt lat="41.838902118878195" lon="13.399541868187148"><ele>1274.0</ele><time>2026-04-05T07:43:48.001Z</time></trkpt><trkpt lat="41.838908872747034" lon="13.39968982284279"><ele>1274.0</ele><time>2026-04-05T07:43:49.001Z</time></trkpt><trkpt lat="41.83892120690284" lon="13.39985999781945"><ele>1274.0</ele><time>2026-04-05T07:43:50.001Z</time></trkpt><trkpt lat="41.838919595606995" lon="13.40000314597269"><ele>1274.0</ele><time>2026-04-05T07:43:51.001Z</time></trkpt><trkpt lat="41.8389443775588" lon="13.400136626737245"><ele>1274.0</ele><time>2026-04-05T07:43:52.001Z</time></trkpt><trkpt lat="41.83894621045952" lon="13.400240627500418"><ele>1274.0</ele><time>2026-04-05T07:43:53.001Z</time></trkpt><trkpt lat="41.838954583969006" lon="13.400330636145291"><ele>1274.0</ele><time>2026-04-05T07:43:54.001Z</time></trkpt><trkpt lat="41.83898651377284" lon="13.400483734377223"><ele>1274.0</ele><time>2026-04-05T07:43:55.001Z</time></trkpt><trkpt lat="41.83899815932307" lon="13.400659037661269"><ele>1274.0</ele><time>2026-04-05T07:43:56.001Z</time></trkpt><trkpt lat="41.839025244687534" lon="13.400839633788285"><ele>1274.2</ele><time>2026-04-05T07:43:57.001Z</time></trkpt><trkpt lat="41.839059600825415" lon="13.401012981359727"><ele>1274.4</ele><time>2026-04-05T07:43:58.001Z</time></trkpt><trkpt lat="41.83909681771273" lon="13.401165166243675"><ele>1274.6</ele><time>2026-04-05T07:43:59.001Z</time></trkpt><trkpt lat="41.83912738574608" lon="13.401280149225496"><ele>1274.8</ele><time>2026-04-05T07:44:00.001Z</time></trkpt><trkpt lat="41.839166568006995" lon="13.401366032771287"><ele>1275.0</ele><time>2026-04-05T07:44:01.001Z</time></trkpt><trkpt lat="41.83920231041714" lon="13.40144197287532"><ele>1277.0</ele><time>2026-04-05T07:44:02.001Z</time></trkpt><trkpt lat="41.83927319270334" lon="13.401554661030966"><ele>1279.0</ele><time>2026-04-05T07:44:04.001Z</time></trkpt><trkpt lat="41.83938232253534" lon="13.40166434837433"><ele>1281.0</ele><time>2026-04-05T07:44:06.001Z</time></trkpt><trkpt lat="41.83952060628217" lon="13.40174553571927"><ele>1283.0</ele><time>2026-04-05T07:44:07.001Z</time></trkpt><trkpt lat="41.83962240494999" lon="13.401792042903763"><ele>1277.2</ele><time>2026-04-05T07:44:08.001Z</time></trkpt><trkpt lat="41.839730467276596" lon="13.401844024510526"><ele>1271.4</ele><time>2026-04-05T07:44:09.001Z</time></trkpt><trkpt lat="41.839798553244655" lon="13.40187896899134"><ele>1265.6000000000001</ele><time>2026-04-05T07:44:10.001Z</time></trkpt><trkpt lat="41.83987308539979" lon="13.401933791458106"><ele>1259.8000000000002</ele><time>2026-04-05T07:44:11.001Z</time></trkpt><trkpt lat="41.83995325158386" lon="13.402011641604075"><ele>1254.0</ele><time>2026-04-05T07:44:12.001Z</time></trkpt><trkpt lat="41.84001760201023" lon="13.402099129907574"><ele>1257.3333333333333</ele><time>2026-04-05T07:44:13.001Z</time></trkpt><trkpt lat="41.840084339434824" lon="13.402194798906818"><ele>1260.6666666666667</ele><time>2026-04-05T07:44:14.001Z</time></trkpt><trkpt lat="41.84013937708535" lon="13.402290047032796"><ele>1264.0</ele><time>2026-04-05T07:44:15.001Z</time></trkpt><trkpt lat="41.84017677478671" lon="13.402358938338983"><ele>1267.3333333333335</ele><time>2026-04-05T07:44:16.001Z</time></trkpt><trkpt lat="41.84021560467468" lon="13.402437327214734"><ele>1270.6666666666667</ele><time>2026-04-05T07:44:17Z</time></trkpt><trkpt lat="41.840265395672034" lon="13.402538300538788"><ele>1274.0</ele><time>2026-04-05T07:44:18Z</time></trkpt><trkpt lat="41.84031275839238" lon="13.40265756058042"><ele>1269.0</ele><time>2026-04-05T07:44:19Z</time></trkpt><trkpt lat="41.84036656970398" lon="13.40275300799357"><ele>1264.0</ele><time>2026-04-05T07:44:20Z</time></trkpt><trkpt lat="41.84037229051147" lon="13.402857978302865"><ele>1259.0</ele><time>2026-04-05T07:44:21Z</time></trkpt><trkpt lat="41.840404844837906" lon="13.402947818753345"><ele>1254.0</ele><time>2026-04-05T07:44:22Z</time></trkpt><trkpt lat="41.84042735931918" lon="13.403061535497583"><ele>1249.0</ele><time>2026-04-05T07:44:23Z</time></trkpt><trkpt lat="41.84044420295868" lon="13.403163404688323"><ele>1244.0</ele><time>2026-04-05T07:44:24Z</time></trkpt><trkpt lat="41.840459454821556" lon="13.403255646872504"><ele>1244.0</ele><time>2026-04-05T07:44:25Z</time></trkpt><trkpt lat="41.840475418174734" lon="13.403351276507543"><ele>1244.0</ele><time>2026-04-05T07:44:26Z</time></trkpt><trkpt lat="41.84049086144443" lon="13.403441509331909"><ele>1244.0</ele><time>2026-04-05T07:44:27Z</time></trkpt><trkpt lat="41.840522880152974" lon="13.403597538412539"><ele>1244.0</ele><time>2026-04-05T07:44:29Z</time></trkpt><trkpt lat="41.840498524234995" lon="13.403702696378025"><ele>1244.0</ele><time>2026-04-05T07:44:37Z</time></trkpt><trkpt lat="41.84050871762086" lon="13.403872408536515"><ele>1244.0</ele><time>2026-04-05T07:45:31.001Z</time></trkpt><trkpt lat="41.84044444991749" lon="13.40383365862133"><ele>1244.0</ele><time>2026-04-05T07:45:40.001Z</time></trkpt><trkpt lat="41.84038460843427" lon="13.403726918972183"><ele>1244.0</ele><time>2026-04-05T07:45:42.001Z</time></trkpt><trkpt lat="41.840396641935705" lon="13.40351866051545"><ele>1244.0</ele><time>2026-04-05T07:45:44.001Z</time></trkpt><trkpt lat="41.84051748228746" lon="13.403397419111412"><ele>1244.0</ele><time>2026-04-05T07:45:45.001Z</time></trkpt><trkpt lat="41.8404916519386" lon="13.403244077281158"><ele>1244.0</ele><time>2026-04-05T07:45:47.001Z</time></trkpt><trkpt lat="41.84046338003052" lon="13.403073090776656"><ele>1244.0</ele><time>2026-04-05T07:45:49.001Z</time></trkpt><trkpt lat="41.84043926239341" lon="13.40297273752344"><ele>1244.0</ele><time>2026-04-05T07:45:50.001Z</time></trkpt><trkpt lat="41.84041125101961" lon="13.40282838646841"><ele>1244.0</ele><time>2026-04-05T07:45:51.001Z</time></trkpt><trkpt lat="41.84036439253112" lon="13.402682764029906"><ele>1245.6666666666667</ele><time>2026-04-05T07:45:52.001Z</time></trkpt><trkpt lat="41.84032131611236" lon="13.402584152619125"><ele>1247.3333333333335</ele><time>2026-04-05T07:45:53.001Z</time></trkpt><trkpt lat="41.84028499028733" lon="13.402500027043288"><ele>1249.0</ele><time>2026-04-05T07:45:54.001Z</time></trkpt><trkpt lat="41.84024880534247" lon="13.402424059090547"><ele>1250.6666666666667</ele><time>2026-04-05T07:45:55.001Z</time></trkpt><trkpt lat="41.840205332491635" lon="13.402334852123237"><ele>1252.3333333333333</ele><time>2026-04-05T07:45:56.001Z</time></trkpt><trkpt lat="41.840161140988" lon="13.402254952681872"><ele>1254.0</ele><time>2026-04-05T07:45:57.001Z</time></trkpt><trkpt lat="41.8401042242738" lon="13.402160557790529"><ele>1254.0</ele><time>2026-04-05T07:45:58.001Z</time></trkpt><trkpt lat="41.84003518194116" lon="13.402059796263574"><ele>1254.0</ele><time>2026-04-05T07:45:59.001Z</time></trkpt><trkpt lat="41.83996897894313" lon="13.401976587640892"><ele>1254.0</ele><time>2026-04-05T07:46:00.001Z</time></trkpt><trkpt lat="41.83991510865405" lon="13.401893797088436"><ele>1254.0</ele><time>2026-04-05T07:46:01.001Z</time></trkpt><trkpt lat="41.83982118302875" lon="13.401865369626899"><ele>1254.0</ele><time>2026-04-05T07:46:02.001Z</time></trkpt><trkpt lat="41.83972321454082" lon="13.401791033219162"><ele>1254.0</ele><time>2026-04-05T07:46:03.001Z</time></trkpt><trkpt lat="41.83961570645644" lon="13.401741917663562"><ele>1254.0</ele><time>2026-04-05T07:46:04.001Z</time></trkpt><trkpt lat="41.839503443253705" lon="13.401687118092696"><ele>1254.0</ele><time>2026-04-05T07:46:05.001Z</time></trkpt><trkpt lat="41.8393964011919" lon="13.401623979553515"><ele>1254.0</ele><time>2026-04-05T07:46:06.001Z</time></trkpt><trkpt lat="41.839323850621724" lon="13.40156594314929"><ele>1254.0</ele><time>2026-04-05T07:46:07.001Z</time></trkpt><trkpt lat="41.839258032528164" lon="13.40147127895032"><ele>1259.25</ele><time>2026-04-05T07:46:09.001Z</time></trkpt><trkpt lat="41.83919601899384" lon="13.401345230143173"><ele>1264.5</ele><time>2026-04-05T07:46:11.001Z</time></trkpt><trkpt lat="41.83915021241639" lon="13.401223625993483"><ele>1269.75</ele><time>2026-04-05T07:46:12.001Z</time></trkpt><trkpt lat="41.839107505556996" lon="13.401069238648002"><ele>1275.0</ele><time>2026-04-05T07:46:13.001Z</time></trkpt><trkpt lat="41.83906263958019" lon="13.40085145704028"><ele>1275.0</ele><time>2026-04-05T07:46:14.001Z</time></trkpt><trkpt lat="41.8390129076161" lon="13.400637542012156"><ele>1275.0</ele><time>2026-04-05T07:46:15.001Z</time></trkpt><trkpt lat="41.83900897731247" lon="13.40049533824965"><ele>1275.0</ele><time>2026-04-05T07:46:16.001Z</time></trkpt><trkpt lat="41.83898987110524" lon="13.400352000595191"><ele>1275.0</ele><time>2026-04-05T07:46:17.001Z</time></trkpt><trkpt lat="41.83896038130903" lon="13.400205142782994"><ele>1274.8</ele><time>2026-04-05T07:46:19.001Z</time></trkpt><trkpt lat="41.838966817414054" lon="13.400086517731092"><ele>1274.6</ele><time>2026-04-05T07:46:20.001Z</time></trkpt><trkpt lat="41.83895653902743" lon="13.399940041766492"><ele>1274.4</ele><time>2026-04-05T07:46:21.001Z</time></trkpt><trkpt lat="41.83894867090212" lon="13.399808788811935"><ele>1274.2</ele><time>2026-04-05T07:46:22.001Z</time></trkpt><trkpt lat="41.838948116086804" lon="13.399664936257084"><ele>1274.0</ele><time>2026-04-05T07:46:23Z</time></trkpt><trkpt lat="41.83893508343298" lon="13.399533039057959"><ele>1274.0</ele><time>2026-04-05T07:46:24Z</time></trkpt><trkpt lat="41.838929098847935" lon="13.399401936711497"><ele>1274.0</ele><time>2026-04-05T07:46:25Z</time></trkpt><trkpt lat="41.83892391876839" lon="13.399268250443487"><ele>1274.0</ele><time>2026-04-05T07:46:26Z</time></trkpt><trkpt lat="41.838905258314256" lon="13.399109835817576"><ele>1274.0</ele><time>2026-04-05T07:46:27Z</time></trkpt><trkpt lat="41.83891207060428" lon="13.398948739723068"><ele>1274.0</ele><time>2026-04-05T07:46:28Z</time></trkpt><trkpt lat="41.83890554366414" lon="13.398770880731131"><ele>1275.4</ele><time>2026-04-05T07:46:29Z</time></trkpt><trkpt lat="41.83889955464824" lon="13.39860768002151"><ele>1276.8000000000002</ele><time>2026-04-05T07:46:30Z</time></trkpt><trkpt lat="41.83889679807686" lon="13.398469516073927"><ele>1278.1999999999998</ele><time>2026-04-05T07:46:31Z</time></trkpt><trkpt lat="41.838894538478" lon="13.39832173878581"><ele>1279.6</ele><time>2026-04-05T07:46:32Z</time></trkpt><trkpt lat="41.83888207011687" lon="13.398210225108878"><ele>1281.0</ele><time>2026-04-05T07:46:33Z</time></trkpt><trkpt lat="41.838891893736744" lon="13.398091302354251"><ele>1281.4</ele><time>2026-04-05T07:46:34Z</time></trkpt><trkpt lat="41.83889056643757" lon="13.397977908681106"><ele>1281.8</ele><time>2026-04-05T07:46:35Z</time></trkpt><trkpt lat="41.838889644828754" lon="13.397886448387856"><ele>1282.2</ele><time>2026-04-05T07:46:36Z</time></trkpt><trkpt lat="41.838888068809" lon="13.397730044637898"><ele>1282.6000000000001</ele><time>2026-04-05T07:46:38Z</time></trkpt><trkpt lat="41.838884892999275" lon="13.397621001069755"><ele>1283.0</ele><time>2026-04-05T07:46:39Z</time></trkpt><trkpt lat="41.838880299675395" lon="13.397475788349013"><ele>1283.0</ele><time>2026-04-05T07:46:40Z</time></trkpt><trkpt lat="41.83887020894343" lon="13.397303598432277"><ele>1283.0</ele><time>2026-04-05T07:46:41Z</time></trkpt><trkpt lat="41.83885410446223" lon="13.397180922017727"><ele>1283.0</ele><time>2026-04-05T07:46:42Z</time></trkpt><trkpt lat="41.838849932388" lon="13.397048485458235"><ele>1283.0</ele><time>2026-04-05T07:46:43Z</time></trkpt><trkpt lat="41.83883755173475" lon="13.39691733333722"><ele>1283.0</ele><time>2026-04-05T07:46:44Z</time></trkpt><trkpt lat="41.838826205451824" lon="13.396817955024778"><ele>1283.8000000000002</ele><time>2026-04-05T07:46:45Z</time></trkpt><trkpt lat="41.83881070176381" lon="13.396681091820957"><ele>1284.6</ele><time>2026-04-05T07:46:46Z</time></trkpt><trkpt lat="41.83879418592126" lon="13.396544110311572"><ele>1285.4</ele><time>2026-04-05T07:46:47Z</time></trkpt><trkpt lat="41.83877824485741" lon="13.396421516912334"><ele>1286.1999999999998</ele><time>2026-04-05T07:46:48Z</time></trkpt><trkpt lat="41.8387662596636" lon="13.396329345799405"><ele>1287.0</ele><time>2026-04-05T07:46:49Z</time></trkpt><trkpt lat="41.83874731900244" lon="13.396183684220722"><ele>1287.3999999999999</ele><time>2026-04-05T07:46:51Z</time></trkpt><trkpt lat="41.83873532931221" lon="13.396091478553313"><ele>1287.8</ele><time>2026-04-05T07:46:52Z</time></trkpt><trkpt lat="41.838719183504075" lon="13.39596731058687"><ele>1288.2</ele><time>2026-04-05T07:46:53Z</time></trkpt><trkpt lat="41.83870023605555" lon="13.395818617690441"><ele>1288.6</ele><time>2026-04-05T07:46:54Z</time></trkpt><trkpt lat="41.838696826693415" lon="13.395668558896428"><ele>1289.0</ele><time>2026-04-05T07:46:55Z</time></trkpt><trkpt lat="41.83866163141753" lon="13.39555463543652"><ele>1287.8333333333335</ele><time>2026-04-05T07:46:56Z</time></trkpt><trkpt lat="41.8386456045444" lon="13.39545967430587"><ele>1286.6666666666667</ele><time>2026-04-05T07:46:57Z</time></trkpt><trkpt lat="41.83862747107847" lon="13.395366879178006"><ele>1285.5</ele><time>2026-04-05T07:46:58Z</time></trkpt><trkpt lat="41.83857891579963" lon="13.395229284559125"><ele>1284.3333333333333</ele><time>2026-04-05T07:47:00Z</time></trkpt><trkpt lat="41.838565103809714" lon="13.39512218814439"><ele>1283.1666666666665</ele><time>2026-04-05T07:47:04Z</time></trkpt><trkpt lat="41.83853084006078" lon="13.395015471607813"><ele>1282.0</ele><time>2026-04-05T07:47:06Z</time></trkpt><trkpt lat="41.83848129102437" lon="13.394960227323176"><ele>1290.3333333333333</ele><time>2026-04-05T07:47:52.001Z</time></trkpt><trkpt lat="41.83838886773857" lon="13.394775979330033"><ele>1298.6666666666667</ele><time>2026-04-05T07:47:54.001Z</time></trkpt><trkpt lat="41.83831831563024" lon="13.3946458067091"><ele>1307.0</ele><time>2026-04-05T07:47:55.001Z</time></trkpt><trkpt lat="41.8382466037677" lon="13.39442302119419"><ele>1307.0</ele><time>2026-04-05T07:47:56.001Z</time></trkpt><trkpt lat="41.83815776669767" lon="13.394245135123397"><ele>1307.0</ele><time>2026-04-05T07:47:57.001Z</time></trkpt><trkpt lat="41.8380684839103" lon="13.394071789205935"><ele>1307.0</ele><time>2026-04-05T07:47:58.001Z</time></trkpt><trkpt lat="41.83796782339471" lon="13.393881192928577"><ele>1303.6</ele><time>2026-04-05T07:47:59.001Z</time></trkpt><trkpt lat="41.83789082203926" lon="13.393731092931821"><ele>1300.1999999999998</ele><time>2026-04-05T07:48:00.001Z</time></trkpt><trkpt lat="41.83784219964142" lon="13.39363223719733"><ele>1296.8</ele><time>2026-04-05T07:48:01.001Z</time></trkpt><trkpt lat="41.83779460104751" lon="13.393527729612158"><ele>1293.4</ele><time>2026-04-05T07:48:02.001Z</time></trkpt><trkpt lat="41.83774768773216" lon="13.393412740793261"><ele>1290.0</ele><time>2026-04-05T07:48:04.001Z</time></trkpt><trkpt lat="41.83771019197526" lon="13.393307258922187"><ele>1290.0</ele><time>2026-04-05T07:48:05.001Z</time></trkpt><trkpt lat="41.83768043901668" lon="13.393218548935137"><ele>1290.0</ele><time>2026-04-05T07:48:06.001Z</time></trkpt><trkpt lat="41.837651131189595" lon="13.393131166154868"><ele>1290.0</ele><time>2026-04-05T07:48:07.001Z</time></trkpt><trkpt lat="41.83761019816619" lon="13.393009467939136"><ele>1290.0</ele><time>2026-04-05T07:48:09.001Z</time></trkpt><trkpt lat="41.83759554008769" lon="13.392903624126868"><ele>1290.0</ele><time>2026-04-05T07:48:12.001Z</time></trkpt><trkpt lat="41.83753997917024" lon="13.392848925798484"><ele>1290.0</ele><time>2026-04-05T07:48:15.001Z</time></trkpt><trkpt lat="41.837478856312245" lon="13.392819932212586"><ele>1295.2</ele><time>2026-04-05T07:48:16.001Z</time></trkpt><trkpt lat="41.83740932273426" lon="13.392783015024172"><ele>1300.4</ele><time>2026-04-05T07:48:17.001Z</time></trkpt><trkpt lat="41.83732777065562" lon="13.392708347974871"><ele>1305.6</ele><time>2026-04-05T07:48:18.001Z</time></trkpt><trkpt lat="41.837248343553604" lon="13.392603769500417"><ele>1310.8</ele><time>2026-04-05T07:48:19.001Z</time></trkpt><trkpt lat="41.83728553393389" lon="13.392403647961167"><ele>1316.0</ele><time>2026-04-05T07:48:20.001Z</time></trkpt><trkpt lat="41.83722285759619" lon="13.392316126902779"><ele>1316.0</ele><time>2026-04-05T07:48:21.001Z</time></trkpt><trkpt lat="41.837172392502005" lon="13.392245656633705"><ele>1316.0</ele><time>2026-04-05T07:48:22.001Z</time></trkpt><trkpt lat="41.83712793037743" lon="13.392183569003574"><ele>1316.0</ele><time>2026-04-05T07:48:23.001Z</time></trkpt><trkpt lat="41.83706891140404" lon="13.392101153951609"><ele>1316.0</ele><time>2026-04-05T07:48:24.001Z</time></trkpt><trkpt lat="41.83700155538989" lon="13.392007096931227"><ele>1316.0</ele><time>2026-04-05T07:48:25.001Z</time></trkpt><trkpt lat="41.836854097676984" lon="13.391970783474656"><ele>1319.3333333333335</ele><time>2026-04-05T07:48:26.001Z</time></trkpt><trkpt lat="41.836784976841564" lon="13.39187292539223"><ele>1322.6666666666667</ele><time>2026-04-05T07:48:27.001Z</time></trkpt><trkpt lat="41.83673141586685" lon="13.391814144965595"><ele>1326.0</ele><time>2026-04-05T07:48:28.001Z</time></trkpt><trkpt lat="41.836699796011" lon="13.391714928651652"><ele>1329.3333333333333</ele><time>2026-04-05T07:48:29Z</time></trkpt><trkpt lat="41.836684803749804" lon="13.391589883269384"><ele>1332.6666666666665</ele><time>2026-04-05T07:48:30Z</time></trkpt><trkpt lat="41.836685972244396" lon="13.391466586532033"><ele>1336.0</ele><time>2026-04-05T07:48:31Z</time></trkpt><trkpt lat="41.83671021919805" lon="13.391361399017214"><ele>1331.5</ele><time>2026-04-05T07:48:32Z</time></trkpt><trkpt lat="41.836706038676354" lon="13.391268975310567"><ele>1327.0</ele><time>2026-04-05T07:48:33Z</time></trkpt><trkpt lat="41.836615687218575" lon="13.391154463913944"><ele>1322.5</ele><time>2026-04-05T07:48:35Z</time></trkpt><trkpt lat="41.83655575191405" lon="13.391110977495483"><ele>1318.0</ele><time>2026-04-05T07:48:36Z</time></trkpt><trkpt lat="41.836465353237365" lon="13.391092099490324"><ele>1313.5</ele><time>2026-04-05T07:48:37Z</time></trkpt><trkpt lat="41.8363770482395" lon="13.3911002128937"><ele>1309.0</ele><time>2026-04-05T07:48:38Z</time></trkpt><trkpt lat="41.836257218589076" lon="13.391103018655434"><ele>1309.0</ele><time>2026-04-05T07:48:39Z</time></trkpt><trkpt lat="41.83614464209396" lon="13.391102732971726"><ele>1309.0</ele><time>2026-04-05T07:48:40Z</time></trkpt><trkpt lat="41.83603499688022" lon="13.391112455864056"><ele>1309.0</ele><time>2026-04-05T07:48:41Z</time></trkpt><trkpt lat="41.835950556360594" lon="13.391116610869833"><ele>1309.0</ele><time>2026-04-05T07:48:42Z</time></trkpt><trkpt lat="41.835806886784454" lon="13.391138085311782"><ele>1311.6666666666665</ele><time>2026-04-05T07:48:43Z</time></trkpt><trkpt lat="41.83563870226686" lon="13.391184515521534"><ele>1314.3333333333333</ele><time>2026-04-05T07:48:44Z</time></trkpt><trkpt lat="41.83545233917421" lon="13.391240797282617"><ele>1317.0</ele><time>2026-04-05T07:48:45Z</time></trkpt><trkpt lat="41.83531418955405" lon="13.391277411298931"><ele>1317.0</ele><time>2026-04-05T07:48:46Z</time></trkpt><trkpt lat="41.8352273834552" lon="13.39132763554214"><ele>1317.0</ele><time>2026-04-05T07:48:47Z</time></trkpt><trkpt lat="41.835141012101005" lon="13.39136852880176"><ele>1317.0</ele><time>2026-04-05T07:48:48Z</time></trkpt><trkpt lat="41.83503833701284" lon="13.391412819614693"><ele>1317.0</ele><time>2026-04-05T07:48:49Z</time></trkpt><trkpt lat="41.83493358214034" lon="13.391448918473992"><ele>1317.0</ele><time>2026-04-05T07:48:50Z</time></trkpt><trkpt lat="41.834827859644115" lon="13.391465790488637"><ele>1324.0</ele><time>2026-04-05T07:48:51Z</time></trkpt><trkpt lat="41.83472841488847" lon="13.391461313446998"><ele>1331.0</ele><time>2026-04-05T07:48:52Z</time></trkpt><trkpt lat="41.834612784155965" lon="13.39146250820617"><ele>1338.0</ele><time>2026-04-05T07:48:53Z</time></trkpt><trkpt lat="41.83450052544009" lon="13.391477720078854"><ele>1345.0</ele><time>2026-04-05T07:48:54Z</time></trkpt><trkpt lat="41.83439047989692" lon="13.391484997866685"><ele>1352.0</ele><time>2026-04-05T07:48:55Z</time></trkpt><trkpt lat="41.83426011990075" lon="13.391471223796346"><ele>1352.3999999999999</ele><time>2026-04-05T07:48:56Z</time></trkpt><trkpt lat="41.83415741664478" lon="13.391456068974207"><ele>1352.8</ele><time>2026-04-05T07:48:57Z</time></trkpt><trkpt lat="41.83404211847783" lon="13.391445641651627"><ele>1353.2</ele><time>2026-04-05T07:48:58Z</time></trkpt><trkpt lat="41.833925038656226" lon="13.391442588131875"><ele>1353.6</ele><time>2026-04-05T07:48:59Z</time></trkpt><trkpt lat="41.83382217632999" lon="13.391437725731803"><ele>1354.0</ele><time>2026-04-05T07:49:00Z</time></trkpt><trkpt lat="41.83372921070222" lon="13.391433365329064"><ele>1354.0</ele><time>2026-04-05T07:49:01Z</time></trkpt><trkpt lat="41.83363681067322" lon="13.391417506468532"><ele>1354.0</ele><time>2026-04-05T07:49:02Z</time></trkpt><trkpt lat="41.833512029982515" lon="13.391336578501534"><ele>1354.0</ele><time>2026-04-05T07:49:04Z</time></trkpt><trkpt lat="41.83345506219547" lon="13.391253920004084"><ele>1354.0</ele><time>2026-04-05T07:49:05Z</time></trkpt><trkpt lat="41.83339126295409" lon="13.391158813701137"><ele>1354.0</ele><time>2026-04-05T07:49:06Z</time></trkpt><trkpt lat="41.83332045961047" lon="13.391105264951603"><ele>1350.4</ele><time>2026-04-05T07:49:07Z</time></trkpt><trkpt lat="41.833243723374075" lon="13.391084734976817"><ele>1346.8000000000002</ele><time>2026-04-05T07:49:08Z</time></trkpt><trkpt lat="41.83316840667039" lon="13.391074320011912"><ele>1343.1999999999998</ele><time>2026-04-05T07:49:09Z</time></trkpt><trkpt lat="41.83306625420127" lon="13.391102253475985"><ele>1339.6</ele><time>2026-04-05T07:49:10Z</time></trkpt><trkpt lat="41.83293053812681" lon="13.391076652274895"><ele>1336.0</ele><time>2026-04-05T07:49:11Z</time></trkpt><trkpt lat="41.832837700728696" lon="13.391041019671729"><ele>1336.0</ele><time>2026-04-05T07:49:12Z</time></trkpt><trkpt lat="41.83273217945368" lon="13.390973717088876"><ele>1336.0</ele><time>2026-04-05T07:49:13Z</time></trkpt><trkpt lat="41.83264000315588" lon="13.39089069074741"><ele>1336.0</ele><time>2026-04-05T07:49:14Z</time></trkpt><trkpt lat="41.83259169119298" lon="13.390817543283335"><ele>1336.0</ele><time>2026-04-05T07:49:15Z</time></trkpt><trkpt lat="41.832519254912356" lon="13.390791798036656"><ele>1336.0</ele><time>2026-04-05T07:49:16Z</time></trkpt><trkpt lat="41.832439009669834" lon="13.390768045954406"><ele>1338.1666666666665</ele><time>2026-04-05T07:49:17Z</time></trkpt><trkpt lat="41.83235196699613" lon="13.390767521960168"><ele>1340.3333333333333</ele><time>2026-04-05T07:49:18Z</time></trkpt><trkpt lat="41.832268476525314" lon="13.390757503879586"><ele>1342.5</ele><time>2026-04-05T07:49:19Z</time></trkpt><trkpt lat="41.83218882605391" lon="13.390734990889166"><ele>1344.6666666666667</ele><time>2026-04-05T07:49:20Z</time></trkpt><trkpt lat="41.832102654075335" lon="13.39067876801276"><ele>1346.8333333333335</ele><time>2026-04-05T07:49:21Z</time></trkpt><trkpt lat="41.83201896099011" lon="13.39060803787412"><ele>1349.0</ele><time>2026-04-05T07:49:22Z</time></trkpt><trkpt lat="41.83194112488147" lon="13.390555550739267"><ele>1347.8000000000002</ele><time>2026-04-05T07:49:23.001Z</time></trkpt><trkpt lat="41.83184911663969" lon="13.390492608182896"><ele>1346.6000000000001</ele><time>2026-04-05T07:49:24.001Z</time></trkpt><trkpt lat="41.831765846360575" lon="13.390428292859243"><ele>1345.4</ele><time>2026-04-05T07:49:25.001Z</time></trkpt><trkpt lat="41.83168255741383" lon="13.390368808814742"><ele>1344.2</ele><time>2026-04-05T07:49:26.001Z</time></trkpt><trkpt lat="41.83162069866395" lon="13.3903408968849"><ele>1343.0</ele><time>2026-04-05T07:49:27.001Z</time></trkpt><trkpt lat="41.83152744548696" lon="13.390320412876331"><ele>1343.0</ele><time>2026-04-05T07:49:28.001Z</time></trkpt><trkpt lat="41.83143931464506" lon="13.390291912401832"><ele>1343.0</ele><time>2026-04-05T07:49:29.001Z</time></trkpt><trkpt lat="41.83136208391353" lon="13.390231447335017"><ele>1343.0</ele><time>2026-04-05T07:49:30.001Z</time></trkpt><trkpt lat="41.83125742614158" lon="13.390141008859496"><ele>1343.0</ele><time>2026-04-05T07:49:31.001Z</time></trkpt><trkpt lat="41.831136224719536" lon="13.390042970173372"><ele>1343.0</ele><time>2026-04-05T07:49:32.001Z</time></trkpt><trkpt lat="41.83104410618922" lon="13.389932126904183"><ele>1343.0</ele><time>2026-04-05T07:49:33.001Z</time></trkpt><trkpt lat="41.8309742945655" lon="13.389837939947762"><ele>1343.0</ele><time>2026-04-05T07:49:34.001Z</time></trkpt><trkpt lat="41.83090953668564" lon="13.389777245259015"><ele>1343.0</ele><time>2026-04-05T07:49:35.001Z</time></trkpt><trkpt lat="41.830803360662784" lon="13.389752862015204"><ele>1343.0</ele><time>2026-04-05T07:49:37.001Z</time></trkpt><trkpt lat="41.830735866402954" lon="13.389750246256247"><ele>1343.0</ele><time>2026-04-05T07:49:39.001Z</time></trkpt><trkpt lat="41.83064397217452" lon="13.389728533920598"><ele>1343.0</ele><time>2026-04-05T07:49:41.001Z</time></trkpt><trkpt lat="41.83058002800778" lon="13.389683947848416"><ele>1344.0</ele><time>2026-04-05T07:49:43.001Z</time></trkpt><trkpt lat="41.83053242627195" lon="13.389627146144052"><ele>1345.0</ele><time>2026-04-05T07:49:45.001Z</time></trkpt><trkpt lat="41.83047187483581" lon="13.389555353324972"><ele>1346.0</ele><time>2026-04-05T07:51:12Z</time></trkpt><trkpt lat="41.83042978625287" lon="13.389421393878948"><ele>1347.0</ele><time>2026-04-05T07:51:14Z</time></trkpt><trkpt lat="41.83038777302748" lon="13.389328111022435"><ele>1348.0</ele><time>2026-04-05T07:51:15Z</time></trkpt><trkpt lat="41.83035819314672" lon="13.38925180037218"><ele>1349.0</ele><time>2026-04-05T07:51:16Z</time></trkpt><trkpt lat="41.83034053605933" lon="13.389168953000125"><ele>1349.0</ele><time>2026-04-05T07:51:17Z</time></trkpt><trkpt lat="41.83031905325715" lon="13.389072213591916"><ele>1349.0</ele><time>2026-04-05T07:51:18Z</time></trkpt><trkpt lat="41.83032260254338" lon="13.388957032017824"><ele>1349.0</ele><time>2026-04-05T07:51:20Z</time></trkpt><trkpt lat="41.83031445067277" lon="13.388827992856548"><ele>1349.0</ele><time>2026-04-05T07:51:22Z</time></trkpt><trkpt lat="41.83028416648175" lon="13.388742517845145"><ele>1349.0</ele><time>2026-04-05T07:51:25Z</time></trkpt><trkpt lat="41.83022140202532" lon="13.38877633393443"><ele>1349.0</ele><time>2026-04-05T07:51:28Z</time></trkpt><trkpt lat="41.83017271035422" lon="13.388887998644043"><ele>1349.0</ele><time>2026-04-05T07:51:30Z</time></trkpt><trkpt lat="41.83015680704201" lon="13.388970162012777"><ele>1349.0</ele><time>2026-04-05T07:51:31Z</time></trkpt><trkpt lat="41.83013759100249" lon="13.389058418555862"><ele>1349.0</ele><time>2026-04-05T07:51:32.001Z</time></trkpt><trkpt lat="41.83013963023235" lon="13.38916316612816"><ele>1349.0</ele><time>2026-04-05T07:51:33.001Z</time></trkpt><trkpt lat="41.83012605876943" lon="13.389268624730782"><ele>1349.0</ele><time>2026-04-05T07:51:34.001Z</time></trkpt><trkpt lat="41.83013622490032" lon="13.38938243839723"><ele>1349.0</ele><time>2026-04-05T07:51:35.001Z</time></trkpt><trkpt lat="41.83015832389769" lon="13.389517380883875"><ele>1351.0</ele><time>2026-04-05T07:51:36.001Z</time></trkpt><trkpt lat="41.83018352634176" lon="13.389684129502232"><ele>1353.0</ele><time>2026-04-05T07:51:37.001Z</time></trkpt><trkpt lat="41.83020939090004" lon="13.389838403332918"><ele>1355.0</ele><time>2026-04-05T07:51:38.001Z</time></trkpt><trkpt lat="41.830217013613776" lon="13.389970989492163"><ele>1357.0</ele><time>2026-04-05T07:51:39.001Z</time></trkpt><trkpt lat="41.83021574133095" lon="13.390066529661665"><ele>1359.0</ele><time>2026-04-05T07:51:40.001Z</time></trkpt><trkpt lat="41.83021672546601" lon="13.39015876225408"><ele>1359.0</ele><time>2026-04-05T07:51:41.001Z</time></trkpt><trkpt lat="41.83019111596327" lon="13.39024296664752"><ele>1359.0</ele><time>2026-04-05T07:51:42.001Z</time></trkpt><trkpt lat="41.83011861962446" lon="13.390373991897352"><ele>1359.0</ele><time>2026-04-05T07:51:44.001Z</time></trkpt><trkpt lat="41.830148740774455" lon="13.390448787970605"><ele>1359.0</ele><time>2026-04-05T07:51:46.001Z</time></trkpt><trkpt lat="41.830235156463765" lon="13.3904739823533"><ele>1359.0</ele><time>2026-04-05T07:51:48.001Z</time></trkpt><trkpt lat="41.83032135060929" lon="13.390435980613871"><ele>1359.0</ele><time>2026-04-05T07:51:49.001Z</time></trkpt><trkpt lat="41.8304040142752" lon="13.39037416806794"><ele>1359.0</ele><time>2026-04-05T07:51:50.001Z</time></trkpt><trkpt lat="41.830506875908405" lon="13.390330068256862"><ele>1359.0</ele><time>2026-04-05T07:51:51.001Z</time></trkpt><trkpt lat="41.83060044330718" lon="13.390295190604393"><ele>1359.0</ele><time>2026-04-05T07:51:52.001Z</time></trkpt><trkpt lat="41.830682221132335" lon="13.390271263488874"><ele>1359.0</ele><time>2026-04-05T07:51:53.001Z</time></trkpt><trkpt lat="41.83078188933985" lon="13.390315561716648"><ele>1359.0</ele><time>2026-04-05T07:51:55.001Z</time></trkpt><trkpt lat="41.83082665977108" lon="13.390390488139586"><ele>1359.0</ele><time>2026-04-05T07:51:56.001Z</time></trkpt><trkpt lat="41.83086069886619" lon="13.390485007556034"><ele>1359.0</ele><time>2026-04-05T07:51:57.001Z</time></trkpt><trkpt lat="41.83091837506866" lon="13.390614222370099"><ele>1359.0</ele><time>2026-04-05T07:51:58.001Z</time></trkpt><trkpt lat="41.830966166470034" lon="13.390707725646408"><ele>1359.0</ele><time>2026-04-05T07:51:59.001Z</time></trkpt><trkpt lat="41.83101998974783" lon="13.390776473506099"><ele>1359.0</ele><time>2026-04-05T07:52:00.001Z</time></trkpt><trkpt lat="41.83109598017235" lon="13.390842252434323"><ele>1359.0</ele><time>2026-04-05T07:52:01.001Z</time></trkpt><trkpt lat="41.831193597250945" lon="13.390914671452785"><ele>1360.8333333333333</ele><time>2026-04-05T07:52:02.001Z</time></trkpt><trkpt lat="41.83129695894406" lon="13.39097823542328"><ele>1362.6666666666667</ele><time>2026-04-05T07:52:03.001Z</time></trkpt><trkpt lat="41.831388982597545" lon="13.39101097046418"><ele>1364.5</ele><time>2026-04-05T07:52:04.001Z</time></trkpt><trkpt lat="41.83146559096209" lon="13.391030535054464"><ele>1366.3333333333335</ele><time>2026-04-05T07:52:05.001Z</time></trkpt><trkpt lat="41.831530600800534" lon="13.391082790932906"><ele>1368.1666666666667</ele><time>2026-04-05T07:52:07.001Z</time></trkpt><trkpt lat="41.83151209434745" lon="13.391164521957645"><ele>1370.0</ele><time>2026-04-05T07:52:09.001Z</time></trkpt><trkpt lat="41.83144953672307" lon="13.391222447990101"><ele>1370.0</ele><time>2026-04-05T07:52:11.001Z</time></trkpt><trkpt lat="41.83138135649352" lon="13.391196379262206"><ele>1370.0</ele><time>2026-04-05T07:52:13.001Z</time></trkpt><trkpt lat="41.83125120382526" lon="13.391126497442801"><ele>1370.0</ele><time>2026-04-05T07:52:15.001Z</time></trkpt><trkpt lat="41.831165617738854" lon="13.391093961604298"><ele>1370.0</ele><time>2026-04-05T07:52:16.001Z</time></trkpt><trkpt lat="41.8310197215807" lon="13.391037722095014"><ele>1373.5</ele><time>2026-04-05T07:52:17.001Z</time></trkpt><trkpt lat="41.83090828125088" lon="13.3909773111143"><ele>1377.0</ele><time>2026-04-05T07:52:18.001Z</time></trkpt><trkpt lat="41.830739212562925" lon="13.390923562918006"><ele>1380.5</ele><time>2026-04-05T07:52:19.001Z</time></trkpt><trkpt lat="41.83061860645087" lon="13.390892947865124"><ele>1384.0</ele><time>2026-04-05T07:52:20.001Z</time></trkpt><trkpt lat="41.830506715117714" lon="13.390903781790698"><ele>1384.0</ele><time>2026-04-05T07:52:21.001Z</time></trkpt><trkpt lat="41.83040060122929" lon="13.390955149718556"><ele>1384.0</ele><time>2026-04-05T07:52:22.001Z</time></trkpt><trkpt lat="41.8302780981692" lon="13.391027033485448"><ele>1384.0</ele><time>2026-04-05T07:52:23.001Z</time></trkpt><trkpt lat="41.83016835889561" lon="13.39108384417473"><ele>1384.0</ele><time>2026-04-05T07:52:24.001Z</time></trkpt><trkpt lat="41.83005810094776" lon="13.391142116122492"><ele>1386.75</ele><time>2026-04-05T07:52:25.001Z</time></trkpt><trkpt lat="41.829941039154605" lon="13.391165696023027"><ele>1389.5</ele><time>2026-04-05T07:52:26.001Z</time></trkpt><trkpt lat="41.82980550155408" lon="13.391188050022517"><ele>1392.25</ele><time>2026-04-05T07:52:27.001Z</time></trkpt><trkpt lat="41.82966866732968" lon="13.391198445816721"><ele>1395.0</ele><time>2026-04-05T07:52:28.001Z</time></trkpt><trkpt lat="41.82956490447809" lon="13.391183619308592"><ele>1395.0</ele><time>2026-04-05T07:52:29.001Z</time></trkpt><trkpt lat="41.82947527326036" lon="13.39116534426372"><ele>1395.0</ele><time>2026-04-05T07:52:30.001Z</time></trkpt><trkpt lat="41.82939411285557" lon="13.391157566462475"><ele>1395.0</ele><time>2026-04-05T07:52:31.001Z</time></trkpt><trkpt lat="41.829281104587366" lon="13.39110020078784"><ele>1395.0</ele><time>2026-04-05T07:52:33.001Z</time></trkpt><trkpt lat="41.82919270363601" lon="13.391033798324882"><ele>1395.0</ele><time>2026-04-05T07:52:34.001Z</time></trkpt><trkpt lat="41.82914727534354" lon="13.390937517533402"><ele>1392.6</ele><time>2026-04-05T07:52:36.001Z</time></trkpt><trkpt lat="41.82916198235631" lon="13.390838923177046"><ele>1390.2</ele><time>2026-04-05T07:52:38.001Z</time></trkpt><trkpt lat="41.82923374803498" lon="13.39077630986721"><ele>1387.8000000000002</ele><time>2026-04-05T07:52:40.001Z</time></trkpt><trkpt lat="41.82929231258013" lon="13.390708611941415"><ele>1385.4</ele><time>2026-04-05T07:52:41Z</time></trkpt><trkpt lat="41.82930432406416" lon="13.390605749592075"><ele>1383.0</ele><time>2026-04-05T07:52:43Z</time></trkpt><trkpt lat="41.82941259520936" lon="13.389904958486264"><ele>1383.0</ele><time>2026-04-05T07:52:47Z</time></trkpt><trkpt lat="41.829375825002025" lon="13.389790127250352"><ele>1383.0</ele><time>2026-04-05T07:52:48Z</time></trkpt><trkpt lat="41.829323376253946" lon="13.389684228570426"><ele>1383.0</ele><time>2026-04-05T07:52:49Z</time></trkpt><trkpt lat="41.82922317755186" lon="13.389522410164012"><ele>1383.0</ele><time>2026-04-05T07:52:50Z</time></trkpt><trkpt lat="41.829162833098074" lon="13.389379553386856"><ele>1388.6000000000001</ele><time>2026-04-05T07:52:51Z</time></trkpt><trkpt lat="41.82910867036521" lon="13.389258036804442"><ele>1394.2</ele><time>2026-04-05T07:52:52Z</time></trkpt><trkpt lat="41.82908268650817" lon="13.389177022248246"><ele>1399.8</ele><time>2026-04-05T07:52:53Z</time></trkpt><trkpt lat="41.82897613230055" lon="13.3891255203823"><ele>1405.4</ele><time>2026-04-05T07:52:55Z</time></trkpt><trkpt lat="41.82886202848311" lon="13.389119708735578"><ele>1411.0</ele><time>2026-04-05T07:52:56Z</time></trkpt><trkpt lat="41.82875700428952" lon="13.389076172371931"><ele>1411.0</ele><time>2026-04-05T07:52:57Z</time></trkpt><trkpt lat="41.82861551498535" lon="13.389041075296479"><ele>1411.0</ele><time>2026-04-05T07:52:58Z</time></trkpt><trkpt lat="41.82847666031181" lon="13.38902051919309"><ele>1411.0</ele><time>2026-04-05T07:52:59Z</time></trkpt><trkpt lat="41.82833576011231" lon="13.389003840188455"><ele>1411.0</ele><time>2026-04-05T07:53:00Z</time></trkpt><trkpt lat="41.82814744766664" lon="13.388976426207934"><ele>1419.0</ele><time>2026-04-05T07:53:01Z</time></trkpt><trkpt lat="41.82789474120465" lon="13.38890916757142"><ele>1427.0</ele><time>2026-04-05T07:53:02Z</time></trkpt><trkpt lat="41.82774344779945" lon="13.388877232617135"><ele>1435.0</ele><time>2026-04-05T07:53:03Z</time></trkpt><trkpt lat="41.82764636781111" lon="13.388879221543213"><ele>1432.2</ele><time>2026-04-05T07:53:05Z</time></trkpt><trkpt lat="41.82757622979035" lon="13.388848388632116"><ele>1429.4</ele><time>2026-04-05T07:53:06Z</time></trkpt><trkpt lat="41.82751520937965" lon="13.388800660117559"><ele>1426.6</ele><time>2026-04-05T07:53:07Z</time></trkpt><trkpt lat="41.82739905670811" lon="13.388772456544636"><ele>1423.8</ele><time>2026-04-05T07:53:09Z</time></trkpt><trkpt lat="41.827322819128156" lon="13.388705592425211"><ele>1421.0</ele><time>2026-04-05T07:53:11Z</time></trkpt><trkpt lat="41.827242931100066" lon="13.38862795699875"><ele>1421.0</ele><time>2026-04-05T07:53:13Z</time></trkpt><trkpt lat="41.82719570863713" lon="13.38855233184733"><ele>1421.0</ele><time>2026-04-05T07:53:14Z</time></trkpt><trkpt lat="41.82714937087769" lon="13.388416769272458"><ele>1421.0</ele><time>2026-04-05T07:53:16Z</time></trkpt><trkpt lat="41.8270992817472" lon="13.388302565250434"><ele>1421.0</ele><time>2026-04-05T07:53:18Z</time></trkpt><trkpt lat="41.827069642188924" lon="13.38845608688494"><ele>1421.0</ele><time>2026-04-05T07:55:37Z</time></trkpt><trkpt lat="41.82705493151181" lon="13.388353669836118"><ele>1421.0</ele><time>2026-04-05T07:55:41Z</time></trkpt><trkpt lat="41.827037187597554" lon="13.388248912883666"><ele>1421.0</ele><time>2026-04-05T07:55:54.001Z</time></trkpt><trkpt lat="41.82701153216325" lon="13.388136305605753"><ele>1421.0</ele><time>2026-04-05T07:56:09.001Z</time></trkpt><trkpt lat="41.82699725896171" lon="13.388038180105735"><ele>1421.0</ele><time>2026-04-05T07:56:17.001Z</time></trkpt><trkpt lat="41.82694625106546" lon="13.387987153741788"><ele>1421.0</ele><time>2026-04-05T07:56:22.001Z</time></trkpt><trkpt lat="41.82687896732812" lon="13.387961726387159"><ele>1421.0</ele><time>2026-04-05T07:56:34.001Z</time></trkpt><trkpt lat="41.82685185335301" lon="13.387882083283701"><ele>1421.0</ele><time>2026-04-05T07:57:47.001Z</time></trkpt><trkpt lat="41.82681878087011" lon="13.387804416255904"><ele>1421.7142857142858</ele><time>2026-04-05T07:58:26.001Z</time></trkpt><trkpt lat="41.826787252354364" lon="13.38771880164368"><ele>1422.4285714285716</ele><time>2026-04-05T07:58:34.001Z</time></trkpt><trkpt lat="41.82678045884259" lon="13.387628661248808"><ele>1423.142857142857</ele><time>2026-04-05T07:59:04.001Z</time></trkpt><trkpt lat="41.82678513911616" lon="13.387543299819876"><ele>1423.857142857143</ele><time>2026-04-05T07:59:10.001Z</time></trkpt><trkpt lat="41.82680324420899" lon="13.387633094377662"><ele>1424.5714285714287</ele><time>2026-04-05T08:00:28.001Z</time></trkpt><trkpt lat="41.826828253803214" lon="13.387729028862104"><ele>1425.2857142857142</ele><time>2026-04-05T08:00:43.001Z</time></trkpt><trkpt lat="41.826828555553455" lon="13.38781411835236"><ele>1426.0</ele><time>2026-04-05T08:00:46.001Z</time></trkpt><trkpt lat="41.82681653397713" lon="13.38791255668418"><ele>1426.0</ele><time>2026-04-05T08:00:53.001Z</time></trkpt><trkpt lat="41.826827461685966" lon="13.38800222180451"><ele>1426.0</ele><time>2026-04-05T08:01:00.001Z</time></trkpt><trkpt lat="41.82689459726775" lon="13.388006361453032"><ele>1426.0</ele><time>2026-04-05T08:01:06.001Z</time></trkpt><trkpt lat="41.826957922706" lon="13.388036107466892"><ele>1426.0</ele><time>2026-04-05T08:01:12.001Z</time></trkpt><trkpt lat="41.82701126783287" lon="13.38809149575428"><ele>1426.0</ele><time>2026-04-05T08:01:21Z</time></trkpt><trkpt lat="41.827057337614775" lon="13.388151176876907"><ele>1426.0</ele><time>2026-04-05T08:01:28Z</time></trkpt><trkpt lat="41.827097408943175" lon="13.388227078961378"><ele>1426.0</ele><time>2026-04-05T08:01:37Z</time></trkpt><trkpt lat="41.82713733960587" lon="13.388673634294515"><ele>1424.75</ele><time>2026-04-05T08:01:59.001Z</time></trkpt><trkpt lat="41.827123125446796" lon="13.388511991553127"><ele>1423.5</ele><time>2026-04-05T08:02:00.001Z</time></trkpt><trkpt lat="41.827074798916264" lon="13.388426533373414"><ele>1422.25</ele><time>2026-04-05T08:02:08.001Z</time></trkpt><trkpt lat="41.82704353464911" lon="13.388698094985605"><ele>1421.0</ele><time>2026-04-05T08:02:19.001Z</time></trkpt><trkpt lat="41.82700307813713" lon="13.38862689319491"><ele>1421.0</ele><time>2026-04-05T08:02:23.001Z</time></trkpt><trkpt lat="41.827031414459384" lon="13.38852774348333"><ele>1421.0</ele><time>2026-04-05T08:02:29.001Z</time></trkpt><trkpt lat="41.826987625217136" lon="13.388455529541819"><ele>1421.0</ele><time>2026-04-05T08:02:35.001Z</time></trkpt><trkpt lat="41.8270324720024" lon="13.388383162964516"><ele>1421.0</ele><time>2026-04-05T08:02:38.001Z</time></trkpt><trkpt lat="41.82708398224677" lon="13.388309618883474"><ele>1421.0</ele><time>2026-04-05T08:05:01.001Z</time></trkpt><trkpt lat="41.827048615732124" lon="13.388409211233556"><ele>1421.0</ele><time>2026-04-05T08:07:01.001Z</time></trkpt><trkpt lat="41.827032696063576" lon="13.388502406320557"><ele>1421.0</ele><time>2026-04-05T08:07:03.001Z</time></trkpt><trkpt lat="41.827041673766885" lon="13.388609821654532"><ele>1421.0</ele><time>2026-04-05T08:07:05.001Z</time></trkpt><trkpt lat="41.82706936321785" lon="13.388715200544649"><ele>1421.0</ele><time>2026-04-05T08:07:12.001Z</time></trkpt><trkpt lat="41.8271497720842" lon="13.388687789961304"><ele>1421.0</ele><time>2026-04-05T08:07:24Z</time></trkpt><trkpt lat="41.82720986529155" lon="13.388776944320904"><ele>1421.0</ele><time>2026-04-05T08:07:27Z</time></trkpt><trkpt lat="41.82724842042381" lon="13.388857702231657"><ele>1421.0</ele><time>2026-04-05T08:07:29Z</time></trkpt><trkpt lat="41.827290078076516" lon="13.388953322013728"><ele>1421.0</ele><time>2026-04-05T08:07:32Z</time></trkpt><trkpt lat="41.827388041306655" lon="13.389018024529166"><ele>1423.3333333333335</ele><time>2026-04-05T08:07:35Z</time></trkpt><trkpt lat="41.82748142038974" lon="13.38907906306538"><ele>1425.6666666666667</ele><time>2026-04-05T08:07:37Z</time></trkpt><trkpt lat="41.82754548675703" lon="13.389119406300841"><ele>1428.0</ele><time>2026-04-05T08:07:39Z</time></trkpt><trkpt lat="41.827608088650685" lon="13.3891485085153"><ele>1430.3333333333333</ele><time>2026-04-05T08:07:41Z</time></trkpt><trkpt lat="41.82768898363661" lon="13.38918281796967"><ele>1432.6666666666665</ele><time>2026-04-05T08:07:43Z</time></trkpt><trkpt lat="41.82778420551289" lon="13.389205119873097"><ele>1435.0</ele><time>2026-04-05T08:07:44Z</time></trkpt><trkpt lat="41.827909401661834" lon="13.3892468760319"><ele>1435.0</ele><time>2026-04-05T08:07:45Z</time></trkpt><trkpt lat="41.82805229865341" lon="13.389313536475745"><ele>1435.0</ele><time>2026-04-05T08:07:46Z</time></trkpt><trkpt lat="41.828163152935396" lon="13.389377145831233"><ele>1435.0</ele><time>2026-04-05T08:07:47Z</time></trkpt><trkpt lat="41.82825162435354" lon="13.389451457156476"><ele>1435.0</ele><time>2026-04-05T08:07:48Z</time></trkpt><trkpt lat="41.82833803017605" lon="13.389531251505021"><ele>1435.0</ele><time>2026-04-05T08:07:49Z</time></trkpt><trkpt lat="41.828405360838694" lon="13.389592106003777"><ele>1435.0</ele><time>2026-04-05T08:07:50Z</time></trkpt><trkpt lat="41.82847228305263" lon="13.38965339599692"><ele>1435.0</ele><time>2026-04-05T08:07:51Z</time></trkpt><trkpt lat="41.82853044538672" lon="13.389763541385937"><ele>1435.0</ele><time>2026-04-05T08:07:52Z</time></trkpt><trkpt lat="41.82855866911582" lon="13.389866732422115"><ele>1435.0</ele><time>2026-04-05T08:07:53Z</time></trkpt><trkpt lat="41.82857258576835" lon="13.389963879967748"><ele>1435.0</ele><time>2026-04-05T08:07:54Z</time></trkpt><trkpt lat="41.828581798101816" lon="13.39006810673607"><ele>1433.2</ele><time>2026-04-05T08:07:55Z</time></trkpt><trkpt lat="41.82856666436185" lon="13.390183215697615"><ele>1431.4</ele><time>2026-04-05T08:07:56Z</time></trkpt><trkpt lat="41.82852597080937" lon="13.39030282972856"><ele>1429.6</ele><time>2026-04-05T08:07:57Z</time></trkpt><trkpt lat="41.82846922962947" lon="13.390434169213583"><ele>1427.8</ele><time>2026-04-05T08:07:58Z</time></trkpt><trkpt lat="41.82840342714911" lon="13.390516281953555"><ele>1426.0</ele><time>2026-04-05T08:07:59Z</time></trkpt><trkpt lat="41.828338895699375" lon="13.390560339101198"><ele>1434.0</ele><time>2026-04-05T08:08:00Z</time></trkpt><trkpt lat="41.82824107319333" lon="13.390621623086883"><ele>1442.0</ele><time>2026-04-05T08:08:02Z</time></trkpt><trkpt lat="41.82823759138934" lon="13.390753257479311"><ele>1450.0</ele><time>2026-04-05T08:08:04Z</time></trkpt><trkpt lat="41.82833370377879" lon="13.390884995541805"><ele>1458.0</ele><time>2026-04-05T08:08:06Z</time></trkpt><trkpt lat="41.828386564394144" lon="13.39095530686135"><ele>1466.0</ele><time>2026-04-05T08:08:07Z</time></trkpt><trkpt lat="41.82843477101318" lon="13.39105096946506"><ele>1462.8333333333335</ele><time>2026-04-05T08:08:08Z</time></trkpt><trkpt lat="41.82848277294172" lon="13.391115656635083"><ele>1459.6666666666667</ele><time>2026-04-05T08:08:09Z</time></trkpt><trkpt lat="41.82856631191622" lon="13.391208575910202"><ele>1456.5</ele><time>2026-04-05T08:08:11Z</time></trkpt><trkpt lat="41.828610643438644" lon="13.391287699112302"><ele>1453.3333333333333</ele><time>2026-04-05T08:08:13Z</time></trkpt><trkpt lat="41.828619349964434" lon="13.39140906794793"><ele>1450.1666666666665</ele><time>2026-04-05T08:08:22Z</time></trkpt><trkpt lat="41.82862659288629" lon="13.39154589243174"><ele>1447.0</ele><time>2026-04-05T08:08:24Z</time></trkpt><trkpt lat="41.82863605297878" lon="13.391637992726837"><ele>1447.0</ele><time>2026-04-05T08:08:26Z</time></trkpt><trkpt lat="41.82867535135414" lon="13.391706771421285"><ele>1447.0</ele><time>2026-04-05T08:08:29Z</time></trkpt><trkpt lat="41.828723413205104" lon="13.391791592907953"><ele>1447.0</ele><time>2026-04-05T08:08:31Z</time></trkpt><trkpt lat="41.82878737833978" lon="13.391799972227844"><ele>1447.0</ele><time>2026-04-05T08:08:33Z</time></trkpt><trkpt lat="41.82891592389152" lon="13.391850163175253"><ele>1447.0</ele><time>2026-04-05T08:08:35Z</time></trkpt><trkpt lat="41.828982334226424" lon="13.39189912067342"><ele>1447.0</ele><time>2026-04-05T08:08:36Z</time></trkpt><trkpt lat="41.829080021561865" lon="13.391990618459737"><ele>1447.0</ele><time>2026-04-05T08:08:37Z</time></trkpt><trkpt lat="41.82914650904984" lon="13.392074368488599"><ele>1447.0</ele><time>2026-04-05T08:08:38Z</time></trkpt><trkpt lat="41.8292323211996" lon="13.39212251030975"><ele>1447.0</ele><time>2026-04-05T08:08:39Z</time></trkpt><trkpt lat="41.82933867935706" lon="13.392164418991777"><ele>1447.0</ele><time>2026-04-05T08:08:40Z</time></trkpt><trkpt lat="41.82945979319262" lon="13.392208682312528"><ele>1447.0</ele><time>2026-04-05T08:08:41.001Z</time></trkpt><trkpt lat="41.82960165093743" lon="13.392273107692603"><ele>1450.3999999999999</ele><time>2026-04-05T08:08:42.001Z</time></trkpt><trkpt lat="41.82973282421035" lon="13.392319820691311"><ele>1453.8</ele><time>2026-04-05T08:08:43.001Z</time></trkpt><trkpt lat="41.82982724726025" lon="13.392356630969566"><ele>1457.2</ele><time>2026-04-05T08:08:44.001Z</time></trkpt><trkpt lat="41.82990416764357" lon="13.392375920156773"><ele>1460.6</ele><time>2026-04-05T08:08:45.001Z</time></trkpt><trkpt lat="41.8299790795427" lon="13.392405289964996"><ele>1464.0</ele><time>2026-04-05T08:08:46.001Z</time></trkpt><trkpt lat="41.830049512437064" lon="13.392465247029897"><ele>1462.25</ele><time>2026-04-05T08:08:47.001Z</time></trkpt><trkpt lat="41.83014272038388" lon="13.392550178693384"><ele>1460.5</ele><time>2026-04-05T08:08:48.001Z</time></trkpt><trkpt lat="41.83025803188193" lon="13.392639866084835"><ele>1458.75</ele><time>2026-04-05T08:08:49.001Z</time></trkpt><trkpt lat="41.83036222385522" lon="13.39271539117006"><ele>1457.0</ele><time>2026-04-05T08:08:50.001Z</time></trkpt><trkpt lat="41.830450201806094" lon="13.392774652791706"><ele>1457.0</ele><time>2026-04-05T08:08:51.001Z</time></trkpt><trkpt lat="41.83053120814965" lon="13.392799515416446"><ele>1457.0</ele><time>2026-04-05T08:08:52.001Z</time></trkpt><trkpt lat="41.83060498451971" lon="13.392830909746177"><ele>1457.0</ele><time>2026-04-05T08:08:53.001Z</time></trkpt><trkpt lat="41.83059127366395" lon="13.393010498993043"><ele>1457.0</ele><time>2026-04-05T08:08:58.001Z</time></trkpt><trkpt lat="41.83056609937462" lon="13.393115389014335"><ele>1457.0</ele><time>2026-04-05T08:09:00.001Z</time></trkpt><trkpt lat="41.83054642456777" lon="13.393394580660981"><ele>1462.1999999999998</ele><time>2026-04-05T08:09:01.001Z</time></trkpt><trkpt lat="41.830530921236914" lon="13.393481965830716"><ele>1467.4</ele><time>2026-04-05T08:09:02.001Z</time></trkpt><trkpt lat="41.83047066864614" lon="13.393573116538388"><ele>1472.6</ele><time>2026-04-05T08:09:03.001Z</time></trkpt><trkpt lat="41.83034212549887" lon="13.393699605478293"><ele>1477.8000000000002</ele><time>2026-04-05T08:09:04.001Z</time></trkpt><trkpt lat="41.830280101411645" lon="13.393782050262129"><ele>1483.0</ele><time>2026-04-05T08:09:05.001Z</time></trkpt><trkpt lat="41.830193501474" lon="13.393812945102995"><ele>1483.1666666666665</ele><time>2026-04-05T08:09:07.001Z</time></trkpt><trkpt lat="41.830114922468006" lon="13.393826808621785"><ele>1483.3333333333333</ele><time>2026-04-05T08:09:08.001Z</time></trkpt><trkpt lat="41.83004489773477" lon="13.393831883504854"><ele>1483.5</ele><time>2026-04-05T08:09:09.001Z</time></trkpt><trkpt lat="41.82997409208277" lon="13.393871441577515"><ele>1483.6666666666667</ele><time>2026-04-05T08:09:10.001Z</time></trkpt><trkpt lat="41.829884465800006" lon="13.393888840174283"><ele>1483.8333333333335</ele><time>2026-04-05T08:09:11.001Z</time></trkpt><trkpt lat="41.82979316546524" lon="13.393933570233479"><ele>1484.0</ele><time>2026-04-05T08:09:12.001Z</time></trkpt><trkpt lat="41.8296726770924" lon="13.393955120193297"><ele>1485.3333333333335</ele><time>2026-04-05T08:09:13.001Z</time></trkpt><trkpt lat="41.82957889344395" lon="13.393972875412366"><ele>1486.6666666666667</ele><time>2026-04-05T08:09:14.001Z</time></trkpt><trkpt lat="41.82951102703293" lon="13.394018530887672"><ele>1488.0</ele><time>2026-04-05T08:09:15.001Z</time></trkpt><trkpt lat="41.82944347564422" lon="13.39409920223799"><ele>1489.3333333333333</ele><time>2026-04-05T08:09:17.001Z</time></trkpt><trkpt lat="41.82937902244474" lon="13.394175669621067"><ele>1490.6666666666665</ele><time>2026-04-05T08:09:20.001Z</time></trkpt><trkpt lat="41.82933671001473" lon="13.394255011437863"><ele>1492.0</ele><time>2026-04-05T08:09:22.001Z</time></trkpt><trkpt lat="41.82933580245488" lon="13.394393579631252"><ele>1492.0</ele><time>2026-04-05T08:09:24.001Z</time></trkpt><trkpt lat="41.82935950814451" lon="13.39447706262455"><ele>1492.0</ele><time>2026-04-05T08:09:25.001Z</time></trkpt><trkpt lat="41.82942975876521" lon="13.394640759069272"><ele>1492.0</ele><time>2026-04-05T08:09:27.001Z</time></trkpt><trkpt lat="41.82952431972833" lon="13.394728254833275"><ele>1492.0</ele><time>2026-04-05T08:09:29Z</time></trkpt><trkpt lat="41.82958677462852" lon="13.394759173044955"><ele>1492.0</ele><time>2026-04-05T08:09:30Z</time></trkpt><trkpt lat="41.82965015355566" lon="13.394804258022782"><ele>1493.1666666666665</ele><time>2026-04-05T08:09:31Z</time></trkpt><trkpt lat="41.82971598836341" lon="13.394879622513676"><ele>1494.3333333333333</ele><time>2026-04-05T08:09:33Z</time></trkpt><trkpt lat="41.82975445931392" lon="13.395000381476843"><ele>1495.5</ele><time>2026-04-05T08:09:35Z</time></trkpt><trkpt lat="41.82976682508452" lon="13.395091720246207"><ele>1496.6666666666667</ele><time>2026-04-05T08:09:36Z</time></trkpt><trkpt lat="41.8297597068281" lon="13.395196937971164"><ele>1497.8333333333335</ele><time>2026-04-05T08:09:37Z</time></trkpt><trkpt lat="41.829753144693775" lon="13.395292071524246"><ele>1499.0</ele><time>2026-04-05T08:09:38Z</time></trkpt><trkpt lat="41.829746617937154" lon="13.395420166748472"><ele>1499.0</ele><time>2026-04-05T08:09:40Z</time></trkpt><trkpt lat="41.829704182481656" lon="13.395497236553501"><ele>1499.0</ele><time>2026-04-05T08:09:42Z</time></trkpt><trkpt lat="41.82963426588221" lon="13.395537701750781"><ele>1499.0</ele><time>2026-04-05T08:09:44Z</time></trkpt><trkpt lat="41.82954960922" lon="13.395551669222426"><ele>1499.0</ele><time>2026-04-05T08:09:46Z</time></trkpt><trkpt lat="41.82939421090736" lon="13.395544511219391"><ele>1499.0</ele><time>2026-04-05T08:09:48Z</time></trkpt><trkpt lat="41.82930115639379" lon="13.395530236216485"><ele>1497.8333333333335</ele><time>2026-04-05T08:09:49Z</time></trkpt><trkpt lat="41.82923521294169" lon="13.395543314667819"><ele>1496.6666666666667</ele><time>2026-04-05T08:09:50Z</time></trkpt><trkpt lat="41.82914661648461" lon="13.395538938019738"><ele>1495.5</ele><time>2026-04-05T08:09:52Z</time></trkpt><trkpt lat="41.82906583500871" lon="13.395608181217188"><ele>1494.3333333333333</ele><time>2026-04-05T08:10:26Z</time></trkpt><trkpt lat="41.82899567480514" lon="13.39561102981624"><ele>1493.1666666666665</ele><time>2026-04-05T08:10:29Z</time></trkpt><trkpt lat="41.82907360808778" lon="13.395580544003622"><ele>1492.0</ele><time>2026-04-05T08:12:10Z</time></trkpt><trkpt lat="41.82914129277092" lon="13.395579679903442"><ele>1492.0</ele><time>2026-04-05T08:12:26Z</time></trkpt><trkpt lat="41.829204566915465" lon="13.395569648719079"><ele>1492.0</ele><time>2026-04-05T08:12:31Z</time></trkpt><trkpt lat="41.82927055904045" lon="13.395562187350711"><ele>1492.0</ele><time>2026-04-05T08:12:34Z</time></trkpt><trkpt lat="41.8293639879844" lon="13.395568918381624"><ele>1492.0</ele><time>2026-04-05T08:12:36Z</time></trkpt><trkpt lat="41.82945375832482" lon="13.395558843093083"><ele>1492.0</ele><time>2026-04-05T08:12:38Z</time></trkpt><trkpt lat="41.82954670424105" lon="13.39553434885708"><ele>1492.0</ele><time>2026-04-05T08:12:40.001Z</time></trkpt><trkpt lat="41.82964988325795" lon="13.395494604913463"><ele>1493.1666666666665</ele><time>2026-04-05T08:12:42.001Z</time></trkpt><trkpt lat="41.82972294715677" lon="13.395427908478174"><ele>1494.3333333333333</ele><time>2026-04-05T08:12:44.001Z</time></trkpt><trkpt lat="41.8297526166775" lon="13.39532400889288"><ele>1495.5</ele><time>2026-04-05T08:12:46.001Z</time></trkpt><trkpt lat="41.82975248551042" lon="13.395200847354117"><ele>1496.6666666666667</ele><time>2026-04-05T08:12:48.001Z</time></trkpt><trkpt lat="41.82973100207834" lon="13.395103647565229"><ele>1497.8333333333335</ele><time>2026-04-05T08:12:49.001Z</time></trkpt><trkpt lat="41.82971106478123" lon="13.395023346346848"><ele>1499.0</ele><time>2026-04-05T08:12:50.001Z</time></trkpt><trkpt lat="41.829670558398675" lon="13.394932915079737"><ele>1499.0</ele><time>2026-04-05T08:12:52.001Z</time></trkpt><trkpt lat="41.82962631249793" lon="13.39485164161049"><ele>1499.0</ele><time>2026-04-05T08:12:54.001Z</time></trkpt><trkpt lat="41.82956142687788" lon="13.394827693388937"><ele>1499.0</ele><time>2026-04-05T08:12:56.001Z</time></trkpt><trkpt lat="41.829500789489096" lon="13.394801955775685"><ele>1499.0</ele><time>2026-04-05T08:12:58.001Z</time></trkpt><trkpt lat="41.82940860915255" lon="13.394741141015059"><ele>1499.0</ele><time>2026-04-05T08:13:01.001Z</time></trkpt><trkpt lat="41.829353436447725" lon="13.394672758681624"><ele>1499.0</ele><time>2026-04-05T08:13:03.001Z</time></trkpt><trkpt lat="41.829310916598835" lon="13.394588466611395"><ele>1499.6666666666667</ele><time>2026-04-05T08:13:05.001Z</time></trkpt><trkpt lat="41.82928199910554" lon="13.394488408364094"><ele>1500.3333333333335</ele><time>2026-04-05T08:13:08.001Z</time></trkpt><trkpt lat="41.82928090162096" lon="13.394397775971171"><ele>1501.0</ele><time>2026-04-05T08:13:10.001Z</time></trkpt><trkpt lat="41.82931658007591" lon="13.394312897435851"><ele>1501.6666666666667</ele><time>2026-04-05T08:13:12.001Z</time></trkpt><trkpt lat="41.82936865111343" lon="13.394219130469857"><ele>1502.3333333333333</ele><time>2026-04-05T08:13:15.001Z</time></trkpt><trkpt lat="41.829422247377074" lon="13.394164805258134"><ele>1503.0</ele><time>2026-04-05T08:13:16.001Z</time></trkpt><trkpt lat="41.82952429952621" lon="13.394083041573698"><ele>1500.8000000000002</ele><time>2026-04-05T08:13:18.001Z</time></trkpt><trkpt lat="41.8296201601215" lon="13.394006916780146"><ele>1498.6</ele><time>2026-04-05T08:13:20.001Z</time></trkpt><trkpt lat="41.82971556198605" lon="13.393941322976794"><ele>1496.4</ele><time>2026-04-05T08:13:22.001Z</time></trkpt><trkpt lat="41.829788280983905" lon="13.393904559796939"><ele>1494.1999999999998</ele><time>2026-04-05T08:13:25.001Z</time></trkpt><trkpt lat="41.829740371820904" lon="13.393790177619003"><ele>1492.0</ele><time>2026-04-05T08:14:15Z</time></trkpt><trkpt lat="41.82982642636808" lon="13.393763948481098"><ele>1490.0</ele><time>2026-04-05T08:14:36Z</time></trkpt><trkpt lat="41.82993602116264" lon="13.393735841698264"><ele>1488.0</ele><time>2026-04-05T08:14:38.001Z</time></trkpt><trkpt lat="41.83002755937549" lon="13.39368765301452"><ele>1486.0</ele><time>2026-04-05T08:14:40.001Z</time></trkpt><trkpt lat="41.8301335421922" lon="13.393660885641632"><ele>1484.0</ele><time>2026-04-05T08:14:42.001Z</time></trkpt><trkpt lat="41.83026109099182" lon="13.393572215542239"><ele>1483.8000000000002</ele><time>2026-04-05T08:14:44.001Z</time></trkpt><trkpt lat="41.83033378733439" lon="13.39350838526491"><ele>1483.6000000000001</ele><time>2026-04-05T08:14:45.001Z</time></trkpt><trkpt lat="41.83038190302086" lon="13.393443515390615"><ele>1483.4</ele><time>2026-04-05T08:14:46.001Z</time></trkpt><trkpt lat="41.83042891966823" lon="13.393375391813228"><ele>1483.2</ele><time>2026-04-05T08:14:47.001Z</time></trkpt><trkpt lat="41.830502345333066" lon="13.393267922480222"><ele>1483.0</ele><time>2026-04-05T08:14:49.001Z</time></trkpt><trkpt lat="41.83055089736705" lon="13.393114752446845"><ele>1477.8000000000002</ele><time>2026-04-05T08:14:51.001Z</time></trkpt><trkpt lat="41.830577166625034" lon="13.392962605765662"><ele>1472.6</ele><time>2026-04-05T08:14:53.001Z</time></trkpt><trkpt lat="41.83055736380583" lon="13.39283360304942"><ele>1467.4</ele><time>2026-04-05T08:14:55.001Z</time></trkpt><trkpt lat="41.83048119483654" lon="13.392804283677819"><ele>1462.1999999999998</ele><time>2026-04-05T08:14:57.001Z</time></trkpt><trkpt lat="41.83039333136847" lon="13.392811204456223"><ele>1457.0</ele><time>2026-04-05T08:14:59.001Z</time></trkpt><trkpt lat="41.8303161894051" lon="13.392773002157844"><ele>1457.0</ele><time>2026-04-05T08:15:00.001Z</time></trkpt><trkpt lat="41.83024114574135" lon="13.392694812772074"><ele>1457.0</ele><time>2026-04-05T08:15:01.001Z</time></trkpt><trkpt lat="41.830179104103635" lon="13.392637464166882"><ele>1457.0</ele><time>2026-04-05T08:15:02.001Z</time></trkpt><trkpt lat="41.83013253898549" lon="13.392577080369593"><ele>1457.0</ele><time>2026-04-05T08:15:03.001Z</time></trkpt><trkpt lat="41.830058339284456" lon="13.392533290111405"><ele>1457.0</ele><time>2026-04-05T08:15:04.001Z</time></trkpt><trkpt lat="41.829993247019736" lon="13.392498979948554"><ele>1457.0</ele><time>2026-04-05T08:15:05.001Z</time></trkpt><trkpt lat="41.829926464282465" lon="13.392462417979669"><ele>1458.3999999999999</ele><time>2026-04-05T08:15:06.001Z</time></trkpt><trkpt lat="41.82985543846945" lon="13.392428430095698"><ele>1459.8</ele><time>2026-04-05T08:15:07.001Z</time></trkpt><trkpt lat="41.8297661971573" lon="13.392420420357945"><ele>1461.2</ele><time>2026-04-05T08:15:08.001Z</time></trkpt><trkpt lat="41.82967846081669" lon="13.392409310913024"><ele>1462.6</ele><time>2026-04-05T08:15:09.001Z</time></trkpt><trkpt lat="41.82956345863055" lon="13.392383160545588"><ele>1464.0</ele><time>2026-04-05T08:15:11.001Z</time></trkpt><trkpt lat="41.829452470207414" lon="13.392344515701073"><ele>1464.0</ele><time>2026-04-05T08:15:12.001Z</time></trkpt><trkpt lat="41.82937333032754" lon="13.39230661431162"><ele>1464.0</ele><time>2026-04-05T08:15:13.001Z</time></trkpt><trkpt lat="41.8293001132276" lon="13.392273821773346"><ele>1464.0</ele><time>2026-04-05T08:15:14.001Z</time></trkpt><trkpt lat="41.82921346850699" lon="13.39223487625126"><ele>1464.0</ele><time>2026-04-05T08:15:15.001Z</time></trkpt><trkpt lat="41.82910483664381" lon="13.392180614866314"><ele>1464.0</ele><time>2026-04-05T08:15:17.001Z</time></trkpt><trkpt lat="41.82905376253655" lon="13.392123562937682"><ele>1464.0</ele><time>2026-04-05T08:15:18.001Z</time></trkpt><trkpt lat="41.82898743577329" lon="13.392061232432035"><ele>1461.1666666666667</ele><time>2026-04-05T08:15:19.001Z</time></trkpt><trkpt lat="41.82892329799792" lon="13.392034390618528"><ele>1458.3333333333333</ele><time>2026-04-05T08:15:20.001Z</time></trkpt><trkpt lat="41.828845797344755" lon="13.391998596030533"><ele>1455.5</ele><time>2026-04-05T08:15:21.001Z</time></trkpt><trkpt lat="41.82875492327933" lon="13.391964245518405"><ele>1452.6666666666665</ele><time>2026-04-05T08:15:23.001Z</time></trkpt><trkpt lat="41.82870739408923" lon="13.391897245932109"><ele>1449.8333333333333</ele><time>2026-04-05T08:15:26.001Z</time></trkpt><trkpt lat="41.82867996424169" lon="13.391787650073516"><ele>1447.0</ele><time>2026-04-05T08:15:29.001Z</time></trkpt><trkpt lat="41.82865552502809" lon="13.391694066565924"><ele>1447.0</ele><time>2026-04-05T08:15:32.001Z</time></trkpt><trkpt lat="41.82863312651164" lon="13.391574963701416"><ele>1447.0</ele><time>2026-04-05T08:15:35.001Z</time></trkpt><trkpt lat="41.828603302797795" lon="13.391499911740333"><ele>1447.0</ele><time>2026-04-05T08:15:36.001Z</time></trkpt><trkpt lat="41.82858463078192" lon="13.391393605846321"><ele>1447.0</ele><time>2026-04-05T08:15:39.001Z</time></trkpt><trkpt lat="41.828538057649126" lon="13.391321871562056"><ele>1447.0</ele><time>2026-04-05T08:15:40.001Z</time></trkpt><trkpt lat="41.828501916321045" lon="13.391249443113209"><ele>1447.0</ele><time>2026-04-05T08:15:41.001Z</time></trkpt><trkpt lat="41.828442954775966" lon="13.391172562960843"><ele>1450.8</ele><time>2026-04-05T08:15:42.001Z</time></trkpt><trkpt lat="41.82834641496061" lon="13.391064800203095"><ele>1454.6</ele><time>2026-04-05T08:15:44.001Z</time></trkpt><trkpt lat="41.82830459910111" lon="13.390990257471982"><ele>1458.3999999999999</ele><time>2026-04-05T08:15:45.001Z</time></trkpt><trkpt lat="41.82825804054307" lon="13.390880704757961"><ele>1462.1999999999998</ele><time>2026-04-05T08:15:47Z</time></trkpt><trkpt lat="41.82824532728846" lon="13.39078506990999"><ele>1466.0</ele><time>2026-04-05T08:15:49Z</time></trkpt><trkpt lat="41.82831374722819" lon="13.390677124828885"><ele>1466.0</ele><time>2026-04-05T08:15:51Z</time></trkpt><trkpt lat="41.82839889815364" lon="13.390617733074535"><ele>1466.0</ele><time>2026-04-05T08:15:52Z</time></trkpt><trkpt lat="41.828459660034305" lon="13.390537923995966"><ele>1466.0</ele><time>2026-04-05T08:15:53Z</time></trkpt><trkpt lat="41.82851878020362" lon="13.39041554865547"><ele>1466.0</ele><time>2026-04-05T08:15:54Z</time></trkpt><trkpt lat="41.82855081388281" lon="13.390304498404998"><ele>1466.0</ele><time>2026-04-05T08:15:55Z</time></trkpt><trkpt lat="41.82857843668235" lon="13.39018985252966"><ele>1464.8</ele><time>2026-04-05T08:15:56Z</time></trkpt><trkpt lat="41.82858255189928" lon="13.390097099024706"><ele>1463.6</ele><time>2026-04-05T08:15:57Z</time></trkpt><trkpt lat="41.828526990299906" lon="13.389937232263794"><ele>1462.4</ele><time>2026-04-05T08:15:59Z</time></trkpt><trkpt lat="41.82847485971127" lon="13.389860884379603"><ele>1461.2</ele><time>2026-04-05T08:16:00Z</time></trkpt><trkpt lat="41.828415808087804" lon="13.389768194178911"><ele>1460.0</ele><time>2026-04-05T08:16:01Z</time></trkpt><trkpt lat="41.82836065207648" lon="13.38967405703649"><ele>1453.75</ele><time>2026-04-05T08:16:02Z</time></trkpt><trkpt lat="41.82827062247842" lon="13.389598254938821"><ele>1447.5</ele><time>2026-04-05T08:16:03Z</time></trkpt><trkpt lat="41.82816835492258" lon="13.38949550221962"><ele>1441.25</ele><time>2026-04-05T08:16:04Z</time></trkpt><trkpt lat="41.82805985724853" lon="13.389424262823333"><ele>1435.0</ele><time>2026-04-05T08:16:05Z</time></trkpt><trkpt lat="41.82794772575902" lon="13.389373130201768"><ele>1435.0</ele><time>2026-04-05T08:16:06Z</time></trkpt><trkpt lat="41.82784948541948" lon="13.389319341451126"><ele>1435.0</ele><time>2026-04-05T08:16:07Z</time></trkpt><trkpt lat="41.82772851162472" lon="13.389265756025123"><ele>1435.0</ele><time>2026-04-05T08:16:08Z</time></trkpt><trkpt lat="41.82758117381697" lon="13.389209572179835"><ele>1435.0</ele><time>2026-04-05T08:16:09Z</time></trkpt><trkpt lat="41.82746007286741" lon="13.389155892736811"><ele>1432.6666666666665</ele><time>2026-04-05T08:16:10Z</time></trkpt><trkpt lat="41.82736868472352" lon="13.389103649417008"><ele>1430.3333333333333</ele><time>2026-04-05T08:16:11Z</time></trkpt><trkpt lat="41.8272845084213" lon="13.389067937007114"><ele>1428.0</ele><time>2026-04-05T08:16:12Z</time></trkpt><trkpt lat="41.82723951817775" lon="13.388982641206686"><ele>1425.6666666666667</ele><time>2026-04-05T08:16:18Z</time></trkpt><trkpt lat="41.82721448936996" lon="13.38888581233044"><ele>1423.3333333333335</ele><time>2026-04-05T08:16:23Z</time></trkpt><trkpt lat="41.827293438548466" lon="13.388819498985384"><ele>1421.0</ele><time>2026-04-05T08:16:27Z</time></trkpt><trkpt lat="41.827368803824186" lon="13.38884474727088"><ele>1423.8</ele><time>2026-04-05T08:16:28Z</time></trkpt><trkpt lat="41.827465515351996" lon="13.388866532467395"><ele>1426.6</ele><time>2026-04-05T08:16:29Z</time></trkpt><trkpt lat="41.82756155706061" lon="13.388872116934337"><ele>1429.4</ele><time>2026-04-05T08:16:30Z</time></trkpt><trkpt lat="41.82766935111213" lon="13.388907181285372"><ele>1432.2</ele><time>2026-04-05T08:16:31Z</time></trkpt><trkpt lat="41.82777542560327" lon="13.38896354347427"><ele>1435.0</ele><time>2026-04-05T08:16:32Z</time></trkpt><trkpt lat="41.8278718937813" lon="13.388973119845083"><ele>1435.0</ele><time>2026-04-05T08:16:33Z</time></trkpt><trkpt lat="41.82797837344941" lon="13.388976062086833"><ele>1435.0</ele><time>2026-04-05T08:16:34Z</time></trkpt><trkpt lat="41.82811583461673" lon="13.389004613518122"><ele>1435.0</ele><time>2026-04-05T08:16:35Z</time></trkpt><trkpt lat="41.82826398883017" lon="13.389045340001692"><ele>1435.0</ele><time>2026-04-05T08:16:36Z</time></trkpt><trkpt lat="41.82838453942453" lon="13.389067987859868"><ele>1430.2</ele><time>2026-04-05T08:16:37Z</time></trkpt><trkpt lat="41.828515207305884" lon="13.389082693733062"><ele>1425.4</ele><time>2026-04-05T08:16:38Z</time></trkpt><trkpt lat="41.82862137399991" lon="13.389080698459319"><ele>1420.6</ele><time>2026-04-05T08:16:39.001Z</time></trkpt><trkpt lat="41.82872550246387" lon="13.389097255928766"><ele>1415.8</ele><time>2026-04-05T08:16:40.001Z</time></trkpt><trkpt lat="41.828819128766995" lon="13.389138028117069"><ele>1411.0</ele><time>2026-04-05T08:16:41.001Z</time></trkpt><trkpt lat="41.82891592844743" lon="13.38917610472712"><ele>1411.0</ele><time>2026-04-05T08:16:42.001Z</time></trkpt><trkpt lat="41.82900377592841" lon="13.389233463464478"><ele>1411.0</ele><time>2026-04-05T08:16:43.001Z</time></trkpt><trkpt lat="41.829078060294506" lon="13.38928520663765"><ele>1411.0</ele><time>2026-04-05T08:16:44.001Z</time></trkpt><trkpt lat="41.829138770858926" lon="13.389354767521759"><ele>1411.0</ele><time>2026-04-05T08:16:45.001Z</time></trkpt><trkpt lat="41.829184452544816" lon="13.389438871288629"><ele>1411.0</ele><time>2026-04-05T08:16:46.001Z</time></trkpt><trkpt lat="41.829242995448354" lon="13.389556111542316"><ele>1411.0</ele><time>2026-04-05T08:16:47.001Z</time></trkpt><trkpt lat="41.82930380679152" lon="13.38968256576017"><ele>1405.4</ele><time>2026-04-05T08:16:48.001Z</time></trkpt><trkpt lat="41.829354478970366" lon="13.389790625572319"><ele>1399.8</ele><time>2026-04-05T08:16:49.001Z</time></trkpt><trkpt lat="41.829390583710186" lon="13.38992038745618"><ele>1394.2</ele><time>2026-04-05T08:16:50.001Z</time></trkpt><trkpt lat="41.82939917489257" lon="13.390019139298225"><ele>1388.6000000000001</ele><time>2026-04-05T08:16:51.001Z</time></trkpt><trkpt lat="41.829421396404705" lon="13.390168088474129"><ele>1383.0</ele><time>2026-04-05T08:16:52.001Z</time></trkpt><trkpt lat="41.82940283436003" lon="13.390302452621563"><ele>1383.0</ele><time>2026-04-05T08:16:53.001Z</time></trkpt><trkpt lat="41.82940657719592" lon="13.39041867385649"><ele>1383.0</ele><time>2026-04-05T08:16:54.001Z</time></trkpt><trkpt lat="41.829389979344406" lon="13.390527373036178"><ele>1383.0</ele><time>2026-04-05T08:16:55.001Z</time></trkpt><trkpt lat="41.82935311006196" lon="13.390610411487566"><ele>1383.0</ele><time>2026-04-05T08:16:56.001Z</time></trkpt><trkpt lat="41.829265027911084" lon="13.39072873413057"><ele>1383.0</ele><time>2026-04-05T08:16:58.001Z</time></trkpt><trkpt lat="41.82920225980915" lon="13.39084708051541"><ele>1385.4</ele><time>2026-04-05T08:17:00.001Z</time></trkpt><trkpt lat="41.82921240184487" lon="13.390965516849139"><ele>1387.8000000000002</ele><time>2026-04-05T08:17:02.001Z</time></trkpt><trkpt lat="41.82929097832644" lon="13.391106874499128"><ele>1390.2</ele><time>2026-04-05T08:17:04.001Z</time></trkpt><trkpt lat="41.82935529441953" lon="13.391161769383533"><ele>1392.6</ele><time>2026-04-05T08:17:05.001Z</time></trkpt><trkpt lat="41.82945510713896" lon="13.391162834072082"><ele>1395.0</ele><time>2026-04-05T08:17:06.001Z</time></trkpt><trkpt lat="41.829554547401294" lon="13.391153588274491"><ele>1395.0</ele><time>2026-04-05T08:17:07.001Z</time></trkpt><trkpt lat="41.829670576194545" lon="13.39115884191715"><ele>1395.0</ele><time>2026-04-05T08:17:08.001Z</time></trkpt><trkpt lat="41.82980512356139" lon="13.39115113458394"><ele>1395.0</ele><time>2026-04-05T08:17:09.001Z</time></trkpt><trkpt lat="41.82995139989749" lon="13.391147581682361"><ele>1395.0</ele><time>2026-04-05T08:17:10.001Z</time></trkpt><trkpt lat="41.83007024649983" lon="13.391123468270798"><ele>1392.8</ele><time>2026-04-05T08:17:11.001Z</time></trkpt><trkpt lat="41.83015462186188" lon="13.391084545117781"><ele>1390.6</ele><time>2026-04-05T08:17:12.001Z</time></trkpt><trkpt lat="41.830256683658455" lon="13.391023077481083"><ele>1388.4</ele><time>2026-04-05T08:17:13.001Z</time></trkpt><trkpt lat="41.83034367318082" lon="13.39097310729738"><ele>1386.2</ele><time>2026-04-05T08:17:14.001Z</time></trkpt><trkpt lat="41.83044794124089" lon="13.390930074162625"><ele>1384.0</ele><time>2026-04-05T08:17:15.001Z</time></trkpt><trkpt lat="41.83054380180491" lon="13.390908033519414"><ele>1384.0</ele><time>2026-04-05T08:17:16.001Z</time></trkpt><trkpt lat="41.8306336207535" lon="13.39089113351888"><ele>1384.0</ele><time>2026-04-05T08:17:17.001Z</time></trkpt><trkpt lat="41.83073182593451" lon="13.390912065375483"><ele>1384.0</ele><time>2026-04-05T08:17:18.001Z</time></trkpt><trkpt lat="41.83083228243957" lon="13.390955800884617"><ele>1384.0</ele><time>2026-04-05T08:17:19.001Z</time></trkpt><trkpt lat="41.83093329177542" lon="13.391012373434535"><ele>1384.0</ele><time>2026-04-05T08:17:20.001Z</time></trkpt><trkpt lat="41.83103830081564" lon="13.391065515430768"><ele>1381.2</ele><time>2026-04-05T08:17:21.001Z</time></trkpt><trkpt lat="41.83114437510464" lon="13.391108824942568"><ele>1378.4</ele><time>2026-04-05T08:17:22.001Z</time></trkpt><trkpt lat="41.83123970694137" lon="13.391148273795217"><ele>1375.6</ele><time>2026-04-05T08:17:23.001Z</time></trkpt><trkpt lat="41.83132376436943" lon="13.391180346498345"><ele>1372.8</ele><time>2026-04-05T08:17:24.001Z</time></trkpt><trkpt lat="41.83144233891957" lon="13.391235240171092"><ele>1370.0</ele><time>2026-04-05T08:17:26.001Z</time></trkpt><trkpt lat="41.83151692506036" lon="13.391194458296484"><ele>1370.0</ele><time>2026-04-05T08:17:28.001Z</time></trkpt><trkpt lat="41.83149103626993" lon="13.391074211563913"><ele>1370.0</ele><time>2026-04-05T08:17:31.001Z</time></trkpt><trkpt lat="41.83142611370641" lon="13.391062912144761"><ele>1370.0</ele><time>2026-04-05T08:17:32.001Z</time></trkpt><trkpt lat="41.83132638683213" lon="13.391026930737867"><ele>1370.0</ele><time>2026-04-05T08:17:33.001Z</time></trkpt><trkpt lat="41.83122480381361" lon="13.390972952915638"><ele>1370.0</ele><time>2026-04-05T08:17:34.001Z</time></trkpt><trkpt lat="41.831131785225196" lon="13.390909683743072"><ele>1370.0</ele><time>2026-04-05T08:17:35.001Z</time></trkpt><trkpt lat="41.83105612515955" lon="13.390849325493011"><ele>1370.0</ele><time>2026-04-05T08:17:36.001Z</time></trkpt><trkpt lat="41.83098369104927" lon="13.390813081562706"><ele>1370.0</ele><time>2026-04-05T08:17:37.001Z</time></trkpt><trkpt lat="41.83090880286303" lon="13.390680373528967"><ele>1370.0</ele><time>2026-04-05T08:17:39.001Z</time></trkpt><trkpt lat="41.83087858830537" lon="13.390571664519106"><ele>1370.0</ele><time>2026-04-05T08:17:40.001Z</time></trkpt><trkpt lat="41.83081302266385" lon="13.39049779075214"><ele>1368.1666666666667</ele><time>2026-04-05T08:17:41.001Z</time></trkpt><trkpt lat="41.83074360592948" lon="13.390423397231444"><ele>1366.3333333333335</ele><time>2026-04-05T08:17:42.001Z</time></trkpt><trkpt lat="41.83068768160138" lon="13.39038426198152"><ele>1364.5</ele><time>2026-04-05T08:17:43.001Z</time></trkpt><trkpt lat="41.83062351170625" lon="13.390380019434627"><ele>1362.6666666666667</ele><time>2026-04-05T08:17:44.001Z</time></trkpt><trkpt lat="41.83053411040504" lon="13.39039887891762"><ele>1360.8333333333333</ele><time>2026-04-05T08:17:45.001Z</time></trkpt><trkpt lat="41.83045107259917" lon="13.390443928185913"><ele>1359.0</ele><time>2026-04-05T08:17:46.001Z</time></trkpt><trkpt lat="41.83035719104321" lon="13.390455326173008"><ele>1359.0</ele><time>2026-04-05T08:17:47.001Z</time></trkpt><trkpt lat="41.830271071470776" lon="13.390475344526987"><ele>1359.0</ele><time>2026-04-05T08:17:48.001Z</time></trkpt><trkpt lat="41.830200649090514" lon="13.390555855532956"><ele>1359.0</ele><time>2026-04-05T08:17:50.001Z</time></trkpt><trkpt lat="41.830123777836306" lon="13.39051257777573"><ele>1359.0</ele><time>2026-04-05T08:17:52.001Z</time></trkpt><trkpt lat="41.83009890723499" lon="13.390377712734171"><ele>1359.0</ele><time>2026-04-05T08:17:54Z</time></trkpt><trkpt lat="41.83013327380063" lon="13.39027627820614"><ele>1359.0</ele><time>2026-04-05T08:17:55Z</time></trkpt><trkpt lat="41.83016048914024" lon="13.390193719758923"><ele>1359.0</ele><time>2026-04-05T08:17:56Z</time></trkpt><trkpt lat="41.83019143290128" lon="13.390109146136966"><ele>1359.0</ele><time>2026-04-05T08:17:57Z</time></trkpt><trkpt lat="41.83019584714845" lon="13.389976410100763"><ele>1359.0</ele><time>2026-04-05T08:17:58Z</time></trkpt><trkpt lat="41.8302136899364" lon="13.389858751897696"><ele>1359.0</ele><time>2026-04-05T08:17:59Z</time></trkpt><trkpt lat="41.830181677533616" lon="13.389704520809643"><ele>1359.0</ele><time>2026-04-05T08:18:00Z</time></trkpt><trkpt lat="41.83014166248681" lon="13.389581292350922"><ele>1357.3333333333333</ele><time>2026-04-05T08:18:01Z</time></trkpt><trkpt lat="41.83008763144198" lon="13.38946190768349"><ele>1355.6666666666667</ele><time>2026-04-05T08:18:03Z</time></trkpt><trkpt lat="41.83011771714472" lon="13.389350893587476"><ele>1354.0</ele><time>2026-04-05T08:18:05Z</time></trkpt><trkpt lat="41.83012124341819" lon="13.389263123545573"><ele>1352.3333333333335</ele><time>2026-04-05T08:18:06Z</time></trkpt><trkpt lat="41.830120001945396" lon="13.389173306623443"><ele>1350.6666666666667</ele><time>2026-04-05T08:18:07Z</time></trkpt><trkpt lat="41.83012373307542" lon="13.389064537733466"><ele>1349.0</ele><time>2026-04-05T08:18:08Z</time></trkpt><trkpt lat="41.83015751894231" lon="13.388969750824195"><ele>1349.0</ele><time>2026-04-05T08:18:09Z</time></trkpt><trkpt lat="41.83017676161368" lon="13.38885605971401"><ele>1349.0</ele><time>2026-04-05T08:18:11Z</time></trkpt><trkpt lat="41.83024650485751" lon="13.38881846750555"><ele>1349.0</ele><time>2026-04-05T08:18:13Z</time></trkpt><trkpt lat="41.830302477530196" lon="13.388977050799287"><ele>1349.0</ele><time>2026-04-05T08:18:16Z</time></trkpt><trkpt lat="41.83029875639806" lon="13.389087877258754"><ele>1349.0</ele><time>2026-04-05T08:18:17Z</time></trkpt><trkpt lat="41.8302967565511" lon="13.389184674046922"><ele>1349.0</ele><time>2026-04-05T08:18:18Z</time></trkpt><trkpt lat="41.830333007121844" lon="13.389277877490374"><ele>1349.0</ele><time>2026-04-05T08:18:19Z</time></trkpt><trkpt lat="41.83036597167291" lon="13.389378268991493"><ele>1349.0</ele><time>2026-04-05T08:18:20Z</time></trkpt><trkpt lat="41.83040639479651" lon="13.389461276025568"><ele>1349.0</ele><time>2026-04-05T08:18:21Z</time></trkpt><trkpt lat="41.83043375691264" lon="13.389565007259558"><ele>1349.0</ele><time>2026-04-05T08:18:22Z</time></trkpt><trkpt lat="41.830481984889204" lon="13.38963427299692"><ele>1349.0</ele><time>2026-04-05T08:18:23Z</time></trkpt><trkpt lat="41.8305708081031" lon="13.389698635615826"><ele>1349.0</ele><time>2026-04-05T08:18:24Z</time></trkpt><trkpt lat="41.83065410864935" lon="13.389720787642423"><ele>1347.8000000000002</ele><time>2026-04-05T08:18:25Z</time></trkpt><trkpt lat="41.83073967729857" lon="13.389751685125914"><ele>1346.6000000000001</ele><time>2026-04-05T08:18:26Z</time></trkpt><trkpt lat="41.83081671832626" lon="13.389756273141629"><ele>1345.4</ele><time>2026-04-05T08:18:27Z</time></trkpt><trkpt lat="41.83093763295586" lon="13.389817542388492"><ele>1344.2</ele><time>2026-04-05T08:18:29Z</time></trkpt><trkpt lat="41.83102924109614" lon="13.38991991279382"><ele>1343.0</ele><time>2026-04-05T08:18:30Z</time></trkpt><trkpt lat="41.83113254196141" lon="13.39003561890101"><ele>1343.0</ele><time>2026-04-05T08:18:31Z</time></trkpt><trkpt lat="41.83124776056794" lon="13.39014367916194"><ele>1343.0</ele><time>2026-04-05T08:18:32Z</time></trkpt><trkpt lat="41.83137004498307" lon="13.39022496961956"><ele>1343.0</ele><time>2026-04-05T08:18:33Z</time></trkpt><trkpt lat="41.83150106391617" lon="13.390286876261175"><ele>1343.0</ele><time>2026-04-05T08:18:34Z</time></trkpt><trkpt lat="41.83161481816109" lon="13.390331862577945"><ele>1343.0</ele><time>2026-04-05T08:18:35Z</time></trkpt><trkpt lat="41.83172506152584" lon="13.390374165305243"><ele>1343.0</ele><time>2026-04-05T08:18:36Z</time></trkpt><trkpt lat="41.831828896275226" lon="13.390428698692986"><ele>1343.0</ele><time>2026-04-05T08:18:37Z</time></trkpt><trkpt lat="41.831931308962986" lon="13.390529893907036"><ele>1343.0</ele><time>2026-04-05T08:18:38Z</time></trkpt><trkpt lat="41.832065483203124" lon="13.390618859092136"><ele>1344.2</ele><time>2026-04-05T08:18:39Z</time></trkpt><trkpt lat="41.83218484004507" lon="13.390692563111218"><ele>1345.4</ele><time>2026-04-05T08:18:40Z</time></trkpt><trkpt lat="41.83229686719433" lon="13.390730296959212"><ele>1346.6000000000001</ele><time>2026-04-05T08:18:41Z</time></trkpt><trkpt lat="41.83239751791642" lon="13.390744259483148"><ele>1347.8000000000002</ele><time>2026-04-05T08:18:42Z</time></trkpt><trkpt lat="41.83248935659403" lon="13.390747521171967"><ele>1349.0</ele><time>2026-04-05T08:18:43Z</time></trkpt><trkpt lat="41.83256327993691" lon="13.390766992961534"><ele>1346.4</ele><time>2026-04-05T08:18:44.001Z</time></trkpt><trkpt lat="41.8326406367938" lon="13.390829469804753"><ele>1343.8000000000002</ele><time>2026-04-05T08:18:45.001Z</time></trkpt><trkpt lat="41.83272793288642" lon="13.39092841136091"><ele>1341.1999999999998</ele><time>2026-04-05T08:18:46.001Z</time></trkpt><trkpt lat="41.832808492097435" lon="13.391002213475439"><ele>1338.6</ele><time>2026-04-05T08:18:47.001Z</time></trkpt><trkpt lat="41.832927467283334" lon="13.391044871778021"><ele>1336.0</ele><time>2026-04-05T08:18:48.001Z</time></trkpt><trkpt lat="41.83305402876405" lon="13.391045866074098"><ele>1336.0</ele><time>2026-04-05T08:18:49.001Z</time></trkpt><trkpt lat="41.83317197431032" lon="13.391043057078871"><ele>1336.0</ele><time>2026-04-05T08:18:50.001Z</time></trkpt><trkpt lat="41.833265194871196" lon="13.391058269579993"><ele>1336.0</ele><time>2026-04-05T08:18:51.001Z</time></trkpt><trkpt lat="41.833353066905126" lon="13.391099066816775"><ele>1336.0</ele><time>2026-04-05T08:18:52.001Z</time></trkpt><trkpt lat="41.833419592266914" lon="13.391163264082708"><ele>1336.0</ele><time>2026-04-05T08:18:53.001Z</time></trkpt><trkpt lat="41.8334625868163" lon="13.391247484208625"><ele>1339.6</ele><time>2026-04-05T08:18:54.001Z</time></trkpt><trkpt lat="41.833515572766395" lon="13.391326810018034"><ele>1343.1999999999998</ele><time>2026-04-05T08:18:55.001Z</time></trkpt><trkpt lat="41.83359376909356" lon="13.39136579254175"><ele>1346.8000000000002</ele><time>2026-04-05T08:18:56.001Z</time></trkpt><trkpt lat="41.83367920307162" lon="13.391391363606822"><ele>1350.4</ele><time>2026-04-05T08:18:57.001Z</time></trkpt><trkpt lat="41.833789839978564" lon="13.391413272738184"><ele>1354.0</ele><time>2026-04-05T08:18:58.001Z</time></trkpt><trkpt lat="41.833917239968564" lon="13.391414943797548"><ele>1354.0</ele><time>2026-04-05T08:18:59.001Z</time></trkpt><trkpt lat="41.83407165015727" lon="13.391400961183159"><ele>1354.0</ele><time>2026-04-05T08:19:00.001Z</time></trkpt><trkpt lat="41.834246473703054" lon="13.391398513090286"><ele>1354.0</ele><time>2026-04-05T08:19:01.001Z</time></trkpt><trkpt lat="41.83442105534429" lon="13.391386030703512"><ele>1353.3333333333333</ele><time>2026-04-05T08:19:02.001Z</time></trkpt><trkpt lat="41.83458069326847" lon="13.391379777102186"><ele>1352.6666666666667</ele><time>2026-04-05T08:19:03.001Z</time></trkpt><trkpt lat="41.83473528212278" lon="13.391372765048631"><ele>1352.0</ele><time>2026-04-05T08:19:04.001Z</time></trkpt><trkpt lat="41.83487629049308" lon="13.391344430514636"><ele>1340.3333333333335</ele><time>2026-04-05T08:19:05.001Z</time></trkpt><trkpt lat="41.83501110731425" lon="13.391307146867588"><ele>1328.6666666666667</ele><time>2026-04-05T08:19:06.001Z</time></trkpt><trkpt lat="41.83516264473292" lon="13.391246194837287"><ele>1317.0</ele><time>2026-04-05T08:19:07.001Z</time></trkpt><trkpt lat="41.83531837466291" lon="13.391184754492027"><ele>1317.0</ele><time>2026-04-05T08:19:08.001Z</time></trkpt><trkpt lat="41.835466306225484" lon="13.391143005375358"><ele>1317.0</ele><time>2026-04-05T08:19:09.001Z</time></trkpt><trkpt lat="41.83561212093725" lon="13.3910780830437"><ele>1317.0</ele><time>2026-04-05T08:19:10.001Z</time></trkpt><trkpt lat="41.835782767754765" lon="13.391058500656914"><ele>1317.0</ele><time>2026-04-05T08:19:11.001Z</time></trkpt><trkpt lat="41.83593357326779" lon="13.391043006758"><ele>1317.0</ele><time>2026-04-05T08:19:12.001Z</time></trkpt><trkpt lat="41.83607262184792" lon="13.39103840345245"><ele>1317.0</ele><time>2026-04-05T08:19:13.001Z</time></trkpt><trkpt lat="41.836205586882556" lon="13.39104436927746"><ele>1317.0</ele><time>2026-04-05T08:19:14.001Z</time></trkpt><trkpt lat="41.83631467226827" lon="13.391034070255655"><ele>1315.3999999999999</ele><time>2026-04-05T08:19:15.001Z</time></trkpt><trkpt lat="41.83643317807519" lon="13.391048017739156"><ele>1313.8</ele><time>2026-04-05T08:19:16.001Z</time></trkpt><trkpt lat="41.83653264558286" lon="13.391068635852736"><ele>1312.2</ele><time>2026-04-05T08:19:17.001Z</time></trkpt><trkpt lat="41.83660267871531" lon="13.391104158868181"><ele>1310.6</ele><time>2026-04-05T08:19:18.001Z</time></trkpt><trkpt lat="41.836674899500196" lon="13.391198434476122"><ele>1309.0</ele><time>2026-04-05T08:19:20.001Z</time></trkpt><trkpt lat="41.83668852862881" lon="13.39129916044866"><ele>1314.4</ele><time>2026-04-05T08:19:21.001Z</time></trkpt><trkpt lat="41.83668805464332" lon="13.39142642526276"><ele>1319.8000000000002</ele><time>2026-04-05T08:19:22.001Z</time></trkpt><trkpt lat="41.83667610601444" lon="13.391539341393388"><ele>1325.1999999999998</ele><time>2026-04-05T08:19:23.001Z</time></trkpt><trkpt lat="41.83668414692467" lon="13.391681257531994"><ele>1330.6</ele><time>2026-04-05T08:19:24.001Z</time></trkpt><trkpt lat="41.83672268891046" lon="13.391799021698116"><ele>1336.0</ele><time>2026-04-05T08:19:25.001Z</time></trkpt><trkpt lat="41.83679568170207" lon="13.391904926533698"><ele>1332.0</ele><time>2026-04-05T08:19:26.001Z</time></trkpt><trkpt lat="41.836866434409345" lon="13.391992194963011"><ele>1328.0</ele><time>2026-04-05T08:19:27.001Z</time></trkpt><trkpt lat="41.83693548679722" lon="13.392088325911699"><ele>1324.0</ele><time>2026-04-05T08:19:28.001Z</time></trkpt><trkpt lat="41.8370003615685" lon="13.392199523690458"><ele>1320.0</ele><time>2026-04-05T08:19:29.001Z</time></trkpt><trkpt lat="41.837062638834716" lon="13.392324713072744"><ele>1316.0</ele><time>2026-04-05T08:19:30.001Z</time></trkpt><trkpt lat="41.83720145390157" lon="13.392350631532844"><ele>1316.0</ele><time>2026-04-05T08:19:31.001Z</time></trkpt><trkpt lat="41.83728119103763" lon="13.392461977181915"><ele>1316.0</ele><time>2026-04-05T08:19:32.001Z</time></trkpt><trkpt lat="41.83737498633056" lon="13.392597972342962"><ele>1316.0</ele><time>2026-04-05T08:19:33.001Z</time></trkpt><trkpt lat="41.837459674162304" lon="13.392744297966917"><ele>1316.0</ele><time>2026-04-05T08:19:34.001Z</time></trkpt><trkpt lat="41.837509876197394" lon="13.392846902807454"><ele>1316.0</ele><time>2026-04-05T08:19:35.001Z</time></trkpt><trkpt lat="41.83754215027653" lon="13.392923781277435"><ele>1316.0</ele><time>2026-04-05T08:19:37.001Z</time></trkpt><trkpt lat="41.83757556284741" lon="13.39300769758777"><ele>1316.0</ele><time>2026-04-05T08:19:40.001Z</time></trkpt><trkpt lat="41.83762410597672" lon="13.393159421040558"><ele>1316.0</ele><time>2026-04-05T08:19:42.001Z</time></trkpt><trkpt lat="41.83765731246939" lon="13.393258427947854"><ele>1316.0</ele><time>2026-04-05T08:19:43.001Z</time></trkpt><trkpt lat="41.837683231582766" lon="13.393335707198874"><ele>1316.0</ele><time>2026-04-05T08:19:44.001Z</time></trkpt><trkpt lat="41.837733167780144" lon="13.39347087901493"><ele>1313.0</ele><time>2026-04-05T08:19:46.001Z</time></trkpt><trkpt lat="41.83778053693379" lon="13.393585188854338"><ele>1310.0</ele><time>2026-04-05T08:19:48.001Z</time></trkpt><trkpt lat="41.837665329798504" lon="13.393917654199"><ele>1307.0</ele><time>2026-04-05T08:19:50.001Z</time></trkpt><trkpt lat="41.837726645968345" lon="13.394053391518426"><ele>1307.0</ele><time>2026-04-05T08:19:51.001Z</time></trkpt><trkpt lat="41.83803330734036" lon="13.394082387697788"><ele>1307.0</ele><time>2026-04-05T08:19:53.001Z</time></trkpt><trkpt lat="41.83811112559495" lon="13.39423160980424"><ele>1307.0</ele><time>2026-04-05T08:19:54.001Z</time></trkpt><trkpt lat="41.83819884516707" lon="13.394408772114872"><ele>1322.0</ele><time>2026-04-05T08:19:55.001Z</time></trkpt><trkpt lat="41.83790261003483" lon="13.39495531991256"><ele>1322.0</ele><time>2026-04-05T08:19:56.001Z</time></trkpt><trkpt lat="41.83792444045431" lon="13.395172825062456"><ele>1322.0</ele><time>2026-04-05T08:19:57.001Z</time></trkpt><trkpt lat="41.83794775934588" lon="13.395328984274892"><ele>1322.0</ele><time>2026-04-05T08:19:58.001Z</time></trkpt><trkpt lat="41.837966252740394" lon="13.395445551599076"><ele>1322.0</ele><time>2026-04-05T08:19:59Z</time></trkpt><trkpt lat="41.83796312458382" lon="13.395559523812176"><ele>1324.0</ele><time>2026-04-05T08:20:00Z</time></trkpt><trkpt lat="41.83796200396854" lon="13.39565718343195"><ele>1326.0</ele><time>2026-04-05T08:20:01Z</time></trkpt><trkpt lat="41.83794827435565" lon="13.395781412524691"><ele>1328.0</ele><time>2026-04-05T08:20:02Z</time></trkpt><trkpt lat="41.83794137826644" lon="13.395931072579204"><ele>1330.0</ele><time>2026-04-05T08:20:03Z</time></trkpt><trkpt lat="41.837934176451654" lon="13.396111812592402"><ele>1332.0</ele><time>2026-04-05T08:20:04Z</time></trkpt><trkpt lat="41.837927583949494" lon="13.3962442135604"><ele>1332.0</ele><time>2026-04-05T08:20:05Z</time></trkpt><trkpt lat="41.83789753603239" lon="13.396338250486956"><ele>1332.0</ele><time>2026-04-05T08:20:06Z</time></trkpt><trkpt lat="41.83787374900748" lon="13.396422330489271"><ele>1332.0</ele><time>2026-04-05T08:20:07Z</time></trkpt><trkpt lat="41.83783171278092" lon="13.396540570757002"><ele>1332.0</ele><time>2026-04-05T08:20:08Z</time></trkpt><trkpt lat="41.83780499748528" lon="13.396660764363332"><ele>1332.0</ele><time>2026-04-05T08:20:09Z</time></trkpt><trkpt lat="41.83780096297671" lon="13.396765819796636"><ele>1332.0</ele><time>2026-04-05T08:20:10Z</time></trkpt><trkpt lat="41.837814895123735" lon="13.39685944146471"><ele>1332.0</ele><time>2026-04-05T08:20:11Z</time></trkpt><trkpt lat="41.83784608180003" lon="13.396974748205094"><ele>1332.0</ele><time>2026-04-05T08:20:12Z</time></trkpt><trkpt lat="41.83785885975804" lon="13.397085497397203"><ele>1332.0</ele><time>2026-04-05T08:20:13Z</time></trkpt><trkpt lat="41.83782902123486" lon="13.397167827465942"><ele>1332.0</ele><time>2026-04-05T08:20:14Z</time></trkpt><trkpt lat="41.8377962677557" lon="13.397270417891818"><ele>1332.0</ele><time>2026-04-05T08:20:15Z</time></trkpt><trkpt lat="41.837757808409584" lon="13.397401568893834"><ele>1332.0</ele><time>2026-04-05T08:20:16Z</time></trkpt><trkpt lat="41.83773188331934" lon="13.397543146997627"><ele>1331.3999999999999</ele><time>2026-04-05T08:20:17Z</time></trkpt><trkpt lat="41.837744970855326" lon="13.397681993049323"><ele>1330.8</ele><time>2026-04-05T08:20:18Z</time></trkpt><trkpt lat="41.837775250007255" lon="13.397831762539976"><ele>1330.2</ele><time>2026-04-05T08:20:19Z</time></trkpt><trkpt lat="41.837781386457976" lon="13.397974041995282"><ele>1329.6</ele><time>2026-04-05T08:20:20Z</time></trkpt><trkpt lat="41.837783116968225" lon="13.398090452184857"><ele>1329.0</ele><time>2026-04-05T08:20:21Z</time></trkpt><trkpt lat="41.837763398056595" lon="13.398183365791544"><ele>1328.4</ele><time>2026-04-05T08:20:22Z</time></trkpt><trkpt lat="41.837739836198956" lon="13.398287660652189"><ele>1327.8000000000002</ele><time>2026-04-05T08:20:23Z</time></trkpt><trkpt lat="41.83769486164207" lon="13.398406216875474"><ele>1327.1999999999998</ele><time>2026-04-05T08:20:24Z</time></trkpt><trkpt lat="41.837632773414335" lon="13.398548392014243"><ele>1326.6</ele><time>2026-04-05T08:20:25Z</time></trkpt><trkpt lat="41.83756543077566" lon="13.398708362194606"><ele>1326.0</ele><time>2026-04-05T08:20:26Z</time></trkpt><trkpt lat="41.83751875493505" lon="13.39883466992734"><ele>1334.6</ele><time>2026-04-05T08:20:27Z</time></trkpt><trkpt lat="41.83748060882611" lon="13.398936300251565"><ele>1343.1999999999998</ele><time>2026-04-05T08:20:28Z</time></trkpt><trkpt lat="41.837450396910434" lon="13.399057525168097"><ele>1351.8000000000002</ele><time>2026-04-05T08:20:29Z</time></trkpt><trkpt lat="41.837417181375045" lon="13.399213919277745"><ele>1360.4</ele><time>2026-04-05T08:20:30Z</time></trkpt><trkpt lat="41.83738844415653" lon="13.399391342266771"><ele>1369.0</ele><time>2026-04-05T08:20:31Z</time></trkpt><trkpt lat="41.837389119644" lon="13.399557161577107"><ele>1367.5</ele><time>2026-04-05T08:20:32Z</time></trkpt><trkpt lat="41.83737569718141" lon="13.399707195062648"><ele>1366.0</ele><time>2026-04-05T08:20:33Z</time></trkpt><trkpt lat="41.837339663558254" lon="13.399846547083161"><ele>1364.5</ele><time>2026-04-05T08:20:34Z</time></trkpt><trkpt lat="41.83728691873395" lon="13.399981203800158"><ele>1363.0</ele><time>2026-04-05T08:20:35Z</time></trkpt><trkpt lat="41.83723537847071" lon="13.400120974461682"><ele>1363.0</ele><time>2026-04-05T08:20:36Z</time></trkpt><trkpt lat="41.83720926770783" lon="13.400261652415503"><ele>1363.0</ele><time>2026-04-05T08:20:37Z</time></trkpt><trkpt lat="41.83720909640963" lon="13.400413656767952"><ele>1363.0</ele><time>2026-04-05T08:20:38Z</time></trkpt><trkpt lat="41.83723048250038" lon="13.40056315741867"><ele>1363.0</ele><time>2026-04-05T08:20:39Z</time></trkpt><trkpt lat="41.83724729085157" lon="13.400701747893818"><ele>1363.0</ele><time>2026-04-05T08:20:40Z</time></trkpt><trkpt lat="41.83723245515343" lon="13.400835416109167"><ele>1362.75</ele><time>2026-04-05T08:20:41Z</time></trkpt><trkpt lat="41.83719569946542" lon="13.400975750057443"><ele>1362.5</ele><time>2026-04-05T08:20:42Z</time></trkpt><trkpt lat="41.837164232473455" lon="13.401132799911533"><ele>1362.25</ele><time>2026-04-05T08:20:43Z</time></trkpt><trkpt lat="41.83715413182116" lon="13.401310148443315"><ele>1362.0</ele><time>2026-04-05T08:20:44Z</time></trkpt><trkpt lat="41.83717002624521" lon="13.401472718536382"><ele>1362.3999999999999</ele><time>2026-04-05T08:20:45Z</time></trkpt><trkpt lat="41.83717879543698" lon="13.401599964653784"><ele>1362.8</ele><time>2026-04-05T08:20:46Z</time></trkpt><trkpt lat="41.83718690949361" lon="13.401733883326205"><ele>1363.2</ele><time>2026-04-05T08:20:47Z</time></trkpt><trkpt lat="41.837177569429876" lon="13.401863937154905"><ele>1363.6</ele><time>2026-04-05T08:20:48Z</time></trkpt><trkpt lat="41.837151204817744" lon="13.401986053964624"><ele>1364.0</ele><time>2026-04-05T08:20:49Z</time></trkpt><trkpt lat="41.83712685606649" lon="13.402127568227915"><ele>1365.0</ele><time>2026-04-05T08:20:50.001Z</time></trkpt><trkpt lat="41.83711156711972" lon="13.402317994736745"><ele>1366.0</ele><time>2026-04-05T08:20:51.001Z</time></trkpt><trkpt lat="41.837113998461014" lon="13.402518239784035"><ele>1367.0</ele><time>2026-04-05T08:20:52.001Z</time></trkpt><trkpt lat="41.83712657013597" lon="13.402717989599068"><ele>1368.0</ele><time>2026-04-05T08:20:53.001Z</time></trkpt><trkpt lat="41.83714484047893" lon="13.402895711815695"><ele>1370.6000000000001</ele><time>2026-04-05T08:20:54.001Z</time></trkpt><trkpt lat="41.83716398427055" lon="13.403021686079176"><ele>1373.2</ele><time>2026-04-05T08:20:55.001Z</time></trkpt><trkpt lat="41.837173576820824" lon="13.40313862981437"><ele>1375.8</ele><time>2026-04-05T08:20:56.001Z</time></trkpt><trkpt lat="41.837191368905756" lon="13.40324837013184"><ele>1378.4</ele><time>2026-04-05T08:20:57.001Z</time></trkpt><trkpt lat="41.83724893372467" lon="13.403371991764498"><ele>1381.0</ele><time>2026-04-05T08:20:58.001Z</time></trkpt><trkpt lat="41.83732316307886" lon="13.403481532556336"><ele>1381.0</ele><time>2026-04-05T08:20:59.001Z</time></trkpt><trkpt lat="41.83739583417201" lon="13.403603501672507"><ele>1381.0</ele><time>2026-04-05T08:21:00.001Z</time></trkpt><trkpt lat="41.83746759912665" lon="13.403726896306114"><ele>1381.0</ele><time>2026-04-05T08:21:01.001Z</time></trkpt><trkpt lat="41.837554123897945" lon="13.403838392484161"><ele>1381.0</ele><time>2026-04-05T08:21:02.001Z</time></trkpt><trkpt lat="41.837636363991535" lon="13.403919768004465"><ele>1378.0</ele><time>2026-04-05T08:21:03.001Z</time></trkpt><trkpt lat="41.83769969619272" lon="13.403985730999139"><ele>1375.0</ele><time>2026-04-05T08:21:04.001Z</time></trkpt><trkpt lat="41.83774977988644" lon="13.404080488297758"><ele>1372.0</ele><time>2026-04-05T08:21:05.001Z</time></trkpt><trkpt lat="41.83779663856452" lon="13.4041845243911"><ele>1369.0</ele><time>2026-04-05T08:21:06.001Z</time></trkpt><trkpt lat="41.83783276712397" lon="13.404287972333824"><ele>1366.0</ele><time>2026-04-05T08:21:07.001Z</time></trkpt><trkpt lat="41.83785089283844" lon="13.404378415398066"><ele>1363.0</ele><time>2026-04-05T08:21:08.001Z</time></trkpt><trkpt lat="41.83785503515754" lon="13.404489642973392"><ele>1363.0</ele><time>2026-04-05T08:21:09.001Z</time></trkpt><trkpt lat="41.83786820452119" lon="13.404606788409108"><ele>1363.0</ele><time>2026-04-05T08:21:10.001Z</time></trkpt><trkpt lat="41.837857056785104" lon="13.404776988260483"><ele>1363.0</ele><time>2026-04-05T08:21:11.001Z</time></trkpt><trkpt lat="41.83783649990287" lon="13.404939433790837"><ele>1363.0</ele><time>2026-04-05T08:21:12.001Z</time></trkpt><trkpt lat="41.837830734010886" lon="13.4050937474134"><ele>1364.75</ele><time>2026-04-05T08:21:13.001Z</time></trkpt><trkpt lat="41.837842505927576" lon="13.405268328354246"><ele>1366.5</ele><time>2026-04-05T08:21:14.001Z</time></trkpt><trkpt lat="41.837872036359414" lon="13.405417894235507"><ele>1368.25</ele><time>2026-04-05T08:21:15.001Z</time></trkpt><trkpt lat="41.837918256885374" lon="13.405569930235531"><ele>1370.0</ele><time>2026-04-05T08:21:16.001Z</time></trkpt><trkpt lat="41.83796639296016" lon="13.405703839679864"><ele>1369.0</ele><time>2026-04-05T08:21:17.001Z</time></trkpt><trkpt lat="41.83800899395312" lon="13.405837033600063"><ele>1368.0</ele><time>2026-04-05T08:21:18.001Z</time></trkpt><trkpt lat="41.83804394716968" lon="13.405961771045218"><ele>1367.0</ele><time>2026-04-05T08:21:19.001Z</time></trkpt><trkpt lat="41.838060554357966" lon="13.406083310159454"><ele>1366.0</ele><time>2026-04-05T08:21:20.001Z</time></trkpt><trkpt lat="41.838067419234115" lon="13.406174651564973"><ele>1365.0</ele><time>2026-04-05T08:21:21.001Z</time></trkpt><trkpt lat="41.838042998653826" lon="13.406271575246368"><ele>1364.0</ele><time>2026-04-05T08:21:22.001Z</time></trkpt><trkpt lat="41.837997134908704" lon="13.406365263312082"><ele>1364.0</ele><time>2026-04-05T08:21:23.001Z</time></trkpt><trkpt lat="41.83791323106573" lon="13.406454262601295"><ele>1364.0</ele><time>2026-04-05T08:21:24.001Z</time></trkpt><trkpt lat="41.83783445599139" lon="13.406560646200548"><ele>1364.0</ele><time>2026-04-05T08:21:25.001Z</time></trkpt><trkpt lat="41.837781049265224" lon="13.406640401846715"><ele>1364.0</ele><time>2026-04-05T08:21:26.001Z</time></trkpt><trkpt lat="41.83771048691075" lon="13.40671328607249"><ele>1364.0</ele><time>2026-04-05T08:21:27.001Z</time></trkpt><trkpt lat="41.837644486488244" lon="13.406745147880715"><ele>1368.2</ele><time>2026-04-05T08:21:28.001Z</time></trkpt><trkpt lat="41.83752750611716" lon="13.406702724247165"><ele>1372.4</ele><time>2026-04-05T08:21:30.001Z</time></trkpt><trkpt lat="41.83748179447902" lon="13.406627059629422"><ele>1376.6</ele><time>2026-04-05T08:21:31.001Z</time></trkpt><trkpt lat="41.83742204756584" lon="13.406527402216486"><ele>1380.8</ele><time>2026-04-05T08:21:32.001Z</time></trkpt><trkpt lat="41.837361398556105" lon="13.406415222952896"><ele>1385.0</ele><time>2026-04-05T08:21:33.001Z</time></trkpt><trkpt lat="41.837293409071094" lon="13.406307419102397"><ele>1387.4</ele><time>2026-04-05T08:21:34.001Z</time></trkpt><trkpt lat="41.837226624038514" lon="13.406196256986588"><ele>1389.8</ele><time>2026-04-05T08:21:35.001Z</time></trkpt><trkpt lat="41.83716512509028" lon="13.406079385112779"><ele>1392.1999999999998</ele><time>2026-04-05T08:21:36.001Z</time></trkpt><trkpt lat="41.83710613781454" lon="13.405958783014375"><ele>1394.6</ele><time>2026-04-05T08:21:37.001Z</time></trkpt><trkpt lat="41.837056761770256" lon="13.405835601454063"><ele>1397.0</ele><time>2026-04-05T08:21:38.001Z</time></trkpt><trkpt lat="41.83700626070072" lon="13.40571217691303"><ele>1397.0</ele><time>2026-04-05T08:21:39.001Z</time></trkpt><trkpt lat="41.83695863172223" lon="13.405586927042528"><ele>1397.0</ele><time>2026-04-05T08:21:40.001Z</time></trkpt><trkpt lat="41.83690689119217" lon="13.405456548327864"><ele>1397.0</ele><time>2026-04-05T08:21:41.001Z</time></trkpt><trkpt lat="41.836852316363164" lon="13.405331925677995"><ele>1397.0</ele><time>2026-04-05T08:21:42.001Z</time></trkpt><trkpt lat="41.83679064198672" lon="13.405214776942028"><ele>1397.0</ele><time>2026-04-05T08:21:43.001Z</time></trkpt><trkpt lat="41.83672391665173" lon="13.405102318256818"><ele>1397.1999999999998</ele><time>2026-04-05T08:21:44.001Z</time></trkpt><trkpt lat="41.83665786236743" lon="13.405005613286153"><ele>1397.4</ele><time>2026-04-05T08:21:45.001Z</time></trkpt><trkpt lat="41.83658539940888" lon="13.404885865342731"><ele>1397.6</ele><time>2026-04-05T08:21:46.001Z</time></trkpt><trkpt lat="41.836527835040435" lon="13.404771547474072"><ele>1397.8000000000002</ele><time>2026-04-05T08:21:47.001Z</time></trkpt><trkpt lat="41.83646686557403" lon="13.404667618618685"><ele>1398.0</ele><time>2026-04-05T08:21:48.001Z</time></trkpt><trkpt lat="41.836398602292775" lon="13.404572973372362"><ele>1398.0</ele><time>2026-04-05T08:21:49.001Z</time></trkpt><trkpt lat="41.83632596234129" lon="13.404474184210516"><ele>1398.0</ele><time>2026-04-05T08:21:50.001Z</time></trkpt><trkpt lat="41.83625235452356" lon="13.404387956030922"><ele>1398.0</ele><time>2026-04-05T08:21:51.001Z</time></trkpt><trkpt lat="41.8361715069473" lon="13.404303625114029"><ele>1398.0</ele><time>2026-04-05T08:21:52.001Z</time></trkpt><trkpt lat="41.836097317913094" lon="13.4042545240017"><ele>1398.0</ele><time>2026-04-05T08:21:53.001Z</time></trkpt><trkpt lat="41.83600346014174" lon="13.404225874157287"><ele>1394.4</ele><time>2026-04-05T08:21:54.001Z</time></trkpt><trkpt lat="41.83590301383658" lon="13.404190964588876"><ele>1390.8000000000002</ele><time>2026-04-05T08:21:55.001Z</time></trkpt><trkpt lat="41.83580509730422" lon="13.404141808283917"><ele>1387.2</ele><time>2026-04-05T08:21:56.001Z</time></trkpt><trkpt lat="41.83570882194973" lon="13.404066542835734"><ele>1383.6</ele><time>2026-04-05T08:21:57.001Z</time></trkpt><trkpt lat="41.835616839850296" lon="13.404002933487702"><ele>1380.0</ele><time>2026-04-05T08:21:58.001Z</time></trkpt><trkpt lat="41.83550908675084" lon="13.40397205337095"><ele>1380.0</ele><time>2026-04-05T08:21:59.001Z</time></trkpt><trkpt lat="41.835407802133325" lon="13.403957517990825"><ele>1380.0</ele><time>2026-04-05T08:22:00.001Z</time></trkpt><trkpt lat="41.83532485780224" lon="13.403928894486796"><ele>1380.0</ele><time>2026-04-05T08:22:01.001Z</time></trkpt><trkpt lat="41.83525767151125" lon="13.403881805325984"><ele>1380.0</ele><time>2026-04-05T08:22:02.001Z</time></trkpt><trkpt lat="41.835195681820004" lon="13.403803406354891"><ele>1380.0</ele><time>2026-04-05T08:22:03.001Z</time></trkpt><trkpt lat="41.835140225789544" lon="13.403715800961862"><ele>1380.0</ele><time>2026-04-05T08:22:04.001Z</time></trkpt><trkpt lat="41.835073040524314" lon="13.403619115452175"><ele>1380.8</ele><time>2026-04-05T08:22:05Z</time></trkpt><trkpt lat="41.83499344346402" lon="13.403528399277667"><ele>1381.6</ele><time>2026-04-05T08:22:06Z</time></trkpt><trkpt lat="41.83490248533289" lon="13.4034622468709"><ele>1382.4</ele><time>2026-04-05T08:22:07Z</time></trkpt><trkpt lat="41.83480547832153" lon="13.403415194523085"><ele>1383.2</ele><time>2026-04-05T08:22:08Z</time></trkpt><trkpt lat="41.83471025307404" lon="13.403384488953435"><ele>1384.0</ele><time>2026-04-05T08:22:09Z</time></trkpt><trkpt lat="41.83462383104664" lon="13.403352369922505"><ele>1384.0</ele><time>2026-04-05T08:22:10Z</time></trkpt><trkpt lat="41.83454257625997" lon="13.403331726480731"><ele>1384.0</ele><time>2026-04-05T08:22:11Z</time></trkpt><trkpt lat="41.83447050675001" lon="13.403328569454287"><ele>1384.0</ele><time>2026-04-05T08:22:12Z</time></trkpt><trkpt lat="41.8343658120073" lon="13.403374618916311"><ele>1384.0</ele><time>2026-04-05T08:22:14Z</time></trkpt><trkpt lat="41.834305853771404" lon="13.403460413320026"><ele>1384.0</ele><time>2026-04-05T08:22:17Z</time></trkpt><trkpt lat="41.834308136315215" lon="13.403549360032041"><ele>1384.0</ele><time>2026-04-05T08:22:19Z</time></trkpt><trkpt lat="41.8343623808071" lon="13.403592683277159"><ele>1384.0</ele><time>2026-04-05T08:22:21Z</time></trkpt><trkpt lat="41.83443634577658" lon="13.403590947889882"><ele>1384.0</ele><time>2026-04-05T08:22:23Z</time></trkpt><trkpt lat="41.834451725708405" lon="13.403692233858257"><ele>1384.0</ele><time>2026-04-05T08:22:25Z</time></trkpt><trkpt lat="41.83441553122205" lon="13.403792252197547"><ele>1384.0</ele><time>2026-04-05T08:22:26Z</time></trkpt><trkpt lat="41.834423415340666" lon="13.403935414838587"><ele>1384.0</ele><time>2026-04-05T08:22:28Z</time></trkpt><trkpt lat="41.83443975062499" lon="13.404026273302398"><ele>1384.0</ele><time>2026-04-05T08:22:29Z</time></trkpt><trkpt lat="41.83447069996733" lon="13.404133109758222"><ele>1381.4</ele><time>2026-04-05T08:22:30Z</time></trkpt><trkpt lat="41.83449231904778" lon="13.404259863463293"><ele>1378.8000000000002</ele><time>2026-04-05T08:22:31Z</time></trkpt><trkpt lat="41.834504373904075" lon="13.404411411079465"><ele>1376.1999999999998</ele><time>2026-04-05T08:22:32Z</time></trkpt><trkpt lat="41.83452657083204" lon="13.404528689057711"><ele>1373.6</ele><time>2026-04-05T08:22:33Z</time></trkpt><trkpt lat="41.83454047997852" lon="13.404640702113506"><ele>1371.0</ele><time>2026-04-05T08:22:34Z</time></trkpt><trkpt lat="41.834536534924375" lon="13.404733406569486"><ele>1369.3333333333333</ele><time>2026-04-05T08:22:35Z</time></trkpt><trkpt lat="41.834524268210664" lon="13.404834179391147"><ele>1367.6666666666667</ele><time>2026-04-05T08:22:36Z</time></trkpt><trkpt lat="41.834499382481155" lon="13.404938414868026"><ele>1366.0</ele><time>2026-04-05T08:22:37Z</time></trkpt><trkpt lat="41.834458991955486" lon="13.405042080575061"><ele>1364.3333333333335</ele><time>2026-04-05T08:22:38Z</time></trkpt><trkpt lat="41.8344206720118" lon="13.405138872244432"><ele>1362.6666666666667</ele><time>2026-04-05T08:22:39Z</time></trkpt><trkpt lat="41.83438854555868" lon="13.40522165677841"><ele>1361.0</ele><time>2026-04-05T08:22:40Z</time></trkpt><trkpt lat="41.83435873868259" lon="13.405305798972845"><ele>1361.0</ele><time>2026-04-05T08:22:41Z</time></trkpt><trkpt lat="41.834309281934935" lon="13.405392978892195"><ele>1361.0</ele><time>2026-04-05T08:22:42Z</time></trkpt><trkpt lat="41.83425484507823" lon="13.40548955431848"><ele>1361.0</ele><time>2026-04-05T08:22:43Z</time></trkpt><trkpt lat="41.834188733502636" lon="13.40556319904894"><ele>1361.0</ele><time>2026-04-05T08:22:44Z</time></trkpt><trkpt lat="41.83412244293275" lon="13.405628624272264"><ele>1361.0</ele><time>2026-04-05T08:22:45Z</time></trkpt><trkpt lat="41.834073070340544" lon="13.405701040036393"><ele>1361.0</ele><time>2026-04-05T08:22:46Z</time></trkpt><trkpt lat="41.83402838059417" lon="13.40577895831308"><ele>1360.1666666666667</ele><time>2026-04-05T08:22:47Z</time></trkpt><trkpt lat="41.83396237943113" lon="13.405868488573203"><ele>1359.3333333333335</ele><time>2026-04-05T08:22:49Z</time></trkpt><trkpt lat="41.83392572536486" lon="13.405952894447228"><ele>1358.5</ele><time>2026-04-05T08:22:51Z</time></trkpt><trkpt lat="41.833919188728885" lon="13.406074993697207"><ele>1357.6666666666667</ele><time>2026-04-05T08:22:53Z</time></trkpt><trkpt lat="41.833950286840775" lon="13.406183182445522"><ele>1356.8333333333333</ele><time>2026-04-05T08:22:55.001Z</time></trkpt><trkpt lat="41.83397051696273" lon="13.406282252449294"><ele>1356.0</ele><time>2026-04-05T08:22:57.001Z</time></trkpt><trkpt lat="41.83391141650042" lon="13.406408934513976"><ele>1353.8333333333333</ele><time>2026-04-05T08:22:59.001Z</time></trkpt><trkpt lat="41.83392098923538" lon="13.406516350971744"><ele>1351.6666666666667</ele><time>2026-04-05T08:23:01.001Z</time></trkpt><trkpt lat="41.833930742695394" lon="13.40660443162313"><ele>1349.5</ele><time>2026-04-05T08:23:02.001Z</time></trkpt><trkpt lat="41.83395100844687" lon="13.406729945304926"><ele>1347.3333333333335</ele><time>2026-04-05T08:23:04.001Z</time></trkpt><trkpt lat="41.83394123861605" lon="13.406859007435964"><ele>1345.1666666666667</ele><time>2026-04-05T08:23:06.001Z</time></trkpt><trkpt lat="41.83391882388896" lon="13.406949575019926"><ele>1343.0</ele><time>2026-04-05T08:23:08.001Z</time></trkpt><trkpt lat="41.83395556008507" lon="13.407094534884338"><ele>1341.0</ele><time>2026-04-05T08:23:10.001Z</time></trkpt><trkpt lat="41.83399365446026" lon="13.40721052054652"><ele>1339.0</ele><time>2026-04-05T08:23:11.001Z</time></trkpt><trkpt lat="41.83403593524594" lon="13.407290995995634"><ele>1337.0</ele><time>2026-04-05T08:23:12.001Z</time></trkpt><trkpt lat="41.8340328231588" lon="13.4074441575964"><ele>1335.0</ele><time>2026-04-05T08:23:14.001Z</time></trkpt><trkpt lat="41.8340517515359" lon="13.407603689785454"><ele>1333.0</ele><time>2026-04-05T08:23:16.001Z</time></trkpt><trkpt lat="41.83408669572623" lon="13.407706306048505"><ele>1333.0</ele><time>2026-04-05T08:23:17.001Z</time></trkpt><trkpt lat="41.83413316511074" lon="13.407853283999984"><ele>1333.0</ele><time>2026-04-05T08:23:19.001Z</time></trkpt><trkpt lat="41.8341957893303" lon="13.4079691086059"><ele>1333.0</ele><time>2026-04-05T08:23:21.001Z</time></trkpt><trkpt lat="41.834208586828446" lon="13.408053412748362"><ele>1333.0</ele><time>2026-04-05T08:23:22.001Z</time></trkpt><trkpt lat="41.834244988728116" lon="13.408182770588931"><ele>1333.0</ele><time>2026-04-05T08:23:24.001Z</time></trkpt><trkpt lat="41.83426330506901" lon="13.4083349425966"><ele>1331.8333333333333</ele><time>2026-04-05T08:23:26.001Z</time></trkpt><trkpt lat="41.834292256281664" lon="13.408472419656228"><ele>1330.6666666666665</ele><time>2026-04-05T08:23:28.001Z</time></trkpt><trkpt lat="41.83430222196479" lon="13.408596293288527"><ele>1329.5</ele><time>2026-04-05T08:23:30.001Z</time></trkpt><trkpt lat="41.83428776513061" lon="13.408692148883961"><ele>1328.3333333333333</ele><time>2026-04-05T08:23:34.001Z</time></trkpt><trkpt lat="41.834234879927685" lon="13.408755071404594"><ele>1327.1666666666667</ele><time>2026-04-05T08:23:38.001Z</time></trkpt><trkpt lat="41.83416331517383" lon="13.408692482703948"><ele>1326.0</ele><time>2026-04-05T08:23:40.001Z</time></trkpt><trkpt lat="41.83410121313308" lon="13.408648130966824"><ele>1326.0</ele><time>2026-04-05T08:23:42.001Z</time></trkpt><trkpt lat="41.83401945472376" lon="13.408636059470377"><ele>1326.0</ele><time>2026-04-05T08:23:45.001Z</time></trkpt><trkpt lat="41.83395345597195" lon="13.408642135985543"><ele>1326.0</ele><time>2026-04-05T08:23:48.001Z</time></trkpt><trkpt lat="41.83385209380647" lon="13.408652220085424"><ele>1326.0</ele><time>2026-04-05T08:23:50.001Z</time></trkpt><trkpt lat="41.83376040471984" lon="13.408642139182051"><ele>1326.0</ele><time>2026-04-05T08:23:52.001Z</time></trkpt><trkpt lat="41.83368190920079" lon="13.408642523721507"><ele>1326.0</ele><time>2026-04-05T08:23:53.001Z</time></trkpt><trkpt lat="41.833574521075214" lon="13.408633353450462"><ele>1326.0</ele><time>2026-04-05T08:23:55.001Z</time></trkpt><trkpt lat="41.83349957721408" lon="13.408646854169797"><ele>1326.0</ele><time>2026-04-05T08:23:57.001Z</time></trkpt><trkpt lat="41.83343542883916" lon="13.408690114900246"><ele>1326.0</ele><time>2026-04-05T08:23:59.001Z</time></trkpt><trkpt lat="41.83335302829224" lon="13.408837507269396"><ele>1326.0</ele><time>2026-04-05T08:24:01.001Z</time></trkpt><trkpt lat="41.833285744002765" lon="13.408916215184824"><ele>1326.0</ele><time>2026-04-05T08:24:02.001Z</time></trkpt><trkpt lat="41.833174143629265" lon="13.40896668099953"><ele>1325.4</ele><time>2026-04-05T08:24:04.001Z</time></trkpt><trkpt lat="41.83310788716756" lon="13.408970046307976"><ele>1324.8</ele><time>2026-04-05T08:24:05.001Z</time></trkpt><trkpt lat="41.83299040822083" lon="13.40897788874055"><ele>1324.2</ele><time>2026-04-05T08:24:07.001Z</time></trkpt><trkpt lat="41.83291280046652" lon="13.409110402193392"><ele>1323.6000000000001</ele><time>2026-04-05T08:24:09.001Z</time></trkpt><trkpt lat="41.83287737731089" lon="13.409184738015835"><ele>1323.0</ele><time>2026-04-05T08:24:10.001Z</time></trkpt><trkpt lat="41.83284494795245" lon="13.409276828707016"><ele>1323.0</ele><time>2026-04-05T08:24:11Z</time></trkpt><trkpt lat="41.832828402953005" lon="13.409360164547225"><ele>1323.0</ele><time>2026-04-05T08:24:12Z</time></trkpt><trkpt lat="41.83280470080169" lon="13.409443103658617"><ele>1323.0</ele><time>2026-04-05T08:24:13Z</time></trkpt><trkpt lat="41.83280520574247" lon="13.409606211744162"><ele>1323.0</ele><time>2026-04-05T08:24:15Z</time></trkpt><trkpt lat="41.83280622583132" lon="13.409694075440223"><ele>1323.0</ele><time>2026-04-05T08:24:16Z</time></trkpt><trkpt lat="41.83280817110746" lon="13.409783830984702"><ele>1323.0</ele><time>2026-04-05T08:24:17Z</time></trkpt><trkpt lat="41.832821984708254" lon="13.409913514335988"><ele>1322.3333333333333</ele><time>2026-04-05T08:24:19Z</time></trkpt><trkpt lat="41.83281439479374" lon="13.410016314838563"><ele>1321.6666666666667</ele><time>2026-04-05T08:24:22Z</time></trkpt><trkpt lat="41.83280921384911" lon="13.41017087151814"><ele>1321.0</ele><time>2026-04-05T08:24:25Z</time></trkpt><trkpt lat="41.8328082344493" lon="13.410255612324102"><ele>1320.3333333333335</ele><time>2026-04-05T08:24:26Z</time></trkpt><trkpt lat="41.83280850006822" lon="13.410341633623615"><ele>1319.6666666666667</ele><time>2026-04-05T08:24:27Z</time></trkpt><trkpt lat="41.832807404690996" lon="13.41045478378148"><ele>1319.0</ele><time>2026-04-05T08:24:28Z</time></trkpt><trkpt lat="41.832802862165614" lon="13.41056833699657"><ele>1317.4</ele><time>2026-04-05T08:24:29Z</time></trkpt><trkpt lat="41.8328084319139" lon="13.410658666006087"><ele>1315.8000000000002</ele><time>2026-04-05T08:24:30Z</time></trkpt><trkpt lat="41.832797625306284" lon="13.410773013946136"><ele>1314.1999999999998</ele><time>2026-04-05T08:24:32Z</time></trkpt><trkpt lat="41.83279704773041" lon="13.41088301290031"><ele>1312.6</ele><time>2026-04-05T08:24:35Z</time></trkpt><trkpt lat="41.83282231717541" lon="13.411004907301319"><ele>1311.0</ele><time>2026-04-05T08:24:38Z</time></trkpt><trkpt lat="41.83285633127403" lon="13.411185955953373"><ele>1311.0</ele><time>2026-04-05T08:24:40Z</time></trkpt><trkpt lat="41.83287356446097" lon="13.411275843698236"><ele>1311.0</ele><time>2026-04-05T08:24:41Z</time></trkpt><trkpt lat="41.83290816066965" lon="13.411384054778159"><ele>1311.0</ele><time>2026-04-05T08:24:43Z</time></trkpt><trkpt lat="41.832922763372686" lon="13.411474291980952"><ele>1311.0</ele><time>2026-04-05T08:24:44Z</time></trkpt><trkpt lat="41.83291850256701" lon="13.41158648653224"><ele>1311.0</ele><time>2026-04-05T08:24:45Z</time></trkpt><trkpt lat="41.83291275112729" lon="13.411693941882207"><ele>1311.0</ele><time>2026-04-05T08:24:46Z</time></trkpt><trkpt lat="41.832892841424986" lon="13.411803798350746"><ele>1310.6666666666667</ele><time>2026-04-05T08:24:47Z</time></trkpt><trkpt lat="41.832875708680376" lon="13.411897037353013"><ele>1310.3333333333333</ele><time>2026-04-05T08:24:48Z</time></trkpt><trkpt lat="41.83285737638917" lon="13.412088324061724"><ele>1310.0</ele><time>2026-04-05T08:24:50Z</time></trkpt><trkpt lat="41.83285767714694" lon="13.41219103215223"><ele>1309.6666666666665</ele><time>2026-04-05T08:24:51Z</time></trkpt><trkpt lat="41.83283971582672" lon="13.41227794690346"><ele>1309.3333333333333</ele><time>2026-04-05T08:24:52Z</time></trkpt><trkpt lat="41.832842152642804" lon="13.412381010675967"><ele>1309.0</ele><time>2026-04-05T08:24:54Z</time></trkpt><trkpt lat="41.832784845089265" lon="13.412452800026044"><ele>1309.0</ele><time>2026-04-05T08:24:56Z</time></trkpt><trkpt lat="41.83275423489676" lon="13.412566576134646"><ele>1309.0</ele><time>2026-04-05T08:24:58Z</time></trkpt><trkpt lat="41.83271318338856" lon="13.412712633812296"><ele>1309.0</ele><time>2026-04-05T08:25:00Z</time></trkpt><trkpt lat="41.83267260340284" lon="13.41290989540392"><ele>1309.0</ele><time>2026-04-05T08:25:03.001Z</time></trkpt><trkpt lat="41.8326415299953" lon="13.412992480846185"><ele>1309.0</ele><time>2026-04-05T08:25:04.001Z</time></trkpt><trkpt lat="41.832596205609505" lon="13.413061093225945"><ele>1306.25</ele><time>2026-04-05T08:25:07.001Z</time></trkpt><trkpt lat="41.832486225537764" lon="13.41325016180075"><ele>1303.5</ele><time>2026-04-05T08:25:08.001Z</time></trkpt><trkpt lat="41.83237739693789" lon="13.413332708557466"><ele>1300.75</ele><time>2026-04-05T08:25:10.001Z</time></trkpt><trkpt lat="41.83230108709876" lon="13.413437844726488"><ele>1298.0</ele><time>2026-04-05T08:25:12.001Z</time></trkpt><trkpt lat="41.832239947405064" lon="13.413561089446487"><ele>1298.0</ele><time>2026-04-05T08:25:14.001Z</time></trkpt><trkpt lat="41.83218236843308" lon="13.413677109229424"><ele>1298.0</ele><time>2026-04-05T08:25:16.001Z</time></trkpt><trkpt lat="41.83204701723117" lon="13.413720407715555"><ele>1298.0</ele><time>2026-04-05T08:25:24.001Z</time></trkpt><trkpt lat="41.831998271592944" lon="13.413817489633992"><ele>1298.0</ele><time>2026-04-05T08:25:26.001Z</time></trkpt><trkpt lat="41.8319477781428" lon="13.413889262692999"><ele>1298.0</ele><time>2026-04-05T08:25:27.001Z</time></trkpt><trkpt lat="41.83188327677417" lon="13.413981184184882"><ele>1297.4</ele><time>2026-04-05T08:25:29.001Z</time></trkpt><trkpt lat="41.83181484990323" lon="13.414023963585112"><ele>1296.8000000000002</ele><time>2026-04-05T08:25:31.001Z</time></trkpt><trkpt lat="41.83173002343604" lon="13.414069857604074"><ele>1296.2</ele><time>2026-04-05T08:25:33.001Z</time></trkpt><trkpt lat="41.8316758590988" lon="13.414185772696007"><ele>1295.6</ele><time>2026-04-05T08:25:36.001Z</time></trkpt><trkpt lat="41.83163319424811" lon="13.414248273216115"><ele>1295.0</ele><time>2026-04-05T08:25:38.001Z</time></trkpt><trkpt lat="41.83154848017415" lon="13.414369136826512"><ele>1295.0</ele><time>2026-04-05T08:25:40.001Z</time></trkpt><trkpt lat="41.831510893515734" lon="13.414493874216916"><ele>1295.0</ele><time>2026-04-05T08:25:42.001Z</time></trkpt><trkpt lat="41.83146693410138" lon="13.414615331885535"><ele>1295.0</ele><time>2026-04-05T08:25:44.001Z</time></trkpt><trkpt lat="41.831433240335485" lon="13.4147976632413"><ele>1295.0</ele><time>2026-04-05T08:25:46.001Z</time></trkpt><trkpt lat="41.83141020233101" lon="13.414897746517886"><ele>1295.0</ele><time>2026-04-05T08:25:47.001Z</time></trkpt><trkpt lat="41.83138627024403" lon="13.41508048999286"><ele>1293.0</ele><time>2026-04-05T08:25:49.001Z</time></trkpt><trkpt lat="41.83137602517704" lon="13.415176525316207"><ele>1291.0</ele><time>2026-04-05T08:25:50.001Z</time></trkpt><trkpt lat="41.8313338002472" lon="13.415322755021963"><ele>1289.0</ele><time>2026-04-05T08:25:52.001Z</time></trkpt><trkpt lat="41.83127830457379" lon="13.415434521841009"><ele>1287.0</ele><time>2026-04-05T08:25:54.001Z</time></trkpt><trkpt lat="41.83121004754196" lon="13.415541385304529"><ele>1285.0</ele><time>2026-04-05T08:25:56.001Z</time></trkpt><trkpt lat="41.831160806180364" lon="13.415632314437575"><ele>1285.5</ele><time>2026-04-05T08:25:58.001Z</time></trkpt><trkpt lat="41.83112521211472" lon="13.415721130234013"><ele>1286.0</ele><time>2026-04-05T08:26:00.001Z</time></trkpt><trkpt lat="41.83107896866979" lon="13.415864717454156"><ele>1286.5</ele><time>2026-04-05T08:26:02.001Z</time></trkpt><trkpt lat="41.83099450073708" lon="13.416002668909892"><ele>1287.0</ele><time>2026-04-05T08:26:04.001Z</time></trkpt><trkpt lat="41.830894525320424" lon="13.416105534010233"><ele>1287.0</ele><time>2026-04-05T08:26:06.001Z</time></trkpt><trkpt lat="41.830819856780984" lon="13.416235255306967"><ele>1287.0</ele><time>2026-04-05T08:26:08.001Z</time></trkpt><trkpt lat="41.830786358522865" lon="13.416367315691469"><ele>1287.0</ele><time>2026-04-05T08:26:10.001Z</time></trkpt><trkpt lat="41.83074354705009" lon="13.416526356626497"><ele>1287.0</ele><time>2026-04-05T08:26:12.001Z</time></trkpt><trkpt lat="41.83072907144259" lon="13.41669895802387"><ele>1285.1666666666667</ele><time>2026-04-05T08:26:14.001Z</time></trkpt><trkpt lat="41.83070642611252" lon="13.416782544187406"><ele>1283.3333333333333</ele><time>2026-04-05T08:26:15.001Z</time></trkpt><trkpt lat="41.83068215632937" lon="13.416871068942488"><ele>1281.5</ele><time>2026-04-05T08:26:16.001Z</time></trkpt><trkpt lat="41.83064124207541" lon="13.416985923082905"><ele>1279.6666666666665</ele><time>2026-04-05T08:26:18Z</time></trkpt><trkpt lat="41.8305909453602" lon="13.41713802896174"><ele>1277.8333333333333</ele><time>2026-04-05T08:26:20Z</time></trkpt><trkpt lat="41.83054733946494" lon="13.417218789280335"><ele>1276.0</ele><time>2026-04-05T08:26:21Z</time></trkpt><trkpt lat="41.83051100939841" lon="13.41730088855342"><ele>1275.0</ele><time>2026-04-05T08:26:22Z</time></trkpt><trkpt lat="41.83046423270321" lon="13.417373509399276"><ele>1274.0</ele><time>2026-04-05T08:26:23Z</time></trkpt><trkpt lat="41.83040807875931" lon="13.417452018785891"><ele>1273.0</ele><time>2026-04-05T08:26:24Z</time></trkpt><trkpt lat="41.83033655170282" lon="13.41749695473071"><ele>1272.0</ele><time>2026-04-05T08:26:25Z</time></trkpt><trkpt lat="41.83026378195101" lon="13.417527167950414"><ele>1271.0</ele><time>2026-04-05T08:26:26Z</time></trkpt><trkpt lat="41.830187871110226" lon="13.417516604261003"><ele>1270.0</ele><time>2026-04-05T08:26:28Z</time></trkpt><trkpt lat="41.83006256872825" lon="13.417508162627279"><ele>1269.1666666666665</ele><time>2026-04-05T08:26:30Z</time></trkpt><trkpt lat="41.82998086994532" lon="13.417521073836285"><ele>1268.3333333333333</ele><time>2026-04-05T08:26:31Z</time></trkpt><trkpt lat="41.82990614244418" lon="13.417563231825591"><ele>1267.5</ele><time>2026-04-05T08:26:32Z</time></trkpt><trkpt lat="41.82983499411642" lon="13.417632531514764"><ele>1266.6666666666667</ele><time>2026-04-05T08:26:33Z</time></trkpt><trkpt lat="41.82976550034718" lon="13.41770878388658"><ele>1265.8333333333335</ele><time>2026-04-05T08:26:34Z</time></trkpt><trkpt lat="41.829704192085636" lon="13.41778407745166"><ele>1265.0</ele><time>2026-04-05T08:26:35Z</time></trkpt><trkpt lat="41.82962950925025" lon="13.417830910263019"><ele>1265.0</ele><time>2026-04-05T08:26:36Z</time></trkpt><trkpt lat="41.829542840907585" lon="13.417894836386607"><ele>1265.0</ele><time>2026-04-05T08:26:37Z</time></trkpt><trkpt lat="41.82947423502214" lon="13.417952713720624"><ele>1265.0</ele><time>2026-04-05T08:26:38Z</time></trkpt><trkpt lat="41.829404729899025" lon="13.418013359037333"><ele>1265.0</ele><time>2026-04-05T08:26:39Z</time></trkpt><trkpt lat="41.82935044172147" lon="13.418091495028992"><ele>1265.0</ele><time>2026-04-05T08:26:40Z</time></trkpt><trkpt lat="41.82929893999793" lon="13.418183438078483"><ele>1265.0</ele><time>2026-04-05T08:26:41Z</time></trkpt><trkpt lat="41.829222862288404" lon="13.418259287419973"><ele>1263.6666666666667</ele><time>2026-04-05T08:26:42Z</time></trkpt><trkpt lat="41.829166959437636" lon="13.41833473103591"><ele>1262.3333333333335</ele><time>2026-04-05T08:26:43Z</time></trkpt><trkpt lat="41.829110912989314" lon="13.418419174622871"><ele>1261.0</ele><time>2026-04-05T08:26:44Z</time></trkpt><trkpt lat="41.8290211530718" lon="13.418484186292638"><ele>1259.6666666666667</ele><time>2026-04-05T08:26:45Z</time></trkpt><trkpt lat="41.828963713453476" lon="13.418565757017642"><ele>1258.3333333333333</ele><time>2026-04-05T08:26:46Z</time></trkpt><trkpt lat="41.828906334132384" lon="13.418667904211853"><ele>1257.0</ele><time>2026-04-05T08:26:47Z</time></trkpt><trkpt lat="41.82884166653808" lon="13.418748352770326"><ele>1256.6</ele><time>2026-04-05T08:26:48Z</time></trkpt><trkpt lat="41.82878112327666" lon="13.418827552885995"><ele>1256.2</ele><time>2026-04-05T08:26:49Z</time></trkpt><trkpt lat="41.8287125812957" lon="13.418918940706016"><ele>1255.8</ele><time>2026-04-05T08:26:50Z</time></trkpt><trkpt lat="41.828608840895704" lon="13.41901054020561"><ele>1255.4</ele><time>2026-04-05T08:26:51Z</time></trkpt><trkpt lat="41.82852471055028" lon="13.419072379233134"><ele>1255.0</ele><time>2026-04-05T08:26:52Z</time></trkpt><trkpt lat="41.82842847021614" lon="13.419149001363"><ele>1252.8</ele><time>2026-04-05T08:26:54Z</time></trkpt><trkpt lat="41.828362347357455" lon="13.419219074488847"><ele>1250.6</ele><time>2026-04-05T08:26:56Z</time></trkpt><trkpt lat="41.82827652236411" lon="13.419333065769509"><ele>1248.4</ele><time>2026-04-05T08:26:58Z</time></trkpt><trkpt lat="41.82823497302319" lon="13.419402359685805"><ele>1246.2</ele><time>2026-04-05T08:26:59Z</time></trkpt><trkpt lat="41.828140081464305" lon="13.419493342426339"><ele>1244.0</ele><time>2026-04-05T08:27:01Z</time></trkpt><trkpt lat="41.82807867164175" lon="13.4195224287987"><ele>1244.0</ele><time>2026-04-05T08:27:04Z</time></trkpt><trkpt lat="41.82799682068928" lon="13.419483110458204"><ele>1244.0</ele><time>2026-04-05T08:27:07Z</time></trkpt><trkpt lat="41.82794267320274" lon="13.419569810964534"><ele>1244.0</ele><time>2026-04-05T08:27:10.001Z</time></trkpt><trkpt lat="41.8279305961584" lon="13.419707432881113"><ele>1244.0</ele><time>2026-04-05T08:27:12.001Z</time></trkpt><trkpt lat="41.82789552598326" lon="13.419886136832751"><ele>1244.0</ele><time>2026-04-05T08:27:14.001Z</time></trkpt><trkpt lat="41.82787411918759" lon="13.419966931616502"><ele>1243.8</ele><time>2026-04-05T08:27:15.001Z</time></trkpt><trkpt lat="41.82783723283988" lon="13.420067630845487"><ele>1243.6000000000001</ele><time>2026-04-05T08:27:16.001Z</time></trkpt><trkpt lat="41.8277923181533" lon="13.420163171827644"><ele>1243.4</ele><time>2026-04-05T08:27:17.001Z</time></trkpt><trkpt lat="41.82774405291459" lon="13.420275797585381"><ele>1243.2</ele><time>2026-04-05T08:27:18.001Z</time></trkpt><trkpt lat="41.82768597276221" lon="13.420388728457079"><ele>1243.0</ele><time>2026-04-05T08:27:19.001Z</time></trkpt><trkpt lat="41.82763626195519" lon="13.42049334038321"><ele>1242.25</ele><time>2026-04-05T08:27:20.001Z</time></trkpt><trkpt lat="41.827577314245026" lon="13.420630440696657"><ele>1241.5</ele><time>2026-04-05T08:27:21.001Z</time></trkpt><trkpt lat="41.827509966038555" lon="13.420789718788823"><ele>1240.75</ele><time>2026-04-05T08:27:22.001Z</time></trkpt><trkpt lat="41.827435712445165" lon="13.420948355764518"><ele>1240.0</ele><time>2026-04-05T08:27:23.001Z</time></trkpt><trkpt lat="41.82735232293433" lon="13.421077929066882"><ele>1240.0</ele><time>2026-04-05T08:27:24.001Z</time></trkpt><trkpt lat="41.82726356579159" lon="13.421185074979162"><ele>1240.0</ele><time>2026-04-05T08:27:25.001Z</time></trkpt><trkpt lat="41.827176043538906" lon="13.421296169999673"><ele>1240.0</ele><time>2026-04-05T08:27:26.001Z</time></trkpt><trkpt lat="41.82710345077848" lon="13.421407381250532"><ele>1240.0</ele><time>2026-04-05T08:27:27.001Z</time></trkpt><trkpt lat="41.82704427237271" lon="13.421519408813394"><ele>1241.8</ele><time>2026-04-05T08:27:28.001Z</time></trkpt><trkpt lat="41.82697594132379" lon="13.421619385149834"><ele>1243.6</ele><time>2026-04-05T08:27:29.001Z</time></trkpt><trkpt lat="41.826902745137026" lon="13.42168371310416"><ele>1245.4</ele><time>2026-04-05T08:27:30.001Z</time></trkpt><trkpt lat="41.8268150056675" lon="13.421702443699623"><ele>1247.2</ele><time>2026-04-05T08:27:31.001Z</time></trkpt><trkpt lat="41.82672400448498" lon="13.421720547271402"><ele>1249.0</ele><time>2026-04-05T08:27:32.001Z</time></trkpt><trkpt lat="41.826626742889296" lon="13.42178038681222"><ele>1249.0</ele><time>2026-04-05T08:27:33.001Z</time></trkpt><trkpt lat="41.826527089465216" lon="13.421892556319513"><ele>1249.0</ele><time>2026-04-05T08:27:34.001Z</time></trkpt><trkpt lat="41.82642161946224" lon="13.421999187878843"><ele>1249.0</ele><time>2026-04-05T08:27:35.001Z</time></trkpt><trkpt lat="41.82632995149224" lon="13.422083615654223"><ele>1249.0</ele><time>2026-04-05T08:27:36.001Z</time></trkpt><trkpt lat="41.8262243126976" lon="13.42218375281249"><ele>1250.75</ele><time>2026-04-05T08:27:37.001Z</time></trkpt><trkpt lat="41.82609892192384" lon="13.422303073734932"><ele>1252.5</ele><time>2026-04-05T08:27:38.001Z</time></trkpt><trkpt lat="41.825991484473214" lon="13.422448697732017"><ele>1254.25</ele><time>2026-04-05T08:27:39.001Z</time></trkpt><trkpt lat="41.82587271271408" lon="13.422526610637263"><ele>1256.0</ele><time>2026-04-05T08:27:40.001Z</time></trkpt><trkpt lat="41.8257759591132" lon="13.422601647659594"><ele>1256.0</ele><time>2026-04-05T08:27:41.001Z</time></trkpt><trkpt lat="41.8256812112107" lon="13.422673195003059"><ele>1256.0</ele><time>2026-04-05T08:27:42.001Z</time></trkpt><trkpt lat="41.82559102256203" lon="13.422738033293907"><ele>1256.0</ele><time>2026-04-05T08:27:43.001Z</time></trkpt><trkpt lat="41.82549524457177" lon="13.422807907064518"><ele>1256.0</ele><time>2026-04-05T08:27:44.001Z</time></trkpt><trkpt lat="41.82538407536653" lon="13.422889238661128"><ele>1256.0</ele><time>2026-04-05T08:27:45.001Z</time></trkpt><trkpt lat="41.82527607248688" lon="13.422959612954191"><ele>1256.8</ele><time>2026-04-05T08:27:46.001Z</time></trkpt><trkpt lat="41.82518172975667" lon="13.423028689694203"><ele>1257.6</ele><time>2026-04-05T08:27:47.001Z</time></trkpt><trkpt lat="41.82507757435744" lon="13.423088535399206"><ele>1258.4</ele><time>2026-04-05T08:27:48.001Z</time></trkpt><trkpt lat="41.82498731279702" lon="13.423136463896586"><ele>1259.2</ele><time>2026-04-05T08:27:49.001Z</time></trkpt><trkpt lat="41.8248997070745" lon="13.42317159226343"><ele>1260.0</ele><time>2026-04-05T08:27:50.001Z</time></trkpt><trkpt lat="41.824805199125834" lon="13.423211349977548"><ele>1260.0</ele><time>2026-04-05T08:27:51.001Z</time></trkpt><trkpt lat="41.82473180727363" lon="13.423265493616586"><ele>1260.0</ele><time>2026-04-05T08:27:52.001Z</time></trkpt><trkpt lat="41.824642849493266" lon="13.423335067370152"><ele>1260.0</ele><time>2026-04-05T08:27:53.001Z</time></trkpt><trkpt lat="41.82457891924672" lon="13.423408530155566"><ele>1260.0</ele><time>2026-04-05T08:27:54.001Z</time></trkpt><trkpt lat="41.82451170073917" lon="13.423490297057294"><ele>1260.0</ele><time>2026-04-05T08:27:55.001Z</time></trkpt><trkpt lat="41.8244168326348" lon="13.423541047490408"><ele>1260.0</ele><time>2026-04-05T08:27:56.001Z</time></trkpt><trkpt lat="41.82433375713511" lon="13.423559619042958"><ele>1260.0</ele><time>2026-04-05T08:27:57.001Z</time></trkpt><trkpt lat="41.82424141498821" lon="13.423573137519208"><ele>1260.0</ele><time>2026-04-05T08:27:58.001Z</time></trkpt><trkpt lat="41.824165557488" lon="13.423589402784419"><ele>1260.0</ele><time>2026-04-05T08:27:59.001Z</time></trkpt><trkpt lat="41.824096541573674" lon="13.423651784103003"><ele>1260.0</ele><time>2026-04-05T08:28:00.001Z</time></trkpt><trkpt lat="41.824038153958746" lon="13.4237332111652"><ele>1260.0</ele><time>2026-04-05T08:28:01.001Z</time></trkpt><trkpt lat="41.82399698473049" lon="13.423824819023585"><ele>1260.8</ele><time>2026-04-05T08:28:02.001Z</time></trkpt><trkpt lat="41.82398583095229" lon="13.423926978292602"><ele>1261.6</ele><time>2026-04-05T08:28:03.001Z</time></trkpt><trkpt lat="41.82394101848873" lon="13.424028446892322"><ele>1262.4</ele><time>2026-04-05T08:28:04.001Z</time></trkpt><trkpt lat="41.823884708118726" lon="13.42412638278441"><ele>1263.2</ele><time>2026-04-05T08:28:05.001Z</time></trkpt><trkpt lat="41.8238308294346" lon="13.424221355246269"><ele>1264.0</ele><time>2026-04-05T08:28:06.001Z</time></trkpt><trkpt lat="41.82374605571676" lon="13.424338097792974"><ele>1264.0</ele><time>2026-04-05T08:28:07.001Z</time></trkpt><trkpt lat="41.823658518626694" lon="13.424442235079153"><ele>1264.0</ele><time>2026-04-05T08:28:08.001Z</time></trkpt><trkpt lat="41.82357811481304" lon="13.424562243722665"><ele>1264.0</ele><time>2026-04-05T08:28:09.001Z</time></trkpt><trkpt lat="41.823500707080505" lon="13.424666169291116"><ele>1264.0</ele><time>2026-04-05T08:28:10.001Z</time></trkpt><trkpt lat="41.823429643376834" lon="13.424763067284104"><ele>1264.0</ele><time>2026-04-05T08:28:11.001Z</time></trkpt><trkpt lat="41.82340314270924" lon="13.424851183340905"><ele>1263.0</ele><time>2026-04-05T08:28:12.001Z</time></trkpt><trkpt lat="41.82338815501586" lon="13.425042840734323"><ele>1262.0</ele><time>2026-04-05T08:28:14.001Z</time></trkpt><trkpt lat="41.82335886702088" lon="13.425142941289405"><ele>1261.0</ele><time>2026-04-05T08:28:15.001Z</time></trkpt><trkpt lat="41.8233510004597" lon="13.425260398367815"><ele>1260.0</ele><time>2026-04-05T08:28:16.001Z</time></trkpt><trkpt lat="41.82332987582383" lon="13.425367790797964"><ele>1259.0</ele><time>2026-04-05T08:28:17.001Z</time></trkpt><trkpt lat="41.82328788744501" lon="13.425462716095769"><ele>1260.6000000000001</ele><time>2026-04-05T08:28:18.001Z</time></trkpt><trkpt lat="41.823223070292656" lon="13.425548297732739"><ele>1262.2</ele><time>2026-04-05T08:28:19.001Z</time></trkpt><trkpt lat="41.82315461995547" lon="13.425641095782787"><ele>1263.8000000000002</ele><time>2026-04-05T08:28:20.001Z</time></trkpt><trkpt lat="41.82310504183513" lon="13.425715968518574"><ele>1265.4</ele><time>2026-04-05T08:28:21.001Z</time></trkpt><trkpt lat="41.82303866063608" lon="13.425815813225661"><ele>1267.0</ele><time>2026-04-05T08:28:22.001Z</time></trkpt><trkpt lat="41.82300837468021" lon="13.42593212316231"><ele>1267.0</ele><time>2026-04-05T08:28:23Z</time></trkpt><trkpt lat="41.82299186666822" lon="13.426045641294522"><ele>1267.0</ele><time>2026-04-05T08:28:24Z</time></trkpt><trkpt lat="41.822977213287736" lon="13.42616693709111"><ele>1267.0</ele><time>2026-04-05T08:28:25Z</time></trkpt><trkpt lat="41.8229605299117" lon="13.426277800656665"><ele>1267.0</ele><time>2026-04-05T08:28:26Z</time></trkpt><trkpt lat="41.82294666859883" lon="13.42638108462741"><ele>1267.0</ele><time>2026-04-05T08:28:27Z</time></trkpt><trkpt lat="41.822901573290395" lon="13.426489684700643"><ele>1267.0</ele><time>2026-04-05T08:28:28Z</time></trkpt><trkpt lat="41.822868244941546" lon="13.426601573122168"><ele>1268.1666666666665</ele><time>2026-04-05T08:28:29Z</time></trkpt><trkpt lat="41.82286098734278" lon="13.426705772869745"><ele>1269.3333333333333</ele><time>2026-04-05T08:28:30Z</time></trkpt><trkpt lat="41.82283607561396" lon="13.426796340606172"><ele>1270.5</ele><time>2026-04-05T08:28:31Z</time></trkpt><trkpt lat="41.82276894014879" lon="13.426849734438413"><ele>1271.6666666666667</ele><time>2026-04-05T08:28:32Z</time></trkpt><trkpt lat="41.82271014681161" lon="13.426901834656165"><ele>1272.8333333333335</ele><time>2026-04-05T08:28:33Z</time></trkpt><trkpt lat="41.822628023027306" lon="13.426949288170219"><ele>1274.0</ele><time>2026-04-05T08:28:34Z</time></trkpt><trkpt lat="41.822542590650464" lon="13.427000298546652"><ele>1271.1666666666667</ele><time>2026-04-05T08:28:36Z</time></trkpt><trkpt lat="41.822457636802746" lon="13.427069569671513"><ele>1268.3333333333335</ele><time>2026-04-05T08:28:39Z</time></trkpt><trkpt lat="41.82234804440688" lon="13.427061121440577"><ele>1265.5</ele><time>2026-04-05T08:28:41Z</time></trkpt><trkpt lat="41.82225338182243" lon="13.42704981130258"><ele>1262.6666666666667</ele><time>2026-04-05T08:28:43Z</time></trkpt><trkpt lat="41.8221896415371" lon="13.427025956207993"><ele>1259.8333333333333</ele><time>2026-04-05T08:28:46Z</time></trkpt><trkpt lat="41.822122548664126" lon="13.4269896248034"><ele>1257.0</ele><time>2026-04-05T08:28:48Z</time></trkpt><trkpt lat="41.822022978588144" lon="13.427026261619423"><ele>1257.0</ele><time>2026-04-05T08:29:17.001Z</time></trkpt><trkpt lat="41.82194758039903" lon="13.426959739730261"><ele>1257.0</ele><time>2026-04-05T08:29:28.001Z</time></trkpt><trkpt lat="41.82185966230869" lon="13.426854469396874"><ele>1257.0</ele><time>2026-04-05T08:29:30.001Z</time></trkpt><trkpt lat="41.821767596434825" lon="13.426805321969965"><ele>1257.0</ele><time>2026-04-05T08:29:32.001Z</time></trkpt><trkpt lat="41.8216928510185" lon="13.426835958132099"><ele>1257.0</ele><time>2026-04-05T08:29:35.001Z</time></trkpt><trkpt lat="41.82167748050586" lon="13.426934572912122"><ele>1256.0</ele><time>2026-04-05T08:29:37.001Z</time></trkpt><trkpt lat="41.821681140440035" lon="13.427041806751305"><ele>1255.0</ele><time>2026-04-05T08:29:39.001Z</time></trkpt><trkpt lat="41.82167884736832" lon="13.427141502935331"><ele>1254.0</ele><time>2026-04-05T08:29:42.001Z</time></trkpt><trkpt lat="41.821607465880206" lon="13.427211557665622"><ele>1253.0</ele><time>2026-04-05T08:29:45.001Z</time></trkpt><trkpt lat="41.82153515395876" lon="13.427232194667646"><ele>1252.0</ele><time>2026-04-05T08:29:47.001Z</time></trkpt><trkpt lat="41.82143142028447" lon="13.427132958057527"><ele>1251.0</ele><time>2026-04-05T08:29:49.001Z</time></trkpt><trkpt lat="41.82137894875057" lon="13.427085920628832"><ele>1251.0</ele><time>2026-04-05T08:29:50.001Z</time></trkpt><trkpt lat="41.82131521408982" lon="13.427108979315184"><ele>1251.0</ele><time>2026-04-05T08:29:52.001Z</time></trkpt><trkpt lat="41.82123797887646" lon="13.427134970715803"><ele>1251.0</ele><time>2026-04-05T08:29:53.001Z</time></trkpt><trkpt lat="41.82112231361288" lon="13.427176072244798"><ele>1251.0</ele><time>2026-04-05T08:29:55.001Z</time></trkpt><trkpt lat="41.821041919384776" lon="13.427167816682273"><ele>1251.0</ele><time>2026-04-05T08:29:56.001Z</time></trkpt><trkpt lat="41.82098159827721" lon="13.42714084196913"><ele>1251.0</ele><time>2026-04-05T08:29:57.001Z</time></trkpt><trkpt lat="41.82092078125843" lon="13.427177231129757"><ele>1249.3999999999999</ele><time>2026-04-05T08:29:59.001Z</time></trkpt><trkpt lat="41.8208176667939" lon="13.427173943343355"><ele>1247.8</ele><time>2026-04-05T08:30:01.001Z</time></trkpt><trkpt lat="41.82074668199345" lon="13.427131800537063"><ele>1246.1999999999998</ele><time>2026-04-05T08:30:02.001Z</time></trkpt><trkpt lat="41.820655077742636" lon="13.427083141817974"><ele>1244.6</ele><time>2026-04-05T08:30:03.001Z</time></trkpt><trkpt lat="41.820555435558816" lon="13.427049794009744"><ele>1243.0</ele><time>2026-04-05T08:30:04.001Z</time></trkpt><trkpt lat="41.82046557574047" lon="13.427018598897615"><ele>1241.1666666666665</ele><time>2026-04-05T08:30:05.001Z</time></trkpt><trkpt lat="41.82040074309557" lon="13.426999581865012"><ele>1239.3333333333333</ele><time>2026-04-05T08:30:06.001Z</time></trkpt><trkpt lat="41.82033624640858" lon="13.426977297812149"><ele>1237.5</ele><time>2026-04-05T08:30:07.001Z</time></trkpt><trkpt lat="41.820260079866884" lon="13.426951825637158"><ele>1235.6666666666667</ele><time>2026-04-05T08:30:08.001Z</time></trkpt><trkpt lat="41.820134919924726" lon="13.426928360531662"><ele>1233.8333333333335</ele><time>2026-04-05T08:30:10.001Z</time></trkpt><trkpt lat="41.82005907100826" lon="13.426931224462738"><ele>1232.0</ele><time>2026-04-05T08:30:11.001Z</time></trkpt><trkpt lat="41.81995472818769" lon="13.426935803088183"><ele>1230.4</ele><time>2026-04-05T08:30:12.001Z</time></trkpt><trkpt lat="41.819842506886076" lon="13.426915216976635"><ele>1228.8000000000002</ele><time>2026-04-05T08:30:13.001Z</time></trkpt><trkpt lat="41.819731497603385" lon="13.426899335783794"><ele>1227.2</ele><time>2026-04-05T08:30:14.001Z</time></trkpt><trkpt lat="41.81963072730822" lon="13.426897241000653"><ele>1225.6000000000001</ele><time>2026-04-05T08:30:15.001Z</time></trkpt><trkpt lat="41.81954884950884" lon="13.426927187438853"><ele>1224.0</ele><time>2026-04-05T08:30:16.001Z</time></trkpt><trkpt lat="41.819440980859795" lon="13.426936763740475"><ele>1224.0</ele><time>2026-04-05T08:30:17.001Z</time></trkpt><trkpt lat="41.8193373770297" lon="13.426952453416925"><ele>1224.0</ele><time>2026-04-05T08:30:18.001Z</time></trkpt><trkpt lat="41.81922859333596" lon="13.426935710725463"><ele>1224.0</ele><time>2026-04-05T08:30:19.001Z</time></trkpt><trkpt lat="41.81913487993792" lon="13.4269180918594"><ele>1224.0</ele><time>2026-04-05T08:30:20.001Z</time></trkpt><trkpt lat="41.819055265021504" lon="13.426871809549217"><ele>1224.0</ele><time>2026-04-05T08:30:21.001Z</time></trkpt><trkpt lat="41.818945229473435" lon="13.426857673280649"><ele>1223.4</ele><time>2026-04-05T08:30:23.001Z</time></trkpt><trkpt lat="41.81883235205414" lon="13.426951418189047"><ele>1222.8000000000002</ele><time>2026-04-05T08:30:25.001Z</time></trkpt><trkpt lat="41.818759196825624" lon="13.426972373514198"><ele>1222.1999999999998</ele><time>2026-04-05T08:30:26.001Z</time></trkpt><trkpt lat="41.81868269962984" lon="13.426960727680981"><ele>1221.6</ele><time>2026-04-05T08:30:27.001Z</time></trkpt><trkpt lat="41.81857902885425" lon="13.426980529740351"><ele>1221.0</ele><time>2026-04-05T08:30:29Z</time></trkpt><trkpt lat="41.81844932743793" lon="13.426992968984427"><ele>1220.8</ele><time>2026-04-05T08:30:31Z</time></trkpt><trkpt lat="41.81836892251693" lon="13.426965554990332"><ele>1220.6</ele><time>2026-04-05T08:30:32Z</time></trkpt><trkpt lat="41.818301212518364" lon="13.426903649868512"><ele>1220.4</ele><time>2026-04-05T08:30:33Z</time></trkpt><trkpt lat="41.818206939317236" lon="13.426847109703475"><ele>1220.2</ele><time>2026-04-05T08:30:34Z</time></trkpt><trkpt lat="41.81812048718313" lon="13.426813437382103"><ele>1220.0</ele><time>2026-04-05T08:30:35Z</time></trkpt><trkpt lat="41.818016562614254" lon="13.426770471558582"><ele>1220.0</ele><time>2026-04-05T08:30:36Z</time></trkpt><trkpt lat="41.81792736353716" lon="13.426734286788575"><ele>1220.0</ele><time>2026-04-05T08:30:37Z</time></trkpt><trkpt lat="41.817842332871805" lon="13.426719064302546"><ele>1220.0</ele><time>2026-04-05T08:30:38Z</time></trkpt><trkpt lat="41.817757474428916" lon="13.426676375133624"><ele>1220.0</ele><time>2026-04-05T08:30:39Z</time></trkpt><trkpt lat="41.817657764709395" lon="13.426637576126582"><ele>1220.0</ele><time>2026-04-05T08:30:40Z</time></trkpt><trkpt lat="41.817571536854146" lon="13.426597056334327"><ele>1218.8</ele><time>2026-04-05T08:30:41Z</time></trkpt><trkpt lat="41.81748993242765" lon="13.426574271061654"><ele>1217.6</ele><time>2026-04-05T08:30:42Z</time></trkpt><trkpt lat="41.81736832388657" lon="13.426600982685535"><ele>1216.4</ele><time>2026-04-05T08:30:44Z</time></trkpt><trkpt lat="41.81731293592611" lon="13.426653973877885"><ele>1215.2</ele><time>2026-04-05T08:30:45Z</time></trkpt><trkpt lat="41.817255540484176" lon="13.426736030261825"><ele>1214.0</ele><time>2026-04-05T08:30:46Z</time></trkpt><trkpt lat="41.81720854755655" lon="13.426843888251346"><ele>1214.0</ele><time>2026-04-05T08:30:47Z</time></trkpt><trkpt lat="41.81716014999875" lon="13.426951860611583"><ele>1214.0</ele><time>2026-04-05T08:30:48Z</time></trkpt><trkpt lat="41.81710656679476" lon="13.427045754003437"><ele>1214.0</ele><time>2026-04-05T08:30:49Z</time></trkpt><trkpt lat="41.817048499015726" lon="13.42716911478361"><ele>1214.0</ele><time>2026-04-05T08:30:50Z</time></trkpt><trkpt lat="41.81703319740419" lon="13.427275334610826"><ele>1214.0</ele><time>2026-04-05T08:30:51Z</time></trkpt><trkpt lat="41.81697891309011" lon="13.42738844380067"><ele>1212.3333333333335</ele><time>2026-04-05T08:30:52Z</time></trkpt><trkpt lat="41.81690174531539" lon="13.427463230445088"><ele>1210.6666666666667</ele><time>2026-04-05T08:30:53Z</time></trkpt><trkpt lat="41.81684080697961" lon="13.427519636008473"><ele>1209.0</ele><time>2026-04-05T08:30:54Z</time></trkpt><trkpt lat="41.81677233455101" lon="13.427538945880901"><ele>1207.3333333333333</ele><time>2026-04-05T08:30:55Z</time></trkpt><trkpt lat="41.81670550394267" lon="13.427544673213282"><ele>1205.6666666666665</ele><time>2026-04-05T08:30:56Z</time></trkpt><trkpt lat="41.81659136888859" lon="13.427609526621493"><ele>1204.0</ele><time>2026-04-05T08:30:58Z</time></trkpt><trkpt lat="41.81653412866558" lon="13.427670638899002"><ele>1204.0</ele><time>2026-04-05T08:30:59Z</time></trkpt><trkpt lat="41.81648955685371" lon="13.427774576641488"><ele>1204.0</ele><time>2026-04-05T08:31:00Z</time></trkpt><trkpt lat="41.816412088427114" lon="13.427866340308501"><ele>1204.0</ele><time>2026-04-05T08:31:01Z</time></trkpt><trkpt lat="41.816314624661906" lon="13.427929958338389"><ele>1204.0</ele><time>2026-04-05T08:31:02Z</time></trkpt><trkpt lat="41.816215918656866" lon="13.427954212353212"><ele>1204.0</ele><time>2026-04-05T08:31:03Z</time></trkpt><trkpt lat="41.816121323468" lon="13.427968994959272"><ele>1204.0</ele><time>2026-04-05T08:31:04Z</time></trkpt><trkpt lat="41.81600983526213" lon="13.427957115344611"><ele>1204.0</ele><time>2026-04-05T08:31:05Z</time></trkpt><trkpt lat="41.815939482308636" lon="13.427908625411398"><ele>1204.0</ele><time>2026-04-05T08:31:06Z</time></trkpt><trkpt lat="41.815860436992914" lon="13.427854901106027"><ele>1204.0</ele><time>2026-04-05T08:31:07Z</time></trkpt><trkpt lat="41.815775224448295" lon="13.42781464252655"><ele>1204.0</ele><time>2026-04-05T08:31:08Z</time></trkpt><trkpt lat="41.81568839796347" lon="13.427808331253305"><ele>1204.8</ele><time>2026-04-05T08:31:09Z</time></trkpt><trkpt lat="41.81561624362657" lon="13.427830507459374"><ele>1205.6000000000001</ele><time>2026-04-05T08:31:10Z</time></trkpt><trkpt lat="41.81556221371056" lon="13.427888428027144"><ele>1206.4</ele><time>2026-04-05T08:31:11Z</time></trkpt><trkpt lat="41.815488632749535" lon="13.42801963092222"><ele>1207.2</ele><time>2026-04-05T08:31:13Z</time></trkpt><trkpt lat="41.81537850808773" lon="13.428043721661822"><ele>1208.0</ele><time>2026-04-05T08:31:15Z</time></trkpt><trkpt lat="41.81529773903235" lon="13.428005050152093"><ele>1207.2</ele><time>2026-04-05T08:31:16Z</time></trkpt><trkpt lat="41.815211708337074" lon="13.427963224236947"><ele>1206.4</ele><time>2026-04-05T08:31:17Z</time></trkpt><trkpt lat="41.81512488080623" lon="13.427930881602627"><ele>1205.6000000000001</ele><time>2026-04-05T08:31:18Z</time></trkpt><trkpt lat="41.81504662871692" lon="13.427912211332888"><ele>1204.8</ele><time>2026-04-05T08:31:19Z</time></trkpt><trkpt lat="41.81496070920422" lon="13.427947039354386"><ele>1204.0</ele><time>2026-04-05T08:31:21Z</time></trkpt><trkpt lat="41.81484132955256" lon="13.428057481060982"><ele>1204.0</ele><time>2026-04-05T08:31:23.001Z</time></trkpt><trkpt lat="41.81477323116636" lon="13.428085166747293"><ele>1204.0</ele><time>2026-04-05T08:31:24.001Z</time></trkpt><trkpt lat="41.81469415994673" lon="13.428075961980907"><ele>1204.0</ele><time>2026-04-05T08:31:25.001Z</time></trkpt><trkpt lat="41.81463376037858" lon="13.428047267881237"><ele>1204.0</ele><time>2026-04-05T08:31:26.001Z</time></trkpt><trkpt lat="41.81456881286759" lon="13.42805486532872"><ele>1204.0</ele><time>2026-04-05T08:31:27.001Z</time></trkpt><trkpt lat="41.814430474794335" lon="13.428162094696376"><ele>1204.0</ele><time>2026-04-05T08:31:29.001Z</time></trkpt><trkpt lat="41.81437163914242" lon="13.428223683630403"><ele>1200.8</ele><time>2026-04-05T08:31:30.001Z</time></trkpt><trkpt lat="41.81427579178106" lon="13.428283371834745"><ele>1197.6000000000001</ele><time>2026-04-05T08:31:31.001Z</time></trkpt><trkpt lat="41.814199816963516" lon="13.428330159397422"><ele>1194.4</ele><time>2026-04-05T08:31:32.001Z</time></trkpt><trkpt lat="41.81411900279244" lon="13.428370343349734"><ele>1191.2</ele><time>2026-04-05T08:31:33.001Z</time></trkpt><trkpt lat="41.81403911948917" lon="13.428393515140968"><ele>1188.0</ele><time>2026-04-05T08:31:34.001Z</time></trkpt><trkpt lat="41.813925831662495" lon="13.42843791334553"><ele>1188.0</ele><time>2026-04-05T08:31:36.001Z</time></trkpt><trkpt lat="41.81387663853658" lon="13.428582394079129"><ele>1188.0</ele><time>2026-04-05T08:31:38.001Z</time></trkpt><trkpt lat="41.81385695317991" lon="13.428709992939316"><ele>1188.0</ele><time>2026-04-05T08:31:39.001Z</time></trkpt><trkpt lat="41.81383946123279" lon="13.428838149087488"><ele>1188.0</ele><time>2026-04-05T08:31:40.001Z</time></trkpt><trkpt lat="41.813827786516406" lon="13.428946334253665"><ele>1188.0</ele><time>2026-04-05T08:31:41.001Z</time></trkpt><trkpt lat="41.81380244501895" lon="13.429030947436368"><ele>1186.6</ele><time>2026-04-05T08:31:42.001Z</time></trkpt><trkpt lat="41.8137808906232" lon="13.429136528739672"><ele>1185.1999999999998</ele><time>2026-04-05T08:31:43.001Z</time></trkpt><trkpt lat="41.813735045111855" lon="13.429215176597747"><ele>1183.8</ele><time>2026-04-05T08:31:44.001Z</time></trkpt><trkpt lat="41.8136941189736" lon="13.429312894521694"><ele>1182.3999999999999</ele><time>2026-04-05T08:31:46.001Z</time></trkpt><trkpt lat="41.81359185712073" lon="13.429293954017387"><ele>1181.0</ele><time>2026-04-05T08:31:48.001Z</time></trkpt><trkpt lat="41.81347473284219" lon="13.42924832579607"><ele>1181.0</ele><time>2026-04-05T08:31:50.001Z</time></trkpt><trkpt lat="41.81336005867992" lon="13.429265945314524"><ele>1181.0</ele><time>2026-04-05T08:31:52.001Z</time></trkpt><trkpt lat="41.81327586601345" lon="13.42925889244771"><ele>1181.0</ele><time>2026-04-05T08:31:53.001Z</time></trkpt><trkpt lat="41.81317835252296" lon="13.42924877788815"><ele>1181.0</ele><time>2026-04-05T08:31:54.001Z</time></trkpt><trkpt lat="41.81305861037653" lon="13.429278974328335"><ele>1181.0</ele><time>2026-04-05T08:31:56.001Z</time></trkpt><trkpt lat="41.81297050691015" lon="13.429320457824252"><ele>1181.0</ele><time>2026-04-05T08:31:57.001Z</time></trkpt><trkpt lat="41.81289086723009" lon="13.429358333525109"><ele>1181.0</ele><time>2026-04-05T08:31:58.001Z</time></trkpt><trkpt lat="41.81282111973668" lon="13.429438090186082"><ele>1181.0</ele><time>2026-04-05T08:32:00.001Z</time></trkpt><trkpt lat="41.81276995499422" lon="13.42955675143674"><ele>1181.0</ele><time>2026-04-05T08:32:02.001Z</time></trkpt><trkpt lat="41.812733915128355" lon="13.429629384950665"><ele>1181.0</ele><time>2026-04-05T08:32:03.001Z</time></trkpt><trkpt lat="41.812633989808624" lon="13.429696963564064"><ele>1180.5</ele><time>2026-04-05T08:32:05.001Z</time></trkpt><trkpt lat="41.812560164499665" lon="13.429724693341734"><ele>1180.0</ele><time>2026-04-05T08:32:06.001Z</time></trkpt><trkpt lat="41.81247258538374" lon="13.429743253327176"><ele>1179.5</ele><time>2026-04-05T08:32:07.001Z</time></trkpt><trkpt lat="41.812355077953576" lon="13.42970474307516"><ele>1179.0</ele><time>2026-04-05T08:32:09.001Z</time></trkpt><trkpt lat="41.812275184197496" lon="13.429695610216873"><ele>1178.5</ele><time>2026-04-05T08:32:10.001Z</time></trkpt><trkpt lat="41.81220238673562" lon="13.429719494222377"><ele>1178.0</ele><time>2026-04-05T08:32:11.001Z</time></trkpt><trkpt lat="41.81210548531838" lon="13.429741196504157"><ele>1178.0</ele><time>2026-04-05T08:32:12.001Z</time></trkpt><trkpt lat="41.812042535284164" lon="13.429812607744408"><ele>1178.0</ele><time>2026-04-05T08:32:14.001Z</time></trkpt><trkpt lat="41.812023329854775" lon="13.429939483482546"><ele>1178.0</ele><time>2026-04-05T08:32:16.001Z</time></trkpt><trkpt lat="41.811981770049066" lon="13.430083041304071"><ele>1178.0</ele><time>2026-04-05T08:32:18.001Z</time></trkpt><trkpt lat="41.811873102313825" lon="13.430134874965903"><ele>1178.0</ele><time>2026-04-05T08:32:20.001Z</time></trkpt><trkpt lat="41.8118027168212" lon="13.430167420661203"><ele>1175.0</ele><time>2026-04-05T08:32:21.001Z</time></trkpt><trkpt lat="41.81168089857502" lon="13.430135763728407"><ele>1172.0</ele><time>2026-04-05T08:32:23.001Z</time></trkpt><trkpt lat="41.81160143536833" lon="13.430081600540106"><ele>1169.0</ele><time>2026-04-05T08:32:24.001Z</time></trkpt><trkpt lat="41.811506688584466" lon="13.430011943460803"><ele>1166.0</ele><time>2026-04-05T08:32:25.001Z</time></trkpt><trkpt lat="41.81144386528354" lon="13.429982623595498"><ele>1163.0</ele><time>2026-04-05T08:32:26.001Z</time></trkpt><trkpt lat="41.8113280447735" lon="13.4300307446606"><ele>1163.0</ele><time>2026-04-05T08:32:28.001Z</time></trkpt><trkpt lat="41.81125134137856" lon="13.430073799448754"><ele>1163.0</ele><time>2026-04-05T08:32:29.001Z</time></trkpt><trkpt lat="41.81122709402001" lon="13.430154355258056"><ele>1163.0</ele><time>2026-04-05T08:32:30.001Z</time></trkpt><trkpt lat="41.811188948205505" lon="13.43023919537891"><ele>1163.0</ele><time>2026-04-05T08:32:31.001Z</time></trkpt><trkpt lat="41.81112017143593" lon="13.430289133004361"><ele>1163.0</ele><time>2026-04-05T08:32:32.001Z</time></trkpt><trkpt lat="41.811050692013836" lon="13.430277441013082"><ele>1163.0</ele><time>2026-04-05T08:32:33.001Z</time></trkpt><trkpt lat="41.81097424271102" lon="13.430288619849472"><ele>1163.0</ele><time>2026-04-05T08:32:34.001Z</time></trkpt><trkpt lat="41.81091837172131" lon="13.430395064330572"><ele>1162.8333333333335</ele><time>2026-04-05T08:32:36Z</time></trkpt><trkpt lat="41.81090491015554" lon="13.430541622041163"><ele>1162.6666666666667</ele><time>2026-04-05T08:32:38Z</time></trkpt><trkpt lat="41.81086709047894" lon="13.430664249307219"><ele>1162.5</ele><time>2026-04-05T08:32:40Z</time></trkpt><trkpt lat="41.81081560016369" lon="13.430727660967005"><ele>1162.3333333333333</ele><time>2026-04-05T08:32:41Z</time></trkpt><trkpt lat="41.81075415783693" lon="13.43076290567353"><ele>1162.1666666666665</ele><time>2026-04-05T08:32:42Z</time></trkpt><trkpt lat="41.810659798822854" lon="13.430765338061315"><ele>1162.0</ele><time>2026-04-05T08:32:43Z</time></trkpt><trkpt lat="41.81057188670192" lon="13.430770430761564"><ele>1162.0</ele><time>2026-04-05T08:32:44Z</time></trkpt><trkpt lat="41.81045042797093" lon="13.430825713276253"><ele>1162.0</ele><time>2026-04-05T08:32:46Z</time></trkpt><trkpt lat="41.81038529989855" lon="13.430879906860712"><ele>1162.0</ele><time>2026-04-05T08:32:47Z</time></trkpt><trkpt lat="41.81035115233945" lon="13.430963098629931"><ele>1162.0</ele><time>2026-04-05T08:32:48Z</time></trkpt><trkpt lat="41.81032265957523" lon="13.4311043280285"><ele>1162.0</ele><time>2026-04-05T08:32:50Z</time></trkpt><trkpt lat="41.81025347338093" lon="13.431147008128706"><ele>1160.6</ele><time>2026-04-05T08:32:52Z</time></trkpt><trkpt lat="41.81014741835101" lon="13.43112019034986"><ele>1159.2</ele><time>2026-04-05T08:32:54Z</time></trkpt><trkpt lat="41.810028379101986" lon="13.431064656714058"><ele>1157.8</ele><time>2026-04-05T08:32:56Z</time></trkpt><trkpt lat="41.80995879773078" lon="13.43103928392083"><ele>1156.4</ele><time>2026-04-05T08:32:57Z</time></trkpt><trkpt lat="41.809873740921816" lon="13.431002882847123"><ele>1155.0</ele><time>2026-04-05T08:32:59Z</time></trkpt><trkpt lat="41.80980955694133" lon="13.430971878927673"><ele>1155.0</ele><time>2026-04-05T08:33:03Z</time></trkpt><trkpt lat="41.80973799477021" lon="13.430901114620873"><ele>1155.0</ele><time>2026-04-05T08:33:09Z</time></trkpt><trkpt lat="41.80968841856352" lon="13.430845848662868"><ele>1155.0</ele><time>2026-04-05T08:33:12Z</time></trkpt><trkpt lat="41.80962289987076" lon="13.430822695004741"><ele>1155.0</ele><time>2026-04-05T08:33:15Z</time></trkpt><trkpt lat="41.809553778711546" lon="13.430752194518055"><ele>1155.0</ele><time>2026-04-05T08:33:23Z</time></trkpt><trkpt lat="41.809469440889046" lon="13.430721635727666"><ele>1155.0</ele><time>2026-04-05T08:33:26Z</time></trkpt><trkpt lat="41.80941212581921" lon="13.430648413350605"><ele>1155.0</ele><time>2026-04-05T08:33:29.001Z</time></trkpt><trkpt lat="41.80933591319752" lon="13.43068977082437"><ele>1155.0</ele><time>2026-04-05T08:33:36.001Z</time></trkpt><trkpt lat="41.809276027640536" lon="13.430742831610953"><ele>1155.0</ele><time>2026-04-05T08:33:39.001Z</time></trkpt><trkpt lat="41.80917297327816" lon="13.430765990101271"><ele>1155.0</ele><time>2026-04-05T08:33:41.001Z</time></trkpt><trkpt lat="41.80905113417169" lon="13.430753295671323"><ele>1155.0</ele><time>2026-04-05T08:33:43.001Z</time></trkpt><trkpt lat="41.80896283164959" lon="13.430767504880889"><ele>1153.857142857143</ele><time>2026-04-05T08:33:45.001Z</time></trkpt><trkpt lat="41.80886137650977" lon="13.430724235348993"><ele>1152.7142857142858</ele><time>2026-04-05T08:34:12.001Z</time></trkpt><trkpt lat="41.808793379121454" lon="13.43074931560218"><ele>1151.5714285714284</ele><time>2026-04-05T08:34:33.001Z</time></trkpt><trkpt lat="41.80874616312279" lon="13.430807499769289"><ele>1150.4285714285716</ele><time>2026-04-05T08:34:38.001Z</time></trkpt><trkpt lat="41.8086971844965" lon="13.430874866863467"><ele>1149.2857142857142</ele><time>2026-04-05T08:34:48Z</time></trkpt><trkpt lat="41.808648400499834" lon="13.430931361171197"><ele>1148.142857142857</ele><time>2026-04-05T08:34:57Z</time></trkpt><trkpt lat="41.808624725270874" lon="13.431015556275574"><ele>1147.0</ele><time>2026-04-05T08:35:03Z</time></trkpt><trkpt lat="41.80859911272402" lon="13.431117905302557"><ele>1147.0</ele><time>2026-04-05T08:35:36.001Z</time></trkpt><trkpt lat="41.80856986534157" lon="13.431221028374411"><ele>1147.0</ele><time>2026-04-05T08:35:48.001Z</time></trkpt><trkpt lat="41.80855613207138" lon="13.43132323042847"><ele>1147.0</ele><time>2026-04-05T08:36:47Z</time></trkpt><trkpt lat="41.808513714966395" lon="13.431389676154085"><ele>1147.0</ele><time>2026-04-05T08:36:56Z</time></trkpt><trkpt lat="41.80845176431629" lon="13.43141537768156"><ele>1147.0</ele><time>2026-04-05T08:37:08Z</time></trkpt><trkpt lat="41.80838898886398" lon="13.431432109466465"><ele>1147.0</ele><time>2026-04-05T08:37:23Z</time></trkpt><trkpt lat="41.8083357425687" lon="13.431361939605683"><ele>1147.0</ele><time>2026-04-05T08:37:28Z</time></trkpt><trkpt lat="41.8082909049378" lon="13.431296132248757"><ele>1143.5</ele><time>2026-04-05T08:37:31Z</time></trkpt><trkpt lat="41.80823346847665" lon="13.431236936191254"><ele>1140.0</ele><time>2026-04-05T08:37:37.001Z</time></trkpt><trkpt lat="41.80816605081883" lon="13.431166868365416"><ele>1136.5</ele><time>2026-04-05T08:37:53.001Z</time></trkpt><trkpt lat="41.80808718531419" lon="13.431134950056856"><ele>1133.0</ele><time>2026-04-05T08:37:57.001Z</time></trkpt><trkpt lat="41.808013271992564" lon="13.43110241501467"><ele>1129.5</ele><time>2026-04-05T08:38:03.001Z</time></trkpt><trkpt lat="41.8079577148207" lon="13.431055930451388"><ele>1126.0</ele><time>2026-04-05T08:38:08.001Z</time></trkpt><trkpt lat="41.807905432998446" lon="13.430995779575138"><ele>1126.0</ele><time>2026-04-05T08:38:10.001Z</time></trkpt><trkpt lat="41.8078182312189" lon="13.430912390524941"><ele>1126.0</ele><time>2026-04-05T08:38:12.001Z</time></trkpt><trkpt lat="41.807774191568065" lon="13.430848379287042"><ele>1126.0</ele><time>2026-04-05T08:38:14.001Z</time></trkpt><trkpt lat="41.807696465359726" lon="13.430711896401835"><ele>1126.0</ele><time>2026-04-05T08:38:29.001Z</time></trkpt><trkpt lat="41.80765961924255" lon="13.430622085629206"><ele>1126.0</ele><time>2026-04-05T08:38:32.001Z</time></trkpt><trkpt lat="41.807600728857786" lon="13.430526621710424"><ele>1125.857142857143</ele><time>2026-04-05T08:38:36.001Z</time></trkpt><trkpt lat="41.807543776805566" lon="13.43048559146316"><ele>1125.7142857142858</ele><time>2026-04-05T08:38:39.001Z</time></trkpt><trkpt lat="41.80748254820823" lon="13.43046095376589"><ele>1125.5714285714287</ele><time>2026-04-05T08:38:42.001Z</time></trkpt><trkpt lat="41.807418613030265" lon="13.430432614066774"><ele>1125.4285714285716</ele><time>2026-04-05T08:38:44.001Z</time></trkpt><trkpt lat="41.80734039267952" lon="13.43042707325457"><ele>1125.2857142857144</ele><time>2026-04-05T08:38:47.001Z</time></trkpt><trkpt lat="41.80727081881009" lon="13.430376119641833"><ele>1125.142857142857</ele><time>2026-04-05T08:38:50.002Z</time></trkpt><trkpt lat="41.80719617464246" lon="13.430345821760701"><ele>1125.0</ele><time>2026-04-05T08:38:52.002Z</time></trkpt><trkpt lat="41.8071332185739" lon="13.430302856524765"><ele>1122.2857142857142</ele><time>2026-04-05T08:38:55Z</time></trkpt><trkpt lat="41.8070669439995" lon="13.430282615215203"><ele>1119.5714285714287</ele><time>2026-04-05T08:38:59Z</time></trkpt><trkpt lat="41.80699302935984" lon="13.430265960810232"><ele>1116.857142857143</ele><time>2026-04-05T08:39:03Z</time></trkpt><trkpt lat="41.80692814924496" lon="13.430230950463542"><ele>1114.142857142857</ele><time>2026-04-05T08:39:06Z</time></trkpt><trkpt lat="41.806872653678745" lon="13.430189219545808"><ele>1111.4285714285716</ele><time>2026-04-05T08:39:09Z</time></trkpt><trkpt lat="41.80680747242481" lon="13.430202538232562"><ele>1108.7142857142858</ele><time>2026-04-05T08:39:12Z</time></trkpt><trkpt lat="41.80674870233649" lon="13.430259849865523"><ele>1106.0</ele><time>2026-04-05T08:39:15Z</time></trkpt><trkpt lat="41.80669365133489" lon="13.430305515434917"><ele>1106.0</ele><time>2026-04-05T08:39:17Z</time></trkpt><trkpt lat="41.80660809650569" lon="13.430307962518967"><ele>1106.0</ele><time>2026-04-05T08:39:19Z</time></trkpt><trkpt lat="41.806537045386506" lon="13.430362140101886"><ele>1106.0</ele><time>2026-04-05T08:39:23Z</time></trkpt><trkpt lat="41.8064737382019" lon="13.43038472773339"><ele>1106.0</ele><time>2026-04-05T08:39:26Z</time></trkpt><trkpt lat="41.806410698356586" lon="13.430443185659692"><ele>1106.0</ele><time>2026-04-05T08:39:29Z</time></trkpt><trkpt lat="41.8062179896969" lon="13.430559680504919"><ele>1106.0</ele><time>2026-04-05T08:39:32Z</time></trkpt><trkpt lat="41.806094339355774" lon="13.430633762754198"><ele>1106.0</ele><time>2026-04-05T08:39:34Z</time></trkpt><trkpt lat="41.80601450081445" lon="13.430687649297273"><ele>1106.0</ele><time>2026-04-05T08:39:35Z</time></trkpt><trkpt lat="41.805944257119826" lon="13.43070159174312"><ele>1106.0</ele><time>2026-04-05T08:39:36Z</time></trkpt><trkpt lat="41.805877279782386" lon="13.430717411632898"><ele>1106.0</ele><time>2026-04-05T08:39:37Z</time></trkpt><trkpt lat="41.80581242292517" lon="13.43073126019319"><ele>1106.0</ele><time>2026-04-05T08:39:38Z</time></trkpt><trkpt lat="41.805732778180406" lon="13.430807919788078"><ele>1106.0</ele><time>2026-04-05T08:39:41.001Z</time></trkpt><trkpt lat="41.80565395815788" lon="13.430836098282937"><ele>1106.0</ele><time>2026-04-05T08:39:42.001Z</time></trkpt><trkpt lat="41.80556458806784" lon="13.430906323499102"><ele>1106.0</ele><time>2026-04-05T08:39:44.001Z</time></trkpt><trkpt lat="41.80549909889807" lon="13.430879169948348"><ele>1106.0</ele><time>2026-04-05T08:39:45.001Z</time></trkpt><trkpt lat="41.80534782131816" lon="13.430904926418952"><ele>1106.0</ele><time>2026-04-05T08:39:47.001Z</time></trkpt><trkpt lat="41.80523536138561" lon="13.43095511670954"><ele>1104.5</ele><time>2026-04-05T08:39:49.001Z</time></trkpt><trkpt lat="41.80515897698334" lon="13.430969621879125"><ele>1103.0</ele><time>2026-04-05T08:39:50.001Z</time></trkpt><trkpt lat="41.80505483637391" lon="13.431007956766802"><ele>1101.5</ele><time>2026-04-05T08:39:51.001Z</time></trkpt><trkpt lat="41.80497990843843" lon="13.431019418932973"><ele>1100.0</ele><time>2026-04-05T08:39:52.001Z</time></trkpt><trkpt lat="41.804912596146174" lon="13.43102536773959"><ele>1098.5</ele><time>2026-04-05T08:39:53.001Z</time></trkpt><trkpt lat="41.80483768136063" lon="13.431049841158105"><ele>1097.0</ele><time>2026-04-05T08:39:54.001Z</time></trkpt><trkpt lat="41.80477044501909" lon="13.431075240390904"><ele>1097.0</ele><time>2026-04-05T08:39:55.001Z</time></trkpt><trkpt lat="41.80469356552046" lon="13.431123097204944"><ele>1097.0</ele><time>2026-04-05T08:39:56.001Z</time></trkpt><trkpt lat="41.80463563800589" lon="13.431159798259081"><ele>1097.0</ele><time>2026-04-05T08:39:57.001Z</time></trkpt><trkpt lat="41.80458024322141" lon="13.431221335455099"><ele>1097.0</ele><time>2026-04-05T08:39:59.001Z</time></trkpt><trkpt lat="41.80458651024614" lon="13.431335129765927"><ele>1097.0</ele><time>2026-04-05T08:40:03.001Z</time></trkpt><trkpt lat="41.804540744363315" lon="13.43143293974058"><ele>1097.0</ele><time>2026-04-05T08:40:05.001Z</time></trkpt><trkpt lat="41.804476283812114" lon="13.431477428768996"><ele>1097.5</ele><time>2026-04-05T08:40:06.001Z</time></trkpt><trkpt lat="41.80439401862798" lon="13.431503704925131"><ele>1098.0</ele><time>2026-04-05T08:40:07.001Z</time></trkpt><trkpt lat="41.80432469188289" lon="13.431528983966459"><ele>1098.5</ele><time>2026-04-05T08:40:08.001Z</time></trkpt><trkpt lat="41.80424847435695" lon="13.431552240589513"><ele>1099.0</ele><time>2026-04-05T08:40:10.001Z</time></trkpt><trkpt lat="41.80419345371333" lon="13.431634391452247"><ele>1099.5</ele><time>2026-04-05T08:40:12.001Z</time></trkpt><trkpt lat="41.80414301890656" lon="13.431710182516596"><ele>1100.0</ele><time>2026-04-05T08:40:14.001Z</time></trkpt><trkpt lat="41.80410121271655" lon="13.431780676486511"><ele>1100.0</ele><time>2026-04-05T08:40:15.001Z</time></trkpt><trkpt lat="41.80404306899199" lon="13.431837791751247"><ele>1100.0</ele><time>2026-04-05T08:40:16.001Z</time></trkpt><trkpt lat="41.803971698663595" lon="13.43187148812885"><ele>1100.0</ele><time>2026-04-05T08:40:17.001Z</time></trkpt><trkpt lat="41.8038859935519" lon="13.431881701876032"><ele>1100.0</ele><time>2026-04-05T08:40:18.001Z</time></trkpt><trkpt lat="41.8038020709262" lon="13.431881497559932"><ele>1100.0</ele><time>2026-04-05T08:40:19.001Z</time></trkpt><trkpt lat="41.80371932948708" lon="13.431881206729503"><ele>1100.0</ele><time>2026-04-05T08:40:20.001Z</time></trkpt><trkpt lat="41.803654323337746" lon="13.431896284069689"><ele>1100.0</ele><time>2026-04-05T08:40:21.001Z</time></trkpt><trkpt lat="41.80355189317755" lon="13.43193885166899"><ele>1100.0</ele><time>2026-04-05T08:40:23.001Z</time></trkpt><trkpt lat="41.80344038684569" lon="13.431917727824736"><ele>1100.0</ele><time>2026-04-05T08:40:25.001Z</time></trkpt><trkpt lat="41.80334619221247" lon="13.43191433824216"><ele>1100.0</ele><time>2026-04-05T08:40:27.001Z</time></trkpt><trkpt lat="41.803266720166995" lon="13.431943424816666"><ele>1100.0</ele><time>2026-04-05T08:40:29.001Z</time></trkpt><trkpt lat="41.80318516651025" lon="13.432050760421577"><ele>1100.6</ele><time>2026-04-05T08:40:31.001Z</time></trkpt><trkpt lat="41.80314678550265" lon="13.432208692801886"><ele>1101.2</ele><time>2026-04-05T08:40:33.001Z</time></trkpt><trkpt lat="41.80309609725894" lon="13.432324898877122"><ele>1101.8</ele><time>2026-04-05T08:40:35.001Z</time></trkpt><trkpt lat="41.80303393354005" lon="13.432359930145424"><ele>1102.4</ele><time>2026-04-05T08:40:36.001Z</time></trkpt><trkpt lat="41.802931781241526" lon="13.432377777014027"><ele>1103.0</ele><time>2026-04-05T08:40:38.001Z</time></trkpt><trkpt lat="41.80285373282304" lon="13.432387216138185"><ele>1103.0</ele><time>2026-04-05T08:40:40.001Z</time></trkpt><trkpt lat="41.80276741633559" lon="13.432305647953617"><ele>1103.0</ele><time>2026-04-05T08:40:44.001Z</time></trkpt><trkpt lat="41.802710663278745" lon="13.432213989879722"><ele>1103.0</ele><time>2026-04-05T08:40:46.001Z</time></trkpt><trkpt lat="41.80260367112486" lon="13.432105840124647"><ele>1103.0</ele><time>2026-04-05T08:40:48.001Z</time></trkpt><trkpt lat="41.80256885622643" lon="13.43200912358406"><ele>1103.0</ele><time>2026-04-05T08:40:49.001Z</time></trkpt><trkpt lat="41.80252538902048" lon="13.431944477747155"><ele>1098.2</ele><time>2026-04-05T08:40:50.001Z</time></trkpt><trkpt lat="41.802464684831435" lon="13.431808649633714"><ele>1093.4</ele><time>2026-04-05T08:40:52.001Z</time></trkpt><trkpt lat="41.80239678078786" lon="13.431694811362238"><ele>1088.6000000000001</ele><time>2026-04-05T08:40:54.001Z</time></trkpt><trkpt lat="41.80236795713689" lon="13.431581493460534"><ele>1083.8</ele><time>2026-04-05T08:40:56.002Z</time></trkpt><trkpt lat="41.802372032745446" lon="13.431488785486515"><ele>1079.0</ele><time>2026-04-05T08:40:58.002Z</time></trkpt><trkpt lat="41.80236594118385" lon="13.431359539213318"><ele>1074.6666666666667</ele><time>2026-04-05T08:41:00Z</time></trkpt><trkpt lat="41.802291485051335" lon="13.431231635172084"><ele>1070.3333333333335</ele><time>2026-04-05T08:41:02Z</time></trkpt><trkpt lat="41.8022312985072" lon="13.431154075953579"><ele>1066.0</ele><time>2026-04-05T08:41:03Z</time></trkpt><trkpt lat="41.802173699887284" lon="13.431104639636986"><ele>1061.6666666666667</ele><time>2026-04-05T08:41:05Z</time></trkpt><trkpt lat="41.80207080975122" lon="13.43111352762903"><ele>1057.3333333333333</ele><time>2026-04-05T08:41:07Z</time></trkpt><trkpt lat="41.802004491714165" lon="13.431129684727232"><ele>1053.0</ele><time>2026-04-05T08:41:08Z</time></trkpt><trkpt lat="41.80192546820728" lon="13.43114780702467"><ele>1053.4</ele><time>2026-04-05T08:41:10Z</time></trkpt><trkpt lat="41.80182321020279" lon="13.431131091810208"><ele>1053.8</ele><time>2026-04-05T08:41:13Z</time></trkpt><trkpt lat="41.80173207908303" lon="13.431117132518425"><ele>1054.2</ele><time>2026-04-05T08:41:15Z</time></trkpt><trkpt lat="41.8016325111135" lon="13.431138389851398"><ele>1054.6</ele><time>2026-04-05T08:41:17Z</time></trkpt><trkpt lat="41.80153574397947" lon="13.431187777313854"><ele>1055.0</ele><time>2026-04-05T08:41:19Z</time></trkpt><trkpt lat="41.801439603376245" lon="13.431192153514262"><ele>1055.0</ele><time>2026-04-05T08:41:21Z</time></trkpt><trkpt lat="41.801349348127864" lon="13.431139379805126"><ele>1055.0</ele><time>2026-04-05T08:41:23Z</time></trkpt><trkpt lat="41.80128001888563" lon="13.431088785418893"><ele>1055.0</ele><time>2026-04-05T08:41:25Z</time></trkpt><trkpt lat="41.80118619146223" lon="13.431034465967967"><ele>1055.0</ele><time>2026-04-05T08:41:27Z</time></trkpt><trkpt lat="41.801100589569195" lon="13.431068680813576"><ele>1055.0</ele><time>2026-04-05T08:41:30Z</time></trkpt><trkpt lat="41.801024546904074" lon="13.431137388421137"><ele>1053.8333333333335</ele><time>2026-04-05T08:41:32Z</time></trkpt><trkpt lat="41.80095478204866" lon="13.431239310670959"><ele>1052.6666666666667</ele><time>2026-04-05T08:41:34Z</time></trkpt><trkpt lat="41.800885363266325" lon="13.43128934945362"><ele>1051.5</ele><time>2026-04-05T08:41:35Z</time></trkpt><trkpt lat="41.80081588189271" lon="13.431312126669544"><ele>1050.3333333333333</ele><time>2026-04-05T08:41:36Z</time></trkpt><trkpt lat="41.800732333048416" lon="13.431304765853707"><ele>1049.1666666666665</ele><time>2026-04-05T08:41:37Z</time></trkpt><trkpt lat="41.80062885025485" lon="13.431277774551258"><ele>1048.0</ele><time>2026-04-05T08:41:38Z</time></trkpt><trkpt lat="41.800541979040254" lon="13.431258696908689"><ele>1048.0</ele><time>2026-04-05T08:41:39Z</time></trkpt><trkpt lat="41.80047338855472" lon="13.431240803451795"><ele>1048.0</ele><time>2026-04-05T08:41:40Z</time></trkpt><trkpt lat="41.800385225270006" lon="13.431275392692328"><ele>1048.0</ele><time>2026-04-05T08:41:42Z</time></trkpt><trkpt lat="41.80034780740737" lon="13.431411570221083"><ele>1048.0</ele><time>2026-04-05T08:41:44Z</time></trkpt><trkpt lat="41.80031896723043" lon="13.431499360551625"><ele>1048.0</ele><time>2026-04-05T08:41:45Z</time></trkpt><trkpt lat="41.80029253806062" lon="13.431585625020729"><ele>1048.0</ele><time>2026-04-05T08:41:46.001Z</time></trkpt><trkpt lat="41.800218233453464" lon="13.431651715073668"><ele>1048.4</ele><time>2026-04-05T08:41:48.001Z</time></trkpt><trkpt lat="41.80016540063308" lon="13.431599026767682"><ele>1048.8</ele><time>2026-04-05T08:41:49.001Z</time></trkpt><trkpt lat="41.800110913979225" lon="13.431499258245559"><ele>1049.2</ele><time>2026-04-05T08:41:50.001Z</time></trkpt><trkpt lat="41.80004812225631" lon="13.431375489775432"><ele>1049.6</ele><time>2026-04-05T08:41:51.001Z</time></trkpt><trkpt lat="41.79997209354297" lon="13.431271029755557"><ele>1050.0</ele><time>2026-04-05T08:41:52.001Z</time></trkpt><trkpt lat="41.79991505818894" lon="13.431196646995817"><ele>1050.0</ele><time>2026-04-05T08:41:53.001Z</time></trkpt><trkpt lat="41.79979059303104" lon="13.431197428449687"><ele>1050.0</ele><time>2026-04-05T08:41:55.001Z</time></trkpt><trkpt lat="41.79972005798395" lon="13.431228311625972"><ele>1050.0</ele><time>2026-04-05T08:41:56.001Z</time></trkpt><trkpt lat="41.79963664108462" lon="13.431285825324075"><ele>1050.0</ele><time>2026-04-05T08:41:57.001Z</time></trkpt><trkpt lat="41.799521811557625" lon="13.431334319222062"><ele>1050.0</ele><time>2026-04-05T08:41:58.001Z</time></trkpt><trkpt lat="41.79941960119813" lon="13.431398954789996"><ele>1053.6666666666667</ele><time>2026-04-05T08:41:59.001Z</time></trkpt><trkpt lat="41.799336992550856" lon="13.431448402824744"><ele>1057.3333333333333</ele><time>2026-04-05T08:42:00.001Z</time></trkpt><trkpt lat="41.799262546244755" lon="13.431484239743353"><ele>1061.0</ele><time>2026-04-05T08:42:01.001Z</time></trkpt><trkpt lat="41.79917539814913" lon="13.431494919626322"><ele>1064.6666666666665</ele><time>2026-04-05T08:42:02.001Z</time></trkpt><trkpt lat="41.79911053694877" lon="13.431460328294355"><ele>1068.3333333333333</ele><time>2026-04-05T08:42:03.001Z</time></trkpt><trkpt lat="41.79904617063322" lon="13.431399183958492"><ele>1072.0</ele><time>2026-04-05T08:42:04.001Z</time></trkpt><trkpt lat="41.7989319903142" lon="13.431432567368269"><ele>1072.4</ele><time>2026-04-05T08:42:06.001Z</time></trkpt><trkpt lat="41.798873775820745" lon="13.431524490285776"><ele>1072.8000000000002</ele><time>2026-04-05T08:42:07.001Z</time></trkpt><trkpt lat="41.79879990066159" lon="13.43165707375105"><ele>1073.2</ele><time>2026-04-05T08:42:08.001Z</time></trkpt><trkpt lat="41.79871436050049" lon="13.431739461497491"><ele>1073.6000000000001</ele><time>2026-04-05T08:42:09.001Z</time></trkpt><trkpt lat="41.79861581782582" lon="13.431813863734412"><ele>1074.0</ele><time>2026-04-05T08:42:10.001Z</time></trkpt><trkpt lat="41.798508052607076" lon="13.431858204110956"><ele>1072.3333333333333</ele><time>2026-04-05T08:42:11.001Z</time></trkpt><trkpt lat="41.7984112730806" lon="13.431915447860543"><ele>1070.6666666666667</ele><time>2026-04-05T08:42:12.001Z</time></trkpt><trkpt lat="41.79830950355725" lon="13.431958371646221"><ele>1069.0</ele><time>2026-04-05T08:42:13.001Z</time></trkpt><trkpt lat="41.7982450451018" lon="13.431992558941838"><ele>1067.3333333333335</ele><time>2026-04-05T08:42:14.001Z</time></trkpt><trkpt lat="41.79814369700841" lon="13.431966662566934"><ele>1065.6666666666667</ele><time>2026-04-05T08:42:16.001Z</time></trkpt><trkpt lat="41.79811500488604" lon="13.431891095186206"><ele>1064.0</ele><time>2026-04-05T08:42:18.001Z</time></trkpt><trkpt lat="41.79815753732885" lon="13.431710438175736"><ele>1064.0</ele><time>2026-04-05T08:42:20.001Z</time></trkpt><trkpt lat="41.798200756999165" lon="13.431599208336287"><ele>1064.0</ele><time>2026-04-05T08:42:21.001Z</time></trkpt><trkpt lat="41.79823539486855" lon="13.43148405659857"><ele>1064.0</ele><time>2026-04-05T08:42:22.001Z</time></trkpt><trkpt lat="41.79823984172356" lon="13.431385838341958"><ele>1064.0</ele><time>2026-04-05T08:42:23.001Z</time></trkpt><trkpt lat="41.79822871847785" lon="13.43129497363185"><ele>1064.0</ele><time>2026-04-05T08:42:24.001Z</time></trkpt><trkpt lat="41.79820686522015" lon="13.43121349868952"><ele>1064.0</ele><time>2026-04-05T08:42:25.001Z</time></trkpt><trkpt lat="41.79815792901949" lon="13.431137363154981"><ele>1063.0</ele><time>2026-04-05T08:42:26.001Z</time></trkpt><trkpt lat="41.79809078671518" lon="13.431060499133089"><ele>1062.0</ele><time>2026-04-05T08:42:27.001Z</time></trkpt><trkpt lat="41.79802298540216" lon="13.430970213512051"><ele>1061.0</ele><time>2026-04-05T08:42:28.001Z</time></trkpt><trkpt lat="41.797963859209275" lon="13.430897788783861"><ele>1060.0</ele><time>2026-04-05T08:42:29.001Z</time></trkpt><trkpt lat="41.79788096776739" lon="13.43086265533333"><ele>1059.0</ele><time>2026-04-05T08:42:31.001Z</time></trkpt><trkpt lat="41.797793324314526" lon="13.43087731970473"><ele>1058.0</ele><time>2026-04-05T08:42:32.001Z</time></trkpt><trkpt lat="41.79771637185585" lon="13.430880511884208"><ele>1061.8</ele><time>2026-04-05T08:42:33.001Z</time></trkpt><trkpt lat="41.797598827213264" lon="13.430832650428904"><ele>1065.6</ele><time>2026-04-05T08:42:34.001Z</time></trkpt><trkpt lat="41.79746310957436" lon="13.430839809640103"><ele>1069.4</ele><time>2026-04-05T08:42:35.001Z</time></trkpt><trkpt lat="41.797373898410726" lon="13.430832946561463"><ele>1073.2</ele><time>2026-04-05T08:42:36.001Z</time></trkpt><trkpt lat="41.797305247239926" lon="13.43081311846137"><ele>1077.0</ele><time>2026-04-05T08:42:37.001Z</time></trkpt><trkpt lat="41.79724693277132" lon="13.430781266230507"><ele>1077.0</ele><time>2026-04-05T08:42:38.001Z</time></trkpt><trkpt lat="41.797192061138034" lon="13.430671586784996"><ele>1077.0</ele><time>2026-04-05T08:42:40.001Z</time></trkpt><trkpt lat="41.797192302258864" lon="13.430540449689508"><ele>1077.0</ele><time>2026-04-05T08:42:41.001Z</time></trkpt><trkpt lat="41.797169539407776" lon="13.430418371604983"><ele>1077.0</ele><time>2026-04-05T08:42:42.001Z</time></trkpt><trkpt lat="41.797119616404665" lon="13.430326857581301"><ele>1077.0</ele><time>2026-04-05T08:42:43.001Z</time></trkpt><trkpt lat="41.797070315143706" lon="13.430246047483386"><ele>1073.8333333333333</ele><time>2026-04-05T08:42:44.001Z</time></trkpt><trkpt lat="41.797025396625564" lon="13.430185802517238"><ele>1070.6666666666667</ele><time>2026-04-05T08:42:45.001Z</time></trkpt><trkpt lat="41.7969384174566" lon="13.43013044915027"><ele>1067.5</ele><time>2026-04-05T08:42:47.001Z</time></trkpt><trkpt lat="41.79687513703807" lon="13.430086016477505"><ele>1064.3333333333335</ele><time>2026-04-05T08:42:48.001Z</time></trkpt><trkpt lat="41.796801915257554" lon="13.430037649540617"><ele>1061.1666666666667</ele><time>2026-04-05T08:42:49.001Z</time></trkpt><trkpt lat="41.79672362198548" lon="13.429924524067635"><ele>1058.0</ele><time>2026-04-05T08:42:51.001Z</time></trkpt><trkpt lat="41.796728791553356" lon="13.429829439922553"><ele>1061.3333333333335</ele><time>2026-04-05T08:42:52.001Z</time></trkpt><trkpt lat="41.796696617016316" lon="13.429721866325913"><ele>1064.6666666666667</ele><time>2026-04-05T08:42:53.001Z</time></trkpt><trkpt lat="41.7966754926789" lon="13.429635517156761"><ele>1068.0</ele><time>2026-04-05T08:42:54.001Z</time></trkpt><trkpt lat="41.796642365724026" lon="13.429549596161788"><ele>1071.3333333333333</ele><time>2026-04-05T08:42:55.001Z</time></trkpt><trkpt lat="41.79661855095019" lon="13.429426207453734"><ele>1074.6666666666665</ele><time>2026-04-05T08:42:56.001Z</time></trkpt><trkpt lat="41.796582004887924" lon="13.42931221559273"><ele>1078.0</ele><time>2026-04-05T08:42:57.001Z</time></trkpt><trkpt lat="41.796523649242275" lon="13.42923669418566"><ele>1078.0</ele><time>2026-04-05T08:42:58.001Z</time></trkpt><trkpt lat="41.796476782471835" lon="13.429138448113275"><ele>1078.0</ele><time>2026-04-05T08:42:59.001Z</time></trkpt><trkpt lat="41.79641101585758" lon="13.429060487392839"><ele>1078.0</ele><time>2026-04-05T08:43:00.001Z</time></trkpt><trkpt lat="41.7963481721901" lon="13.42894532480499"><ele>1078.0</ele><time>2026-04-05T08:43:01.001Z</time></trkpt><trkpt lat="41.79629231923637" lon="13.428863917949549"><ele>1078.0</ele><time>2026-04-05T08:43:02.001Z</time></trkpt><trkpt lat="41.796227629501345" lon="13.428824158277639"><ele>1078.0</ele><time>2026-04-05T08:43:03.001Z</time></trkpt><trkpt lat="41.796155630705584" lon="13.428766937564241"><ele>1075.8333333333333</ele><time>2026-04-05T08:43:04.002Z</time></trkpt><trkpt lat="41.796089562825514" lon="13.428739113722523"><ele>1073.6666666666665</ele><time>2026-04-05T08:43:05Z</time></trkpt><trkpt lat="41.79601331226212" lon="13.428741009266732"><ele>1071.5</ele><time>2026-04-05T08:43:06Z</time></trkpt><trkpt lat="41.795939127085035" lon="13.428720634536575"><ele>1069.3333333333333</ele><time>2026-04-05T08:43:07Z</time></trkpt><trkpt lat="41.795839656476446" lon="13.42871923670723"><ele>1067.1666666666667</ele><time>2026-04-05T08:43:08Z</time></trkpt><trkpt lat="41.79572927670902" lon="13.428758082001666"><ele>1065.0</ele><time>2026-04-05T08:43:09Z</time></trkpt><trkpt lat="41.79563128167327" lon="13.42880491299702"><ele>1065.0</ele><time>2026-04-05T08:43:10Z</time></trkpt><trkpt lat="41.795543021467324" lon="13.42884145420386"><ele>1065.0</ele><time>2026-04-05T08:43:11Z</time></trkpt><trkpt lat="41.79544168497583" lon="13.42884725244375"><ele>1065.0</ele><time>2026-04-05T08:43:13Z</time></trkpt><trkpt lat="41.79535890831003" lon="13.428727656157598"><ele>1065.0</ele><time>2026-04-05T08:43:15Z</time></trkpt><trkpt lat="41.79531783724138" lon="13.428646719407672"><ele>1065.0</ele><time>2026-04-05T08:43:16Z</time></trkpt><trkpt lat="41.79527780550931" lon="13.42852091972935"><ele>1065.0</ele><time>2026-04-05T08:43:17Z</time></trkpt><trkpt lat="41.795250473547355" lon="13.42840839255243"><ele>1065.0</ele><time>2026-04-05T08:43:18Z</time></trkpt><trkpt lat="41.795198259095365" lon="13.428299637939919"><ele>1065.0</ele><time>2026-04-05T08:43:19Z</time></trkpt><trkpt lat="41.79514445093264" lon="13.42820490595283"><ele>1065.0</ele><time>2026-04-05T08:43:20Z</time></trkpt><trkpt lat="41.79510867819007" lon="13.428132217034754"><ele>1065.0</ele><time>2026-04-05T08:43:21Z</time></trkpt><trkpt lat="41.795035575021096" lon="13.428053252346121"><ele>1065.0</ele><time>2026-04-05T08:43:22Z</time></trkpt><trkpt lat="41.79495385336478" lon="13.427989536801311"><ele>1063.6</ele><time>2026-04-05T08:43:23Z</time></trkpt><trkpt lat="41.794885007745826" lon="13.427946781756624"><ele>1062.2</ele><time>2026-04-05T08:43:24Z</time></trkpt><trkpt lat="41.79479120746296" lon="13.427912183539313"><ele>1060.8</ele><time>2026-04-05T08:43:25Z</time></trkpt><trkpt lat="41.79469855700165" lon="13.427909065511072"><ele>1059.4</ele><time>2026-04-05T08:43:26Z</time></trkpt><trkpt lat="41.79458873877893" lon="13.427916258420662"><ele>1058.0</ele><time>2026-04-05T08:43:27Z</time></trkpt><trkpt lat="41.794488496510276" lon="13.42792076028512"><ele>1058.0</ele><time>2026-04-05T08:43:28Z</time></trkpt><trkpt lat="41.794423726970315" lon="13.427893996309098"><ele>1058.0</ele><time>2026-04-05T08:43:29Z</time></trkpt><trkpt lat="41.79431421357926" lon="13.427810903256272"><ele>1058.0</ele><time>2026-04-05T08:43:31Z</time></trkpt><trkpt lat="41.79424384173704" lon="13.42773069178473"><ele>1058.0</ele><time>2026-04-05T08:43:32Z</time></trkpt><trkpt lat="41.794143704308034" lon="13.427765287304934"><ele>1058.0</ele><time>2026-04-05T08:43:34Z</time></trkpt><trkpt lat="41.794052956672175" lon="13.427755994034667"><ele>1061.0</ele><time>2026-04-05T08:43:35Z</time></trkpt><trkpt lat="41.79396641736012" lon="13.427758360282235"><ele>1064.0</ele><time>2026-04-05T08:43:37Z</time></trkpt><trkpt lat="41.7938857116916" lon="13.427662463389796"><ele>1067.0</ele><time>2026-04-05T08:43:39Z</time></trkpt><trkpt lat="41.793821316880745" lon="13.427529487795892"><ele>1070.0</ele><time>2026-04-05T08:43:41Z</time></trkpt><trkpt lat="41.79376294436281" lon="13.427447570619496"><ele>1073.0</ele><time>2026-04-05T08:43:42Z</time></trkpt><trkpt lat="41.79372701916771" lon="13.427356151306444"><ele>1073.0</ele><time>2026-04-05T08:43:43Z</time></trkpt><trkpt lat="41.79369377144983" lon="13.427230285756952"><ele>1073.0</ele><time>2026-04-05T08:43:44Z</time></trkpt><trkpt lat="41.793679359982136" lon="13.427140299971706"><ele>1073.0</ele><time>2026-04-05T08:43:45Z</time></trkpt><trkpt lat="41.79366956028034" lon="13.4270471684132"><ele>1073.0</ele><time>2026-04-05T08:43:46Z</time></trkpt><trkpt lat="41.79364181467448" lon="13.426951894421743"><ele>1073.0</ele><time>2026-04-05T08:43:47Z</time></trkpt><trkpt lat="41.79358959424264" lon="13.426823529718048"><ele>1073.0</ele><time>2026-04-05T08:43:49Z</time></trkpt><trkpt lat="41.79350381532835" lon="13.426817357670556"><ele>1073.2</ele><time>2026-04-05T08:43:51Z</time></trkpt><trkpt lat="41.79342325511954" lon="13.426878160422474"><ele>1073.4</ele><time>2026-04-05T08:43:53.001Z</time></trkpt><trkpt lat="41.79337165566985" lon="13.426949298154407"><ele>1073.6000000000001</ele><time>2026-04-05T08:43:54.001Z</time></trkpt><trkpt lat="41.793323238723026" lon="13.427038331392225"><ele>1073.8</ele><time>2026-04-05T08:43:55.001Z</time></trkpt><trkpt lat="41.79325669144951" lon="13.427164150290368"><ele>1074.0</ele><time>2026-04-05T08:43:56.001Z</time></trkpt><trkpt lat="41.7932184496054" lon="13.427316179260172"><ele>1074.0</ele><time>2026-04-05T08:43:57.001Z</time></trkpt><trkpt lat="41.79319201168804" lon="13.427448578858588"><ele>1074.0</ele><time>2026-04-05T08:43:58.001Z</time></trkpt><trkpt lat="41.79315703821773" lon="13.42760894591629"><ele>1074.0</ele><time>2026-04-05T08:43:59.001Z</time></trkpt><trkpt lat="41.79315026940014" lon="13.427724458603443"><ele>1074.0</ele><time>2026-04-05T08:44:00.001Z</time></trkpt><trkpt lat="41.793147683102774" lon="13.427853701128338"><ele>1074.0</ele><time>2026-04-05T08:44:01.001Z</time></trkpt><trkpt lat="41.79315052512209" lon="13.427963575200815"><ele>1077.4</ele><time>2026-04-05T08:44:02.001Z</time></trkpt><trkpt lat="41.793145563535866" lon="13.428049030782875"><ele>1080.8000000000002</ele><time>2026-04-05T08:44:03.001Z</time></trkpt><trkpt lat="41.79306599196166" lon="13.428141076784504"><ele>1084.1999999999998</ele><time>2026-04-05T08:44:05.001Z</time></trkpt><trkpt lat="41.792916874545966" lon="13.42813281437119"><ele>1087.6</ele><time>2026-04-05T08:44:07.001Z</time></trkpt><trkpt lat="41.79279708394703" lon="13.428139343679542"><ele>1091.0</ele><time>2026-04-05T08:44:08.001Z</time></trkpt><trkpt lat="41.79271822761902" lon="13.42818076702041"><ele>1087.2</ele><time>2026-04-05T08:44:09.001Z</time></trkpt><trkpt lat="41.79263673323579" lon="13.428244826193476"><ele>1083.3999999999999</ele><time>2026-04-05T08:44:10.001Z</time></trkpt><trkpt lat="41.79255115936007" lon="13.428342920733684"><ele>1079.6</ele><time>2026-04-05T08:44:11.001Z</time></trkpt><trkpt lat="41.792469706731985" lon="13.42844942400919"><ele>1075.8</ele><time>2026-04-05T08:44:12.001Z</time></trkpt><trkpt lat="41.792372558380784" lon="13.428509582235147"><ele>1072.0</ele><time>2026-04-05T08:44:13.001Z</time></trkpt><trkpt lat="41.79225012394926" lon="13.42854182732613"><ele>1072.0</ele><time>2026-04-05T08:44:14.001Z</time></trkpt><trkpt lat="41.79211808792556" lon="13.428572114044611"><ele>1072.0</ele><time>2026-04-05T08:44:15.001Z</time></trkpt><trkpt lat="41.792000498446264" lon="13.428578509643016"><ele>1072.0</ele><time>2026-04-05T08:44:16.001Z</time></trkpt><trkpt lat="41.79188695036345" lon="13.428568599288297"><ele>1072.0</ele><time>2026-04-05T08:44:17.001Z</time></trkpt><trkpt lat="41.791789001117856" lon="13.428569938198448"><ele>1072.4</ele><time>2026-04-05T08:44:18.001Z</time></trkpt><trkpt lat="41.79166921300543" lon="13.428612996056925"><ele>1072.8000000000002</ele><time>2026-04-05T08:44:20.001Z</time></trkpt><trkpt lat="41.79159638470759" lon="13.42865696573897"><ele>1073.2</ele><time>2026-04-05T08:44:21.001Z</time></trkpt><trkpt lat="41.79153025954443" lon="13.428742115541276"><ele>1073.6000000000001</ele><time>2026-04-05T08:44:22.001Z</time></trkpt><trkpt lat="41.79147021478435" lon="13.428859321595528"><ele>1074.0</ele><time>2026-04-05T08:44:23.001Z</time></trkpt><trkpt lat="41.79144236232514" lon="13.428960358261278"><ele>1074.0</ele><time>2026-04-05T08:44:24.001Z</time></trkpt><trkpt lat="41.791412247652794" lon="13.429080083019723"><ele>1074.0</ele><time>2026-04-05T08:44:25.001Z</time></trkpt><trkpt lat="41.79138934835131" lon="13.429202772540265"><ele>1074.0</ele><time>2026-04-05T08:44:26.001Z</time></trkpt><trkpt lat="41.791344517580825" lon="13.429327180765434"><ele>1074.0</ele><time>2026-04-05T08:44:27.001Z</time></trkpt><trkpt lat="41.79130020018977" lon="13.429436008917861"><ele>1074.0</ele><time>2026-04-05T08:44:28.001Z</time></trkpt><trkpt lat="41.79126934923264" lon="13.429528242827121"><ele>1074.0</ele><time>2026-04-05T08:44:29.001Z</time></trkpt><trkpt lat="41.79128382156349" lon="13.42963844521362"><ele>1074.0</ele><time>2026-04-05T08:44:31.001Z</time></trkpt><trkpt lat="41.79132614836919" lon="13.429715454638536"><ele>1074.0</ele><time>2026-04-05T08:44:32.001Z</time></trkpt><trkpt lat="41.791368862000795" lon="13.429830797584156"><ele>1074.0</ele><time>2026-04-05T08:44:33.001Z</time></trkpt><trkpt lat="41.791391942028596" lon="13.429943410449216"><ele>1074.0</ele><time>2026-04-05T08:44:34.001Z</time></trkpt><trkpt lat="41.79138994720929" lon="13.430098205409697"><ele>1076.2</ele><time>2026-04-05T08:44:35.001Z</time></trkpt><trkpt lat="41.791382712512785" lon="13.430222984119299"><ele>1078.4</ele><time>2026-04-05T08:44:36.001Z</time></trkpt><trkpt lat="41.791338351065114" lon="13.430375502572849"><ele>1080.6</ele><time>2026-04-05T08:44:38.001Z</time></trkpt><trkpt lat="41.79128797605774" lon="13.430449405396505"><ele>1082.8</ele><time>2026-04-05T08:44:39.001Z</time></trkpt><trkpt lat="41.79120662751467" lon="13.430570991235282"><ele>1085.0</ele><time>2026-04-05T08:44:40.001Z</time></trkpt><trkpt lat="41.79116605773999" lon="13.430654404136375"><ele>1085.0</ele><time>2026-04-05T08:44:41.001Z</time></trkpt><trkpt lat="41.79107827296242" lon="13.430655576290263"><ele>1085.0</ele><time>2026-04-05T08:44:44.001Z</time></trkpt><trkpt lat="41.79106141405611" lon="13.43054130092911"><ele>1085.0</ele><time>2026-04-05T08:44:46.001Z</time></trkpt><trkpt lat="41.79104198793735" lon="13.430387241294225"><ele>1085.0</ele><time>2026-04-05T08:44:48.001Z</time></trkpt><trkpt lat="41.79102628700368" lon="13.430266072307331"><ele>1085.0</ele><time>2026-04-05T08:44:49.001Z</time></trkpt><trkpt lat="41.790942389575164" lon="13.430121044768562"><ele>1083.4</ele><time>2026-04-05T08:44:51.001Z</time></trkpt><trkpt lat="41.79088092163403" lon="13.430077688722324"><ele>1081.8</ele><time>2026-04-05T08:44:52.001Z</time></trkpt><trkpt lat="41.79081729892201" lon="13.429967190240314"><ele>1080.2</ele><time>2026-04-05T08:44:53.001Z</time></trkpt><trkpt lat="41.79073907313538" lon="13.429864774250845"><ele>1078.6</ele><time>2026-04-05T08:44:54.001Z</time></trkpt><trkpt lat="41.790674468531435" lon="13.429755315278554"><ele>1077.0</ele><time>2026-04-05T08:44:55.001Z</time></trkpt><trkpt lat="41.790619138604725" lon="13.429652221000422"><ele>1074.2</ele><time>2026-04-05T08:44:56.001Z</time></trkpt><trkpt lat="41.7905718641502" lon="13.429520653321163"><ele>1071.4</ele><time>2026-04-05T08:44:57.001Z</time></trkpt><trkpt lat="41.790531905161345" lon="13.42937727317855"><ele>1068.6</ele><time>2026-04-05T08:44:58.001Z</time></trkpt><trkpt lat="41.79051074747667" lon="13.429251627694699"><ele>1065.8</ele><time>2026-04-05T08:44:59.001Z</time></trkpt><trkpt lat="41.79047877118698" lon="13.429152754199801"><ele>1063.0</ele><time>2026-04-05T08:45:00.001Z</time></trkpt><trkpt lat="41.790447748807075" lon="13.429054562435455"><ele>1063.0</ele><time>2026-04-05T08:45:01.001Z</time></trkpt><trkpt lat="41.79038453470259" lon="13.42890029339947"><ele>1063.0</ele><time>2026-04-05T08:45:02.001Z</time></trkpt><trkpt lat="41.790321924763695" lon="13.428764607455042"><ele>1063.0</ele><time>2026-04-05T08:45:03.001Z</time></trkpt><trkpt lat="41.79027668521996" lon="13.428618564534485"><ele>1063.0</ele><time>2026-04-05T08:45:04.001Z</time></trkpt><trkpt lat="41.790257377464336" lon="13.428515969998207"><ele>1063.0</ele><time>2026-04-05T08:45:05.001Z</time></trkpt><trkpt lat="41.790244790986165" lon="13.428398094562043"><ele>1060.6666666666665</ele><time>2026-04-05T08:45:06.001Z</time></trkpt><trkpt lat="41.790223442893954" lon="13.428266957096225"><ele>1058.3333333333333</ele><time>2026-04-05T08:45:07.001Z</time></trkpt><trkpt lat="41.79019421273248" lon="13.428162979593294"><ele>1056.0</ele><time>2026-04-05T08:45:08.001Z</time></trkpt><trkpt lat="41.79018116378788" lon="13.42807944721018"><ele>1053.6666666666667</ele><time>2026-04-05T08:45:09.001Z</time></trkpt><trkpt lat="41.79018679934422" lon="13.427988719979755"><ele>1051.3333333333335</ele><time>2026-04-05T08:45:10.001Z</time></trkpt><trkpt lat="41.79019287801158" lon="13.427848943121996"><ele>1049.0</ele><time>2026-04-05T08:45:11Z</time></trkpt><trkpt lat="41.790209972075225" lon="13.427720885544042"><ele>1049.0</ele><time>2026-04-05T08:45:12Z</time></trkpt><trkpt lat="41.790223165323816" lon="13.427600404766173"><ele>1049.0</ele><time>2026-04-05T08:45:13Z</time></trkpt><trkpt lat="41.79024448552032" lon="13.427492907987729"><ele>1049.0</ele><time>2026-04-05T08:45:14Z</time></trkpt><trkpt lat="41.790284942512876" lon="13.42740434630872"><ele>1049.0</ele><time>2026-04-05T08:45:15Z</time></trkpt><trkpt lat="41.79031701489988" lon="13.427306486972592"><ele>1049.0</ele><time>2026-04-05T08:45:16Z</time></trkpt><trkpt lat="41.790375179610265" lon="13.427167299294366"><ele>1051.1666666666667</ele><time>2026-04-05T08:45:18Z</time></trkpt><trkpt lat="41.79041347478664" lon="13.427096919564608"><ele>1053.3333333333335</ele><time>2026-04-05T08:45:19Z</time></trkpt><trkpt lat="41.790448683945854" lon="13.426997263243182"><ele>1055.5</ele><time>2026-04-05T08:45:21Z</time></trkpt><trkpt lat="41.79039279237138" lon="13.426922833880152"><ele>1057.6666666666667</ele><time>2026-04-05T08:45:23Z</time></trkpt><trkpt lat="41.790306605067414" lon="13.426971008842147"><ele>1059.8333333333333</ele><time>2026-04-05T08:45:25Z</time></trkpt><trkpt lat="41.79023798598024" lon="13.427027170334831"><ele>1062.0</ele><time>2026-04-05T08:45:26Z</time></trkpt><trkpt lat="41.79014254599254" lon="13.427097453400322"><ele>1065.8333333333333</ele><time>2026-04-05T08:45:27Z</time></trkpt><trkpt lat="41.79006446228717" lon="13.427155645768096"><ele>1069.6666666666667</ele><time>2026-04-05T08:45:28Z</time></trkpt><trkpt lat="41.79000208418073" lon="13.427202700108127"><ele>1073.5</ele><time>2026-04-05T08:45:29Z</time></trkpt><trkpt lat="41.7899377191494" lon="13.427261997779194"><ele>1077.3333333333335</ele><time>2026-04-05T08:45:30Z</time></trkpt><trkpt lat="41.78988220309302" lon="13.427314564735036"><ele>1081.1666666666667</ele><time>2026-04-05T08:45:31Z</time></trkpt><trkpt lat="41.789824522829136" lon="13.427472503790888"><ele>1085.0</ele><time>2026-04-05T08:45:33Z</time></trkpt><trkpt lat="41.78979881989579" lon="13.427562784181482"><ele>1085.0</ele><time>2026-04-05T08:45:34Z</time></trkpt><trkpt lat="41.789783506760976" lon="13.427684411199715"><ele>1085.0</ele><time>2026-04-05T08:45:35Z</time></trkpt><trkpt lat="41.78976540820589" lon="13.42781853397568"><ele>1085.0</ele><time>2026-04-05T08:45:36Z</time></trkpt><trkpt lat="41.78974866707209" lon="13.427924162702832"><ele>1085.0</ele><time>2026-04-05T08:45:37Z</time></trkpt><trkpt lat="41.789717788664774" lon="13.428011488196734"><ele>1085.0</ele><time>2026-04-05T08:45:38Z</time></trkpt><trkpt lat="41.78966757165903" lon="13.428088785318566"><ele>1085.0</ele><time>2026-04-05T08:45:39Z</time></trkpt><trkpt lat="41.789595890408734" lon="13.428167688841969"><ele>1086.1666666666667</ele><time>2026-04-05T08:45:40Z</time></trkpt><trkpt lat="41.789521714313366" lon="13.42820716072472"><ele>1087.3333333333335</ele><time>2026-04-05T08:45:41Z</time></trkpt><trkpt lat="41.789408112403784" lon="13.428265598618601"><ele>1088.5</ele><time>2026-04-05T08:45:42Z</time></trkpt><trkpt lat="41.789332330507236" lon="13.428306573177238"><ele>1089.6666666666667</ele><time>2026-04-05T08:45:43Z</time></trkpt><trkpt lat="41.78927305335647" lon="13.428346257628341"><ele>1090.8333333333333</ele><time>2026-04-05T08:45:44Z</time></trkpt><trkpt lat="41.789174781287876" lon="13.428353972293877"><ele>1092.0</ele><time>2026-04-05T08:45:46Z</time></trkpt><trkpt lat="41.789108689516816" lon="13.428275321154164"><ele>1096.25</ele><time>2026-04-05T08:45:48Z</time></trkpt><trkpt lat="41.7890831432229" lon="13.428144106961932"><ele>1100.5</ele><time>2026-04-05T08:45:50Z</time></trkpt><trkpt lat="41.789124568073916" lon="13.42793346205753"><ele>1104.75</ele><time>2026-04-05T08:45:52Z</time></trkpt><trkpt lat="41.78915643247682" lon="13.42778689696716"><ele>1109.0</ele><time>2026-04-05T08:45:53Z</time></trkpt><trkpt lat="41.78915643130683" lon="13.427671329911924"><ele>1109.0</ele><time>2026-04-05T08:45:54Z</time></trkpt><trkpt lat="41.78915639453416" lon="13.427563432305233"><ele>1109.0</ele><time>2026-04-05T08:45:55Z</time></trkpt><trkpt lat="41.78906213353844" lon="13.427485724325544"><ele>1109.0</ele><time>2026-04-05T08:45:56Z</time></trkpt><trkpt lat="41.789033650046925" lon="13.427393050898742"><ele>1109.0</ele><time>2026-04-05T08:45:57Z</time></trkpt><trkpt lat="41.78898477363358" lon="13.427309377640665"><ele>1109.0</ele><time>2026-04-05T08:45:58Z</time></trkpt><trkpt lat="41.78893836912283" lon="13.427240012880112"><ele>1109.0</ele><time>2026-04-05T08:45:59Z</time></trkpt><trkpt lat="41.78888844137558" lon="13.427115389746954"><ele>1109.0</ele><time>2026-04-05T08:46:01.001Z</time></trkpt><trkpt lat="41.788860641575496" lon="13.427035740255851"><ele>1109.0</ele><time>2026-04-05T08:46:02.001Z</time></trkpt><trkpt lat="41.78885971441743" lon="13.426905851576207"><ele>1109.0</ele><time>2026-04-05T08:46:03.001Z</time></trkpt><trkpt lat="41.788849320424255" lon="13.426789852278278"><ele>1109.0</ele><time>2026-04-05T08:46:04.001Z</time></trkpt><trkpt lat="41.78887263951985" lon="13.426679964877499"><ele>1109.0</ele><time>2026-04-05T08:46:05.001Z</time></trkpt><trkpt lat="41.78892961518465" lon="13.426540346445604"><ele>1109.0</ele><time>2026-04-05T08:46:06.001Z</time></trkpt><trkpt lat="41.78895556914721" lon="13.426445643649773"><ele>1109.0</ele><time>2026-04-05T08:46:07.001Z</time></trkpt><trkpt lat="41.78898001280454" lon="13.426325299463146"><ele>1109.0</ele><time>2026-04-05T08:46:08.001Z</time></trkpt><trkpt lat="41.78901208046157" lon="13.426191633836495"><ele>1109.0</ele><time>2026-04-05T08:46:09.001Z</time></trkpt><trkpt lat="41.789031919066375" lon="13.426081346874463"><ele>1109.0</ele><time>2026-04-05T08:46:10.001Z</time></trkpt><trkpt lat="41.789022221254854" lon="13.425943267594226"><ele>1109.6000000000001</ele><time>2026-04-05T08:46:12.001Z</time></trkpt><trkpt lat="41.78902284624838" lon="13.4258565290191"><ele>1110.2</ele><time>2026-04-05T08:46:13.001Z</time></trkpt><trkpt lat="41.78896616750783" lon="13.42572053232577"><ele>1110.8000000000002</ele><time>2026-04-05T08:46:15.001Z</time></trkpt><trkpt lat="41.788883376289974" lon="13.425634041249062"><ele>1111.4</ele><time>2026-04-05T08:46:17.001Z</time></trkpt><trkpt lat="41.78874619727921" lon="13.425658396255784"><ele>1112.0</ele><time>2026-04-05T08:46:19.001Z</time></trkpt><trkpt lat="41.788648780146985" lon="13.425727141635594"><ele>1112.0</ele><time>2026-04-05T08:46:20.001Z</time></trkpt><trkpt lat="41.78853937665531" lon="13.425832720116615"><ele>1112.0</ele><time>2026-04-05T08:46:21.001Z</time></trkpt><trkpt lat="41.788435858041225" lon="13.42593066714454"><ele>1112.0</ele><time>2026-04-05T08:46:22.001Z</time></trkpt><trkpt lat="41.78836328761001" lon="13.42601706646249"><ele>1112.0</ele><time>2026-04-05T08:46:23.001Z</time></trkpt><trkpt lat="41.78829824128309" lon="13.426086121674468"><ele>1112.0</ele><time>2026-04-05T08:46:24.001Z</time></trkpt><trkpt lat="41.78822629323145" lon="13.426114391018949"><ele>1114.0</ele><time>2026-04-05T08:46:25.001Z</time></trkpt><trkpt lat="41.78814018530936" lon="13.426121713198548"><ele>1116.0</ele><time>2026-04-05T08:46:26.001Z</time></trkpt><trkpt lat="41.78807182352273" lon="13.426084667251295"><ele>1118.0</ele><time>2026-04-05T08:46:27.001Z</time></trkpt><trkpt lat="41.78799664256432" lon="13.42602215221775"><ele>1120.0</ele><time>2026-04-05T08:46:28.001Z</time></trkpt><trkpt lat="41.78790028249365" lon="13.425924804648844"><ele>1122.0</ele><time>2026-04-05T08:46:29.001Z</time></trkpt><trkpt lat="41.78780396134106" lon="13.425833329899"><ele>1122.0</ele><time>2026-04-05T08:46:30.001Z</time></trkpt><trkpt lat="41.787721438817826" lon="13.42577238160928"><ele>1122.0</ele><time>2026-04-05T08:46:31.001Z</time></trkpt><trkpt lat="41.787641892116795" lon="13.425742980634425"><ele>1122.0</ele><time>2026-04-05T08:46:32.001Z</time></trkpt><trkpt lat="41.78754710895817" lon="13.425750189562342"><ele>1122.0</ele><time>2026-04-05T08:46:33.001Z</time></trkpt><trkpt lat="41.7874521958748" lon="13.425766122379033"><ele>1122.0</ele><time>2026-04-05T08:46:34.001Z</time></trkpt><trkpt lat="41.78736168567836" lon="13.425765413213785"><ele>1122.0</ele><time>2026-04-05T08:46:35.001Z</time></trkpt><trkpt lat="41.78726660603024" lon="13.425722601993096"><ele>1122.0</ele><time>2026-04-05T08:46:36.001Z</time></trkpt><trkpt lat="41.78717240806562" lon="13.425640834070679"><ele>1122.0</ele><time>2026-04-05T08:46:37.001Z</time></trkpt><trkpt lat="41.78708777810177" lon="13.425566459743683"><ele>1122.0</ele><time>2026-04-05T08:46:38.001Z</time></trkpt><trkpt lat="41.78700103876632" lon="13.425549043632747"><ele>1122.0</ele><time>2026-04-05T08:46:39.001Z</time></trkpt><trkpt lat="41.786896010802856" lon="13.425542769559083"><ele>1123.6666666666667</ele><time>2026-04-05T08:46:40.001Z</time></trkpt><trkpt lat="41.78681492201667" lon="13.425544448032964"><ele>1125.3333333333333</ele><time>2026-04-05T08:46:41.001Z</time></trkpt><trkpt lat="41.786738622715504" lon="13.425565791624965"><ele>1127.0</ele><time>2026-04-05T08:46:42.001Z</time></trkpt><trkpt lat="41.78666416031802" lon="13.42561842468317"><ele>1128.6666666666665</ele><time>2026-04-05T08:46:43.001Z</time></trkpt><trkpt lat="41.78658541006336" lon="13.425669906114184"><ele>1130.3333333333333</ele><time>2026-04-05T08:46:44.001Z</time></trkpt><trkpt lat="41.78648747257349" lon="13.425708287989128"><ele>1132.0</ele><time>2026-04-05T08:46:45.001Z</time></trkpt><trkpt lat="41.786398634207735" lon="13.42571979004896"><ele>1132.0</ele><time>2026-04-05T08:46:46.001Z</time></trkpt><trkpt lat="41.7863266999792" lon="13.425721067447594"><ele>1132.0</ele><time>2026-04-05T08:46:47.001Z</time></trkpt><trkpt lat="41.786225075490776" lon="13.425725489829762"><ele>1132.0</ele><time>2026-04-05T08:47:29Z</time></trkpt><trkpt lat="41.78615568713677" lon="13.425729741876742"><ele>1132.0</ele><time>2026-04-05T08:52:07Z</time></trkpt><trkpt lat="41.786040733732335" lon="13.425764527541133"><ele>1132.0</ele><time>2026-04-05T08:52:10Z</time></trkpt><trkpt lat="41.78594827971698" lon="13.425790631909218"><ele>1132.4</ele><time>2026-04-05T08:52:11Z</time></trkpt><trkpt lat="41.78587228168156" lon="13.425828879711798"><ele>1132.8000000000002</ele><time>2026-04-05T08:52:12Z</time></trkpt><trkpt lat="41.785806159993896" lon="13.425958283776053"><ele>1133.2</ele><time>2026-04-05T08:52:14Z</time></trkpt><trkpt lat="41.78579940517009" lon="13.426069482276391"><ele>1133.6000000000001</ele><time>2026-04-05T08:52:15Z</time></trkpt><trkpt lat="41.785797711259626" lon="13.426212472890523"><ele>1134.0</ele><time>2026-04-05T08:52:16Z</time></trkpt><trkpt lat="41.785793971235435" lon="13.426375553312162"><ele>1134.0</ele><time>2026-04-05T08:52:17Z</time></trkpt><trkpt lat="41.78578788569291" lon="13.426501389173652"><ele>1134.0</ele><time>2026-04-05T08:52:18Z</time></trkpt><trkpt lat="41.78577476381861" lon="13.426628983980951"><ele>1134.0</ele><time>2026-04-05T08:52:19.001Z</time></trkpt><trkpt lat="41.78573965452823" lon="13.426738606576036"><ele>1134.0</ele><time>2026-04-05T08:52:20.001Z</time></trkpt><trkpt lat="41.78569587318791" lon="13.426824707308393"><ele>1134.0</ele><time>2026-04-05T08:52:21.001Z</time></trkpt><trkpt lat="41.78565487199977" lon="13.426930067321958"><ele>1134.0</ele><time>2026-04-05T08:52:22.001Z</time></trkpt><trkpt lat="41.78561007339289" lon="13.427048902592913"><ele>1134.0</ele><time>2026-04-05T08:52:23.001Z</time></trkpt><trkpt lat="41.78553278229955" lon="13.427102953919254"><ele>1134.0</ele><time>2026-04-05T08:52:24.001Z</time></trkpt><trkpt lat="41.78543422249435" lon="13.427149447366622"><ele>1134.0</ele><time>2026-04-05T08:52:25.001Z</time></trkpt><trkpt lat="41.785341120190125" lon="13.427159776011141"><ele>1134.0</ele><time>2026-04-05T08:52:26.001Z</time></trkpt><trkpt lat="41.78524864742836" lon="13.42716563878094"><ele>1134.0</ele><time>2026-04-05T08:52:27.001Z</time></trkpt><trkpt lat="41.78515628553027" lon="13.427166926392069"><ele>1134.8</ele><time>2026-04-05T08:52:28.001Z</time></trkpt><trkpt lat="41.78506207128525" lon="13.427155028649912"><ele>1135.6000000000001</ele><time>2026-04-05T08:52:29.001Z</time></trkpt><trkpt lat="41.78498548285584" lon="13.427112232709947"><ele>1136.4</ele><time>2026-04-05T08:52:30.001Z</time></trkpt><trkpt lat="41.784921704082" lon="13.427028150922057"><ele>1137.2</ele><time>2026-04-05T08:52:31.001Z</time></trkpt><trkpt lat="41.78481292253182" lon="13.426932685036453"><ele>1138.0</ele><time>2026-04-05T08:52:33.001Z</time></trkpt><trkpt lat="41.784735012879814" lon="13.426945574016564"><ele>1133.5</ele><time>2026-04-05T08:52:34.001Z</time></trkpt><trkpt lat="41.784658455534256" lon="13.42697226840657"><ele>1129.0</ele><time>2026-04-05T08:52:35.001Z</time></trkpt><trkpt lat="41.784586008969654" lon="13.427024050329294"><ele>1124.5</ele><time>2026-04-05T08:52:36.001Z</time></trkpt><trkpt lat="41.784520643681724" lon="13.427051176151657"><ele>1120.0</ele><time>2026-04-05T08:52:37.001Z</time></trkpt><trkpt lat="41.78441804103483" lon="13.42697505158128"><ele>1115.5</ele><time>2026-04-05T08:52:39.001Z</time></trkpt><trkpt lat="41.784376337815125" lon="13.426870596592126"><ele>1111.0</ele><time>2026-04-05T08:52:40.001Z</time></trkpt><trkpt lat="41.78434674839087" lon="13.426765449880621"><ele>1109.8333333333333</ele><time>2026-04-05T08:52:41.001Z</time></trkpt><trkpt lat="41.78432389032098" lon="13.426685368818584"><ele>1108.6666666666665</ele><time>2026-04-05T08:52:42.001Z</time></trkpt><trkpt lat="41.7842446339293" lon="13.426614835625456"><ele>1107.5</ele><time>2026-04-05T08:52:44.001Z</time></trkpt><trkpt lat="41.78416214454957" lon="13.426690162381812"><ele>1106.3333333333333</ele><time>2026-04-05T08:52:46.001Z</time></trkpt><trkpt lat="41.78413652466622" lon="13.426786183175233"><ele>1105.1666666666667</ele><time>2026-04-05T08:52:47.001Z</time></trkpt><trkpt lat="41.78412730255687" lon="13.426904112501889"><ele>1104.0</ele><time>2026-04-05T08:52:48.001Z</time></trkpt><trkpt lat="41.78413356569801" lon="13.42704781467795"><ele>1107.0</ele><time>2026-04-05T08:52:49.001Z</time></trkpt><trkpt lat="41.78414162148377" lon="13.427182810265544"><ele>1110.0</ele><time>2026-04-05T08:52:50.001Z</time></trkpt><trkpt lat="41.78412540479643" lon="13.427304746958018"><ele>1113.0</ele><time>2026-04-05T08:52:51.001Z</time></trkpt><trkpt lat="41.78406892756041" lon="13.427399554511295"><ele>1116.0</ele><time>2026-04-05T08:52:52.001Z</time></trkpt><trkpt lat="41.78400861515804" lon="13.42746837741606"><ele>1119.0</ele><time>2026-04-05T08:52:53.001Z</time></trkpt><trkpt lat="41.78395158774269" lon="13.427526945830698"><ele>1122.0</ele><time>2026-04-05T08:52:54.001Z</time></trkpt><trkpt lat="41.78388980303312" lon="13.427576813764459"><ele>1122.0</ele><time>2026-04-05T08:52:55.001Z</time></trkpt><trkpt lat="41.78382242275092" lon="13.427588498865752"><ele>1122.0</ele><time>2026-04-05T08:52:56.001Z</time></trkpt><trkpt lat="41.78373924515441" lon="13.427588051885278"><ele>1122.0</ele><time>2026-04-05T08:52:57.001Z</time></trkpt><trkpt lat="41.78365867714539" lon="13.427593937570911"><ele>1122.0</ele><time>2026-04-05T08:52:58.001Z</time></trkpt><trkpt lat="41.78358945373999" lon="13.427620851807458"><ele>1122.0</ele><time>2026-04-05T08:52:59.001Z</time></trkpt><trkpt lat="41.7835172656606" lon="13.427545198865975"><ele>1122.0</ele><time>2026-04-05T08:53:01.001Z</time></trkpt><trkpt lat="41.783488709739764" lon="13.427384901202586"><ele>1121.0</ele><time>2026-04-05T08:53:03.001Z</time></trkpt><trkpt lat="41.783491909675995" lon="13.427296122718435"><ele>1120.0</ele><time>2026-04-05T08:53:04.001Z</time></trkpt><trkpt lat="41.783412344796254" lon="13.427176918800448"><ele>1119.0</ele><time>2026-04-05T08:53:06.001Z</time></trkpt><trkpt lat="41.78333275051472" lon="13.42716118459453"><ele>1118.0</ele><time>2026-04-05T08:53:07.001Z</time></trkpt><trkpt lat="41.7832554029078" lon="13.427180716088163"><ele>1117.0</ele><time>2026-04-05T08:53:08.001Z</time></trkpt><trkpt lat="41.7831769499625" lon="13.427235841885913"><ele>1116.0</ele><time>2026-04-05T08:53:09.001Z</time></trkpt><trkpt lat="41.783086758576474" lon="13.427313401727671"><ele>1116.0</ele><time>2026-04-05T08:53:10.001Z</time></trkpt><trkpt lat="41.78300339647705" lon="13.427353352654823"><ele>1116.0</ele><time>2026-04-05T08:53:11.001Z</time></trkpt><trkpt lat="41.78292896536887" lon="13.427337049752186"><ele>1116.0</ele><time>2026-04-05T08:53:12.001Z</time></trkpt><trkpt lat="41.782818399062215" lon="13.427212623981045"><ele>1116.0</ele><time>2026-04-05T08:53:14.001Z</time></trkpt><trkpt lat="41.782769158690975" lon="13.427132709331667"><ele>1116.0</ele><time>2026-04-05T08:53:15.001Z</time></trkpt><trkpt lat="41.782709016539926" lon="13.427083308623192"><ele>1112.3999999999999</ele><time>2026-04-05T08:53:16.001Z</time></trkpt><trkpt lat="41.78261871709742" lon="13.427058431411885"><ele>1108.8</ele><time>2026-04-05T08:53:17.001Z</time></trkpt><trkpt lat="41.782523341373526" lon="13.427042604352286"><ele>1105.1999999999998</ele><time>2026-04-05T08:53:18.001Z</time></trkpt><trkpt lat="41.782431515733585" lon="13.426996128908346"><ele>1101.6</ele><time>2026-04-05T08:53:19.001Z</time></trkpt><trkpt lat="41.782343238935354" lon="13.426936842370539"><ele>1098.0</ele><time>2026-04-05T08:53:20.001Z</time></trkpt><trkpt lat="41.78226701331794" lon="13.426891361390638"><ele>1098.0</ele><time>2026-04-05T08:53:21.001Z</time></trkpt><trkpt lat="41.782202712967255" lon="13.426871363147283"><ele>1098.0</ele><time>2026-04-05T08:53:22.001Z</time></trkpt><trkpt lat="41.78212486758335" lon="13.426891769353993"><ele>1098.0</ele><time>2026-04-05T08:53:23.001Z</time></trkpt><trkpt lat="41.782067012063706" lon="13.426965371842979"><ele>1098.0</ele><time>2026-04-05T08:53:24.001Z</time></trkpt><trkpt lat="41.78203237100841" lon="13.427069934530186"><ele>1098.0</ele><time>2026-04-05T08:53:25.001Z</time></trkpt><trkpt lat="41.78199147488299" lon="13.427184201085698"><ele>1098.0</ele><time>2026-04-05T08:53:26.001Z</time></trkpt><trkpt lat="41.78192753357249" lon="13.4273058979617"><ele>1100.8</ele><time>2026-04-05T08:53:27.001Z</time></trkpt><trkpt lat="41.781839621741284" lon="13.427392439035028"><ele>1103.6</ele><time>2026-04-05T08:53:28.001Z</time></trkpt><trkpt lat="41.7817498292191" lon="13.427458971557511"><ele>1106.4</ele><time>2026-04-05T08:53:29.001Z</time></trkpt><trkpt lat="41.7816606245371" lon="13.427522252920578"><ele>1109.2</ele><time>2026-04-05T08:53:30.001Z</time></trkpt><trkpt lat="41.7815617266489" lon="13.427566743963991"><ele>1112.0</ele><time>2026-04-05T08:53:31.001Z</time></trkpt><trkpt lat="41.78145988143633" lon="13.427582768727591"><ele>1112.0</ele><time>2026-04-05T08:53:32.001Z</time></trkpt><trkpt lat="41.781369949148946" lon="13.427579988815028"><ele>1112.0</ele><time>2026-04-05T08:53:33.001Z</time></trkpt><trkpt lat="41.78128773017481" lon="13.427559780920367"><ele>1112.0</ele><time>2026-04-05T08:53:34.001Z</time></trkpt><trkpt lat="41.78120244944102" lon="13.427533599039597"><ele>1112.0</ele><time>2026-04-05T08:53:35Z</time></trkpt><trkpt lat="41.78110356648262" lon="13.427507447605098"><ele>1112.0</ele><time>2026-04-05T08:53:36Z</time></trkpt><trkpt lat="41.78100370747891" lon="13.427465144443188"><ele>1111.8333333333335</ele><time>2026-04-05T08:53:37Z</time></trkpt><trkpt lat="41.780910353180445" lon="13.42743789990852"><ele>1111.6666666666667</ele><time>2026-04-05T08:53:38Z</time></trkpt><trkpt lat="41.7808324081956" lon="13.427438688427165"><ele>1111.5</ele><time>2026-04-05T08:53:39Z</time></trkpt><trkpt lat="41.78076491237949" lon="13.427481270129471"><ele>1111.3333333333333</ele><time>2026-04-05T08:53:40Z</time></trkpt><trkpt lat="41.78069945141903" lon="13.42754457983916"><ele>1111.1666666666665</ele><time>2026-04-05T08:53:41Z</time></trkpt><trkpt lat="41.78062773442657" lon="13.427596284286926"><ele>1111.0</ele><time>2026-04-05T08:53:42Z</time></trkpt><trkpt lat="41.78055537155307" lon="13.427599649944254"><ele>1111.0</ele><time>2026-04-05T08:53:43Z</time></trkpt><trkpt lat="41.78047696036159" lon="13.427553288064312"><ele>1111.0</ele><time>2026-04-05T08:53:44Z</time></trkpt><trkpt lat="41.780371617137845" lon="13.427496191788654"><ele>1111.0</ele><time>2026-04-05T08:53:45Z</time></trkpt><trkpt lat="41.78026121968242" lon="13.427449352285421"><ele>1111.0</ele><time>2026-04-05T08:53:46Z</time></trkpt><trkpt lat="41.78015591666501" lon="13.42741115182478"><ele>1111.0</ele><time>2026-04-05T08:53:47Z</time></trkpt><trkpt lat="41.78006693655641" lon="13.427373383234475"><ele>1109.2</ele><time>2026-04-05T08:53:48Z</time></trkpt><trkpt lat="41.779980797538705" lon="13.427307257254657"><ele>1107.3999999999999</ele><time>2026-04-05T08:53:49Z</time></trkpt><trkpt lat="41.77989526723096" lon="13.427203627966739"><ele>1105.6</ele><time>2026-04-05T08:53:50Z</time></trkpt><trkpt lat="41.779832277896034" lon="13.427070200035336"><ele>1103.8</ele><time>2026-04-05T08:53:51Z</time></trkpt><trkpt lat="41.779764807493926" lon="13.426951734604009"><ele>1102.0</ele><time>2026-04-05T08:53:52Z</time></trkpt><trkpt lat="41.77970326761607" lon="13.426846891361995"><ele>1102.0</ele><time>2026-04-05T08:53:53Z</time></trkpt><trkpt lat="41.779647771224255" lon="13.426750075463115"><ele>1102.0</ele><time>2026-04-05T08:53:54Z</time></trkpt><trkpt lat="41.779598929548406" lon="13.426667479927493"><ele>1102.0</ele><time>2026-04-05T08:53:55Z</time></trkpt><trkpt lat="41.77953046829805" lon="13.426624085663674"><ele>1102.0</ele><time>2026-04-05T08:53:56Z</time></trkpt><trkpt lat="41.7794428412146" lon="13.42659622304344"><ele>1102.0</ele><time>2026-04-05T08:53:57Z</time></trkpt><trkpt lat="41.779352330721274" lon="13.426613438917952"><ele>1102.0</ele><time>2026-04-05T08:53:58Z</time></trkpt><trkpt lat="41.7792686396478" lon="13.426655532043728"><ele>1103.0</ele><time>2026-04-05T08:53:59Z</time></trkpt><trkpt lat="41.77918768976427" lon="13.426724953155393"><ele>1104.0</ele><time>2026-04-05T08:54:00Z</time></trkpt><trkpt lat="41.779107906792255" lon="13.426813359131271"><ele>1105.0</ele><time>2026-04-05T08:54:01Z</time></trkpt><trkpt lat="41.77903875751809" lon="13.426913609038818"><ele>1106.0</ele><time>2026-04-05T08:54:02Z</time></trkpt><trkpt lat="41.77897212344853" lon="13.427005011780562"><ele>1107.0</ele><time>2026-04-05T08:54:03Z</time></trkpt><trkpt lat="41.7788989879409" lon="13.427063273896103"><ele>1107.0</ele><time>2026-04-05T08:54:04Z</time></trkpt><trkpt lat="41.77882531985897" lon="13.427093487815442"><ele>1107.0</ele><time>2026-04-05T08:54:05Z</time></trkpt><trkpt lat="41.778759797367435" lon="13.427121979541564"><ele>1107.0</ele><time>2026-04-05T08:54:06Z</time></trkpt><trkpt lat="41.77867958455105" lon="13.4272155635393"><ele>1107.0</ele><time>2026-04-05T08:54:08Z</time></trkpt><trkpt lat="41.77862278485976" lon="13.427282907100517"><ele>1107.0</ele><time>2026-04-05T08:54:10Z</time></trkpt><trkpt lat="41.778535165845554" lon="13.427370143034654"><ele>1107.0</ele><time>2026-04-05T08:54:12Z</time></trkpt><trkpt lat="41.778431320906655" lon="13.427466432143857"><ele>1105.6666666666667</ele><time>2026-04-05T08:54:14Z</time></trkpt><trkpt lat="41.778351297555304" lon="13.427486298724574"><ele>1104.3333333333333</ele><time>2026-04-05T08:54:15Z</time></trkpt><trkpt lat="41.778272486777674" lon="13.427482717875654"><ele>1103.0</ele><time>2026-04-05T08:54:16Z</time></trkpt><trkpt lat="41.77820951816057" lon="13.42746109146159"><ele>1101.6666666666665</ele><time>2026-04-05T08:54:17Z</time></trkpt><trkpt lat="41.77810392510935" lon="13.427409271143958"><ele>1100.3333333333333</ele><time>2026-04-05T08:54:19Z</time></trkpt><trkpt lat="41.77801648026817" lon="13.427349472770173"><ele>1099.0</ele><time>2026-04-05T08:54:21Z</time></trkpt><trkpt lat="41.777902980926626" lon="13.427279982515667"><ele>1099.0</ele><time>2026-04-05T08:54:23Z</time></trkpt><trkpt lat="41.77784228389118" lon="13.42723472140229"><ele>1099.0</ele><time>2026-04-05T08:54:25Z</time></trkpt><trkpt lat="41.777762461380895" lon="13.42717512122668"><ele>1099.0</ele><time>2026-04-05T08:54:27Z</time></trkpt><trkpt lat="41.77765487361166" lon="13.427188027569372"><ele>1099.0</ele><time>2026-04-05T08:54:29Z</time></trkpt><trkpt lat="41.77757334738202" lon="13.427211521195586"><ele>1099.0</ele><time>2026-04-05T08:54:31.001Z</time></trkpt><trkpt lat="41.777504656808055" lon="13.427228139928712"><ele>1099.0</ele><time>2026-04-05T08:54:33.001Z</time></trkpt><trkpt lat="41.77741233495887" lon="13.427184586528254"><ele>1096.0</ele><time>2026-04-05T08:54:35.001Z</time></trkpt><trkpt lat="41.77736017024425" lon="13.427077884821612"><ele>1093.0</ele><time>2026-04-05T08:54:37.001Z</time></trkpt><trkpt lat="41.77741800499611" lon="13.426996289499789"><ele>1090.0</ele><time>2026-04-05T08:54:39.001Z</time></trkpt><trkpt lat="41.77748186716858" lon="13.426956650482293"><ele>1087.0</ele><time>2026-04-05T08:54:43.001Z</time></trkpt><trkpt lat="41.7775002847307" lon="13.426851826061137"><ele>1084.0</ele><time>2026-04-05T08:54:46.001Z</time></trkpt><trkpt lat="41.777513912895515" lon="13.426748967471145"><ele>1081.0</ele><time>2026-04-05T08:54:49.001Z</time></trkpt><trkpt lat="41.7775439823151" lon="13.426662678907917"><ele>1081.0</ele><time>2026-04-05T08:54:52.001Z</time></trkpt><trkpt lat="41.777574290779974" lon="13.426552486405475"><ele>1081.0</ele><time>2026-04-05T08:54:56.001Z</time></trkpt><trkpt lat="41.77758681353809" lon="13.426467163482915"><ele>1081.0</ele><time>2026-04-05T08:54:57.001Z</time></trkpt><trkpt lat="41.777638822410964" lon="13.426276553445133"><ele>1081.0</ele><time>2026-04-05T08:54:58.001Z</time></trkpt><trkpt lat="41.77761925346049" lon="13.4261627222017"><ele>1081.0</ele><time>2026-04-05T08:54:59.001Z</time></trkpt><trkpt lat="41.77758557552533" lon="13.426057528066838"><ele>1079.0</ele><time>2026-04-05T08:55:00.001Z</time></trkpt><trkpt lat="41.777573673220495" lon="13.425956861418568"><ele>1077.0</ele><time>2026-04-05T08:55:01.001Z</time></trkpt><trkpt lat="41.7775686382862" lon="13.42587270204478"><ele>1075.0</ele><time>2026-04-05T08:55:02.001Z</time></trkpt><trkpt lat="41.77762274690358" lon="13.425717045088588"><ele>1073.0</ele><time>2026-04-05T08:55:04.001Z</time></trkpt><trkpt lat="41.77764938821403" lon="13.425625253105567"><ele>1071.0</ele><time>2026-04-05T08:55:05.001Z</time></trkpt><trkpt lat="41.777636422393044" lon="13.425495684979863"><ele>1069.0</ele><time>2026-04-05T08:55:06.001Z</time></trkpt><trkpt lat="41.777587223765" lon="13.425324351901656"><ele>1067.8</ele><time>2026-04-05T08:55:07.001Z</time></trkpt><trkpt lat="41.777579019709776" lon="13.425178199951324"><ele>1066.6000000000001</ele><time>2026-04-05T08:55:08.001Z</time></trkpt><trkpt lat="41.777527880297086" lon="13.425038730765422"><ele>1065.4</ele><time>2026-04-05T08:55:09.001Z</time></trkpt><trkpt lat="41.777503818855735" lon="13.42489987472806"><ele>1064.2</ele><time>2026-04-05T08:55:10.001Z</time></trkpt><trkpt lat="41.777496732635946" lon="13.424755190284648"><ele>1063.0</ele><time>2026-04-05T08:55:11.001Z</time></trkpt><trkpt lat="41.7774981595115" lon="13.424608780804311"><ele>1062.2</ele><time>2026-04-05T08:55:12.001Z</time></trkpt><trkpt lat="41.77748346898121" lon="13.42446768418742"><ele>1061.4</ele><time>2026-04-05T08:55:13.001Z</time></trkpt><trkpt lat="41.777454631744746" lon="13.424346178324432"><ele>1060.6000000000001</ele><time>2026-04-05T08:55:14.001Z</time></trkpt><trkpt lat="41.777449054729196" lon="13.424213337576624"><ele>1059.8</ele><time>2026-04-05T08:55:15.001Z</time></trkpt><trkpt lat="41.77743810161929" lon="13.424083579091393"><ele>1059.0</ele><time>2026-04-05T08:55:16.001Z</time></trkpt><trkpt lat="41.77742135124355" lon="13.423958386588506"><ele>1059.0</ele><time>2026-04-05T08:55:17.001Z</time></trkpt><trkpt lat="41.777418308620014" lon="13.423833682744656"><ele>1059.0</ele><time>2026-04-05T08:55:18.001Z</time></trkpt><trkpt lat="41.77740799483423" lon="13.42371705576128"><ele>1059.0</ele><time>2026-04-05T08:55:19.001Z</time></trkpt><trkpt lat="41.77742381242035" lon="13.423599694276598"><ele>1059.0</ele><time>2026-04-05T08:55:20.001Z</time></trkpt><trkpt lat="41.77746163761346" lon="13.423475114402306"><ele>1059.0</ele><time>2026-04-05T08:55:21.001Z</time></trkpt><trkpt lat="41.77750707255151" lon="13.423359001180518"><ele>1058.4</ele><time>2026-04-05T08:55:22.001Z</time></trkpt><trkpt lat="41.777544974497914" lon="13.423219776915289"><ele>1057.8000000000002</ele><time>2026-04-05T08:55:23.001Z</time></trkpt><trkpt lat="41.77758033805673" lon="13.423079310354922"><ele>1057.1999999999998</ele><time>2026-04-05T08:55:24.001Z</time></trkpt><trkpt lat="41.77761972719562" lon="13.422950167660595"><ele>1056.6</ele><time>2026-04-05T08:55:25.001Z</time></trkpt><trkpt lat="41.77767243159452" lon="13.422826692974427"><ele>1056.0</ele><time>2026-04-05T08:55:26.001Z</time></trkpt><trkpt lat="41.77770839617457" lon="13.422699580287281"><ele>1056.0</ele><time>2026-04-05T08:55:27.001Z</time></trkpt><trkpt lat="41.777723071287504" lon="13.42255432635896"><ele>1056.0</ele><time>2026-04-05T08:55:28.001Z</time></trkpt><trkpt lat="41.777719430342266" lon="13.422411718205415"><ele>1056.0</ele><time>2026-04-05T08:55:29.001Z</time></trkpt><trkpt lat="41.77772609326011" lon="13.422277844064578"><ele>1056.0</ele><time>2026-04-05T08:55:30.001Z</time></trkpt><trkpt lat="41.77776401482384" lon="13.42214482450807"><ele>1056.0</ele><time>2026-04-05T08:55:31.001Z</time></trkpt><trkpt lat="41.77784481883281" lon="13.422006976797812"><ele>1053.2</ele><time>2026-04-05T08:55:32.001Z</time></trkpt><trkpt lat="41.7779345807448" lon="13.421878816555097"><ele>1050.3999999999999</ele><time>2026-04-05T08:55:33.001Z</time></trkpt><trkpt lat="41.77801048637524" lon="13.42175877434357"><ele>1047.6</ele><time>2026-04-05T08:55:34.001Z</time></trkpt><trkpt lat="41.77806127788913" lon="13.421637116723584"><ele>1044.8</ele><time>2026-04-05T08:55:35.001Z</time></trkpt><trkpt lat="41.77810187214844" lon="13.42152941856746"><ele>1042.0</ele><time>2026-04-05T08:55:36.001Z</time></trkpt><trkpt lat="41.77814072111969" lon="13.421444793443005"><ele>1042.0</ele><time>2026-04-05T08:55:37.001Z</time></trkpt><trkpt lat="41.77819215598021" lon="13.421376321993035"><ele>1042.0</ele><time>2026-04-05T08:55:38.001Z</time></trkpt><trkpt lat="41.7782649833759" lon="13.421330726093046"><ele>1042.0</ele><time>2026-04-05T08:55:39.001Z</time></trkpt><trkpt lat="41.7783425853467" lon="13.42128052533787"><ele>1042.0</ele><time>2026-04-05T08:55:40.001Z</time></trkpt><trkpt lat="41.778415424969516" lon="13.421220557606157"><ele>1042.0</ele><time>2026-04-05T08:55:41Z</time></trkpt><trkpt lat="41.77846956314741" lon="13.42112930652431"><ele>1042.0</ele><time>2026-04-05T08:55:42Z</time></trkpt><trkpt lat="41.77850109955394" lon="13.421016461014279"><ele>1038.6666666666665</ele><time>2026-04-05T08:55:43Z</time></trkpt><trkpt lat="41.778522362006385" lon="13.420907435808852"><ele>1035.3333333333333</ele><time>2026-04-05T08:55:44Z</time></trkpt><trkpt lat="41.77854908799398" lon="13.420812646380123"><ele>1032.0</ele><time>2026-04-05T08:55:45Z</time></trkpt><trkpt lat="41.77860155411546" lon="13.42074699657106"><ele>1028.6666666666667</ele><time>2026-04-05T08:55:46Z</time></trkpt><trkpt lat="41.77868345120159" lon="13.420724308694451"><ele>1025.3333333333335</ele><time>2026-04-05T08:55:47Z</time></trkpt><trkpt lat="41.77878862099854" lon="13.42071602264755"><ele>1022.0</ele><time>2026-04-05T08:55:48Z</time></trkpt><trkpt lat="41.77888977665996" lon="13.420699362252455"><ele>1022.0000000000001</ele><time>2026-04-05T08:55:49Z</time></trkpt><trkpt lat="41.77897067607069" lon="13.420683441373534"><ele>1022.0</ele><time>2026-04-05T08:55:50Z</time></trkpt><trkpt lat="41.77903401307515" lon="13.42068560717553"><ele>1022.0</ele><time>2026-04-05T08:55:51Z</time></trkpt><trkpt lat="41.779109373299704" lon="13.420783743415502"><ele>1022.0</ele><time>2026-04-05T08:55:53Z</time></trkpt><trkpt lat="41.7791139482822" lon="13.420877940208207"><ele>1022.0000000000001</ele><time>2026-04-05T08:55:54Z</time></trkpt><trkpt lat="41.77909997695873" lon="13.420982627723753"><ele>1022.0</ele><time>2026-04-05T08:55:55Z</time></trkpt><trkpt lat="41.77907780692052" lon="13.421086546715289"><ele>1022.0000000000001</ele><time>2026-04-05T08:55:56Z</time></trkpt><trkpt lat="41.779051977814504" lon="13.42118291155899"><ele>1022.0</ele><time>2026-04-05T08:55:57Z</time></trkpt><trkpt lat="41.779019298346846" lon="13.421265665303503"><ele>1022.0</ele><time>2026-04-05T08:55:58Z</time></trkpt><trkpt lat="41.778987213207756" lon="13.421340257841626"><ele>1022.0</ele><time>2026-04-05T08:55:59Z</time></trkpt><trkpt lat="41.77897485422465" lon="13.421477862232411"><ele>1022.0000000000001</ele><time>2026-04-05T08:56:01Z</time></trkpt><trkpt lat="41.77908224982914" lon="13.42149101199447"><ele>1022.0</ele><time>2026-04-05T08:56:03Z</time></trkpt><trkpt lat="41.779121426116085" lon="13.421417095606717"><ele>1022.0</ele><time>2026-04-05T08:56:04Z</time></trkpt><trkpt lat="41.77914522689087" lon="13.421297683767499"><ele>1022.0</ele><time>2026-04-05T08:56:05Z</time></trkpt><trkpt lat="41.77917277883017" lon="13.421162276656577"><ele>1022.0</ele><time>2026-04-05T08:56:06Z</time></trkpt><trkpt lat="41.77923979787453" lon="13.421045277780589"><ele>1022.0</ele><time>2026-04-05T08:56:07Z</time></trkpt><trkpt lat="41.77929868735195" lon="13.420950583745993"><ele>1022.0</ele><time>2026-04-05T08:56:08Z</time></trkpt><trkpt lat="41.77934612188366" lon="13.420828780473315"><ele>1015.6</ele><time>2026-04-05T08:56:09Z</time></trkpt><trkpt lat="41.779377096867634" lon="13.420694041285495"><ele>1009.2</ele><time>2026-04-05T08:56:10Z</time></trkpt><trkpt lat="41.779417734573656" lon="13.420577818390413"><ele>1002.8</ele><time>2026-04-05T08:56:11Z</time></trkpt><trkpt lat="41.77943751914375" lon="13.420470137779448"><ele>996.4</ele><time>2026-04-05T08:56:12Z</time></trkpt><trkpt lat="41.77944670471363" lon="13.420370096704486"><ele>990.0</ele><time>2026-04-05T08:56:13Z</time></trkpt><trkpt lat="41.77943382245839" lon="13.420225817757258"><ele>993.0</ele><time>2026-04-05T08:56:15Z</time></trkpt><trkpt lat="41.77932231486168" lon="13.420144468801325"><ele>996.0</ele><time>2026-04-05T08:56:17Z</time></trkpt><trkpt lat="41.77924527434488" lon="13.420129844755616"><ele>999.0</ele><time>2026-04-05T08:56:18Z</time></trkpt><trkpt lat="41.77914817496523" lon="13.420129449036928"><ele>1002.0</ele><time>2026-04-05T08:56:19Z</time></trkpt><trkpt lat="41.779046988699385" lon="13.420114210140357"><ele>1005.0</ele><time>2026-04-05T08:56:20Z</time></trkpt><trkpt lat="41.77896330834387" lon="13.420078229406851"><ele>1005.0</ele><time>2026-04-05T08:56:21Z</time></trkpt><trkpt lat="41.77888849436148" lon="13.420030260267358"><ele>1005.0</ele><time>2026-04-05T08:56:22Z</time></trkpt><trkpt lat="41.77881249854608" lon="13.419958136835431"><ele>1005.0</ele><time>2026-04-05T08:56:23Z</time></trkpt><trkpt lat="41.778748206489354" lon="13.419857728891294"><ele>1005.0</ele><time>2026-04-05T08:56:24Z</time></trkpt><trkpt lat="41.77868129820321" lon="13.419752383994965"><ele>1005.0</ele><time>2026-04-05T08:56:25Z</time></trkpt><trkpt lat="41.77861831805386" lon="13.419657603387343"><ele>1007.4</ele><time>2026-04-05T08:56:26Z</time></trkpt><trkpt lat="41.77855677973727" lon="13.41957119006369"><ele>1009.8</ele><time>2026-04-05T08:56:27Z</time></trkpt><trkpt lat="41.778501207292386" lon="13.419492359539467"><ele>1012.2</ele><time>2026-04-05T08:56:28Z</time></trkpt><trkpt lat="41.77847607304541" lon="13.419359413613265"><ele>1014.6</ele><time>2026-04-05T08:56:29Z</time></trkpt><trkpt lat="41.778492880253886" lon="13.419245532370027"><ele>1017.0</ele><time>2026-04-05T08:56:30Z</time></trkpt><trkpt lat="41.77852964280783" lon="13.419115374800866"><ele>1010.4000000000001</ele><time>2026-04-05T08:56:31Z</time></trkpt><trkpt lat="41.778580336555294" lon="13.418979632087057"><ele>1003.8000000000001</ele><time>2026-04-05T08:56:32Z</time></trkpt><trkpt lat="41.778622842681315" lon="13.418847860148999"><ele>997.2</ele><time>2026-04-05T08:56:33Z</time></trkpt><trkpt lat="41.778670468016784" lon="13.418719924529599"><ele>990.6</ele><time>2026-04-05T08:56:34Z</time></trkpt><trkpt lat="41.77871586649791" lon="13.418610861228718"><ele>984.0</ele><time>2026-04-05T08:56:35Z</time></trkpt><trkpt lat="41.77875967590728" lon="13.418520096321624"><ele>982.8333333333334</ele><time>2026-04-05T08:56:36.001Z</time></trkpt><trkpt lat="41.77879858143763" lon="13.418442016810495"><ele>981.6666666666667</ele><time>2026-04-05T08:56:37.001Z</time></trkpt><trkpt lat="41.77883901538679" lon="13.418364843895654"><ele>980.5</ele><time>2026-04-05T08:56:38.001Z</time></trkpt><trkpt lat="41.778867765234445" lon="13.418257027370982"><ele>979.3333333333334</ele><time>2026-04-05T08:56:39.001Z</time></trkpt><trkpt lat="41.77887803956158" lon="13.418135503202356"><ele>978.1666666666667</ele><time>2026-04-05T08:56:40.001Z</time></trkpt><trkpt lat="41.77888394152927" lon="13.418013063986209"><ele>977.0</ele><time>2026-04-05T08:56:41.001Z</time></trkpt><trkpt lat="41.77889151209261" lon="13.417895337370455"><ele>975.3333333333334</ele><time>2026-04-05T08:56:42.001Z</time></trkpt><trkpt lat="41.77890888277721" lon="13.417783835423798"><ele>973.6666666666667</ele><time>2026-04-05T08:56:43.001Z</time></trkpt><trkpt lat="41.77892713818375" lon="13.417668907751398"><ele>972.0</ele><time>2026-04-05T08:56:44.001Z</time></trkpt><trkpt lat="41.77893186287614" lon="13.41756177196638"><ele>970.3333333333333</ele><time>2026-04-05T08:56:45.001Z</time></trkpt><trkpt lat="41.77891482198226" lon="13.417468235203653"><ele>968.6666666666666</ele><time>2026-04-05T08:56:46.001Z</time></trkpt><trkpt lat="41.77890424235847" lon="13.417377492450745"><ele>967.0</ele><time>2026-04-05T08:56:47.001Z</time></trkpt><trkpt lat="41.77888683286571" lon="13.417292018948135"><ele>967.0</ele><time>2026-04-05T08:56:48.001Z</time></trkpt><trkpt lat="41.77880911617258" lon="13.417175933610027"><ele>967.0</ele><time>2026-04-05T08:56:50.001Z</time></trkpt><trkpt lat="41.77868749730446" lon="13.417196280537171"><ele>967.0</ele><time>2026-04-05T08:56:52.001Z</time></trkpt><trkpt lat="41.77861777611642" lon="13.417212704753352"><ele>967.0</ele><time>2026-04-05T08:56:53.001Z</time></trkpt><trkpt lat="41.77856679361551" lon="13.417162718942125"><ele>967.0</ele><time>2026-04-05T08:56:54.001Z</time></trkpt><trkpt lat="41.77852713066221" lon="13.417056266931038"><ele>968.2</ele><time>2026-04-05T08:56:55.001Z</time></trkpt><trkpt lat="41.77850183175682" lon="13.41692845156878"><ele>969.4000000000001</ele><time>2026-04-05T08:56:56.001Z</time></trkpt><trkpt lat="41.77846600654212" lon="13.416808573028755"><ele>970.5999999999999</ele><time>2026-04-05T08:56:57.001Z</time></trkpt><trkpt lat="41.77841218417711" lon="13.416716637780118"><ele>971.8</ele><time>2026-04-05T08:56:58.001Z</time></trkpt><trkpt lat="41.77835346098378" lon="13.416610872740652"><ele>973.0</ele><time>2026-04-05T08:56:59.001Z</time></trkpt><trkpt lat="41.77829074520392" lon="13.416517903049611"><ele>972.9999999999999</ele><time>2026-04-05T08:57:00.001Z</time></trkpt><trkpt lat="41.778217493147984" lon="13.416435584749202"><ele>973.0</ele><time>2026-04-05T08:57:01.001Z</time></trkpt><trkpt lat="41.778147181162616" lon="13.416365241734065"><ele>973.0</ele><time>2026-04-05T08:57:02.001Z</time></trkpt><trkpt lat="41.778069208840215" lon="13.41629822916727"><ele>973.0</ele><time>2026-04-05T08:57:03.001Z</time></trkpt><trkpt lat="41.77799688028871" lon="13.416244451028076"><ele>972.9999999999999</ele><time>2026-04-05T08:57:04.001Z</time></trkpt><trkpt lat="41.77791963770297" lon="13.416205465702452"><ele>973.0</ele><time>2026-04-05T08:57:05.001Z</time></trkpt><trkpt lat="41.77784560042897" lon="13.41618210087017"><ele>967.5</ele><time>2026-04-05T08:57:06.001Z</time></trkpt><trkpt lat="41.77776110988969" lon="13.416175940091243"><ele>962.0</ele><time>2026-04-05T08:57:08.001Z</time></trkpt><trkpt lat="41.77771895451065" lon="13.416061964951677"><ele>956.5</ele><time>2026-04-05T08:57:11.001Z</time></trkpt><trkpt lat="41.77784081778793" lon="13.416066985201669"><ele>951.0</ele><time>2026-04-05T08:57:17.001Z</time></trkpt><trkpt lat="41.77801910067445" lon="13.41614588564573"><ele>951.0</ele><time>2026-04-05T08:57:19.001Z</time></trkpt><trkpt lat="41.77814326235724" lon="13.416195666283269"><ele>950.9999999999999</ele><time>2026-04-05T08:57:20.001Z</time></trkpt><trkpt lat="41.77824638892093" lon="13.416227702681201"><ele>950.9999999999999</ele><time>2026-04-05T08:57:21.001Z</time></trkpt><trkpt lat="41.77834245594062" lon="13.41625157657795"><ele>951.0</ele><time>2026-04-05T08:57:22.001Z</time></trkpt><trkpt lat="41.77842509696606" lon="13.41626163570292"><ele>951.0</ele><time>2026-04-05T08:57:23.001Z</time></trkpt><trkpt lat="41.77849957595468" lon="13.416283541286543"><ele>951.6666666666666</ele><time>2026-04-05T08:57:24.001Z</time></trkpt><trkpt lat="41.7785796786856" lon="13.416305687816903"><ele>952.3333333333333</ele><time>2026-04-05T08:57:25.001Z</time></trkpt><trkpt lat="41.77865729148077" lon="13.41632227246299"><ele>953.0</ele><time>2026-04-05T08:57:26.001Z</time></trkpt><trkpt lat="41.77872532410194" lon="13.416273133111531"><ele>953.6666666666666</ele><time>2026-04-05T08:57:27.001Z</time></trkpt><trkpt lat="41.77876364118634" lon="13.416141183974329"><ele>954.3333333333333</ele><time>2026-04-05T08:57:28.001Z</time></trkpt><trkpt lat="41.77881965038963" lon="13.416082891914556"><ele>955.0</ele><time>2026-04-05T08:57:29.001Z</time></trkpt><trkpt lat="41.7788606298649" lon="13.415998331651581"><ele>952.8333333333333</ele><time>2026-04-05T08:57:30.001Z</time></trkpt><trkpt lat="41.778908023210114" lon="13.415901561268598"><ele>950.6666666666666</ele><time>2026-04-05T08:57:31.001Z</time></trkpt><trkpt lat="41.7789378630962" lon="13.41576100970096"><ele>948.5</ele><time>2026-04-05T08:57:32.001Z</time></trkpt><trkpt lat="41.77898700282413" lon="13.415661299934452"><ele>946.3333333333333</ele><time>2026-04-05T08:57:33.001Z</time></trkpt><trkpt lat="41.77902434428357" lon="13.415589502279566"><ele>944.1666666666666</ele><time>2026-04-05T08:57:34.001Z</time></trkpt><trkpt lat="41.77903194644516" lon="13.41550351074879"><ele>942.0</ele><time>2026-04-05T08:57:36.001Z</time></trkpt><trkpt lat="41.77900827633227" lon="13.415339291418816"><ele>940.8333333333334</ele><time>2026-04-05T08:57:38.001Z</time></trkpt><trkpt lat="41.77900613418548" lon="13.415243081166533"><ele>939.6666666666667</ele><time>2026-04-05T08:57:39.001Z</time></trkpt><trkpt lat="41.77896335094314" lon="13.415100350160476"><ele>938.5</ele><time>2026-04-05T08:57:41.001Z</time></trkpt><trkpt lat="41.77896052813917" lon="13.414979709455526"><ele>937.3333333333334</ele><time>2026-04-05T08:57:43.001Z</time></trkpt><trkpt lat="41.77895534092839" lon="13.414869688783716"><ele>936.1666666666667</ele><time>2026-04-05T08:57:45.001Z</time></trkpt><trkpt lat="41.77897511904596" lon="13.41478745418805"><ele>935.0</ele><time>2026-04-05T08:57:48Z</time></trkpt><trkpt lat="41.77888244677595" lon="13.414852508255306"><ele>935.0</ele><time>2026-04-05T08:57:54Z</time></trkpt><trkpt lat="41.77882804951551" lon="13.414966333597718"><ele>935.0</ele><time>2026-04-05T08:57:55Z</time></trkpt><trkpt lat="41.77877921539405" lon="13.415102607291422"><ele>935.0</ele><time>2026-04-05T08:57:56Z</time></trkpt><trkpt lat="41.778734032349625" lon="13.415217973088323"><ele>935.0</ele><time>2026-04-05T08:57:57Z</time></trkpt><trkpt lat="41.77868878934565" lon="13.415329021665178"><ele>935.0</ele><time>2026-04-05T08:57:58Z</time></trkpt><trkpt lat="41.77862427959934" lon="13.415408101865136"><ele>935.0000000000001</ele><time>2026-04-05T08:57:59Z</time></trkpt><trkpt lat="41.77854621849261" lon="13.415445185927556"><ele>935.0</ele><time>2026-04-05T08:58:00Z</time></trkpt><trkpt lat="41.77846844608997" lon="13.415457106885938"><ele>935.0</ele><time>2026-04-05T08:58:01Z</time></trkpt><trkpt lat="41.7784041690335" lon="13.415419859287766"><ele>935.0</ele><time>2026-04-05T08:58:02Z</time></trkpt><trkpt lat="41.778345855773395" lon="13.415338038690637"><ele>935.0000000000001</ele><time>2026-04-05T08:58:03Z</time></trkpt><trkpt lat="41.77829063197907" lon="13.41522864349558"><ele>935.0</ele><time>2026-04-05T08:58:04Z</time></trkpt><trkpt lat="41.77822185058381" lon="13.415128615403493"><ele>933.4</ele><time>2026-04-05T08:58:05Z</time></trkpt><trkpt lat="41.77813562190227" lon="13.4150651785921"><ele>931.8</ele><time>2026-04-05T08:58:06Z</time></trkpt><trkpt lat="41.77804395899165" lon="13.415008682614799"><ele>930.2</ele><time>2026-04-05T08:58:07Z</time></trkpt><trkpt lat="41.77795952840179" lon="13.414945044478657"><ele>928.6</ele><time>2026-04-05T08:58:08Z</time></trkpt><trkpt lat="41.77788091514547" lon="13.414889503562518"><ele>927.0</ele><time>2026-04-05T08:58:09Z</time></trkpt><trkpt lat="41.77779169397887" lon="13.414849264552782"><ele>927.0</ele><time>2026-04-05T08:58:10Z</time></trkpt><trkpt lat="41.77770486542916" lon="13.414831837710864"><ele>927.0</ele><time>2026-04-05T08:58:11Z</time></trkpt><trkpt lat="41.77761928344714" lon="13.414844303553052"><ele>927.0</ele><time>2026-04-05T08:58:12Z</time></trkpt><trkpt lat="41.77753636137647" lon="13.41486192329717"><ele>927.0</ele><time>2026-04-05T08:58:13Z</time></trkpt><trkpt lat="41.77744598587121" lon="13.414876281040806"><ele>927.0</ele><time>2026-04-05T08:58:14Z</time></trkpt><trkpt lat="41.777353885906734" lon="13.414877510353872"><ele>927.0</ele><time>2026-04-05T08:58:15Z</time></trkpt><trkpt lat="41.77725456109675" lon="13.414886623633636"><ele>927.4000000000001</ele><time>2026-04-05T08:58:16Z</time></trkpt><trkpt lat="41.7771515367406" lon="13.414904584179085"><ele>927.8000000000001</ele><time>2026-04-05T08:58:17Z</time></trkpt><trkpt lat="41.777048193068325" lon="13.414913070511197"><ele>928.2</ele><time>2026-04-05T08:58:18Z</time></trkpt><trkpt lat="41.77693422333152" lon="13.414904359331453"><ele>928.6</ele><time>2026-04-05T08:58:19Z</time></trkpt><trkpt lat="41.77682961480734" lon="13.414880906843191"><ele>929.0</ele><time>2026-04-05T08:58:20Z</time></trkpt><trkpt lat="41.77673233312898" lon="13.414866564355787"><ele>927.2</ele><time>2026-04-05T08:58:21Z</time></trkpt><trkpt lat="41.77663514653627" lon="13.414830778384465"><ele>925.4000000000001</ele><time>2026-04-05T08:58:22Z</time></trkpt><trkpt lat="41.77652494692695" lon="13.414799400042792"><ele>923.6</ele><time>2026-04-05T08:58:23Z</time></trkpt><trkpt lat="41.7764099847879" lon="13.414790477889882"><ele>921.8</ele><time>2026-04-05T08:58:24Z</time></trkpt><trkpt lat="41.77629552596412" lon="13.41479827422483"><ele>920.0</ele><time>2026-04-05T08:58:25Z</time></trkpt><trkpt lat="41.77618238383229" lon="13.414834700718364"><ele>920.0</ele><time>2026-04-05T08:58:26Z</time></trkpt><trkpt lat="41.776086033409875" lon="13.414889328211043"><ele>920.0</ele><time>2026-04-05T08:58:27Z</time></trkpt><trkpt lat="41.77597773675079" lon="13.414927267810759"><ele>920.0</ele><time>2026-04-05T08:58:28Z</time></trkpt><trkpt lat="41.7758713708671" lon="13.414952221488939"><ele>920.0</ele><time>2026-04-05T08:58:29Z</time></trkpt><trkpt lat="41.775768572553545" lon="13.414967019982276"><ele>920.0</ele><time>2026-04-05T08:58:30Z</time></trkpt><trkpt lat="41.77567853228577" lon="13.414988916860976"><ele>917.8</ele><time>2026-04-05T08:58:31Z</time></trkpt><trkpt lat="41.77558404770768" lon="13.415002545670353"><ele>915.6</ele><time>2026-04-05T08:58:32Z</time></trkpt><trkpt lat="41.77550184773958" lon="13.414980875801575"><ele>913.4000000000001</ele><time>2026-04-05T08:58:33Z</time></trkpt><trkpt lat="41.775408127949625" lon="13.41493829544654"><ele>911.2</ele><time>2026-04-05T08:58:34Z</time></trkpt><trkpt lat="41.77530619232945" lon="13.414912111442368"><ele>909.0</ele><time>2026-04-05T08:58:35Z</time></trkpt><trkpt lat="41.77520715324383" lon="13.414902659055231"><ele>907.4000000000001</ele><time>2026-04-05T08:58:36Z</time></trkpt><trkpt lat="41.77510637685739" lon="13.414887149495925"><ele>905.8000000000001</ele><time>2026-04-05T08:58:37Z</time></trkpt><trkpt lat="41.77499887775651" lon="13.414879285253877"><ele>904.1999999999999</ele><time>2026-04-05T08:58:38Z</time></trkpt><trkpt lat="41.774870549295194" lon="13.414879766825528"><ele>902.5999999999999</ele><time>2026-04-05T08:58:39Z</time></trkpt><trkpt lat="41.774761265699645" lon="13.414872866195198"><ele>901.0</ele><time>2026-04-05T08:58:40Z</time></trkpt><trkpt lat="41.77467141941322" lon="13.414883013591496"><ele>901.0</ele><time>2026-04-05T08:58:41Z</time></trkpt><trkpt lat="41.77459925476592" lon="13.414942682646728"><ele>900.9999999999999</ele><time>2026-04-05T08:58:42Z</time></trkpt><trkpt lat="41.774540038211924" lon="13.415035418983647"><ele>900.9999999999999</ele><time>2026-04-05T08:58:43Z</time></trkpt><trkpt lat="41.77448351776524" lon="13.415145209985925"><ele>901.0</ele><time>2026-04-05T08:58:44.001Z</time></trkpt><trkpt lat="41.77441153750822" lon="13.41519222341556"><ele>901.0</ele><time>2026-04-05T08:58:45.001Z</time></trkpt><trkpt lat="41.77430001640993" lon="13.415220237683418"><ele>898.1999999999999</ele><time>2026-04-05T08:58:46.001Z</time></trkpt><trkpt lat="41.77418897827355" lon="13.41522961876696"><ele>895.3999999999999</ele><time>2026-04-05T08:58:47.001Z</time></trkpt><trkpt lat="41.77406824998465" lon="13.415230482793598"><ele>892.6</ele><time>2026-04-05T08:58:48.001Z</time></trkpt><trkpt lat="41.77396019071285" lon="13.415223735443977"><ele>889.8</ele><time>2026-04-05T08:58:49.001Z</time></trkpt><trkpt lat="41.7738556825307" lon="13.415207047330641"><ele>887.0</ele><time>2026-04-05T08:58:50.001Z</time></trkpt><trkpt lat="41.773763546911624" lon="13.415160181267899"><ele>887.0000000000001</ele><time>2026-04-05T08:58:51.001Z</time></trkpt><trkpt lat="41.77369963949395" lon="13.415073510379518"><ele>887.0</ele><time>2026-04-05T08:58:52.001Z</time></trkpt><trkpt lat="41.77365459418163" lon="13.414999711059473"><ele>887.0</ele><time>2026-04-05T08:58:53.001Z</time></trkpt><trkpt lat="41.77357494629753" lon="13.414941842538559"><ele>887.0</ele><time>2026-04-05T08:58:54.001Z</time></trkpt><trkpt lat="41.77349103060246" lon="13.414916430180302"><ele>887.0000000000001</ele><time>2026-04-05T08:58:55.001Z</time></trkpt><trkpt lat="41.773394501205345" lon="13.414899724613491"><ele>887.0</ele><time>2026-04-05T08:58:56.001Z</time></trkpt><trkpt lat="41.7732730829408" lon="13.414909153057085"><ele>886.0</ele><time>2026-04-05T08:58:57.001Z</time></trkpt><trkpt lat="41.77316257495105" lon="13.41492259470754"><ele>885.0</ele><time>2026-04-05T08:58:58.001Z</time></trkpt><trkpt lat="41.77305690399364" lon="13.414939837648317"><ele>884.0</ele><time>2026-04-05T08:58:59.001Z</time></trkpt><trkpt lat="41.77295510613282" lon="13.414958812699425"><ele>883.0</ele><time>2026-04-05T08:59:00.001Z</time></trkpt><trkpt lat="41.7728636072364" lon="13.41491907194973"><ele>882.0</ele><time>2026-04-05T08:59:01.001Z</time></trkpt><trkpt lat="41.772788660437705" lon="13.41483586890732"><ele>882.0</ele><time>2026-04-05T08:59:02.001Z</time></trkpt><trkpt lat="41.772736750178424" lon="13.41473612323701"><ele>882.0</ele><time>2026-04-05T08:59:03.001Z</time></trkpt><trkpt lat="41.772686219070046" lon="13.414661541118722"><ele>882.0</ele><time>2026-04-05T08:59:04.001Z</time></trkpt><trkpt lat="41.772625726711084" lon="13.41462430082043"><ele>882.0</ele><time>2026-04-05T08:59:05.001Z</time></trkpt><trkpt lat="41.772495671279266" lon="13.414661286216097"><ele>882.0</ele><time>2026-04-05T08:59:07.001Z</time></trkpt><trkpt lat="41.77242378866576" lon="13.414730545094415"><ele>880.5</ele><time>2026-04-05T08:59:08.001Z</time></trkpt><trkpt lat="41.77236150741305" lon="13.414814850294695"><ele>879.0</ele><time>2026-04-05T08:59:09.001Z</time></trkpt><trkpt lat="41.772291684798226" lon="13.414911680143348"><ele>877.5</ele><time>2026-04-05T08:59:10.001Z</time></trkpt><trkpt lat="41.77226103561372" lon="13.4150056503196"><ele>876.0</ele><time>2026-04-05T08:59:11.001Z</time></trkpt><trkpt lat="41.77221721074062" lon="13.415110344857718"><ele>874.5</ele><time>2026-04-05T08:59:12.001Z</time></trkpt><trkpt lat="41.77216873790348" lon="13.415181410865838"><ele>873.0</ele><time>2026-04-05T08:59:13.001Z</time></trkpt><trkpt lat="41.7720794049831" lon="13.415249125769853"><ele>873.0</ele><time>2026-04-05T08:59:14.001Z</time></trkpt><trkpt lat="41.77199740198303" lon="13.415271877109214"><ele>873.0</ele><time>2026-04-05T08:59:15.001Z</time></trkpt><trkpt lat="41.77192100919157" lon="13.415279608040715"><ele>873.0</ele><time>2026-04-05T08:59:16.001Z</time></trkpt><trkpt lat="41.77182796262504" lon="13.415256068201755"><ele>873.0</ele><time>2026-04-05T08:59:17.001Z</time></trkpt><trkpt lat="41.77174729204011" lon="13.4151901214185"><ele>873.0</ele><time>2026-04-05T08:59:18.001Z</time></trkpt><trkpt lat="41.77168766582512" lon="13.415093934605354"><ele>873.0</ele><time>2026-04-05T08:59:19.001Z</time></trkpt><trkpt lat="41.771628429410256" lon="13.415021677366767"><ele>870.6666666666666</ele><time>2026-04-05T08:59:20.001Z</time></trkpt><trkpt lat="41.7715347354549" lon="13.414990601822284"><ele>868.3333333333333</ele><time>2026-04-05T08:59:21.001Z</time></trkpt><trkpt lat="41.771445395376226" lon="13.41497913818016"><ele>866.0</ele><time>2026-04-05T08:59:22.001Z</time></trkpt><trkpt lat="41.77137583493292" lon="13.414939227927874"><ele>863.6666666666666</ele><time>2026-04-05T08:59:23.001Z</time></trkpt><trkpt lat="41.771326020160195" lon="13.414860068851999"><ele>861.3333333333333</ele><time>2026-04-05T08:59:24.001Z</time></trkpt><trkpt lat="41.77129513614681" lon="13.414763712334805"><ele>859.0</ele><time>2026-04-05T08:59:25.001Z</time></trkpt><trkpt lat="41.771193634491816" lon="13.41470718291755"><ele>858.9999999999999</ele><time>2026-04-05T08:59:27.001Z</time></trkpt><trkpt lat="41.771122430700345" lon="13.414726458320322"><ele>859.0</ele><time>2026-04-05T08:59:28.001Z</time></trkpt><trkpt lat="41.77103297599339" lon="13.414796531588436"><ele>859.0</ele><time>2026-04-05T08:59:29.001Z</time></trkpt><trkpt lat="41.77095582675444" lon="13.414859398828499"><ele>859.0</ele><time>2026-04-05T08:59:30.001Z</time></trkpt><trkpt lat="41.770864174743444" lon="13.414859239572197"><ele>858.9999999999999</ele><time>2026-04-05T08:59:31.001Z</time></trkpt><trkpt lat="41.77077859529267" lon="13.414836746282528"><ele>859.0</ele><time>2026-04-05T08:59:32.001Z</time></trkpt><trkpt lat="41.77068991225117" lon="13.41485443754993"><ele>857.2</ele><time>2026-04-05T08:59:33.001Z</time></trkpt><trkpt lat="41.77061375027708" lon="13.414915473827643"><ele>855.4000000000001</ele><time>2026-04-05T08:59:34.001Z</time></trkpt><trkpt lat="41.77052535138653" lon="13.415008227376674"><ele>853.6</ele><time>2026-04-05T08:59:35.001Z</time></trkpt><trkpt lat="41.77047019250093" lon="13.415106522609818"><ele>851.8</ele><time>2026-04-05T08:59:36.001Z</time></trkpt><trkpt lat="41.770440936700844" lon="13.415213955305282"><ele>850.0</ele><time>2026-04-05T08:59:37.001Z</time></trkpt><trkpt lat="41.77037988072893" lon="13.41537008860166"><ele>849.6</ele><time>2026-04-05T08:59:38.001Z</time></trkpt><trkpt lat="41.7702899815847" lon="13.415496386703351"><ele>849.2</ele><time>2026-04-05T08:59:39.001Z</time></trkpt><trkpt lat="41.77020089299831" lon="13.415600559358309"><ele>848.8</ele><time>2026-04-05T08:59:40.001Z</time></trkpt><trkpt lat="41.77016373474746" lon="13.415687451689871"><ele>848.4</ele><time>2026-04-05T08:59:41.001Z</time></trkpt><trkpt lat="41.770117435763616" lon="13.415749928039412"><ele>848.0</ele><time>2026-04-05T08:59:42.001Z</time></trkpt><trkpt lat="41.770034172926195" lon="13.415757474831008"><ele>848.0</ele><time>2026-04-05T08:59:44.001Z</time></trkpt><trkpt lat="41.76996675142015" lon="13.415615392896896"><ele>848.0</ele><time>2026-04-05T08:59:46.001Z</time></trkpt><trkpt lat="41.76995594117509" lon="13.41547287062802"><ele>848.0</ele><time>2026-04-05T08:59:48.001Z</time></trkpt><trkpt lat="41.77001331004178" lon="13.415384695267203"><ele>848.0</ele><time>2026-04-05T08:59:50.001Z</time></trkpt><trkpt lat="41.77009285079421" lon="13.415335109095633"><ele>848.0</ele><time>2026-04-05T08:59:52.001Z</time></trkpt><trkpt lat="41.77017942444189" lon="13.415237043233914"><ele>848.4</ele><time>2026-04-05T08:59:54Z</time></trkpt><trkpt lat="41.77021914698413" lon="13.4151315155278"><ele>848.8</ele><time>2026-04-05T08:59:55Z</time></trkpt><trkpt lat="41.77023763065795" lon="13.415001576530218"><ele>849.2</ele><time>2026-04-05T08:59:56Z</time></trkpt><trkpt lat="41.77021300417392" lon="13.414875219483367"><ele>849.6</ele><time>2026-04-05T08:59:57Z</time></trkpt><trkpt lat="41.77016271306203" lon="13.41477057263718"><ele>850.0</ele><time>2026-04-05T08:59:58Z</time></trkpt><trkpt lat="41.77010681980174" lon="13.414691315641733"><ele>846.6</ele><time>2026-04-05T08:59:59Z</time></trkpt><trkpt lat="41.77006585452902" lon="13.414541970366757"><ele>843.2</ele><time>2026-04-05T09:00:01Z</time></trkpt><trkpt lat="41.77008617306412" lon="13.414445179139745"><ele>839.8</ele><time>2026-04-05T09:00:02Z</time></trkpt><trkpt lat="41.77011983141103" lon="13.414344311984522"><ele>836.4</ele><time>2026-04-05T09:00:03Z</time></trkpt><trkpt lat="41.770147044384224" lon="13.414237021512085"><ele>833.0</ele><time>2026-04-05T09:00:04Z</time></trkpt><trkpt lat="41.7701866192883" lon="13.414124975214666"><ele>832.8</ele><time>2026-04-05T09:00:05Z</time></trkpt><trkpt lat="41.77025127656726" lon="13.414008926784522"><ele>832.5999999999999</ele><time>2026-04-05T09:00:06Z</time></trkpt><trkpt lat="41.77031273555529" lon="13.41391016946951"><ele>832.4000000000001</ele><time>2026-04-05T09:00:07Z</time></trkpt><trkpt lat="41.77036182158706" lon="13.413790615259108"><ele>832.2</ele><time>2026-04-05T09:00:08Z</time></trkpt><trkpt lat="41.770398618850194" lon="13.413654707623197"><ele>832.0</ele><time>2026-04-05T09:00:09Z</time></trkpt><trkpt lat="41.770428285616894" lon="13.41351354068817"><ele>829.8333333333333</ele><time>2026-04-05T09:00:10Z</time></trkpt><trkpt lat="41.77045432867023" lon="13.413383030262915"><ele>827.6666666666666</ele><time>2026-04-05T09:00:11Z</time></trkpt><trkpt lat="41.77048986523605" lon="13.413275544360783"><ele>825.5</ele><time>2026-04-05T09:00:12Z</time></trkpt><trkpt lat="41.77052451749794" lon="13.413202158915091"><ele>823.3333333333333</ele><time>2026-04-05T09:00:13Z</time></trkpt><trkpt lat="41.77051562035669" lon="13.413076900583453"><ele>821.1666666666666</ele><time>2026-04-05T09:00:15Z</time></trkpt><trkpt lat="41.77046488889307" lon="13.413021288155091"><ele>819.0</ele><time>2026-04-05T09:00:17Z</time></trkpt><trkpt lat="41.77038829635067" lon="13.412952688338367"><ele>816.5</ele><time>2026-04-05T09:00:20Z</time></trkpt><trkpt lat="41.770303063545214" lon="13.412813099835008"><ele>814.0</ele><time>2026-04-05T09:00:22Z</time></trkpt><trkpt lat="41.77026259386333" lon="13.412685567628236"><ele>811.5</ele><time>2026-04-05T09:00:23Z</time></trkpt><trkpt lat="41.770242956180944" lon="13.412540583497869"><ele>809.0</ele><time>2026-04-05T09:00:24Z</time></trkpt><trkpt lat="41.77023305674597" lon="13.41240132983324"><ele>809.0</ele><time>2026-04-05T09:00:25Z</time></trkpt><trkpt lat="41.7702067715787" lon="13.412235650656692"><ele>809.0</ele><time>2026-04-05T09:00:26Z</time></trkpt><trkpt lat="41.77017427258916" lon="13.412101173852378"><ele>809.0</ele><time>2026-04-05T09:00:27Z</time></trkpt><trkpt lat="41.77013334043185" lon="13.411986973014551"><ele>809.0</ele><time>2026-04-05T09:00:28Z</time></trkpt><trkpt lat="41.770103697839886" lon="13.41187444275188"><ele>809.0</ele><time>2026-04-05T09:00:29Z</time></trkpt><trkpt lat="41.77007565216095" lon="13.41176648282463"><ele>809.1666666666667</ele><time>2026-04-05T09:00:30Z</time></trkpt><trkpt lat="41.770039933063295" lon="13.411666825900989"><ele>809.3333333333334</ele><time>2026-04-05T09:00:31Z</time></trkpt><trkpt lat="41.76999213038468" lon="13.411573152280516"><ele>809.5</ele><time>2026-04-05T09:00:32Z</time></trkpt><trkpt lat="41.7699335790323" lon="13.411493799758366"><ele>809.6666666666667</ele><time>2026-04-05T09:00:33Z</time></trkpt><trkpt lat="41.7698863668231" lon="13.41141624263319"><ele>809.8333333333334</ele><time>2026-04-05T09:00:34Z</time></trkpt><trkpt lat="41.769850670844725" lon="13.411346359704114"><ele>810.0</ele><time>2026-04-05T09:00:35Z</time></trkpt><trkpt lat="41.769782868428685" lon="13.4112919274826"><ele>810.0</ele><time>2026-04-05T09:00:38Z</time></trkpt><trkpt lat="41.76967338723886" lon="13.411332835063604"><ele>810.0</ele><time>2026-04-05T09:00:40Z</time></trkpt><trkpt lat="41.76957668854918" lon="13.411329587426447"><ele>810.0</ele><time>2026-04-05T09:00:41Z</time></trkpt><trkpt lat="41.76946056304695" lon="13.411294162252979"><ele>810.0</ele><time>2026-04-05T09:00:42Z</time></trkpt><trkpt lat="41.76932173848454" lon="13.411262226461272"><ele>809.8333333333334</ele><time>2026-04-05T09:00:43Z</time></trkpt><trkpt lat="41.76921978652088" lon="13.411250273844091"><ele>809.6666666666667</ele><time>2026-04-05T09:00:44Z</time></trkpt><trkpt lat="41.7691506399832" lon="13.411252184567497"><ele>809.5</ele><time>2026-04-05T09:00:45Z</time></trkpt><trkpt lat="41.769079741695165" lon="13.411200250073941"><ele>809.3333333333334</ele><time>2026-04-05T09:00:47Z</time></trkpt><trkpt lat="41.769015951309505" lon="13.411143129001736"><ele>809.1666666666667</ele><time>2026-04-05T09:00:48Z</time></trkpt><trkpt lat="41.76893735209469" lon="13.411080177459159"><ele>809.0</ele><time>2026-04-05T09:00:49Z</time></trkpt><trkpt lat="41.76883130312004" lon="13.41102473042399"><ele>809.0</ele><time>2026-04-05T09:00:50Z</time></trkpt><trkpt lat="41.76872783327621" lon="13.410974950454932"><ele>809.0</ele><time>2026-04-05T09:00:51.001Z</time></trkpt><trkpt lat="41.768606509295694" lon="13.410913006476488"><ele>809.0</ele><time>2026-04-05T09:00:52.001Z</time></trkpt><trkpt lat="41.76847970424874" lon="13.41086644168575"><ele>809.0</ele><time>2026-04-05T09:00:53.001Z</time></trkpt><trkpt lat="41.768373611606826" lon="13.410808620859209"><ele>814.5</ele><time>2026-04-05T09:00:54.001Z</time></trkpt><trkpt lat="41.768262298969056" lon="13.410744990467897"><ele>820.0</ele><time>2026-04-05T09:00:55.001Z</time></trkpt><trkpt lat="41.76817686398393" lon="13.410673996002282"><ele>825.5</ele><time>2026-04-05T09:00:56.001Z</time></trkpt><trkpt lat="41.768025538900794" lon="13.410651346464494"><ele>831.0</ele><time>2026-04-05T09:00:57.001Z</time></trkpt><trkpt lat="41.76791514944871" lon="13.410616729167426"><ele>831.0</ele><time>2026-04-05T09:00:58.001Z</time></trkpt><trkpt lat="41.76779804834677" lon="13.410580963829373"><ele>831.0</ele><time>2026-04-05T09:00:59.001Z</time></trkpt><trkpt lat="41.76769162193174" lon="13.410535376294142"><ele>831.0</ele><time>2026-04-05T09:01:00.001Z</time></trkpt><trkpt lat="41.76758953328368" lon="13.410496609406497"><ele>831.0</ele><time>2026-04-05T09:01:01.001Z</time></trkpt><trkpt lat="41.767479150194376" lon="13.410475576538156"><ele>831.0</ele><time>2026-04-05T09:01:02.001Z</time></trkpt><trkpt lat="41.767371602557596" lon="13.410476183086109"><ele>830.1999999999999</ele><time>2026-04-05T09:01:03.001Z</time></trkpt><trkpt lat="41.76726967053978" lon="13.410480756186464"><ele>829.4</ele><time>2026-04-05T09:01:04.001Z</time></trkpt><trkpt lat="41.7671550629972" lon="13.410475579075376"><ele>828.6</ele><time>2026-04-05T09:01:05.001Z</time></trkpt><trkpt lat="41.76703558095429" lon="13.410479769344931"><ele>827.8</ele><time>2026-04-05T09:01:06.001Z</time></trkpt><trkpt lat="41.76693094159625" lon="13.41048410284261"><ele>827.0</ele><time>2026-04-05T09:01:07.001Z</time></trkpt><trkpt lat="41.76682159734864" lon="13.410477687111902"><ele>830.0</ele><time>2026-04-05T09:01:08.001Z</time></trkpt><trkpt lat="41.76672402548918" lon="13.410450066634546"><ele>833.0</ele><time>2026-04-05T09:01:09.001Z</time></trkpt><trkpt lat="41.766625546744045" lon="13.410413703106817"><ele>836.0</ele><time>2026-04-05T09:01:10.001Z</time></trkpt><trkpt lat="41.76651683852415" lon="13.410367244140293"><ele>839.0</ele><time>2026-04-05T09:01:11.001Z</time></trkpt><trkpt lat="41.76641179048729" lon="13.410293471130581"><ele>842.0</ele><time>2026-04-05T09:01:12.001Z</time></trkpt><trkpt lat="41.766309895386094" lon="13.410210619480818"><ele>842.0</ele><time>2026-04-05T09:01:13.001Z</time></trkpt><trkpt lat="41.76619789218619" lon="13.410135925337771"><ele>842.0</ele><time>2026-04-05T09:01:14.001Z</time></trkpt><trkpt lat="41.766080904914155" lon="13.410061492152003"><ele>842.0</ele><time>2026-04-05T09:01:15.001Z</time></trkpt><trkpt lat="41.76596585420083" lon="13.409985349986119"><ele>842.0</ele><time>2026-04-05T09:01:16.001Z</time></trkpt><trkpt lat="41.76585073603129" lon="13.409917321102176"><ele>840.0</ele><time>2026-04-05T09:01:17.001Z</time></trkpt><trkpt lat="41.76572807854866" lon="13.409858023508233"><ele>838.0</ele><time>2026-04-05T09:01:18.001Z</time></trkpt><trkpt lat="41.76560366340245" lon="13.409788625563358"><ele>836.0</ele><time>2026-04-05T09:01:19.001Z</time></trkpt><trkpt lat="41.76547531966486" lon="13.409704772251814"><ele>834.0</ele><time>2026-04-05T09:01:20.001Z</time></trkpt><trkpt lat="41.76534314742418" lon="13.409618599304073"><ele>834.0</ele><time>2026-04-05T09:01:21.001Z</time></trkpt><trkpt lat="41.76521980288909" lon="13.40954216799889"><ele>834.0</ele><time>2026-04-05T09:01:22.001Z</time></trkpt><trkpt lat="41.76510039018858" lon="13.409477652878572"><ele>834.0</ele><time>2026-04-05T09:01:23.001Z</time></trkpt><trkpt lat="41.764992334105905" lon="13.409398385094317"><ele>834.0</ele><time>2026-04-05T09:01:24.001Z</time></trkpt><trkpt lat="41.764885309994106" lon="13.409308427803325"><ele>839.4000000000001</ele><time>2026-04-05T09:01:25.001Z</time></trkpt><trkpt lat="41.76477294022579" lon="13.409234691124068"><ele>844.8</ele><time>2026-04-05T09:01:26.001Z</time></trkpt><trkpt lat="41.764672283515694" lon="13.409172391397954"><ele>850.1999999999999</ele><time>2026-04-05T09:01:27.001Z</time></trkpt><trkpt lat="41.76456900955402" lon="13.409115800624066"><ele>855.5999999999999</ele><time>2026-04-05T09:01:28.001Z</time></trkpt><trkpt lat="41.76448531300023" lon="13.409041411085054"><ele>861.0</ele><time>2026-04-05T09:01:29.001Z</time></trkpt><trkpt lat="41.76440477072044" lon="13.40895911250427"><ele>859.5</ele><time>2026-04-05T09:01:30.001Z</time></trkpt><trkpt lat="41.76434321643718" lon="13.408870157166923"><ele>858.0</ele><time>2026-04-05T09:01:31.001Z</time></trkpt><trkpt lat="41.764275619782666" lon="13.40878839789134"><ele>856.5</ele><time>2026-04-05T09:01:32.001Z</time></trkpt><trkpt lat="41.76419981629807" lon="13.408724750264161"><ele>855.0</ele><time>2026-04-05T09:01:33.001Z</time></trkpt><trkpt lat="41.76411599063923" lon="13.40869091957501"><ele>853.5</ele><time>2026-04-05T09:01:34.001Z</time></trkpt><trkpt lat="41.76403922358471" lon="13.4086749549348"><ele>852.0</ele><time>2026-04-05T09:01:35.001Z</time></trkpt><trkpt lat="41.76397061231644" lon="13.408671752850275"><ele>852.0</ele><time>2026-04-05T09:01:36.001Z</time></trkpt><trkpt lat="41.76390192362684" lon="13.408701942001017"><ele>852.0</ele><time>2026-04-05T09:01:37.001Z</time></trkpt><trkpt lat="41.76384081097699" lon="13.408777471920564"><ele>852.0</ele><time>2026-04-05T09:01:38.001Z</time></trkpt><trkpt lat="41.763759044459206" lon="13.408849139400251"><ele>852.0</ele><time>2026-04-05T09:01:39.001Z</time></trkpt><trkpt lat="41.7636747172877" lon="13.40895055702259"><ele>852.0</ele><time>2026-04-05T09:01:40.001Z</time></trkpt><trkpt lat="41.76360785565556" lon="13.409037156110612"><ele>854.4000000000001</ele><time>2026-04-05T09:01:41.001Z</time></trkpt><trkpt lat="41.7635446458285" lon="13.40915456350604"><ele>856.8000000000001</ele><time>2026-04-05T09:01:42.001Z</time></trkpt><trkpt lat="41.76348335356242" lon="13.409264699891562"><ele>859.2</ele><time>2026-04-05T09:01:43.001Z</time></trkpt><trkpt lat="41.763420438919354" lon="13.409396308545709"><ele>861.6</ele><time>2026-04-05T09:01:44.001Z</time></trkpt><trkpt lat="41.763367311067924" lon="13.409520374459953"><ele>864.0</ele><time>2026-04-05T09:01:45.001Z</time></trkpt><trkpt lat="41.763313104482826" lon="13.409640356281292"><ele>869.0</ele><time>2026-04-05T09:01:46.001Z</time></trkpt><trkpt lat="41.76324126080849" lon="13.409753930443008"><ele>874.0000000000001</ele><time>2026-04-05T09:01:47.001Z</time></trkpt><trkpt lat="41.76318033781995" lon="13.409864924908103"><ele>879.0000000000001</ele><time>2026-04-05T09:01:48.001Z</time></trkpt><trkpt lat="41.76315653625465" lon="13.409975914727369"><ele>884.0</ele><time>2026-04-05T09:01:49.001Z</time></trkpt><trkpt lat="41.763131892233005" lon="13.410102218731762"><ele>889.0</ele><time>2026-04-05T09:01:50.001Z</time></trkpt><trkpt lat="41.76307150736366" lon="13.410257525806882"><ele>889.0</ele><time>2026-04-05T09:01:51.001Z</time></trkpt><trkpt lat="41.76305275183965" lon="13.410411726304071"><ele>889.0</ele><time>2026-04-05T09:01:52.001Z</time></trkpt><trkpt lat="41.76301720591318" lon="13.410568519993818"><ele>889.0</ele><time>2026-04-05T09:01:53.001Z</time></trkpt><trkpt lat="41.76297668654629" lon="13.410715634383326"><ele>889.0</ele><time>2026-04-05T09:01:54.001Z</time></trkpt><trkpt lat="41.762937304861325" lon="13.41084871300011"><ele>893.25</ele><time>2026-04-05T09:01:55.001Z</time></trkpt><trkpt lat="41.76290453760531" lon="13.41097332141501"><ele>897.5</ele><time>2026-04-05T09:01:56.001Z</time></trkpt><trkpt lat="41.76286297269792" lon="13.411105947485689"><ele>901.75</ele><time>2026-04-05T09:01:57.001Z</time></trkpt><trkpt lat="41.76279642403118" lon="13.411237921124563"><ele>906.0</ele><time>2026-04-05T09:01:58.001Z</time></trkpt><trkpt lat="41.762714790893945" lon="13.41136633664038"><ele>904.4</ele><time>2026-04-05T09:01:59Z</time></trkpt><trkpt lat="41.762650469986674" lon="13.411484781360603"><ele>902.8</ele><time>2026-04-05T09:02:00Z</time></trkpt><trkpt lat="41.76260671327363" lon="13.411566205453825"><ele>901.1999999999999</ele><time>2026-04-05T09:02:01Z</time></trkpt><trkpt lat="41.76250536236262" lon="13.411641938480027"><ele>899.5999999999999</ele><time>2026-04-05T09:02:03Z</time></trkpt><trkpt lat="41.762433540889475" lon="13.411614026816428"><ele>898.0</ele><time>2026-04-05T09:02:04Z</time></trkpt><trkpt lat="41.7623549336436" lon="13.411569422128132"><ele>898.0</ele><time>2026-04-05T09:02:05Z</time></trkpt><trkpt lat="41.7622660296257" lon="13.411532553189044"><ele>898.0</ele><time>2026-04-05T09:02:06Z</time></trkpt><trkpt lat="41.76215472677453" lon="13.411487073875534"><ele>898.0</ele><time>2026-04-05T09:02:07Z</time></trkpt><trkpt lat="41.76203810148971" lon="13.411459470471595"><ele>898.0</ele><time>2026-04-05T09:02:08Z</time></trkpt><trkpt lat="41.76193169700092" lon="13.411434207044277"><ele>898.0</ele><time>2026-04-05T09:02:09Z</time></trkpt><trkpt lat="41.76182815015259" lon="13.411414328967481"><ele>898.0</ele><time>2026-04-05T09:02:10Z</time></trkpt><trkpt lat="41.76173088596248" lon="13.411400066339827"><ele>898.0</ele><time>2026-04-05T09:02:11Z</time></trkpt><trkpt lat="41.76162330976047" lon="13.411416820514459"><ele>898.0</ele><time>2026-04-05T09:02:12Z</time></trkpt><trkpt lat="41.76150769189533" lon="13.411450640717732"><ele>898.0</ele><time>2026-04-05T09:02:13Z</time></trkpt><trkpt lat="41.76138958903715" lon="13.411491724946597"><ele>898.0</ele><time>2026-04-05T09:02:14Z</time></trkpt><trkpt lat="41.76126713522231" lon="13.411546947828402"><ele>898.0</ele><time>2026-04-05T09:02:15Z</time></trkpt><trkpt lat="41.761146826326616" lon="13.411627288136122"><ele>898.0</ele><time>2026-04-05T09:02:16Z</time></trkpt><trkpt lat="41.76103658544018" lon="13.411709727455102"><ele>898.0</ele><time>2026-04-05T09:02:17Z</time></trkpt><trkpt lat="41.76094369188048" lon="13.411790725250768"><ele>898.0</ele><time>2026-04-05T09:02:18Z</time></trkpt><trkpt lat="41.760856292563275" lon="13.411874100324225"><ele>900.5999999999999</ele><time>2026-04-05T09:02:19Z</time></trkpt><trkpt lat="41.76077028281699" lon="13.41195470553159"><ele>903.1999999999999</ele><time>2026-04-05T09:02:20Z</time></trkpt><trkpt lat="41.76068816875734" lon="13.412054531154558"><ele>905.8</ele><time>2026-04-05T09:02:21Z</time></trkpt><trkpt lat="41.76061103808256" lon="13.41215221764912"><ele>908.4</ele><time>2026-04-05T09:02:22Z</time></trkpt><trkpt lat="41.76055404274831" lon="13.412245422299065"><ele>911.0</ele><time>2026-04-05T09:02:23Z</time></trkpt><trkpt lat="41.76049999310121" lon="13.41234720777482"><ele>911.0</ele><time>2026-04-05T09:02:24Z</time></trkpt><trkpt lat="41.76047784496214" lon="13.412459520823562"><ele>910.9999999999999</ele><time>2026-04-05T09:02:25Z</time></trkpt><trkpt lat="41.76045374361747" lon="13.412574914606534"><ele>910.9999999999999</ele><time>2026-04-05T09:02:26Z</time></trkpt><trkpt lat="41.76044475942858" lon="13.41270318825043"><ele>911.0</ele><time>2026-04-05T09:02:27Z</time></trkpt><trkpt lat="41.7604373753281" lon="13.412846902276511"><ele>911.0</ele><time>2026-04-05T09:02:28Z</time></trkpt><trkpt lat="41.76042853402443" lon="13.41298891719302"><ele>914.0</ele><time>2026-04-05T09:02:29Z</time></trkpt><trkpt lat="41.760428760134936" lon="13.413139494022886"><ele>916.9999999999999</ele><time>2026-04-05T09:02:30Z</time></trkpt><trkpt lat="41.76043553212725" lon="13.413280228680346"><ele>919.9999999999999</ele><time>2026-04-05T09:02:31Z</time></trkpt><trkpt lat="41.76043512501034" lon="13.413407494009657"><ele>923.0</ele><time>2026-04-05T09:02:32Z</time></trkpt><trkpt lat="41.76041862596939" lon="13.413518715833982"><ele>926.0</ele><time>2026-04-05T09:02:33Z</time></trkpt><trkpt lat="41.760392323455264" lon="13.413633342917203"><ele>926.0</ele><time>2026-04-05T09:02:34Z</time></trkpt><trkpt lat="41.760355762718724" lon="13.413745122505036"><ele>925.9999999999999</ele><time>2026-04-05T09:02:35Z</time></trkpt><trkpt lat="41.76029803179431" lon="13.413855635948313"><ele>925.9999999999999</ele><time>2026-04-05T09:02:36Z</time></trkpt><trkpt lat="41.760227161156344" lon="13.413959421581241"><ele>926.0</ele><time>2026-04-05T09:02:37Z</time></trkpt><trkpt lat="41.76016349049272" lon="13.414040298236852"><ele>926.0</ele><time>2026-04-05T09:02:38Z</time></trkpt><trkpt lat="41.76010864286735" lon="13.414178148171407"><ele>921.5</ele><time>2026-04-05T09:02:39Z</time></trkpt><trkpt lat="41.75997253816058" lon="13.41428267938308"><ele>917.0</ele><time>2026-04-05T09:02:40Z</time></trkpt><trkpt lat="41.759885182304984" lon="13.414401045807322"><ele>912.5</ele><time>2026-04-05T09:02:41Z</time></trkpt><trkpt lat="41.75979904113614" lon="13.414497270109152"><ele>908.0</ele><time>2026-04-05T09:02:42Z</time></trkpt><trkpt lat="41.759709822839405" lon="13.414593633559882"><ele>913.0</ele><time>2026-04-05T09:02:43Z</time></trkpt><trkpt lat="41.759630888020034" lon="13.414681531954907"><ele>918.0</ele><time>2026-04-05T09:02:44Z</time></trkpt><trkpt lat="41.75955779275903" lon="13.414774260650564"><ele>923.0</ele><time>2026-04-05T09:02:45Z</time></trkpt><trkpt lat="41.75951294819851" lon="13.41488423514118"><ele>928.0</ele><time>2026-04-05T09:02:46Z</time></trkpt><trkpt lat="41.759476798235724" lon="13.415006296506066"><ele>933.0</ele><time>2026-04-05T09:02:47Z</time></trkpt><trkpt lat="41.7594410742134" lon="13.415140475908036"><ele>933.0</ele><time>2026-04-05T09:02:48Z</time></trkpt><trkpt lat="41.75942767670485" lon="13.415281388271294"><ele>933.0</ele><time>2026-04-05T09:02:49Z</time></trkpt><trkpt lat="41.75942009306496" lon="13.415398601473962"><ele>933.0</ele><time>2026-04-05T09:02:50Z</time></trkpt><trkpt lat="41.759396790580524" lon="13.415481908432051"><ele>933.0</ele><time>2026-04-05T09:02:51Z</time></trkpt><trkpt lat="41.75931900137874" lon="13.41559634972459"><ele>933.0</ele><time>2026-04-05T09:02:53Z</time></trkpt><trkpt lat="41.75920118933744" lon="13.415702858424783"><ele>930.8</ele><time>2026-04-05T09:02:55Z</time></trkpt><trkpt lat="41.7591156650059" lon="13.41575537470778"><ele>928.5999999999999</ele><time>2026-04-05T09:02:56Z</time></trkpt><trkpt lat="41.759010093246744" lon="13.415822752759809"><ele>926.4000000000001</ele><time>2026-04-05T09:02:57.001Z</time></trkpt><trkpt lat="41.758904816848016" lon="13.415869090574198"><ele>924.2</ele><time>2026-04-05T09:02:58.001Z</time></trkpt><trkpt lat="41.758819816899354" lon="13.415919617848436"><ele>922.0</ele><time>2026-04-05T09:02:59.001Z</time></trkpt><trkpt lat="41.75875815391678" lon="13.415961321496134"><ele>922.0</ele><time>2026-04-05T09:03:00.001Z</time></trkpt><trkpt lat="41.75864602312843" lon="13.416106223682888"><ele>922.0</ele><time>2026-04-05T09:03:01.001Z</time></trkpt><trkpt lat="41.75860946831125" lon="13.416242979883977"><ele>922.0</ele><time>2026-04-05T09:03:02.001Z</time></trkpt><trkpt lat="41.7585430413927" lon="13.416307228965497"><ele>922.0</ele><time>2026-04-05T09:03:03.001Z</time></trkpt><trkpt lat="41.75850754523993" lon="13.416384975979527"><ele>922.0</ele><time>2026-04-05T09:03:04.001Z</time></trkpt><trkpt lat="41.75847639258778" lon="13.416483421791105"><ele>921.1666666666666</ele><time>2026-04-05T09:03:05.001Z</time></trkpt><trkpt lat="41.75847445828029" lon="13.416598364489992"><ele>920.3333333333333</ele><time>2026-04-05T09:03:06.001Z</time></trkpt><trkpt lat="41.75847475429631" lon="13.416701069284604"><ele>919.5</ele><time>2026-04-05T09:03:07.001Z</time></trkpt><trkpt lat="41.75847447065342" lon="13.416801945531871"><ele>918.6666666666667</ele><time>2026-04-05T09:03:08.001Z</time></trkpt><trkpt lat="41.75848948207851" lon="13.416903848675517"><ele>917.8333333333334</ele><time>2026-04-05T09:03:09.001Z</time></trkpt><trkpt lat="41.75850954729341" lon="13.41703972677424"><ele>917.0</ele><time>2026-04-05T09:03:10.001Z</time></trkpt><trkpt lat="41.75852933242282" lon="13.417198749348627"><ele>926.4000000000001</ele><time>2026-04-05T09:03:11.001Z</time></trkpt><trkpt lat="41.7585532078154" lon="13.417350946695015"><ele>935.8000000000001</ele><time>2026-04-05T09:03:12.001Z</time></trkpt><trkpt lat="41.75858098128633" lon="13.417490428537468"><ele>945.2</ele><time>2026-04-05T09:03:13.001Z</time></trkpt><trkpt lat="41.75861198334435" lon="13.417617547804001"><ele>954.6</ele><time>2026-04-05T09:03:14.001Z</time></trkpt><trkpt lat="41.75864475446771" lon="13.417760175038007"><ele>964.0</ele><time>2026-04-05T09:03:15.001Z</time></trkpt><trkpt lat="41.75865193515353" lon="13.417908583875882"><ele>965.5</ele><time>2026-04-05T09:03:16.001Z</time></trkpt><trkpt lat="41.758662814131725" lon="13.418063246338566"><ele>967.0</ele><time>2026-04-05T09:03:17.001Z</time></trkpt><trkpt lat="41.7586782978923" lon="13.418228885057335"><ele>968.5</ele><time>2026-04-05T09:03:18.001Z</time></trkpt><trkpt lat="41.758707946812805" lon="13.418381304001029"><ele>970.0</ele><time>2026-04-05T09:03:19.001Z</time></trkpt><trkpt lat="41.75873124000697" lon="13.418512661702833"><ele>969.9999999999999</ele><time>2026-04-05T09:03:20.001Z</time></trkpt><trkpt lat="41.75876053685761" lon="13.41864273995491"><ele>970.0</ele><time>2026-04-05T09:03:21.001Z</time></trkpt><trkpt lat="41.75877468309779" lon="13.418758498596501"><ele>970.0</ele><time>2026-04-05T09:03:22.001Z</time></trkpt><trkpt lat="41.75878252078443" lon="13.418862067856738"><ele>970.0</ele><time>2026-04-05T09:03:23.001Z</time></trkpt><trkpt lat="41.75880141734054" lon="13.418951078312379"><ele>969.9999999999999</ele><time>2026-04-05T09:03:24.001Z</time></trkpt><trkpt lat="41.758805839130304" lon="13.419046449525213"><ele>970.0</ele><time>2026-04-05T09:03:25.001Z</time></trkpt><trkpt lat="41.758820488757394" lon="13.419135232640466"><ele>970.1666666666666</ele><time>2026-04-05T09:03:26.001Z</time></trkpt><trkpt lat="41.75882974043561" lon="13.4192366126494"><ele>970.3333333333333</ele><time>2026-04-05T09:03:27.001Z</time></trkpt><trkpt lat="41.75883109930522" lon="13.419363692191125"><ele>970.5</ele><time>2026-04-05T09:03:28.001Z</time></trkpt><trkpt lat="41.75882332253744" lon="13.419477126070332"><ele>970.6666666666667</ele><time>2026-04-05T09:03:29.001Z</time></trkpt><trkpt lat="41.7587958966208" lon="13.41959015320169"><ele>970.8333333333334</ele><time>2026-04-05T09:03:30.001Z</time></trkpt><trkpt lat="41.75874707663302" lon="13.41969496293966"><ele>971.0</ele><time>2026-04-05T09:03:31.001Z</time></trkpt><trkpt lat="41.758665316399316" lon="13.419775804773142"><ele>973.75</ele><time>2026-04-05T09:03:32.001Z</time></trkpt><trkpt lat="41.75856444319592" lon="13.419841169412788"><ele>976.5</ele><time>2026-04-05T09:03:33.001Z</time></trkpt><trkpt lat="41.75844907140983" lon="13.419899225690111"><ele>979.25</ele><time>2026-04-05T09:03:34.001Z</time></trkpt><trkpt lat="41.75831707611408" lon="13.419946236821705"><ele>982.0</ele><time>2026-04-05T09:03:35.001Z</time></trkpt><trkpt lat="41.75818990978543" lon="13.419990052310798"><ele>975.0</ele><time>2026-04-05T09:03:36.001Z</time></trkpt><trkpt lat="41.75808880758286" lon="13.420039065915235"><ele>968.0</ele><time>2026-04-05T09:03:37.001Z</time></trkpt><trkpt lat="41.757992259974635" lon="13.420101777402614"><ele>961.0</ele><time>2026-04-05T09:03:38.001Z</time></trkpt><trkpt lat="41.757895246225374" lon="13.420161386426912"><ele>954.0</ele><time>2026-04-05T09:03:39.001Z</time></trkpt><trkpt lat="41.75776646060222" lon="13.420249400511157"><ele>957.25</ele><time>2026-04-05T09:03:40.001Z</time></trkpt><trkpt lat="41.757655966663414" lon="13.420334495680729"><ele>960.5</ele><time>2026-04-05T09:03:41.001Z</time></trkpt><trkpt lat="41.75756879504541" lon="13.420409350999812"><ele>963.75</ele><time>2026-04-05T09:03:42.001Z</time></trkpt><trkpt lat="41.75744884580052" lon="13.420484152740286"><ele>967.0</ele><time>2026-04-05T09:03:43.001Z</time></trkpt><trkpt lat="41.75733567784437" lon="13.420539307149136"><ele>967.0</ele><time>2026-04-05T09:03:44.001Z</time></trkpt><trkpt lat="41.757234010005796" lon="13.42058495898658"><ele>967.0</ele><time>2026-04-05T09:03:45.001Z</time></trkpt><trkpt lat="41.75713341547255" lon="13.420618021062452"><ele>967.0</ele><time>2026-04-05T09:03:46.001Z</time></trkpt><trkpt lat="41.75702916480701" lon="13.420667738036663"><ele>967.0</ele><time>2026-04-05T09:03:47.001Z</time></trkpt><trkpt lat="41.75693007272079" lon="13.420707986748733"><ele>967.0</ele><time>2026-04-05T09:03:48.001Z</time></trkpt><trkpt lat="41.756830309236285" lon="13.420754566948789"><ele>961.6</ele><time>2026-04-05T09:03:49.001Z</time></trkpt><trkpt lat="41.756719735622205" lon="13.420802565659727"><ele>956.2</ele><time>2026-04-05T09:03:50.001Z</time></trkpt><trkpt lat="41.75663108984003" lon="13.420862055881116"><ele>950.8</ele><time>2026-04-05T09:03:51.001Z</time></trkpt><trkpt lat="41.756548060807624" lon="13.420919326685281"><ele>945.4</ele><time>2026-04-05T09:03:52.001Z</time></trkpt><trkpt lat="41.75649631352745" lon="13.420980024599096"><ele>940.0</ele><time>2026-04-05T09:03:53.001Z</time></trkpt><trkpt lat="41.75641610261009" lon="13.421051015872369"><ele>939.9999999999999</ele><time>2026-04-05T09:03:54.001Z</time></trkpt><trkpt lat="41.75637173176653" lon="13.421137918055885"><ele>940.0</ele><time>2026-04-05T09:03:55.001Z</time></trkpt><trkpt lat="41.7563404058302" lon="13.421229125292205"><ele>940.0</ele><time>2026-04-05T09:03:56.001Z</time></trkpt><trkpt lat="41.75634025982762" lon="13.421328458547091"><ele>940.0</ele><time>2026-04-05T09:03:57.001Z</time></trkpt><trkpt lat="41.7563551648625" lon="13.421439203482041"><ele>939.9999999999999</ele><time>2026-04-05T09:03:58.001Z</time></trkpt><trkpt lat="41.75636362198342" lon="13.421544333152868"><ele>940.0</ele><time>2026-04-05T09:03:59.001Z</time></trkpt><trkpt lat="41.756353940136904" lon="13.421644796084214"><ele>944.0</ele><time>2026-04-05T09:04:00.001Z</time></trkpt><trkpt lat="41.75632244238843" lon="13.421743784118298"><ele>948.0</ele><time>2026-04-05T09:04:01.001Z</time></trkpt><trkpt lat="41.75627639326347" lon="13.421834071120239"><ele>952.0</ele><time>2026-04-05T09:04:02.001Z</time></trkpt><trkpt lat="41.75620971507923" lon="13.421932054751652"><ele>956.0</ele><time>2026-04-05T09:04:03.001Z</time></trkpt><trkpt lat="41.75612261082712" lon="13.422024923356348"><ele>960.0</ele><time>2026-04-05T09:04:04.001Z</time></trkpt><trkpt lat="41.75604285433196" lon="13.42208635205608"><ele>959.0</ele><time>2026-04-05T09:04:05Z</time></trkpt><trkpt lat="41.75598672984518" lon="13.422128330033319"><ele>958.0</ele><time>2026-04-05T09:04:06Z</time></trkpt><trkpt lat="41.75592551856247" lon="13.422173344510547"><ele>957.0</ele><time>2026-04-05T09:04:08Z</time></trkpt><trkpt lat="41.755847731087385" lon="13.42221170032442"><ele>956.0</ele><time>2026-04-05T09:04:10Z</time></trkpt><trkpt lat="41.75572574436396" lon="13.422246655102672"><ele>955.0</ele><time>2026-04-05T09:04:12Z</time></trkpt><trkpt lat="41.755659232332896" lon="13.422264268477058"><ele>954.0</ele><time>2026-04-05T09:04:13Z</time></trkpt><trkpt lat="41.755591102961944" lon="13.422280362091474"><ele>954.0</ele><time>2026-04-05T09:04:14Z</time></trkpt><trkpt lat="41.755476397921676" lon="13.422309405769676"><ele>954.0</ele><time>2026-04-05T09:04:16Z</time></trkpt><trkpt lat="41.75538886499094" lon="13.422367982697844"><ele>954.0</ele><time>2026-04-05T09:04:18Z</time></trkpt><trkpt lat="41.75533242436593" lon="13.42241409582832"><ele>954.0</ele><time>2026-04-05T09:04:20Z</time></trkpt><trkpt lat="41.755269683236655" lon="13.422437401327905"><ele>954.0</ele><time>2026-04-05T09:04:30Z</time></trkpt><trkpt lat="41.755202478157955" lon="13.42247951810139"><ele>954.0</ele><time>2026-04-05T09:04:40Z</time></trkpt><trkpt lat="41.75514890966422" lon="13.422575678651652"><ele>947.2</ele><time>2026-04-05T09:04:42Z</time></trkpt><trkpt lat="41.755093680895605" lon="13.422698122145725"><ele>940.4000000000001</ele><time>2026-04-05T09:04:45Z</time></trkpt><trkpt lat="41.75497771491266" lon="13.422816179170807"><ele>933.6</ele><time>2026-04-05T09:04:46Z</time></trkpt><trkpt lat="41.75495542159869" lon="13.422911314317709"><ele>926.8</ele><time>2026-04-05T09:04:48Z</time></trkpt><trkpt lat="41.75489174094206" lon="13.422972983505325"><ele>920.0</ele><time>2026-04-05T09:04:51Z</time></trkpt><trkpt lat="41.75480264705071" lon="13.422956470881644"><ele>920.0</ele><time>2026-04-05T09:04:56Z</time></trkpt><trkpt lat="41.75471589708183" lon="13.422915305901288"><ele>920.0</ele><time>2026-04-05T09:04:59Z</time></trkpt><trkpt lat="41.754622568886454" lon="13.422891519588703"><ele>920.0</ele><time>2026-04-05T09:05:02.001Z</time></trkpt><trkpt lat="41.75450938585325" lon="13.422872239331754"><ele>920.0</ele><time>2026-04-05T09:05:04.001Z</time></trkpt><trkpt lat="41.7544198218073" lon="13.422866322735132"><ele>920.0</ele><time>2026-04-05T09:05:06.001Z</time></trkpt><trkpt lat="41.75430387508424" lon="13.422848428364738"><ele>921.0</ele><time>2026-04-05T09:05:08.001Z</time></trkpt><trkpt lat="41.754220343807376" lon="13.42285259585335"><ele>922.0</ele><time>2026-04-05T09:05:10.001Z</time></trkpt><trkpt lat="41.75415214695456" lon="13.422857268119486"><ele>923.0</ele><time>2026-04-05T09:05:12.001Z</time></trkpt><trkpt lat="41.75405650701627" lon="13.422936369018666"><ele>924.0</ele><time>2026-04-05T09:05:14.001Z</time></trkpt><trkpt lat="41.75396649945273" lon="13.423031140547238"><ele>925.0</ele><time>2026-04-05T09:05:16.001Z</time></trkpt><trkpt lat="41.75390269981332" lon="13.423112403979925"><ele>924.9999999999999</ele><time>2026-04-05T09:05:18.001Z</time></trkpt><trkpt lat="41.753831500389865" lon="13.423163816109243"><ele>925.0</ele><time>2026-04-05T09:06:26Z</time></trkpt><trkpt lat="41.7537493580556" lon="13.42316579466948"><ele>925.0</ele><time>2026-04-05T09:06:51Z</time></trkpt><trkpt lat="41.7536618629126" lon="13.423169395087017"><ele>925.0</ele><time>2026-04-05T09:06:54Z</time></trkpt><trkpt lat="41.7536074337936" lon="13.423122910640464"><ele>924.9999999999999</ele><time>2026-04-05T09:06:56Z</time></trkpt><trkpt lat="41.753552908671416" lon="13.423077105110814"><ele>925.0</ele><time>2026-04-05T09:06:58Z</time></trkpt><trkpt lat="41.75347424260253" lon="13.423005686599152"><ele>919.3333333333333</ele><time>2026-04-05T09:07:02Z</time></trkpt><trkpt lat="41.75341748561831" lon="13.422942163912344"><ele>913.6666666666666</ele><time>2026-04-05T09:07:04Z</time></trkpt><trkpt lat="41.75336592986562" lon="13.42286311266532"><ele>908.0</ele><time>2026-04-05T09:07:07.001Z</time></trkpt><trkpt lat="41.75330838444727" lon="13.422772306872321"><ele>902.3333333333333</ele><time>2026-04-05T09:07:10.001Z</time></trkpt><trkpt lat="41.75325650491388" lon="13.422675071393428"><ele>896.6666666666666</ele><time>2026-04-05T09:07:13.001Z</time></trkpt><trkpt lat="41.75319973371742" lon="13.422604480594998"><ele>891.0</ele><time>2026-04-05T09:07:15.001Z</time></trkpt><trkpt lat="41.753177392548345" lon="13.422521151409605"><ele>891.0</ele><time>2026-04-05T09:07:17.001Z</time></trkpt><trkpt lat="41.75314723428513" lon="13.422413532572236"><ele>891.0</ele><time>2026-04-05T09:07:20.001Z</time></trkpt><trkpt lat="41.75311328662708" lon="13.42230606428533"><ele>891.0</ele><time>2026-04-05T09:07:22.001Z</time></trkpt><trkpt lat="41.753069248746336" lon="13.422229954463159"><ele>891.0</ele><time>2026-04-05T09:07:24.001Z</time></trkpt><trkpt lat="41.75303888391977" lon="13.422148787088162"><ele>891.0</ele><time>2026-04-05T09:07:26.001Z</time></trkpt><trkpt lat="41.75300266847099" lon="13.422061301024804"><ele>891.0</ele><time>2026-04-05T09:07:28.001Z</time></trkpt><trkpt lat="41.752942224424686" lon="13.421982476712083"><ele>888.5714285714287</ele><time>2026-04-05T09:07:30.001Z</time></trkpt><trkpt lat="41.75289206181726" lon="13.421918702013853"><ele>886.1428571428571</ele><time>2026-04-05T09:07:32.001Z</time></trkpt><trkpt lat="41.752843020178375" lon="13.421859614727008"><ele>883.7142857142858</ele><time>2026-04-05T09:07:34.001Z</time></trkpt><trkpt lat="41.7527676362614" lon="13.42181442334818"><ele>881.2857142857143</ele><time>2026-04-05T09:07:36.001Z</time></trkpt><trkpt lat="41.75269895305068" lon="13.421764249835462"><ele>878.8571428571429</ele><time>2026-04-05T09:07:38.001Z</time></trkpt><trkpt lat="41.752642115148674" lon="13.42172720877975"><ele>876.4285714285714</ele><time>2026-04-05T09:07:41.001Z</time></trkpt><trkpt lat="41.75255753348267" lon="13.421755011972355"><ele>874.0</ele><time>2026-04-05T09:07:44.001Z</time></trkpt><trkpt lat="41.752490595315294" lon="13.421764332338313"><ele>874.0</ele><time>2026-04-05T09:07:46.001Z</time></trkpt><trkpt lat="41.75243197108778" lon="13.421814788354274"><ele>874.0</ele><time>2026-04-05T09:07:49.001Z</time></trkpt><trkpt lat="41.75238286072202" lon="13.421880813399058"><ele>874.0</ele><time>2026-04-05T09:07:51.001Z</time></trkpt><trkpt lat="41.752379096056345" lon="13.421972826298138"><ele>874.0</ele><time>2026-04-05T09:07:53.001Z</time></trkpt><trkpt lat="41.75230924178269" lon="13.422014589150946"><ele>874.0</ele><time>2026-04-05T09:07:57.001Z</time></trkpt><trkpt lat="41.75227144645256" lon="13.422104251507177"><ele>874.0</ele><time>2026-04-05T09:07:59.001Z</time></trkpt><trkpt lat="41.75224376450268" lon="13.422188133988563"><ele>874.0</ele><time>2026-04-05T09:08:01.001Z</time></trkpt><trkpt lat="41.7521973206061" lon="13.42225826551256"><ele>877.1666666666666</ele><time>2026-04-05T09:08:09.001Z</time></trkpt><trkpt lat="41.752142000400305" lon="13.422360030883274"><ele>880.3333333333333</ele><time>2026-04-05T09:08:13.001Z</time></trkpt><trkpt lat="41.752092683973615" lon="13.422444335871118"><ele>883.5</ele><time>2026-04-05T09:08:17Z</time></trkpt><trkpt lat="41.752042876672114" lon="13.422507795093182"><ele>886.6666666666667</ele><time>2026-04-05T09:08:19Z</time></trkpt><trkpt lat="41.752001164159175" lon="13.422613393910094"><ele>889.8333333333334</ele><time>2026-04-05T09:08:23Z</time></trkpt><trkpt lat="41.751959731073214" lon="13.42268417724951"><ele>893.0</ele><time>2026-04-05T09:08:26Z</time></trkpt><trkpt lat="41.75189642898009" lon="13.42276133090422"><ele>887.8333333333334</ele><time>2026-04-05T09:08:29Z</time></trkpt><trkpt lat="41.75184327088241" lon="13.422862704271823"><ele>882.6666666666667</ele><time>2026-04-05T09:08:32Z</time></trkpt><trkpt lat="41.75176780150427" lon="13.422977517797737"><ele>877.5</ele><time>2026-04-05T09:08:35Z</time></trkpt><trkpt lat="41.75172341833234" lon="13.423063320927374"><ele>872.3333333333333</ele><time>2026-04-05T09:08:37Z</time></trkpt><trkpt lat="41.75167005281619" lon="13.423122099573824"><ele>867.1666666666666</ele><time>2026-04-05T09:08:39Z</time></trkpt><trkpt lat="41.751609581553765" lon="13.423199207099893"><ele>862.0</ele><time>2026-04-05T09:08:43Z</time></trkpt><trkpt lat="41.75155384369783" lon="13.423264113651628"><ele>862.0</ele><time>2026-04-05T09:08:46Z</time></trkpt><trkpt lat="41.75149777938301" lon="13.423332829526236"><ele>862.0</ele><time>2026-04-05T09:08:48Z</time></trkpt><trkpt lat="41.75144658482534" lon="13.423397491459218"><ele>862.0</ele><time>2026-04-05T09:08:51Z</time></trkpt><trkpt lat="41.751387041577274" lon="13.423470781849609"><ele>862.0</ele><time>2026-04-05T09:08:54Z</time></trkpt><trkpt lat="41.75133526046524" lon="13.423521533298246"><ele>862.0</ele><time>2026-04-05T09:08:56Z</time></trkpt><trkpt lat="41.75118058486848" lon="13.423805937292647"><ele>866.3333333333333</ele><time>2026-04-05T09:08:59Z</time></trkpt><trkpt lat="41.75111685189429" lon="13.423868676227963"><ele>870.6666666666666</ele><time>2026-04-05T09:09:04Z</time></trkpt><trkpt lat="41.751059344458966" lon="13.423927852670426"><ele>875.0</ele><time>2026-04-05T09:09:13Z</time></trkpt><trkpt lat="41.75099182134405" lon="13.423992481451938"><ele>879.3333333333333</ele><time>2026-04-05T09:09:20.001Z</time></trkpt><trkpt lat="41.75093268883369" lon="13.424051003608989"><ele>883.6666666666666</ele><time>2026-04-05T09:09:23.001Z</time></trkpt><trkpt lat="41.750879839969464" lon="13.424123955214016"><ele>888.0</ele><time>2026-04-05T09:09:25.001Z</time></trkpt><trkpt lat="41.75085691825428" lon="13.424254155909685"><ele>878.6666666666666</ele><time>2026-04-05T09:09:29.001Z</time></trkpt><trkpt lat="41.75078432172571" lon="13.424319328339779"><ele>869.3333333333333</ele><time>2026-04-05T09:09:32.001Z</time></trkpt><trkpt lat="41.75073876055412" lon="13.424393251599348"><ele>860.0</ele><time>2026-04-05T09:09:36.001Z</time></trkpt><trkpt lat="41.75064951130553" lon="13.424441902039248"><ele>850.6666666666666</ele><time>2026-04-05T09:09:39.001Z</time></trkpt><trkpt lat="41.75059264868507" lon="13.424503532727602"><ele>841.3333333333333</ele><time>2026-04-05T09:09:43.001Z</time></trkpt><trkpt lat="41.75053151562228" lon="13.424577489537283"><ele>832.0</ele><time>2026-04-05T09:09:47.001Z</time></trkpt><trkpt lat="41.75046630784719" lon="13.424639643988908"><ele>828.3333333333333</ele><time>2026-04-05T09:09:51.001Z</time></trkpt><trkpt lat="41.75039481394277" lon="13.424699787874948"><ele>824.6666666666666</ele><time>2026-04-05T09:09:54.001Z</time></trkpt><trkpt lat="41.750334739505554" lon="13.424762027627773"><ele>821.0</ele><time>2026-04-05T09:09:58.001Z</time></trkpt><trkpt lat="41.750265441547896" lon="13.424798949608743"><ele>817.3333333333333</ele><time>2026-04-05T09:10:01.001Z</time></trkpt><trkpt lat="41.75018973569143" lon="13.42483253576381"><ele>813.6666666666666</ele><time>2026-04-05T09:10:05.001Z</time></trkpt><trkpt lat="41.75014631573729" lon="13.424900980780436"><ele>810.0</ele><time>2026-04-05T09:10:07.001Z</time></trkpt><trkpt lat="41.75006897604263" lon="13.424977382506725"><ele>810.0</ele><time>2026-04-05T09:10:10.001Z</time></trkpt><trkpt lat="41.74998805338053" lon="13.425041280288733"><ele>810.0</ele><time>2026-04-05T09:10:12.001Z</time></trkpt><trkpt lat="41.749917899083314" lon="13.425149466182452"><ele>810.0</ele><time>2026-04-05T09:10:14.001Z</time></trkpt><trkpt lat="41.749874660062495" lon="13.425216907550753"><ele>810.0</ele><time>2026-04-05T09:10:24Z</time></trkpt><trkpt lat="41.74983557507802" lon="13.425353115274978"><ele>810.0</ele><time>2026-04-05T09:11:08Z</time></trkpt><trkpt lat="41.749774127655485" lon="13.425417804317844"><ele>808.8571428571428</ele><time>2026-04-05T09:11:18Z</time></trkpt><trkpt lat="41.74972854220049" lon="13.425483729333608"><ele>807.7142857142857</ele><time>2026-04-05T09:11:24Z</time></trkpt><trkpt lat="41.749669261173125" lon="13.425519861028922"><ele>806.5714285714286</ele><time>2026-04-05T09:11:27.001Z</time></trkpt><trkpt lat="41.749613045852804" lon="13.425590486546053"><ele>805.4285714285713</ele><time>2026-04-05T09:11:31.001Z</time></trkpt><trkpt lat="41.74956197326589" lon="13.425644371588158"><ele>804.2857142857143</ele><time>2026-04-05T09:11:33.001Z</time></trkpt><trkpt lat="41.74949118359711" lon="13.425697137949323"><ele>803.1428571428571</ele><time>2026-04-05T09:11:37.001Z</time></trkpt><trkpt lat="41.74942752917922" lon="13.425752894712373"><ele>802.0</ele><time>2026-04-05T09:11:40.001Z</time></trkpt><trkpt lat="41.7493726312694" lon="13.42580024256651"><ele>802.0</ele><time>2026-04-05T09:11:42.001Z</time></trkpt><trkpt lat="41.749177925221915" lon="13.425854919345657"><ele>802.0</ele><time>2026-04-05T09:11:44.001Z</time></trkpt><trkpt lat="41.74906985263034" lon="13.4258259362605"><ele>802.0</ele><time>2026-04-05T09:11:45.001Z</time></trkpt><trkpt lat="41.748984975218484" lon="13.425840378091943"><ele>802.0</ele><time>2026-04-05T09:11:47.001Z</time></trkpt><trkpt lat="41.74892617361502" lon="13.425784621936334"><ele>801.9999999999999</ele><time>2026-04-05T09:11:49.001Z</time></trkpt><trkpt lat="41.74886071079079" lon="13.425753983867368"><ele>802.0</ele><time>2026-04-05T09:11:50.001Z</time></trkpt><trkpt lat="41.748791589214704" lon="13.425710597981489"><ele>802.0</ele><time>2026-04-05T09:11:52.001Z</time></trkpt><trkpt lat="41.74874775198832" lon="13.425618782483076"><ele>802.0</ele><time>2026-04-05T09:11:53.001Z</time></trkpt><trkpt lat="41.74869543358368" lon="13.42556958605931"><ele>801.9999999999999</ele><time>2026-04-05T09:11:55.001Z</time></trkpt><trkpt lat="41.748603259940836" lon="13.425522151568956"><ele>802.0</ele><time>2026-04-05T09:11:58.001Z</time></trkpt><trkpt lat="41.74868223762868" lon="13.425484283290574"><ele>799.2</ele><time>2026-04-05T09:12:02.001Z</time></trkpt><trkpt lat="41.748763276829415" lon="13.425414249306153"><ele>796.4000000000001</ele><time>2026-04-05T09:12:04.001Z</time></trkpt><trkpt lat="41.74881641461495" lon="13.42533449481431"><ele>793.5999999999999</ele><time>2026-04-05T09:12:05.001Z</time></trkpt><trkpt lat="41.74874882119843" lon="13.425222957228074"><ele>790.8</ele><time>2026-04-05T09:12:09.001Z</time></trkpt><trkpt lat="41.74867851847166" lon="13.425223203087727"><ele>788.0</ele><time>2026-04-05T09:12:10.001Z</time></trkpt><trkpt lat="41.7485840220242" lon="13.425111075272488"><ele>786.3333333333334</ele><time>2026-04-05T09:12:12.001Z</time></trkpt><trkpt lat="41.74852965843389" lon="13.425044531286844"><ele>784.6666666666667</ele><time>2026-04-05T09:12:13.001Z</time></trkpt><trkpt lat="41.748481328380514" lon="13.424986354320563"><ele>783.0</ele><time>2026-04-05T09:12:14.001Z</time></trkpt><trkpt lat="41.7484191165358" lon="13.424908483450972"><ele>781.3333333333333</ele><time>2026-04-05T09:12:15.001Z</time></trkpt><trkpt lat="41.74835184842555" lon="13.424825173548916"><ele>779.6666666666666</ele><time>2026-04-05T09:12:16.001Z</time></trkpt><trkpt lat="41.74828072780636" lon="13.424753612812054"><ele>778.0</ele><time>2026-04-05T09:12:17.001Z</time></trkpt><trkpt lat="41.748201896605835" lon="13.42468956608951"><ele>777.9999999999999</ele><time>2026-04-05T09:12:18.001Z</time></trkpt><trkpt lat="41.74811679862237" lon="13.42463751723558"><ele>778.0</ele><time>2026-04-05T09:12:19.001Z</time></trkpt><trkpt lat="41.74803851752023" lon="13.424631207647158"><ele>778.0</ele><time>2026-04-05T09:12:20.001Z</time></trkpt><trkpt lat="41.74796139734273" lon="13.424658396462894"><ele>778.0</ele><time>2026-04-05T09:12:21.001Z</time></trkpt><trkpt lat="41.747881695178485" lon="13.424704961840938"><ele>777.9999999999999</ele><time>2026-04-05T09:12:22.001Z</time></trkpt><trkpt lat="41.747806291791115" lon="13.424734684672861"><ele>778.0</ele><time>2026-04-05T09:12:23.001Z</time></trkpt><trkpt lat="41.74772990586202" lon="13.424766493296735"><ele>774.8</ele><time>2026-04-05T09:12:24.001Z</time></trkpt><trkpt lat="41.74765483559519" lon="13.424790293506854"><ele>771.5999999999999</ele><time>2026-04-05T09:12:25.001Z</time></trkpt><trkpt lat="41.74758305824404" lon="13.424800843097877"><ele>768.4000000000001</ele><time>2026-04-05T09:12:26.001Z</time></trkpt><trkpt lat="41.74751449465613" lon="13.424816827282164"><ele>765.2</ele><time>2026-04-05T09:12:27.001Z</time></trkpt><trkpt lat="41.74740109901652" lon="13.424878100362134"><ele>762.0</ele><time>2026-04-05T09:12:29Z</time></trkpt><trkpt lat="41.747299507303346" lon="13.42495278263635"><ele>762.0</ele><time>2026-04-05T09:12:31Z</time></trkpt><trkpt lat="41.74724364831673" lon="13.424996008026223"><ele>762.0</ele><time>2026-04-05T09:12:32Z</time></trkpt><trkpt lat="41.74717922586973" lon="13.425058219718025"><ele>762.0</ele><time>2026-04-05T09:12:33Z</time></trkpt><trkpt lat="41.74711983494781" lon="13.425127617860518"><ele>762.0</ele><time>2026-04-05T09:12:34Z</time></trkpt><trkpt lat="41.747073086611984" lon="13.42520656019433"><ele>762.0</ele><time>2026-04-05T09:12:35Z</time></trkpt><trkpt lat="41.74701780836967" lon="13.42527775525776"><ele>762.0</ele><time>2026-04-05T09:12:36Z</time></trkpt><trkpt lat="41.746958387363854" lon="13.425343591247968"><ele>762.0</ele><time>2026-04-05T09:12:37Z</time></trkpt><trkpt lat="41.74693993322386" lon="13.425259898600371"><ele>762.0</ele><time>2026-04-05T09:13:45.001Z</time></trkpt><trkpt lat="41.74695274794069" lon="13.425177172923703"><ele>762.0</ele><time>2026-04-05T09:13:50.001Z</time></trkpt><trkpt lat="41.746963517456734" lon="13.425054998209054"><ele>762.0</ele><time>2026-04-05T09:14:00.001Z</time></trkpt><trkpt lat="41.746943838368026" lon="13.424971471033508"><ele>762.0</ele><time>2026-04-05T09:14:02.001Z</time></trkpt><trkpt lat="41.74691323615503" lon="13.424866095865458"><ele>762.0</ele><time>2026-04-05T09:14:04.001Z</time></trkpt><trkpt lat="41.74679881906322" lon="13.42480466240915"><ele>757.8</ele><time>2026-04-05T09:14:10.001Z</time></trkpt><trkpt lat="41.746705200077834" lon="13.424799540031946"><ele>753.6</ele><time>2026-04-05T09:14:12.001Z</time></trkpt><trkpt lat="41.74658755558088" lon="13.424766212068391"><ele>749.4</ele><time>2026-04-05T09:14:14.001Z</time></trkpt><trkpt lat="41.74645662434016" lon="13.424773102491171"><ele>745.1999999999999</ele><time>2026-04-05T09:14:16.001Z</time></trkpt><trkpt lat="41.746377182261874" lon="13.424790363414308"><ele>741.0</ele><time>2026-04-05T09:14:17.001Z</time></trkpt><trkpt lat="41.74628046868458" lon="13.42476710719894"><ele>741.0</ele><time>2026-04-05T09:14:18.001Z</time></trkpt><trkpt lat="41.74618641671699" lon="13.424800825974046"><ele>741.0</ele><time>2026-04-05T09:14:19.001Z</time></trkpt><trkpt lat="41.74609243274571" lon="13.424835370845463"><ele>741.0</ele><time>2026-04-05T09:14:20.001Z</time></trkpt><trkpt lat="41.74600670086041" lon="13.424854608816817"><ele>741.0</ele><time>2026-04-05T09:14:21.001Z</time></trkpt><trkpt lat="41.74591800816859" lon="13.424830598853646"><ele>741.0</ele><time>2026-04-05T09:14:22.001Z</time></trkpt><trkpt lat="41.74583117162303" lon="13.424797756156446"><ele>738.0</ele><time>2026-04-05T09:14:23.001Z</time></trkpt><trkpt lat="41.74577551332594" lon="13.42475732121117"><ele>735.0</ele><time>2026-04-05T09:14:24.001Z</time></trkpt><trkpt lat="41.74570887051627" lon="13.424727274774524"><ele>732.0</ele><time>2026-04-05T09:14:26.001Z</time></trkpt><trkpt lat="41.745615852074216" lon="13.424707332334176"><ele>729.0</ele><time>2026-04-05T09:14:43Z</time></trkpt><trkpt lat="41.74552317541284" lon="13.424755382020704"><ele>726.0</ele><time>2026-04-05T09:14:44Z</time></trkpt><trkpt lat="41.7454360737043" lon="13.424844796048811"><ele>723.0</ele><time>2026-04-05T09:14:45Z</time></trkpt><trkpt lat="41.745354136393615" lon="13.424977059384526"><ele>723.0</ele><time>2026-04-05T09:14:46Z</time></trkpt><trkpt lat="41.745247163143574" lon="13.425083069922946"><ele>723.0</ele><time>2026-04-05T09:14:47Z</time></trkpt><trkpt lat="41.74513973716053" lon="13.425221577744786"><ele>723.0</ele><time>2026-04-05T09:14:48Z</time></trkpt><trkpt lat="41.74504092784074" lon="13.425363555404147"><ele>723.0</ele><time>2026-04-05T09:14:49Z</time></trkpt><trkpt lat="41.74494792945881" lon="13.425503584185053"><ele>720.75</ele><time>2026-04-05T09:14:50Z</time></trkpt><trkpt lat="41.74485457266214" lon="13.425636094037761"><ele>718.5</ele><time>2026-04-05T09:14:51Z</time></trkpt><trkpt lat="41.744744988187705" lon="13.42575305859403"><ele>716.25</ele><time>2026-04-05T09:14:52Z</time></trkpt><trkpt lat="41.74464598772201" lon="13.425863891565848"><ele>714.0</ele><time>2026-04-05T09:14:53Z</time></trkpt><trkpt lat="41.744541223019986" lon="13.425971648832316"><ele>714.0</ele><time>2026-04-05T09:14:54Z</time></trkpt><trkpt lat="41.744440020095865" lon="13.426055886605957"><ele>714.0</ele><time>2026-04-05T09:14:55Z</time></trkpt><trkpt lat="41.744336777394956" lon="13.42613532404775"><ele>714.0</ele><time>2026-04-05T09:14:56Z</time></trkpt><trkpt lat="41.744225071582385" lon="13.426214755823102"><ele>714.0</ele><time>2026-04-05T09:14:57Z</time></trkpt><trkpt lat="41.74411109435801" lon="13.42630110458161"><ele>714.3333333333334</ele><time>2026-04-05T09:14:58Z</time></trkpt><trkpt lat="41.74398348928412" lon="13.426399944534682"><ele>714.6666666666667</ele><time>2026-04-05T09:14:59Z</time></trkpt><trkpt lat="41.743854150973036" lon="13.426517810372305"><ele>715.0</ele><time>2026-04-05T09:15:00Z</time></trkpt><trkpt lat="41.74369390498972" lon="13.426657884794508"><ele>714.3333333333334</ele><time>2026-04-05T09:15:01Z</time></trkpt><trkpt lat="41.743528244620805" lon="13.426825279604676"><ele>713.6666666666666</ele><time>2026-04-05T09:15:02Z</time></trkpt><trkpt lat="41.74335855744824" lon="13.42700143201157"><ele>713.0</ele><time>2026-04-05T09:15:03Z</time></trkpt><trkpt lat="41.743243149957124" lon="13.427214383201925"><ele>713.0</ele><time>2026-04-05T09:15:04Z</time></trkpt><trkpt lat="41.74312482328892" lon="13.427376206322101"><ele>713.0</ele><time>2026-04-05T09:15:05Z</time></trkpt><trkpt lat="41.74297687155501" lon="13.427491195808631"><ele>713.0</ele><time>2026-04-05T09:15:06Z</time></trkpt><trkpt lat="41.74282740559563" lon="13.427594162844422"><ele>716.0</ele><time>2026-04-05T09:15:07Z</time></trkpt><trkpt lat="41.74267760131551" lon="13.427683271904714"><ele>719.0</ele><time>2026-04-05T09:15:08Z</time></trkpt><trkpt lat="41.74252972572041" lon="13.427780341831744"><ele>722.0</ele><time>2026-04-05T09:15:09Z</time></trkpt><trkpt lat="41.74239773903549" lon="13.427875948469687"><ele>718.25</ele><time>2026-04-05T09:15:10Z</time></trkpt><trkpt lat="41.74229183568356" lon="13.428005453820616"><ele>714.5</ele><time>2026-04-05T09:15:11Z</time></trkpt><trkpt lat="41.74221826282061" lon="13.42817479285153"><ele>710.75</ele><time>2026-04-05T09:15:12Z</time></trkpt><trkpt lat="41.74216072497508" lon="13.428356944183085"><ele>707.0</ele><time>2026-04-05T09:15:13Z</time></trkpt><trkpt lat="41.74208279256974" lon="13.428511642561109"><ele>707.0</ele><time>2026-04-05T09:15:14Z</time></trkpt><trkpt lat="41.74200186955663" lon="13.428626962172228"><ele>707.0</ele><time>2026-04-05T09:15:15Z</time></trkpt><trkpt lat="41.7419068356942" lon="13.42870039990847"><ele>707.0</ele><time>2026-04-05T09:15:16Z</time></trkpt><trkpt lat="41.741800402838564" lon="13.428681904470059"><ele>707.0</ele><time>2026-04-05T09:15:17Z</time></trkpt><trkpt lat="41.741688895161694" lon="13.428654831143941"><ele>707.0</ele><time>2026-04-05T09:15:18Z</time></trkpt><trkpt lat="41.74151885176217" lon="13.42856022321798"><ele>704.3333333333333</ele><time>2026-04-05T09:15:19Z</time></trkpt><trkpt lat="41.741352510651204" lon="13.428456322792552"><ele>701.6666666666666</ele><time>2026-04-05T09:15:20Z</time></trkpt><trkpt lat="41.74120087457377" lon="13.428365435263917"><ele>699.0</ele><time>2026-04-05T09:15:21Z</time></trkpt><trkpt lat="41.741055825166335" lon="13.428287459910841"><ele>693.0</ele><time>2026-04-05T09:15:22Z</time></trkpt><trkpt lat="41.74091946601837" lon="13.428176387231412"><ele>687.0</ele><time>2026-04-05T09:15:23Z</time></trkpt><trkpt lat="41.74078920591013" lon="13.428060511668846"><ele>681.0</ele><time>2026-04-05T09:15:24Z</time></trkpt><trkpt lat="41.740641907276256" lon="13.427996902203773"><ele>678.5</ele><time>2026-04-05T09:15:25Z</time></trkpt><trkpt lat="41.74048611974171" lon="13.427968563778872"><ele>676.0</ele><time>2026-04-05T09:15:26Z</time></trkpt><trkpt lat="41.7403401296497" lon="13.427947713485489"><ele>673.5</ele><time>2026-04-05T09:15:27Z</time></trkpt><trkpt lat="41.74020963667422" lon="13.427923779086678"><ele>671.0</ele><time>2026-04-05T09:15:28Z</time></trkpt><trkpt lat="41.74009649662839" lon="13.42790492319857"><ele>671.0</ele><time>2026-04-05T09:15:29Z</time></trkpt><trkpt lat="41.73999832241009" lon="13.427905860593178"><ele>671.0</ele><time>2026-04-05T09:15:30Z</time></trkpt><trkpt lat="41.739910914213944" lon="13.427911183998377"><ele>671.0</ele><time>2026-04-05T09:15:31Z</time></trkpt><trkpt lat="41.739841848349506" lon="13.427909760938613"><ele>671.0</ele><time>2026-04-05T09:15:32Z</time></trkpt><trkpt lat="41.73977474175281" lon="13.427950215634594"><ele>671.0</ele><time>2026-04-05T09:15:33Z</time></trkpt><trkpt lat="41.739729350214716" lon="13.428081355408302"><ele>671.0</ele><time>2026-04-05T09:15:34Z</time></trkpt><trkpt lat="41.739807777937926" lon="13.428266578374721"><ele>669.25</ele><time>2026-04-05T09:15:35Z</time></trkpt><trkpt lat="41.73985593947434" lon="13.428426969320329"><ele>667.5</ele><time>2026-04-05T09:15:36Z</time></trkpt><trkpt lat="41.73989915768792" lon="13.428578262251023"><ele>665.75</ele><time>2026-04-05T09:15:37Z</time></trkpt><trkpt lat="41.739949837473404" lon="13.428701133223424"><ele>664.0</ele><time>2026-04-05T09:15:38Z</time></trkpt><trkpt lat="41.740034024712656" lon="13.428793132548892"><ele>664.0</ele><time>2026-04-05T09:15:39.001Z</time></trkpt><trkpt lat="41.740184537967096" lon="13.428784040850472"><ele>664.0</ele><time>2026-04-05T09:15:40.001Z</time></trkpt><trkpt lat="41.740278163883254" lon="13.42886144302151"><ele>664.0</ele><time>2026-04-05T09:15:41.001Z</time></trkpt><trkpt lat="41.74032727664626" lon="13.428985833816"><ele>664.0</ele><time>2026-04-05T09:15:42.001Z</time></trkpt><trkpt lat="41.74038368282901" lon="13.429131454215103"><ele>665.8000000000001</ele><time>2026-04-05T09:15:43.001Z</time></trkpt><trkpt lat="41.74043240374911" lon="13.429274430857989"><ele>667.6</ele><time>2026-04-05T09:15:44.001Z</time></trkpt><trkpt lat="41.74046102140853" lon="13.429393095765779"><ele>669.4</ele><time>2026-04-05T09:15:45.001Z</time></trkpt><trkpt lat="41.74044927875098" lon="13.429485207090039"><ele>671.2</ele><time>2026-04-05T09:15:46.001Z</time></trkpt><trkpt lat="41.740398834348674" lon="13.42958143106343"><ele>673.0</ele><time>2026-04-05T09:15:47.001Z</time></trkpt><trkpt lat="41.740294398088544" lon="13.429664337676993"><ele>665.6666666666667</ele><time>2026-04-05T09:15:48.001Z</time></trkpt><trkpt lat="41.7401748818811" lon="13.42977856316727"><ele>658.3333333333334</ele><time>2026-04-05T09:15:49.001Z</time></trkpt><trkpt lat="41.7400408593821" lon="13.429925364892677"><ele>651.0</ele><time>2026-04-05T09:15:50.001Z</time></trkpt><trkpt lat="41.739907312953214" lon="13.430051688985463"><ele>651.0</ele><time>2026-04-05T09:15:51.001Z</time></trkpt><trkpt lat="41.73977473196394" lon="13.430177294248365"><ele>651.0</ele><time>2026-04-05T09:15:52.001Z</time></trkpt><trkpt lat="41.73963485138271" lon="13.430268528458669"><ele>651.0</ele><time>2026-04-05T09:15:53.001Z</time></trkpt><trkpt lat="41.73948788077092" lon="13.430318077623628"><ele>648.25</ele><time>2026-04-05T09:15:54.001Z</time></trkpt><trkpt lat="41.73935017405946" lon="13.430350160485373"><ele>645.5</ele><time>2026-04-05T09:15:55.001Z</time></trkpt><trkpt lat="41.739244822821895" lon="13.430441435195878"><ele>642.75</ele><time>2026-04-05T09:15:56.001Z</time></trkpt><trkpt lat="41.73916934478203" lon="13.430499362758853"><ele>640.0</ele><time>2026-04-05T09:15:57.001Z</time></trkpt><trkpt lat="41.73906909510323" lon="13.430477158658226"><ele>637.8333333333334</ele><time>2026-04-05T09:15:59.001Z</time></trkpt><trkpt lat="41.73904938923783" lon="13.430391740268307"><ele>635.6666666666667</ele><time>2026-04-05T09:16:00.001Z</time></trkpt><trkpt lat="41.73909304681702" lon="13.430297662646433"><ele>633.5</ele><time>2026-04-05T09:16:01.001Z</time></trkpt><trkpt lat="41.73919506412615" lon="13.430252388669166"><ele>631.3333333333334</ele><time>2026-04-05T09:16:02.001Z</time></trkpt><trkpt lat="41.739272598118724" lon="13.430172032084153"><ele>629.1666666666666</ele><time>2026-04-05T09:16:03.001Z</time></trkpt><trkpt lat="41.73934285427158" lon="13.430098891328214"><ele>627.0</ele><time>2026-04-05T09:16:04.001Z</time></trkpt><trkpt lat="41.73936762205957" lon="13.430011899908893"><ele>627.0</ele><time>2026-04-05T09:16:05.001Z</time></trkpt><trkpt lat="41.73934001292062" lon="13.429934687319669"><ele>627.0</ele><time>2026-04-05T09:16:06.001Z</time></trkpt><trkpt lat="41.73916346959745" lon="13.429930120720142"><ele>627.0</ele><time>2026-04-05T09:16:08.001Z</time></trkpt><trkpt lat="41.73904591778814" lon="13.430009868951753"><ele>627.0</ele><time>2026-04-05T09:16:09.001Z</time></trkpt><trkpt lat="41.738908503672384" lon="13.430078634447774"><ele>627.0</ele><time>2026-04-05T09:16:10.001Z</time></trkpt><trkpt lat="41.738748276632954" lon="13.43013671705101"><ele>627.0</ele><time>2026-04-05T09:16:11.001Z</time></trkpt><trkpt lat="41.7386010691897" lon="13.430190328258737"><ele>627.0</ele><time>2026-04-05T09:16:12.001Z</time></trkpt><trkpt lat="41.73847837332488" lon="13.430253273862945"><ele>622.75</ele><time>2026-04-05T09:16:13.001Z</time></trkpt><trkpt lat="41.73838357358918" lon="13.430338509408687"><ele>618.5</ele><time>2026-04-05T09:16:14.001Z</time></trkpt><trkpt lat="41.73832229744695" lon="13.430470487653645"><ele>614.25</ele><time>2026-04-05T09:16:15.001Z</time></trkpt><trkpt lat="41.73828912130325" lon="13.43062572283321"><ele>610.0</ele><time>2026-04-05T09:16:16.001Z</time></trkpt><trkpt lat="41.73823100405305" lon="13.430773917149043"><ele>610.0</ele><time>2026-04-05T09:16:17.001Z</time></trkpt><trkpt lat="41.73814767808511" lon="13.43092963407143"><ele>610.0</ele><time>2026-04-05T09:16:18.001Z</time></trkpt><trkpt lat="41.73804794027821" lon="13.431090722229918"><ele>610.0</ele><time>2026-04-05T09:16:19.001Z</time></trkpt><trkpt lat="41.7379242903701" lon="13.431263322581694"><ele>613.6666666666667</ele><time>2026-04-05T09:16:20.001Z</time></trkpt><trkpt lat="41.73779161432083" lon="13.431415266815854"><ele>617.3333333333334</ele><time>2026-04-05T09:16:21.001Z</time></trkpt><trkpt lat="41.737679229921724" lon="13.431591025667197"><ele>621.0</ele><time>2026-04-05T09:16:22.001Z</time></trkpt><trkpt lat="41.73757784902363" lon="13.431772739407348"><ele>617.6666666666666</ele><time>2026-04-05T09:16:23.001Z</time></trkpt><trkpt lat="41.73748602431358" lon="13.431970356320718"><ele>614.3333333333333</ele><time>2026-04-05T09:16:24.001Z</time></trkpt><trkpt lat="41.737376833186566" lon="13.43214315063764"><ele>611.0</ele><time>2026-04-05T09:16:25.001Z</time></trkpt><trkpt lat="41.73725218697094" lon="13.432288835732152"><ele>611.0</ele><time>2026-04-05T09:16:26.001Z</time></trkpt><trkpt lat="41.73712233823535" lon="13.432417189470508"><ele>611.0</ele><time>2026-04-05T09:16:27.001Z</time></trkpt><trkpt lat="41.736977157052664" lon="13.432515449773806"><ele>611.0</ele><time>2026-04-05T09:16:28.001Z</time></trkpt><trkpt lat="41.73684107894129" lon="13.432638346105005"><ele>600.3333333333333</ele><time>2026-04-05T09:16:29.001Z</time></trkpt><trkpt lat="41.73668758115175" lon="13.432741001008353"><ele>589.6666666666666</ele><time>2026-04-05T09:16:30.001Z</time></trkpt><trkpt lat="41.73653426516959" lon="13.432842219770311"><ele>579.0</ele><time>2026-04-05T09:16:31.001Z</time></trkpt><trkpt lat="41.73638025832696" lon="13.432940548693985"><ele>583.0</ele><time>2026-04-05T09:16:32.001Z</time></trkpt><trkpt lat="41.73622232029193" lon="13.433022841572697"><ele>587.0</ele><time>2026-04-05T09:16:33.001Z</time></trkpt><trkpt lat="41.73606763425467" lon="13.433112162012732"><ele>591.0</ele><time>2026-04-05T09:16:34.001Z</time></trkpt><trkpt lat="41.7359273147591" lon="13.433241168726193"><ele>582.6666666666666</ele><time>2026-04-05T09:16:35.001Z</time></trkpt><trkpt lat="41.73577679551937" lon="13.433388793381312"><ele>574.3333333333333</ele><time>2026-04-05T09:16:36.001Z</time></trkpt><trkpt lat="41.73562496395948" lon="13.433542523606862"><ele>566.0</ele><time>2026-04-05T09:16:37.001Z</time></trkpt><trkpt lat="41.735486848037155" lon="13.433681101327752"><ele>566.0</ele><time>2026-04-05T09:16:38.001Z</time></trkpt><trkpt lat="41.73532794807334" lon="13.433787927152098"><ele>566.0</ele><time>2026-04-05T09:16:39.001Z</time></trkpt><trkpt lat="41.73515603642407" lon="13.433909836382563"><ele>566.0</ele><time>2026-04-05T09:16:40.001Z</time></trkpt><trkpt lat="41.73499672144867" lon="13.43402934178256"><ele>563.6666666666666</ele><time>2026-04-05T09:16:41Z</time></trkpt><trkpt lat="41.734855972850454" lon="13.434163914182848"><ele>561.3333333333334</ele><time>2026-04-05T09:16:42Z</time></trkpt><trkpt lat="41.734713874474004" lon="13.43429510439287"><ele>559.0</ele><time>2026-04-05T09:16:43Z</time></trkpt><trkpt lat="41.73458451315621" lon="13.434447451210461"><ele>559.0</ele><time>2026-04-05T09:16:44Z</time></trkpt><trkpt lat="41.73445153816576" lon="13.434595901090775"><ele>559.0</ele><time>2026-04-05T09:16:45Z</time></trkpt><trkpt lat="41.734322242198104" lon="13.434722874126964"><ele>559.0</ele><time>2026-04-05T09:16:46Z</time></trkpt><trkpt lat="41.734191952526515" lon="13.43483317112287"><ele>556.0</ele><time>2026-04-05T09:16:47Z</time></trkpt><trkpt lat="41.73405348815324" lon="13.434920260361256"><ele>553.0</ele><time>2026-04-05T09:16:48Z</time></trkpt><trkpt lat="41.733892939804946" lon="13.434970457342853"><ele>550.0</ele><time>2026-04-05T09:16:49Z</time></trkpt><trkpt lat="41.73372627289435" lon="13.435002256370979"><ele>549.3333333333334</ele><time>2026-04-05T09:16:50Z</time></trkpt><trkpt lat="41.733551990063525" lon="13.435016193583353"><ele>548.6666666666666</ele><time>2026-04-05T09:16:51Z</time></trkpt><trkpt lat="41.73338655385008" lon="13.435008671788664"><ele>548.0</ele><time>2026-04-05T09:16:52Z</time></trkpt><trkpt lat="41.73325184709256" lon="13.43497646056922"><ele>548.0</ele><time>2026-04-05T09:16:53Z</time></trkpt><trkpt lat="41.73313646247553" lon="13.4349310284925"><ele>548.0</ele><time>2026-04-05T09:16:54Z</time></trkpt><trkpt lat="41.733024915194235" lon="13.434862569505793"><ele>548.0</ele><time>2026-04-05T09:16:55Z</time></trkpt><trkpt lat="41.732884103443624" lon="13.434801617375857"><ele>548.0</ele><time>2026-04-05T09:16:56Z</time></trkpt><trkpt lat="41.732727378130726" lon="13.434756302764528"><ele>549.0</ele><time>2026-04-05T09:16:57Z</time></trkpt><trkpt lat="41.73255928309322" lon="13.43474150707163"><ele>550.0</ele><time>2026-04-05T09:16:58Z</time></trkpt><trkpt lat="41.73238061079834" lon="13.434754671568381"><ele>551.0</ele><time>2026-04-05T09:16:59Z</time></trkpt><trkpt lat="41.73218729896216" lon="13.434776453131468"><ele>551.0</ele><time>2026-04-05T09:17:00Z</time></trkpt><trkpt lat="41.73199118738895" lon="13.434802320833766"><ele>551.0</ele><time>2026-04-05T09:17:01Z</time></trkpt><trkpt lat="41.73179242241281" lon="13.43483026082187"><ele>551.0</ele><time>2026-04-05T09:17:02Z</time></trkpt><trkpt lat="41.731600435300486" lon="13.434855094881437"><ele>549.3333333333333</ele><time>2026-04-05T09:17:03Z</time></trkpt><trkpt lat="41.73142125918136" lon="13.434875674463374"><ele>547.6666666666666</ele><time>2026-04-05T09:17:04Z</time></trkpt><trkpt lat="41.731249568582335" lon="13.434893442483173"><ele>546.0</ele><time>2026-04-05T09:17:05Z</time></trkpt><trkpt lat="41.73108238914588" lon="13.434907417019266"><ele>542.6666666666666</ele><time>2026-04-05T09:17:06Z</time></trkpt><trkpt lat="41.730921630063385" lon="13.434907660404463"><ele>539.3333333333333</ele><time>2026-04-05T09:17:07Z</time></trkpt><trkpt lat="41.73076643467505" lon="13.434886527081341"><ele>536.0</ele><time>2026-04-05T09:17:08Z</time></trkpt><trkpt lat="41.730617384233696" lon="13.434837417371003"><ele>536.0</ele><time>2026-04-05T09:17:09Z</time></trkpt><trkpt lat="41.73047525075998" lon="13.434782341962377"><ele>536.0</ele><time>2026-04-05T09:17:10Z</time></trkpt><trkpt lat="41.73033370821748" lon="13.43473634036877"><ele>536.0</ele><time>2026-04-05T09:17:11Z</time></trkpt><trkpt lat="41.730185599769435" lon="13.434728161190518"><ele>536.0</ele><time>2026-04-05T09:17:12Z</time></trkpt><trkpt lat="41.73002940338317" lon="13.434762849992522"><ele>534.6666666666666</ele><time>2026-04-05T09:17:13Z</time></trkpt><trkpt lat="41.72988040383108" lon="13.434825002543995"><ele>533.3333333333334</ele><time>2026-04-05T09:17:14Z</time></trkpt><trkpt lat="41.729725952777706" lon="13.434867261033661"><ele>532.0</ele><time>2026-04-05T09:17:15Z</time></trkpt><trkpt lat="41.72957672764409" lon="13.434979682219078"><ele>532.0</ele><time>2026-04-05T09:17:16Z</time></trkpt><trkpt lat="41.72941639706666" lon="13.435072716623496"><ele>532.0</ele><time>2026-04-05T09:17:17Z</time></trkpt><trkpt lat="41.72925927742382" lon="13.435145850971255"><ele>532.0</ele><time>2026-04-05T09:17:18Z</time></trkpt><trkpt lat="41.729099656819955" lon="13.435207435229566"><ele>527.3333333333334</ele><time>2026-04-05T09:17:19Z</time></trkpt><trkpt lat="41.7289330913125" lon="13.435234673318085"><ele>522.6666666666666</ele><time>2026-04-05T09:17:20Z</time></trkpt><trkpt lat="41.72877132495956" lon="13.43524305764305"><ele>518.0</ele><time>2026-04-05T09:17:21Z</time></trkpt><trkpt lat="41.72861453738566" lon="13.435261052097458"><ele>518.6666666666666</ele><time>2026-04-05T09:17:22Z</time></trkpt><trkpt lat="41.72846695338339" lon="13.435311270545576"><ele>519.3333333333334</ele><time>2026-04-05T09:17:23Z</time></trkpt><trkpt lat="41.72832483661079" lon="13.435406592805695"><ele>520.0</ele><time>2026-04-05T09:17:24Z</time></trkpt><trkpt lat="41.72818517352931" lon="13.435533289202871"><ele>520.0</ele><time>2026-04-05T09:17:25Z</time></trkpt><trkpt lat="41.728050395019245" lon="13.435669232146926"><ele>520.0</ele><time>2026-04-05T09:17:26Z</time></trkpt><trkpt lat="41.727906459976076" lon="13.435782515769393"><ele>520.0</ele><time>2026-04-05T09:17:27Z</time></trkpt><trkpt lat="41.72774857556047" lon="13.435869563793053"><ele>516.0</ele><time>2026-04-05T09:17:28Z</time></trkpt><trkpt lat="41.72757468735194" lon="13.435947843472055"><ele>512.0</ele><time>2026-04-05T09:17:29Z</time></trkpt><trkpt lat="41.727390428401286" lon="13.43600553719593"><ele>508.0</ele><time>2026-04-05T09:17:30Z</time></trkpt><trkpt lat="41.727195761785424" lon="13.436103096030523"><ele>508.0</ele><time>2026-04-05T09:17:31Z</time></trkpt><trkpt lat="41.72699988002761" lon="13.436164720987733"><ele>508.0</ele><time>2026-04-05T09:17:32Z</time></trkpt><trkpt lat="41.7268146802676" lon="13.436211481057207"><ele>508.0</ele><time>2026-04-05T09:17:33Z</time></trkpt><trkpt lat="41.72663648464276" lon="13.43625500787196"><ele>506.33333333333337</ele><time>2026-04-05T09:17:34Z</time></trkpt><trkpt lat="41.72645918341599" lon="13.436301929444516"><ele>504.66666666666663</ele><time>2026-04-05T09:17:35Z</time></trkpt><trkpt lat="41.726287193638925" lon="13.436350795504527"><ele>503.0</ele><time>2026-04-05T09:17:36Z</time></trkpt><trkpt lat="41.72611856106146" lon="13.436406965736241"><ele>502.0</ele><time>2026-04-05T09:17:37Z</time></trkpt><trkpt lat="41.725940189135436" lon="13.436476981605434"><ele>501.0</ele><time>2026-04-05T09:17:38Z</time></trkpt><trkpt lat="41.725770373259685" lon="13.436544022352026"><ele>500.0</ele><time>2026-04-05T09:17:39Z</time></trkpt><trkpt lat="41.72560849885382" lon="13.436599034676139"><ele>500.0</ele><time>2026-04-05T09:17:40Z</time></trkpt><trkpt lat="41.725448801561406" lon="13.436634444238418"><ele>500.0</ele><time>2026-04-05T09:17:41.001Z</time></trkpt><trkpt lat="41.72529557841202" lon="13.43665288880466"><ele>500.0</ele><time>2026-04-05T09:17:42.001Z</time></trkpt><trkpt lat="41.725145848589136" lon="13.436647616742949"><ele>498.3333333333333</ele><time>2026-04-05T09:17:43.001Z</time></trkpt><trkpt lat="41.72497709988141" lon="13.436628477730798"><ele>496.66666666666663</ele><time>2026-04-05T09:17:44.001Z</time></trkpt><trkpt lat="41.72481856767164" lon="13.436574993353155"><ele>495.0</ele><time>2026-04-05T09:17:45.001Z</time></trkpt><trkpt lat="41.72466926218525" lon="13.436511763085877"><ele>495.0</ele><time>2026-04-05T09:17:46.001Z</time></trkpt><trkpt lat="41.72451565304361" lon="13.436430403170215"><ele>495.0</ele><time>2026-04-05T09:17:47.001Z</time></trkpt><trkpt lat="41.724347269497336" lon="13.436370059222542"><ele>495.0</ele><time>2026-04-05T09:17:48.001Z</time></trkpt><trkpt lat="41.72418126952308" lon="13.4363462437997"><ele>494.0</ele><time>2026-04-05T09:17:49.001Z</time></trkpt><trkpt lat="41.72401726467525" lon="13.436355817515835"><ele>493.0</ele><time>2026-04-05T09:17:50.001Z</time></trkpt><trkpt lat="41.72384436919018" lon="13.436407804467445"><ele>492.0</ele><time>2026-04-05T09:17:51.001Z</time></trkpt><trkpt lat="41.72366038805542" lon="13.436488115281918"><ele>492.66666666666663</ele><time>2026-04-05T09:17:52.001Z</time></trkpt><trkpt lat="41.72346128893021" lon="13.436589711215017"><ele>493.3333333333333</ele><time>2026-04-05T09:17:53.001Z</time></trkpt><trkpt lat="41.72325944805372" lon="13.436655114030428"><ele>494.0</ele><time>2026-04-05T09:17:54.001Z</time></trkpt><trkpt lat="41.723074947162075" lon="13.436732393975532"><ele>494.0</ele><time>2026-04-05T09:17:55.001Z</time></trkpt><trkpt lat="41.722905709410114" lon="13.436834885117861"><ele>494.0</ele><time>2026-04-05T09:17:56.001Z</time></trkpt><trkpt lat="41.72273360294635" lon="13.436837880079677"><ele>494.0</ele><time>2026-04-05T09:17:57.001Z</time></trkpt><trkpt lat="41.72257107528092" lon="13.436810545164699"><ele>493.66666666666663</ele><time>2026-04-05T09:17:58.001Z</time></trkpt><trkpt lat="41.72240557725195" lon="13.43678037969064"><ele>493.33333333333337</ele><time>2026-04-05T09:17:59.001Z</time></trkpt><trkpt lat="41.72224443745686" lon="13.43675217807007"><ele>493.0</ele><time>2026-04-05T09:18:00.001Z</time></trkpt><trkpt lat="41.72208095647293" lon="13.436722940525387"><ele>493.0</ele><time>2026-04-05T09:18:01.001Z</time></trkpt><trkpt lat="41.721921366806455" lon="13.436689995903022"><ele>493.0</ele><time>2026-04-05T09:18:02.001Z</time></trkpt><trkpt lat="41.72176165850853" lon="13.436650036873404"><ele>493.0</ele><time>2026-04-05T09:18:03.001Z</time></trkpt><trkpt lat="41.72159043595239" lon="13.436610488846169"><ele>491.6666666666667</ele><time>2026-04-05T09:18:04.001Z</time></trkpt><trkpt lat="41.72141415907917" lon="13.43657243154776"><ele>490.33333333333337</ele><time>2026-04-05T09:18:05.001Z</time></trkpt><trkpt lat="41.72123686866129" lon="13.436538612153262"><ele>489.0</ele><time>2026-04-05T09:18:06.001Z</time></trkpt><trkpt lat="41.72107357686654" lon="13.436510454878228"><ele>488.33333333333337</ele><time>2026-04-05T09:18:07.001Z</time></trkpt><trkpt lat="41.720914635523386" lon="13.436503823492279"><ele>487.6666666666667</ele><time>2026-04-05T09:18:08.001Z</time></trkpt><trkpt lat="41.72075762101521" lon="13.436540123430255"><ele>487.0</ele><time>2026-04-05T09:18:09.001Z</time></trkpt><trkpt lat="41.720585629992065" lon="13.436609584892745"><ele>487.0</ele><time>2026-04-05T09:18:10.001Z</time></trkpt><trkpt lat="41.720403879919644" lon="13.43667693973976"><ele>487.0</ele><time>2026-04-05T09:18:11.001Z</time></trkpt><trkpt lat="41.72022441151118" lon="13.436723665259453"><ele>487.0</ele><time>2026-04-05T09:18:12.001Z</time></trkpt><trkpt lat="41.72004536234161" lon="13.436758406498534"><ele>489.0</ele><time>2026-04-05T09:18:13.001Z</time></trkpt><trkpt lat="41.71986192496977" lon="13.436775326467618"><ele>491.0</ele><time>2026-04-05T09:18:14.001Z</time></trkpt><trkpt lat="41.7196605402083" lon="13.436786424798196"><ele>493.0</ele><time>2026-04-05T09:18:15.001Z</time></trkpt><trkpt lat="41.71946054802838" lon="13.436799227257831"><ele>494.6666666666667</ele><time>2026-04-05T09:18:16.001Z</time></trkpt><trkpt lat="41.71926710530791" lon="13.436815251081441"><ele>496.33333333333337</ele><time>2026-04-05T09:18:17.001Z</time></trkpt><trkpt lat="41.719084094356866" lon="13.436841521688072"><ele>498.0</ele><time>2026-04-05T09:18:18.001Z</time></trkpt><trkpt lat="41.718902699749464" lon="13.436884346740548"><ele>498.0</ele><time>2026-04-05T09:18:19.001Z</time></trkpt><trkpt lat="41.71871704042452" lon="13.436956439302048"><ele>498.0</ele><time>2026-04-05T09:18:20.001Z</time></trkpt><trkpt lat="41.718543208498275" lon="13.437016125709482"><ele>498.0</ele><time>2026-04-05T09:18:21.001Z</time></trkpt><trkpt lat="41.71837689663488" lon="13.437091030301609"><ele>490.0</ele><time>2026-04-05T09:18:22.001Z</time></trkpt><trkpt lat="41.718214265725436" lon="13.437183342700624"><ele>482.0</ele><time>2026-04-05T09:18:23.001Z</time></trkpt><trkpt lat="41.71804390161278" lon="13.437286892240325"><ele>474.0</ele><time>2026-04-05T09:18:24.001Z</time></trkpt><trkpt lat="41.71787775436624" lon="13.437388455235562"><ele>473.66666666666663</ele><time>2026-04-05T09:18:25.001Z</time></trkpt><trkpt lat="41.71771818535942" lon="13.43748581880808"><ele>473.3333333333333</ele><time>2026-04-05T09:18:26.001Z</time></trkpt><trkpt lat="41.717570207748665" lon="13.437588444214981"><ele>473.0</ele><time>2026-04-05T09:18:27.001Z</time></trkpt><trkpt lat="41.71743427419335" lon="13.437700600032645"><ele>473.0</ele><time>2026-04-05T09:18:28.001Z</time></trkpt><trkpt lat="41.717298701225005" lon="13.437824568696248"><ele>473.0</ele><time>2026-04-05T09:18:29.001Z</time></trkpt><trkpt lat="41.717152658126324" lon="13.437933900695631"><ele>473.0</ele><time>2026-04-05T09:18:30.001Z</time></trkpt><trkpt lat="41.71701157971596" lon="13.438020120957772"><ele>471.5</ele><time>2026-04-05T09:18:31.001Z</time></trkpt><trkpt lat="41.71687662853568" lon="13.438097413262554"><ele>470.0</ele><time>2026-04-05T09:18:32.001Z</time></trkpt><trkpt lat="41.71673816670355" lon="13.438172356408908"><ele>468.5</ele><time>2026-04-05T09:18:33.001Z</time></trkpt><trkpt lat="41.716596731271395" lon="13.438249684356311"><ele>467.0</ele><time>2026-04-05T09:18:34.001Z</time></trkpt><trkpt lat="41.71645455005254" lon="13.43833783328785"><ele>467.0</ele><time>2026-04-05T09:18:35.001Z</time></trkpt><trkpt lat="41.716310969726294" lon="13.438429534308813"><ele>467.0</ele><time>2026-04-05T09:18:36.001Z</time></trkpt><trkpt lat="41.71615556477216" lon="13.438515140317195"><ele>467.0</ele><time>2026-04-05T09:18:37.001Z</time></trkpt><trkpt lat="41.71599151117268" lon="13.43858215201693"><ele>467.0</ele><time>2026-04-05T09:18:38.001Z</time></trkpt><trkpt lat="41.71583679578338" lon="13.438622077590816"><ele>467.0</ele><time>2026-04-05T09:18:39.001Z</time></trkpt><trkpt lat="41.71567389671414" lon="13.438663671240201"><ele>467.0</ele><time>2026-04-05T09:18:40.001Z</time></trkpt><trkpt lat="41.71550376367734" lon="13.438720091679759"><ele>467.0</ele><time>2026-04-05T09:18:41.001Z</time></trkpt><trkpt lat="41.71532718875178" lon="13.438792427579232"><ele>467.0</ele><time>2026-04-05T09:18:42.001Z</time></trkpt><trkpt lat="41.715150496123904" lon="13.438879708724599"><ele>467.0</ele><time>2026-04-05T09:18:43.001Z</time></trkpt><trkpt lat="41.71498227207279" lon="13.438970425589222"><ele>465.3333333333333</ele><time>2026-04-05T09:18:44.001Z</time></trkpt><trkpt lat="41.71481858737773" lon="13.439053451861868"><ele>463.66666666666663</ele><time>2026-04-05T09:18:45.001Z</time></trkpt><trkpt lat="41.714657149531824" lon="13.439142079820911"><ele>462.0</ele><time>2026-04-05T09:18:46.001Z</time></trkpt><trkpt lat="41.714502927983624" lon="13.439256496621029"><ele>462.0</ele><time>2026-04-05T09:18:47Z</time></trkpt><trkpt lat="41.714350341768856" lon="13.43939256093415"><ele>462.0</ele><time>2026-04-05T09:18:48Z</time></trkpt><trkpt lat="41.7141869322332" lon="13.439542155577945"><ele>462.0</ele><time>2026-04-05T09:18:49Z</time></trkpt><trkpt lat="41.714002394051754" lon="13.43969834241178"><ele>460.66666666666663</ele><time>2026-04-05T09:18:50Z</time></trkpt><trkpt lat="41.713819920806905" lon="13.439839387874816"><ele>459.3333333333333</ele><time>2026-04-05T09:18:51Z</time></trkpt><trkpt lat="41.713655365603834" lon="13.439969957645248"><ele>458.0</ele><time>2026-04-05T09:18:52Z</time></trkpt><trkpt lat="41.71350164422873" lon="13.440090352214822"><ele>457.3333333333333</ele><time>2026-04-05T09:18:53Z</time></trkpt><trkpt lat="41.71335283159248" lon="13.44020200848674"><ele>456.66666666666663</ele><time>2026-04-05T09:18:54Z</time></trkpt><trkpt lat="41.713208095112726" lon="13.440300896817297"><ele>456.0</ele><time>2026-04-05T09:18:55Z</time></trkpt><trkpt lat="41.713053983730354" lon="13.440395428568701"><ele>455.33333333333337</ele><time>2026-04-05T09:18:56Z</time></trkpt><trkpt lat="41.71288664648513" lon="13.440469432385232"><ele>454.6666666666667</ele><time>2026-04-05T09:18:57Z</time></trkpt><trkpt lat="41.71270132827558" lon="13.440527421190222"><ele>454.0</ele><time>2026-04-05T09:18:58Z</time></trkpt><trkpt lat="41.71249412853714" lon="13.440590538104182"><ele>453.0</ele><time>2026-04-05T09:18:59Z</time></trkpt><trkpt lat="41.71230855302248" lon="13.440657637792134"><ele>452.0</ele><time>2026-04-05T09:19:00Z</time></trkpt><trkpt lat="41.71213628043062" lon="13.440728965790939"><ele>451.0</ele><time>2026-04-05T09:19:01Z</time></trkpt><trkpt lat="41.71198089682765" lon="13.440790112753671"><ele>451.0</ele><time>2026-04-05T09:19:02Z</time></trkpt><trkpt lat="41.71183006114913" lon="13.44084408705965"><ele>451.0</ele><time>2026-04-05T09:19:03Z</time></trkpt><trkpt lat="41.711681245077315" lon="13.440883297074203"><ele>451.0</ele><time>2026-04-05T09:19:04Z</time></trkpt><trkpt lat="41.711527785187585" lon="13.440888435904892"><ele>451.0</ele><time>2026-04-05T09:19:05Z</time></trkpt><trkpt lat="41.71136016221344" lon="13.440850779572555"><ele>451.0</ele><time>2026-04-05T09:19:06Z</time></trkpt><trkpt lat="41.71118816462677" lon="13.440796514606882"><ele>451.0</ele><time>2026-04-05T09:19:07Z</time></trkpt><trkpt lat="41.71101204246948" lon="13.440734624997488"><ele>450.6666666666667</ele><time>2026-04-05T09:19:08Z</time></trkpt><trkpt lat="41.71083331773004" lon="13.440667121919047"><ele>450.33333333333337</ele><time>2026-04-05T09:19:09Z</time></trkpt><trkpt lat="41.71066586402296" lon="13.440592075736564"><ele>450.0</ele><time>2026-04-05T09:19:10Z</time></trkpt><trkpt lat="41.71051421179461" lon="13.440510928156195"><ele>452.66666666666663</ele><time>2026-04-05T09:19:11Z</time></trkpt><trkpt lat="41.710359218657096" lon="13.440436092446227"><ele>455.3333333333333</ele><time>2026-04-05T09:19:12Z</time></trkpt><trkpt lat="41.71019641652737" lon="13.44037487051398"><ele>458.0</ele><time>2026-04-05T09:19:13Z</time></trkpt><trkpt lat="41.71002906020131" lon="13.44032259440394"><ele>458.0</ele><time>2026-04-05T09:19:14Z</time></trkpt><trkpt lat="41.70986206786567" lon="13.440265063263624"><ele>458.0</ele><time>2026-04-05T09:19:15Z</time></trkpt><trkpt lat="41.709709899007734" lon="13.440210269954557"><ele>458.0</ele><time>2026-04-05T09:19:16Z</time></trkpt><trkpt lat="41.70955369584384" lon="13.440161075534068"><ele>458.66666666666663</ele><time>2026-04-05T09:19:17Z</time></trkpt><trkpt lat="41.7093956112892" lon="13.440135991969964"><ele>459.33333333333337</ele><time>2026-04-05T09:19:18Z</time></trkpt><trkpt lat="41.709242768850686" lon="13.440130089836233"><ele>460.0</ele><time>2026-04-05T09:19:19Z</time></trkpt><trkpt lat="41.70908845707155" lon="13.440129848772788"><ele>460.0</ele><time>2026-04-05T09:19:20Z</time></trkpt><trkpt lat="41.708946611771665" lon="13.440130103142275"><ele>460.0</ele><time>2026-04-05T09:19:21Z</time></trkpt><trkpt lat="41.708819510154555" lon="13.440121423981033"><ele>460.0</ele><time>2026-04-05T09:19:22Z</time></trkpt><trkpt lat="41.7087195576726" lon="13.440117350942867"><ele>460.0</ele><time>2026-04-05T09:19:23Z</time></trkpt><trkpt lat="41.70863853660418" lon="13.440120440786991"><ele>460.0</ele><time>2026-04-05T09:19:24Z</time></trkpt><trkpt lat="41.70855667572125" lon="13.440119912985283"><ele>460.0</ele><time>2026-04-05T09:19:25Z</time></trkpt><trkpt lat="41.708487633121344" lon="13.440120983798996"><ele>460.0</ele><time>2026-04-05T09:19:26Z</time></trkpt><trkpt lat="41.708369692100376" lon="13.44011930982457"><ele>460.0</ele><time>2026-04-05T09:19:28Z</time></trkpt><trkpt lat="41.70826319777114" lon="13.440110748807593"><ele>460.0</ele><time>2026-04-05T09:19:30Z</time></trkpt><trkpt lat="41.70818863176329" lon="13.44009615946358"><ele>460.0</ele><time>2026-04-05T09:19:32Z</time></trkpt><trkpt lat="41.7081061432759" lon="13.440084248612095"><ele>460.0</ele><time>2026-04-05T09:19:35Z</time></trkpt><trkpt lat="41.70804076735825" lon="13.440069326389228"><ele>460.0</ele><time>2026-04-05T09:19:36Z</time></trkpt><trkpt lat="41.70795157507569" lon="13.440015440003439"><ele>460.0</ele><time>2026-04-05T09:19:37Z</time></trkpt><trkpt lat="41.70786642296157" lon="13.43994911813315"><ele>460.0</ele><time>2026-04-05T09:19:38Z</time></trkpt><trkpt lat="41.70777032297695" lon="13.439873773579519"><ele>462.6666666666667</ele><time>2026-04-05T09:19:39Z</time></trkpt><trkpt lat="41.707657599622564" lon="13.439783726561037"><ele>465.33333333333337</ele><time>2026-04-05T09:19:40Z</time></trkpt><trkpt lat="41.707517604969546" lon="13.439661978069863"><ele>468.0</ele><time>2026-04-05T09:19:41Z</time></trkpt><trkpt lat="41.70735828168593" lon="13.439523528099992"><ele>468.0</ele><time>2026-04-05T09:19:42Z</time></trkpt><trkpt lat="41.70717409392323" lon="13.439389062846967"><ele>468.0</ele><time>2026-04-05T09:19:43Z</time></trkpt><trkpt lat="41.706965241060054" lon="13.43925704166446"><ele>468.0</ele><time>2026-04-05T09:19:44Z</time></trkpt><trkpt lat="41.706756189704564" lon="13.439128523048039"><ele>468.66666666666663</ele><time>2026-04-05T09:19:45Z</time></trkpt><trkpt lat="41.70655670595729" lon="13.439008668239017"><ele>469.3333333333333</ele><time>2026-04-05T09:19:46Z</time></trkpt><trkpt lat="41.70637466886922" lon="13.438883565354338"><ele>470.0</ele><time>2026-04-05T09:19:47Z</time></trkpt><trkpt lat="41.7062047755988" lon="13.438772275068153"><ele>468.66666666666663</ele><time>2026-04-05T09:19:48Z</time></trkpt><trkpt lat="41.70604410304157" lon="13.438669515929657"><ele>467.33333333333337</ele><time>2026-04-05T09:19:49Z</time></trkpt><trkpt lat="41.70589229579526" lon="13.438570475222933"><ele>466.0</ele><time>2026-04-05T09:19:50Z</time></trkpt><trkpt lat="41.705745633248" lon="13.438469729493333"><ele>466.0</ele><time>2026-04-05T09:19:51Z</time></trkpt><trkpt lat="41.70559856334956" lon="13.43836800408563"><ele>466.0</ele><time>2026-04-05T09:19:52Z</time></trkpt><trkpt lat="41.70545926218832" lon="13.438267727394933"><ele>466.0</ele><time>2026-04-05T09:19:53.001Z</time></trkpt><trkpt lat="41.70531782760032" lon="13.43816025763569"><ele>467.0</ele><time>2026-04-05T09:19:54.001Z</time></trkpt><trkpt lat="41.70518868570654" lon="13.438066416049477"><ele>468.0</ele><time>2026-04-05T09:19:55.001Z</time></trkpt><trkpt lat="41.705055916183476" lon="13.43795689881847"><ele>469.0</ele><time>2026-04-05T09:19:56.001Z</time></trkpt><trkpt lat="41.704913397384786" lon="13.43783422506439"><ele>469.33333333333337</ele><time>2026-04-05T09:19:57.001Z</time></trkpt><trkpt lat="41.704759762983464" lon="13.437703081614835"><ele>469.66666666666663</ele><time>2026-04-05T09:19:58.001Z</time></trkpt><trkpt lat="41.70458604765518" lon="13.437560995466368"><ele>470.0</ele><time>2026-04-05T09:19:59.001Z</time></trkpt><trkpt lat="41.704410980842944" lon="13.437412611768684"><ele>470.0</ele><time>2026-04-05T09:20:00.001Z</time></trkpt><trkpt lat="41.70425290660523" lon="13.43728117012072"><ele>470.0</ele><time>2026-04-05T09:20:01.001Z</time></trkpt><trkpt lat="41.704109156641024" lon="13.437155876459205"><ele>470.0</ele><time>2026-04-05T09:20:02.001Z</time></trkpt><trkpt lat="41.703968960816354" lon="13.437034629511395"><ele>470.66666666666663</ele><time>2026-04-05T09:20:03.001Z</time></trkpt><trkpt lat="41.70383448721249" lon="13.436917307966779"><ele>471.33333333333337</ele><time>2026-04-05T09:20:04.001Z</time></trkpt><trkpt lat="41.70369240826722" lon="13.436803930050992"><ele>472.0</ele><time>2026-04-05T09:20:05.001Z</time></trkpt><trkpt lat="41.70354516110361" lon="13.436690827763446"><ele>472.0</ele><time>2026-04-05T09:20:06.001Z</time></trkpt><trkpt lat="41.70340842775971" lon="13.436572059915974"><ele>472.0</ele><time>2026-04-05T09:20:07.001Z</time></trkpt><trkpt lat="41.70327952793981" lon="13.436454853423081"><ele>472.0</ele><time>2026-04-05T09:20:08.001Z</time></trkpt><trkpt lat="41.703157666089304" lon="13.43635158699681"><ele>472.75</ele><time>2026-04-05T09:20:09.001Z</time></trkpt><trkpt lat="41.70303953705841" lon="13.436245834649398"><ele>473.5</ele><time>2026-04-05T09:20:10.001Z</time></trkpt><trkpt lat="41.702929240681456" lon="13.436137258732112"><ele>474.25</ele><time>2026-04-05T09:20:11.001Z</time></trkpt><trkpt lat="41.70281617675632" lon="13.436018858462393"><ele>475.0</ele><time>2026-04-05T09:20:12.001Z</time></trkpt><trkpt lat="41.702706806276055" lon="13.435912142760955"><ele>475.0</ele><time>2026-04-05T09:20:13.001Z</time></trkpt><trkpt lat="41.70259036531719" lon="13.43581661697732"><ele>475.0</ele><time>2026-04-05T09:20:14.001Z</time></trkpt><trkpt lat="41.70245911388544" lon="13.435729220767719"><ele>475.0</ele><time>2026-04-05T09:20:15.001Z</time></trkpt><trkpt lat="41.7023170286989" lon="13.435638358753316"><ele>475.0</ele><time>2026-04-05T09:20:16.001Z</time></trkpt><trkpt lat="41.702179488359484" lon="13.435557467410954"><ele>475.0</ele><time>2026-04-05T09:20:17.001Z</time></trkpt><trkpt lat="41.70206160157565" lon="13.435484139641074"><ele>475.0</ele><time>2026-04-05T09:20:18.001Z</time></trkpt><trkpt lat="41.70194779196512" lon="13.435403656694813"><ele>475.0</ele><time>2026-04-05T09:20:19.001Z</time></trkpt><trkpt lat="41.701846840224064" lon="13.435318382241908"><ele>475.0</ele><time>2026-04-05T09:20:20.001Z</time></trkpt><trkpt lat="41.70176909607622" lon="13.435238519109083"><ele>475.6</ele><time>2026-04-05T09:20:21.001Z</time></trkpt><trkpt lat="41.70170131882253" lon="13.435164273096737"><ele>476.2</ele><time>2026-04-05T09:20:22.001Z</time></trkpt><trkpt lat="41.701644244496876" lon="13.435092887302568"><ele>476.79999999999995</ele><time>2026-04-05T09:20:23.001Z</time></trkpt><trkpt lat="41.7015731691626" lon="13.435004674257515"><ele>477.4</ele><time>2026-04-05T09:20:24.001Z</time></trkpt><trkpt lat="41.70148641013947" lon="13.434882311044731"><ele>478.0</ele><time>2026-04-05T09:20:25.001Z</time></trkpt><trkpt lat="41.701384624774626" lon="13.434727836892087"><ele>478.6666666666667</ele><time>2026-04-05T09:20:26.001Z</time></trkpt><trkpt lat="41.701277708112144" lon="13.43457086571078"><ele>479.33333333333337</ele><time>2026-04-05T09:20:27.001Z</time></trkpt><trkpt lat="41.70117261245995" lon="13.434420405135404"><ele>480.0</ele><time>2026-04-05T09:20:28.001Z</time></trkpt><trkpt lat="41.70107987762299" lon="13.434277292054164"><ele>478.75</ele><time>2026-04-05T09:20:29.001Z</time></trkpt><trkpt lat="41.70099413327967" lon="13.434136655312802"><ele>477.5</ele><time>2026-04-05T09:20:30.001Z</time></trkpt><trkpt lat="41.70091505980522" lon="13.433993634080842"><ele>476.25</ele><time>2026-04-05T09:20:31.001Z</time></trkpt><trkpt lat="41.70084330560344" lon="13.433856415116457"><ele>475.0</ele><time>2026-04-05T09:20:32.001Z</time></trkpt><trkpt lat="41.700784363926815" lon="13.433739026230791"><ele>474.50000000000006</ele><time>2026-04-05T09:20:33.001Z</time></trkpt><trkpt lat="41.700735601294866" lon="13.433637896507035"><ele>474.0</ele><time>2026-04-05T09:20:34.001Z</time></trkpt><trkpt lat="41.70069380140258" lon="13.43354417284682"><ele>473.5</ele><time>2026-04-05T09:20:35.001Z</time></trkpt><trkpt lat="41.7006609870021" lon="13.43346336716666"><ele>473.0</ele><time>2026-04-05T09:20:36.001Z</time></trkpt><trkpt lat="41.70062254021337" lon="13.433349914614556"><ele>472.50000000000006</ele><time>2026-04-05T09:20:38.001Z</time></trkpt><trkpt lat="41.700621566402795" lon="13.433250878181815"><ele>472.0</ele><time>2026-04-05T09:20:42.001Z</time></trkpt><trkpt lat="41.7007320079663" lon="13.433115424725207"><ele>472.0</ele><time>2026-04-05T09:20:44.001Z</time></trkpt><trkpt lat="41.70080632341596" lon="13.433000962417397"><ele>472.0</ele><time>2026-04-05T09:20:45.001Z</time></trkpt><trkpt lat="41.70088394836833" lon="13.432853396739114"><ele>472.0</ele><time>2026-04-05T09:20:46.001Z</time></trkpt><trkpt lat="41.70093519324419" lon="13.4327003847767"><ele>472.0</ele><time>2026-04-05T09:20:47.001Z</time></trkpt><trkpt lat="41.70094304699621" lon="13.432542490419369"><ele>471.75</ele><time>2026-04-05T09:20:48.001Z</time></trkpt><trkpt lat="41.70090602033691" lon="13.432385457551922"><ele>471.5</ele><time>2026-04-05T09:20:49.001Z</time></trkpt><trkpt lat="41.70082994373581" lon="13.432234509292027"><ele>471.25</ele><time>2026-04-05T09:20:50.001Z</time></trkpt><trkpt lat="41.700732792330385" lon="13.432075646591196"><ele>471.0</ele><time>2026-04-05T09:20:51.001Z</time></trkpt><trkpt lat="41.70062580296049" lon="13.43193214203632"><ele>471.0</ele><time>2026-04-05T09:20:52.001Z</time></trkpt><trkpt lat="41.70051678457534" lon="13.431797962182719"><ele>471.0</ele><time>2026-04-05T09:20:53Z</time></trkpt><trkpt lat="41.700417616688696" lon="13.431659669377824"><ele>471.0</ele><time>2026-04-05T09:20:54Z</time></trkpt><trkpt lat="41.70032200170768" lon="13.43150136678714"><ele>471.0</ele><time>2026-04-05T09:20:55Z</time></trkpt><trkpt lat="41.70022999596216" lon="13.4313165084172"><ele>472.66666666666663</ele><time>2026-04-05T09:20:56Z</time></trkpt><trkpt lat="41.700155907425845" lon="13.431117601323205"><ele>474.3333333333333</ele><time>2026-04-05T09:20:57Z</time></trkpt><trkpt lat="41.70011064833669" lon="13.430902591147493"><ele>476.0</ele><time>2026-04-05T09:20:58Z</time></trkpt><trkpt lat="41.700100126434585" lon="13.430673234338162"><ele>475.66666666666663</ele><time>2026-04-05T09:20:59Z</time></trkpt><trkpt lat="41.70010129529087" lon="13.430441033721975"><ele>475.33333333333337</ele><time>2026-04-05T09:21:00Z</time></trkpt><trkpt lat="41.70011012273707" lon="13.430233245475396"><ele>475.0</ele><time>2026-04-05T09:21:01Z</time></trkpt><trkpt lat="41.70011641112614" lon="13.430062338976517"><ele>475.00000000000006</ele><time>2026-04-05T09:21:02Z</time></trkpt><trkpt lat="41.70012844565952" lon="13.429939301498266"><ele>475.0</ele><time>2026-04-05T09:21:03Z</time></trkpt><trkpt lat="41.70014679066816" lon="13.429837584538706"><ele>475.0</ele><time>2026-04-05T09:21:04Z</time></trkpt><trkpt lat="41.700163176479585" lon="13.42974541862799"><ele>475.0</ele><time>2026-04-05T09:21:05Z</time></trkpt><trkpt lat="41.70015862171889" lon="13.429637436849516"><ele>475.00000000000006</ele><time>2026-04-05T09:21:06Z</time></trkpt><trkpt lat="41.70014884819064" lon="13.429514416926443"><ele>475.0</ele><time>2026-04-05T09:21:07Z</time></trkpt><trkpt lat="41.70013099736116" lon="13.429354667606134"><ele>475.0</ele><time>2026-04-05T09:21:08Z</time></trkpt><trkpt lat="41.70010649113966" lon="13.429152199557496"><ele>475.0</ele><time>2026-04-05T09:21:09Z</time></trkpt><trkpt lat="41.70008139735214" lon="13.42889962988317"><ele>475.0</ele><time>2026-04-05T09:21:10Z</time></trkpt><trkpt lat="41.700052268502816" lon="13.428665991769238"><ele>472.6666666666667</ele><time>2026-04-05T09:21:11Z</time></trkpt><trkpt lat="41.70002586550485" lon="13.42843731418357"><ele>470.33333333333337</ele><time>2026-04-05T09:21:12Z</time></trkpt><trkpt lat="41.70000001148307" lon="13.428215049186273"><ele>468.0</ele><time>2026-04-05T09:21:13Z</time></trkpt><trkpt lat="41.6999723014719" lon="13.427990815915726"><ele>466.33333333333337</ele><time>2026-04-05T09:21:14Z</time></trkpt><trkpt lat="41.6999332558126" lon="13.427763565609544"><ele>464.6666666666667</ele><time>2026-04-05T09:21:15Z</time></trkpt><trkpt lat="41.699877627242074" lon="13.427553567110158"><ele>463.0</ele><time>2026-04-05T09:21:16Z</time></trkpt><trkpt lat="41.69980666906476" lon="13.427360349386053"><ele>463.0</ele><time>2026-04-05T09:21:17Z</time></trkpt><trkpt lat="41.699754287936436" lon="13.427193874583168"><ele>463.0</ele><time>2026-04-05T09:21:18Z</time></trkpt><trkpt lat="41.69972050670639" lon="13.427037315494116"><ele>463.0</ele><time>2026-04-05T09:21:19Z</time></trkpt><trkpt lat="41.699678502829926" lon="13.42690506124017"><ele>463.0</ele><time>2026-04-05T09:21:20Z</time></trkpt><trkpt lat="41.69960362231234" lon="13.426823518205666"><ele>463.0</ele><time>2026-04-05T09:21:21Z</time></trkpt><trkpt lat="41.69950740705546" lon="13.426797929414786"><ele>463.0</ele><time>2026-04-05T09:21:22Z</time></trkpt><trkpt lat="41.69940079513387" lon="13.426835267790667"><ele>463.0</ele><time>2026-04-05T09:21:23Z</time></trkpt><trkpt lat="41.699269494178495" lon="13.4269081437771"><ele>463.0</ele><time>2026-04-05T09:21:24Z</time></trkpt><trkpt lat="41.69912856980089" lon="13.426978922231562"><ele>463.0</ele><time>2026-04-05T09:21:25Z</time></trkpt><trkpt lat="41.69898959948066" lon="13.427003708506899"><ele>463.0</ele><time>2026-04-05T09:21:26Z</time></trkpt><trkpt lat="41.69885722795163" lon="13.426999300286043"><ele>463.0</ele><time>2026-04-05T09:21:27Z</time></trkpt><trkpt lat="41.6987253669312" lon="13.426977639149802"><ele>463.0</ele><time>2026-04-05T09:21:28Z</time></trkpt><trkpt lat="41.69858588919743" lon="13.427005954857432"><ele>462.33333333333337</ele><time>2026-04-05T09:21:29Z</time></trkpt><trkpt lat="41.69843019516902" lon="13.427087491559355"><ele>461.66666666666663</ele><time>2026-04-05T09:21:30Z</time></trkpt><trkpt lat="41.698265671553" lon="13.427182096645113"><ele>461.0</ele><time>2026-04-05T09:21:31Z</time></trkpt><trkpt lat="41.698100353404286" lon="13.427291743932232"><ele>458.66666666666663</ele><time>2026-04-05T09:21:32Z</time></trkpt><trkpt lat="41.69794824359877" lon="13.427423225416366"><ele>456.33333333333337</ele><time>2026-04-05T09:21:33Z</time></trkpt><trkpt lat="41.69780152264253" lon="13.427571441807794"><ele>454.0</ele><time>2026-04-05T09:21:34Z</time></trkpt><trkpt lat="41.69765237841803" lon="13.427719177946514"><ele>453.0</ele><time>2026-04-05T09:21:35Z</time></trkpt><trkpt lat="41.69748968075874" lon="13.42784388326156"><ele>452.0</ele><time>2026-04-05T09:21:36Z</time></trkpt><trkpt lat="41.697297545665045" lon="13.427943882836297"><ele>451.0</ele><time>2026-04-05T09:21:37Z</time></trkpt><trkpt lat="41.69709417522291" lon="13.428029254624684"><ele>449.6666666666667</ele><time>2026-04-05T09:21:38Z</time></trkpt><trkpt lat="41.69689192012094" lon="13.428081139811015"><ele>448.33333333333337</ele><time>2026-04-05T09:21:39Z</time></trkpt><trkpt lat="41.696694772730694" lon="13.428101535698504"><ele>447.0</ele><time>2026-04-05T09:21:40Z</time></trkpt><trkpt lat="41.69650140334489" lon="13.428091366511426"><ele>447.0</ele><time>2026-04-05T09:21:41Z</time></trkpt><trkpt lat="41.696261194452795" lon="13.428085915048669"><ele>447.0</ele><time>2026-04-05T09:21:42Z</time></trkpt><trkpt lat="41.69607185107445" lon="13.42807122578519"><ele>447.0</ele><time>2026-04-05T09:21:43Z</time></trkpt><trkpt lat="41.695875665583785" lon="13.42807355654253"><ele>447.0</ele><time>2026-04-05T09:21:44Z</time></trkpt><trkpt lat="41.6957057843625" lon="13.428066593163274"><ele>447.0</ele><time>2026-04-05T09:21:45Z</time></trkpt><trkpt lat="41.69553361912294" lon="13.428011425541275"><ele>447.0</ele><time>2026-04-05T09:21:46Z</time></trkpt><trkpt lat="41.69535465106329" lon="13.427917828016229"><ele>446.33333333333337</ele><time>2026-04-05T09:21:47Z</time></trkpt><trkpt lat="41.695172905611315" lon="13.427806969898104"><ele>445.6666666666667</ele><time>2026-04-05T09:21:48Z</time></trkpt><trkpt lat="41.694992554805054" lon="13.427676913248128"><ele>445.0</ele><time>2026-04-05T09:21:49Z</time></trkpt><trkpt lat="41.69479377822427" lon="13.427521613668459"><ele>445.0</ele><time>2026-04-05T09:21:50Z</time></trkpt><trkpt lat="41.69458029693919" lon="13.427355632041278"><ele>445.0</ele><time>2026-04-05T09:21:51Z</time></trkpt><trkpt lat="41.694371774077176" lon="13.427195043960243"><ele>447.0</ele><time>2026-04-05T09:21:52Z</time></trkpt><trkpt lat="41.6941894892555" lon="13.427055295650954"><ele>449.0</ele><time>2026-04-05T09:21:53Z</time></trkpt><trkpt lat="41.694011402494375" lon="13.426927653029853"><ele>451.0</ele><time>2026-04-05T09:21:54Z</time></trkpt><trkpt lat="41.69384182368527" lon="13.426818388200518"><ele>451.0</ele><time>2026-04-05T09:21:55Z</time></trkpt><trkpt lat="41.69368483540147" lon="13.426740853522116"><ele>451.0</ele><time>2026-04-05T09:21:56Z</time></trkpt><trkpt lat="41.69354752278669" lon="13.426682272336631"><ele>451.0</ele><time>2026-04-05T09:21:57Z</time></trkpt><trkpt lat="41.693425015592936" lon="13.426598226859962"><ele>451.0</ele><time>2026-04-05T09:21:58Z</time></trkpt><trkpt lat="41.69332845299217" lon="13.426470647612794"><ele>454.6666666666667</ele><time>2026-04-05T09:21:59Z</time></trkpt><trkpt lat="41.69323924617663" lon="13.4263002574046"><ele>458.33333333333337</ele><time>2026-04-05T09:22:00.001Z</time></trkpt><trkpt lat="41.69315416609099" lon="13.42610896471903"><ele>462.0</ele><time>2026-04-05T09:22:01.001Z</time></trkpt><trkpt lat="41.693059889951094" lon="13.425904205430312"><ele>462.0</ele><time>2026-04-05T09:22:02.001Z</time></trkpt><trkpt lat="41.69293809389271" lon="13.42568968882375"><ele>462.0</ele><time>2026-04-05T09:22:03.001Z</time></trkpt><trkpt lat="41.692789016644404" lon="13.425462056939853"><ele>462.0</ele><time>2026-04-05T09:22:04.001Z</time></trkpt><trkpt lat="41.69262923757458" lon="13.425228899917773"><ele>463.66666666666663</ele><time>2026-04-05T09:22:05.001Z</time></trkpt><trkpt lat="41.69247704432355" lon="13.425011697463964"><ele>465.3333333333333</ele><time>2026-04-05T09:22:06.001Z</time></trkpt><trkpt lat="41.69231808642107" lon="13.424807805621226"><ele>467.0</ele><time>2026-04-05T09:22:07.001Z</time></trkpt><trkpt lat="41.6921631852907" lon="13.424640859368273"><ele>470.3333333333333</ele><time>2026-04-05T09:22:08.001Z</time></trkpt><trkpt lat="41.69200950462827" lon="13.424518385399313"><ele>473.66666666666663</ele><time>2026-04-05T09:22:09.001Z</time></trkpt><trkpt lat="41.691858200785546" lon="13.42441838394259"><ele>477.0</ele><time>2026-04-05T09:22:10.001Z</time></trkpt><trkpt lat="41.69171084769373" lon="13.424339354333767"><ele>477.0</ele><time>2026-04-05T09:22:11.001Z</time></trkpt><trkpt lat="41.69156739840947" lon="13.424276354063327"><ele>477.0</ele><time>2026-04-05T09:22:12.001Z</time></trkpt><trkpt lat="41.691416616562435" lon="13.424188327396408"><ele>477.0</ele><time>2026-04-05T09:22:13.001Z</time></trkpt><trkpt lat="41.69127827097045" lon="13.424071661284136"><ele>477.0</ele><time>2026-04-05T09:22:14.001Z</time></trkpt><trkpt lat="41.69115155080346" lon="13.423943150794317"><ele>477.0</ele><time>2026-04-05T09:22:15.001Z</time></trkpt><trkpt lat="41.6910267471003" lon="13.423787086147197"><ele>477.0</ele><time>2026-04-05T09:22:16.001Z</time></trkpt><trkpt lat="41.69090515905196" lon="13.423615031335093"><ele>478.0</ele><time>2026-04-05T09:22:17.001Z</time></trkpt><trkpt lat="41.690771938282474" lon="13.423447451102103"><ele>479.0</ele><time>2026-04-05T09:22:18.001Z</time></trkpt><trkpt lat="41.69062370870081" lon="13.423294715763133"><ele>480.0</ele><time>2026-04-05T09:22:19.001Z</time></trkpt><trkpt lat="41.690479597411255" lon="13.423168936974747"><ele>480.0</ele><time>2026-04-05T09:22:20.001Z</time></trkpt><trkpt lat="41.69033585767251" lon="13.42305327558993"><ele>480.0</ele><time>2026-04-05T09:22:21.001Z</time></trkpt><trkpt lat="41.690200475481674" lon="13.42294654649725"><ele>480.0</ele><time>2026-04-05T09:22:22.001Z</time></trkpt><trkpt lat="41.69011405986914" lon="13.422767776810806"><ele>479.25</ele><time>2026-04-05T09:22:23.001Z</time></trkpt><trkpt lat="41.690041796392165" lon="13.422607503310353"><ele>478.5</ele><time>2026-04-05T09:22:24.001Z</time></trkpt><trkpt lat="41.68995205830317" lon="13.422467181506601"><ele>477.75</ele><time>2026-04-05T09:22:25.001Z</time></trkpt><trkpt lat="41.68983718278698" lon="13.42238215960391"><ele>477.0</ele><time>2026-04-05T09:22:26.001Z</time></trkpt><trkpt lat="41.68970250929314" lon="13.42233185986013"><ele>477.0</ele><time>2026-04-05T09:22:27.001Z</time></trkpt><trkpt lat="41.68956739070553" lon="13.422298817085784"><ele>477.00000000000006</ele><time>2026-04-05T09:22:28.001Z</time></trkpt><trkpt lat="41.6894462490638" lon="13.42228018485084"><ele>477.00000000000006</ele><time>2026-04-05T09:22:29.001Z</time></trkpt><trkpt lat="41.68934551836274" lon="13.422267588874016"><ele>477.0</ele><time>2026-04-05T09:22:30.001Z</time></trkpt><trkpt lat="41.68927406229197" lon="13.422259563906376"><ele>477.0</ele><time>2026-04-05T09:22:31.001Z</time></trkpt><trkpt lat="41.68920644818911" lon="13.422229882084908"><ele>476.40000000000003</ele><time>2026-04-05T09:22:32.001Z</time></trkpt><trkpt lat="41.68914013540844" lon="13.422211742031052"><ele>475.80000000000007</ele><time>2026-04-05T09:22:33.001Z</time></trkpt><trkpt lat="41.68905734209018" lon="13.422320391987558"><ele>475.2</ele><time>2026-04-05T09:22:34.001Z</time></trkpt><trkpt lat="41.68896560550627" lon="13.422334393383732"><ele>474.6</ele><time>2026-04-05T09:22:35.001Z</time></trkpt><trkpt lat="41.688835754708045" lon="13.422333730287109"><ele>474.0</ele><time>2026-04-05T09:22:36.001Z</time></trkpt><trkpt lat="41.68867476630212" lon="13.422337060366008"><ele>473.0</ele><time>2026-04-05T09:22:37.001Z</time></trkpt><trkpt lat="41.688479816821115" lon="13.422348344873145"><ele>472.0</ele><time>2026-04-05T09:22:38.001Z</time></trkpt><trkpt lat="41.68827331228842" lon="13.422445955119006"><ele>471.0</ele><time>2026-04-05T09:22:39.001Z</time></trkpt><trkpt lat="41.688037849509264" lon="13.42252463651701"><ele>471.0</ele><time>2026-04-05T09:22:40.001Z</time></trkpt><trkpt lat="41.68780880209993" lon="13.42260338298019"><ele>471.0</ele><time>2026-04-05T09:22:41.001Z</time></trkpt><trkpt lat="41.687598562047675" lon="13.42266879285888"><ele>471.0</ele><time>2026-04-05T09:22:42.001Z</time></trkpt><trkpt lat="41.687407599122004" lon="13.422723050279226"><ele>471.0</ele><time>2026-04-05T09:22:43.001Z</time></trkpt><trkpt lat="41.687243902380345" lon="13.422767727839704"><ele>471.0</ele><time>2026-04-05T09:22:44.001Z</time></trkpt><trkpt lat="41.687100817060404" lon="13.422820087467805"><ele>471.0</ele><time>2026-04-05T09:22:45.001Z</time></trkpt><trkpt lat="41.68695419174278" lon="13.422847246981844"><ele>471.0</ele><time>2026-04-05T09:22:46.001Z</time></trkpt><trkpt lat="41.68679765723462" lon="13.422874358529178"><ele>471.0</ele><time>2026-04-05T09:22:47.001Z</time></trkpt><trkpt lat="41.68663097104371" lon="13.422857331298015"><ele>470.33333333333337</ele><time>2026-04-05T09:22:48.001Z</time></trkpt><trkpt lat="41.68643498390765" lon="13.422841115765321"><ele>469.6666666666667</ele><time>2026-04-05T09:22:49.001Z</time></trkpt><trkpt lat="41.686210975532774" lon="13.422824312016733"><ele>469.0</ele><time>2026-04-05T09:22:50.001Z</time></trkpt><trkpt lat="41.685987952128244" lon="13.422831433338407"><ele>467.0</ele><time>2026-04-05T09:22:51.001Z</time></trkpt><trkpt lat="41.685792660776094" lon="13.422804753887938"><ele>465.0</ele><time>2026-04-05T09:22:52.001Z</time></trkpt><trkpt lat="41.685614746910105" lon="13.422783154810855"><ele>463.0</ele><time>2026-04-05T09:22:53.001Z</time></trkpt><trkpt lat="41.685453234766825" lon="13.42276881512496"><ele>463.0</ele><time>2026-04-05T09:22:54.001Z</time></trkpt><trkpt lat="41.685317281625395" lon="13.422741509522128"><ele>463.0</ele><time>2026-04-05T09:22:55.001Z</time></trkpt><trkpt lat="41.68519450633554" lon="13.422670190187016"><ele>463.0</ele><time>2026-04-05T09:22:56.001Z</time></trkpt><trkpt lat="41.68510136013011" lon="13.422549099868142"><ele>463.0</ele><time>2026-04-05T09:22:57.001Z</time></trkpt><trkpt lat="41.68505789714905" lon="13.42237377222481"><ele>460.33333333333337</ele><time>2026-04-05T09:22:58.001Z</time></trkpt><trkpt lat="41.68500143596923" lon="13.422166275693582"><ele>457.66666666666663</ele><time>2026-04-05T09:22:59Z</time></trkpt><trkpt lat="41.68497005343305" lon="13.421929787594722"><ele>455.0</ele><time>2026-04-05T09:23:00Z</time></trkpt><trkpt lat="41.684974809881155" lon="13.421677554148701"><ele>454.3333333333333</ele><time>2026-04-05T09:23:01Z</time></trkpt><trkpt lat="41.68498731750393" lon="13.421441394786227"><ele>453.66666666666663</ele><time>2026-04-05T09:23:02Z</time></trkpt><trkpt lat="41.68501537582521" lon="13.421208311734373"><ele>453.0</ele><time>2026-04-05T09:23:03Z</time></trkpt><trkpt lat="41.685036906933014" lon="13.420967221358552"><ele>450.66666666666663</ele><time>2026-04-05T09:23:04Z</time></trkpt><trkpt lat="41.68504297447316" lon="13.420713197774685"><ele>448.3333333333333</ele><time>2026-04-05T09:23:05Z</time></trkpt><trkpt lat="41.68503449744765" lon="13.420446388789664"><ele>446.0</ele><time>2026-04-05T09:23:06Z</time></trkpt><trkpt lat="41.68499681335774" lon="13.420193262267436"><ele>446.3333333333333</ele><time>2026-04-05T09:23:07Z</time></trkpt><trkpt lat="41.684948449287646" lon="13.41995935205353"><ele>446.66666666666663</ele><time>2026-04-05T09:23:08Z</time></trkpt><trkpt lat="41.68487477271139" lon="13.419740288528624"><ele>447.0</ele><time>2026-04-05T09:23:09Z</time></trkpt><trkpt lat="41.684765981673095" lon="13.41956032954277"><ele>447.0</ele><time>2026-04-05T09:23:10Z</time></trkpt><trkpt lat="41.68463402228641" lon="13.419422317946593"><ele>447.0</ele><time>2026-04-05T09:23:11Z</time></trkpt><trkpt lat="41.684477142245235" lon="13.419300531450897"><ele>447.0</ele><time>2026-04-05T09:23:12Z</time></trkpt><trkpt lat="41.684333103143295" lon="13.4191590612715"><ele>443.33333333333337</ele><time>2026-04-05T09:23:13Z</time></trkpt><trkpt lat="41.68419547738042" lon="13.41899071060518"><ele>439.6666666666667</ele><time>2026-04-05T09:23:14Z</time></trkpt><trkpt lat="41.684066347530404" lon="13.418791846598"><ele>436.0</ele><time>2026-04-05T09:23:15Z</time></trkpt><trkpt lat="41.6839696170573" lon="13.4185845220139"><ele>436.0</ele><time>2026-04-05T09:23:16Z</time></trkpt><trkpt lat="41.683894264917846" lon="13.418368607743663"><ele>436.0</ele><time>2026-04-05T09:23:17Z</time></trkpt><trkpt lat="41.68383179321989" lon="13.418147967903836"><ele>436.0</ele><time>2026-04-05T09:23:18Z</time></trkpt><trkpt lat="41.683757698771" lon="13.417944927345461"><ele>435.33333333333337</ele><time>2026-04-05T09:23:19Z</time></trkpt><trkpt lat="41.68366131877368" lon="13.417772426377757"><ele>434.66666666666663</ele><time>2026-04-05T09:23:20Z</time></trkpt><trkpt lat="41.68353840585601" lon="13.417643353921951"><ele>434.0</ele><time>2026-04-05T09:23:21Z</time></trkpt><trkpt lat="41.68338444418375" lon="13.417561267740172"><ele>432.3333333333333</ele><time>2026-04-05T09:23:22Z</time></trkpt><trkpt lat="41.683212441877124" lon="13.417510604477528"><ele>430.66666666666663</ele><time>2026-04-05T09:23:23Z</time></trkpt><trkpt lat="41.683035114490814" lon="13.4174545535648"><ele>429.0</ele><time>2026-04-05T09:23:24Z</time></trkpt><trkpt lat="41.68285123151251" lon="13.417383896053678"><ele>425.0</ele><time>2026-04-05T09:23:25Z</time></trkpt><trkpt lat="41.68267951623189" lon="13.417304496013271"><ele>421.0</ele><time>2026-04-05T09:23:26Z</time></trkpt><trkpt lat="41.682517122556206" lon="13.417219443449174"><ele>417.0</ele><time>2026-04-05T09:23:27Z</time></trkpt><trkpt lat="41.68237849861547" lon="13.41713759318543"><ele>417.0</ele><time>2026-04-05T09:23:28Z</time></trkpt><trkpt lat="41.68224810600394" lon="13.417049582337238"><ele>417.0</ele><time>2026-04-05T09:23:29Z</time></trkpt><trkpt lat="41.68212836991181" lon="13.41697327565721"><ele>417.0</ele><time>2026-04-05T09:23:30Z</time></trkpt><trkpt lat="41.68201130174403" lon="13.416909624445415"><ele>417.0</ele><time>2026-04-05T09:23:31Z</time></trkpt><trkpt lat="41.681897067440225" lon="13.416823286352312"><ele>416.0</ele><time>2026-04-05T09:23:32Z</time></trkpt><trkpt lat="41.68177962501378" lon="13.416706799284489"><ele>415.0</ele><time>2026-04-05T09:23:33Z</time></trkpt><trkpt lat="41.68164628413799" lon="13.416568397700338"><ele>414.0</ele><time>2026-04-05T09:23:34Z</time></trkpt><trkpt lat="41.681487796181905" lon="13.416411701934045"><ele>409.0</ele><time>2026-04-05T09:23:35Z</time></trkpt><trkpt lat="41.6813025002619" lon="13.416235898223961"><ele>404.0</ele><time>2026-04-05T09:23:36Z</time></trkpt><trkpt lat="41.68111651927257" lon="13.416044826995417"><ele>406.0</ele><time>2026-04-05T09:23:37Z</time></trkpt><trkpt lat="41.68093444746757" lon="13.415861193700668"><ele>408.0</ele><time>2026-04-05T09:23:38Z</time></trkpt><trkpt lat="41.680755614894906" lon="13.415690636938052"><ele>410.0</ele><time>2026-04-05T09:23:39Z</time></trkpt><trkpt lat="41.68058772853094" lon="13.415540455705035"><ele>406.66666666666663</ele><time>2026-04-05T09:23:40Z</time></trkpt><trkpt lat="41.68043268156205" lon="13.415374973600954"><ele>403.33333333333337</ele><time>2026-04-05T09:23:41Z</time></trkpt><trkpt lat="41.68028567937143" lon="13.4152211868178"><ele>400.0</ele><time>2026-04-05T09:23:42Z</time></trkpt><trkpt lat="41.68014466301343" lon="13.415080615965529"><ele>400.0</ele><time>2026-04-05T09:23:43Z</time></trkpt><trkpt lat="41.680005561457534" lon="13.41495194979512"><ele>400.0</ele><time>2026-04-05T09:23:44Z</time></trkpt><trkpt lat="41.67987919091697" lon="13.414816732559053"><ele>400.0</ele><time>2026-04-05T09:23:45Z</time></trkpt><trkpt lat="41.67976613189348" lon="13.414664046319935"><ele>398.0</ele><time>2026-04-05T09:23:46Z</time></trkpt><trkpt lat="41.679672298727326" lon="13.414496916399035"><ele>396.0</ele><time>2026-04-05T09:23:47Z</time></trkpt><trkpt lat="41.67960078486077" lon="13.414334619131594"><ele>394.0</ele><time>2026-04-05T09:23:48Z</time></trkpt><trkpt lat="41.67954459124781" lon="13.414181264917362"><ele>392.0</ele><time>2026-04-05T09:23:49Z</time></trkpt><trkpt lat="41.67950685029271" lon="13.414050328601617"><ele>392.0</ele><time>2026-04-05T09:23:50Z</time></trkpt><trkpt lat="41.679499530450066" lon="13.413920072931557"><ele>392.0</ele><time>2026-04-05T09:23:51Z</time></trkpt><trkpt lat="41.67951467733798" lon="13.41380444768083"><ele>392.0</ele><time>2026-04-05T09:23:52Z</time></trkpt><trkpt lat="41.67960894285823" lon="13.41373607447466"><ele>392.0</ele><time>2026-04-05T09:23:53Z</time></trkpt><trkpt lat="41.67971069193053" lon="13.41371365743201"><ele>392.0</ele><time>2026-04-05T09:23:54Z</time></trkpt><trkpt lat="41.67982924047918" lon="13.413781638692472"><ele>392.0</ele><time>2026-04-05T09:23:55Z</time></trkpt><trkpt lat="41.67998425389633" lon="13.413836932850783"><ele>392.0</ele><time>2026-04-05T09:23:56Z</time></trkpt><trkpt lat="41.6801554176003" lon="13.41392376701086"><ele>392.0</ele><time>2026-04-05T09:23:57Z</time></trkpt><trkpt lat="41.680364529062636" lon="13.414007502287975"><ele>389.0</ele><time>2026-04-05T09:23:58Z</time></trkpt><trkpt lat="41.680587916699544" lon="13.41408135060065"><ele>386.0</ele><time>2026-04-05T09:23:59Z</time></trkpt><trkpt lat="41.680793227009644" lon="13.414124134601334"><ele>383.0</ele><time>2026-04-05T09:24:00Z</time></trkpt><trkpt lat="41.68099322820733" lon="13.414153875983"><ele>381.33333333333337</ele><time>2026-04-05T09:24:01Z</time></trkpt><trkpt lat="41.68118539402085" lon="13.41416963311021"><ele>379.6666666666667</ele><time>2026-04-05T09:24:02Z</time></trkpt><trkpt lat="41.68136725448387" lon="13.41417038637492"><ele>378.0</ele><time>2026-04-05T09:24:03Z</time></trkpt><trkpt lat="41.68154248759585" lon="13.414150479224134"><ele>378.0</ele><time>2026-04-05T09:24:04Z</time></trkpt><trkpt lat="41.681712760462176" lon="13.414107796444842"><ele>378.0</ele><time>2026-04-05T09:24:05Z</time></trkpt><trkpt lat="41.68188430523075" lon="13.414035974113004"><ele>378.0</ele><time>2026-04-05T09:24:06Z</time></trkpt><trkpt lat="41.68206771844872" lon="13.413953534896075"><ele>378.3333333333333</ele><time>2026-04-05T09:24:07Z</time></trkpt><trkpt lat="41.68225202224045" lon="13.413873701327658"><ele>378.66666666666663</ele><time>2026-04-05T09:24:08Z</time></trkpt><trkpt lat="41.682437341102684" lon="13.413799124624456"><ele>379.0</ele><time>2026-04-05T09:24:09Z</time></trkpt><trkpt lat="41.682621879568366" lon="13.413724074188302"><ele>375.66666666666663</ele><time>2026-04-05T09:24:10.001Z</time></trkpt><trkpt lat="41.68280045326366" lon="13.41364396871584"><ele>372.3333333333333</ele><time>2026-04-05T09:24:11.001Z</time></trkpt><trkpt lat="41.68297501360836" lon="13.413572545672974"><ele>369.0</ele><time>2026-04-05T09:24:12.001Z</time></trkpt><trkpt lat="41.68314342975241" lon="13.413499540615101"><ele>369.0</ele><time>2026-04-05T09:24:13.001Z</time></trkpt><trkpt lat="41.683302804920544" lon="13.413413898599332"><ele>369.0</ele><time>2026-04-05T09:24:14.001Z</time></trkpt><trkpt lat="41.68344423918881" lon="13.413306664728518"><ele>369.0</ele><time>2026-04-05T09:24:15.001Z</time></trkpt><trkpt lat="41.683570189943225" lon="13.413172071336097"><ele>368.25</ele><time>2026-04-05T09:24:16.001Z</time></trkpt><trkpt lat="41.68367140716745" lon="13.413013023455118"><ele>367.5</ele><time>2026-04-05T09:24:17.001Z</time></trkpt><trkpt lat="41.68373866236538" lon="13.412849502128052"><ele>366.75</ele><time>2026-04-05T09:24:18.001Z</time></trkpt><trkpt lat="41.68376798387734" lon="13.412688788225541"><ele>366.0</ele><time>2026-04-05T09:24:19.001Z</time></trkpt><trkpt lat="41.683750755980384" lon="13.412510665896619"><ele>366.0</ele><time>2026-04-05T09:24:20.001Z</time></trkpt><trkpt lat="41.68369077209768" lon="13.412311178415628"><ele>366.0</ele><time>2026-04-05T09:24:21.001Z</time></trkpt><trkpt lat="41.683605852559" lon="13.412100831733058"><ele>366.0</ele><time>2026-04-05T09:24:22.001Z</time></trkpt><trkpt lat="41.68353278269698" lon="13.411856586327596"><ele>360.3333333333333</ele><time>2026-04-05T09:24:23.001Z</time></trkpt><trkpt lat="41.68348482129354" lon="13.411611442212783"><ele>354.66666666666663</ele><time>2026-04-05T09:24:24.001Z</time></trkpt><trkpt lat="41.6834380152854" lon="13.411363419800129"><ele>349.0</ele><time>2026-04-05T09:24:25.001Z</time></trkpt><trkpt lat="41.683384634025145" lon="13.411122197986348"><ele>347.66666666666663</ele><time>2026-04-05T09:24:26.001Z</time></trkpt><trkpt lat="41.68331518995496" lon="13.41090619177597"><ele>346.3333333333333</ele><time>2026-04-05T09:24:27.001Z</time></trkpt><trkpt lat="41.68323759889295" lon="13.410704770422202"><ele>345.0</ele><time>2026-04-05T09:24:28.001Z</time></trkpt><trkpt lat="41.68317670565641" lon="13.4105129773922"><ele>344.25</ele><time>2026-04-05T09:24:29.001Z</time></trkpt><trkpt lat="41.683144089825426" lon="13.410313738703536"><ele>343.5</ele><time>2026-04-05T09:24:30.001Z</time></trkpt><trkpt lat="41.683141428617255" lon="13.410124514290368"><ele>342.75</ele><time>2026-04-05T09:24:31.001Z</time></trkpt><trkpt lat="41.68318626390507" lon="13.409939379021687"><ele>342.0</ele><time>2026-04-05T09:24:32.001Z</time></trkpt><trkpt lat="41.68327335735802" lon="13.409766575197317"><ele>340.3333333333333</ele><time>2026-04-05T09:24:33.001Z</time></trkpt><trkpt lat="41.68340148786287" lon="13.409593170005007"><ele>338.66666666666663</ele><time>2026-04-05T09:24:34.001Z</time></trkpt><trkpt lat="41.683549637588456" lon="13.409412042336482"><ele>337.0</ele><time>2026-04-05T09:24:35.001Z</time></trkpt><trkpt lat="41.683713424928555" lon="13.409210624493175"><ele>337.0</ele><time>2026-04-05T09:24:36.001Z</time></trkpt><trkpt lat="41.6838690522091" lon="13.409011942872793"><ele>337.0</ele><time>2026-04-05T09:24:37.001Z</time></trkpt><trkpt lat="41.684018847640765" lon="13.408828705143362"><ele>337.0</ele><time>2026-04-05T09:24:38.001Z</time></trkpt><trkpt lat="41.6841535447395" lon="13.408682053000593"><ele>331.25</ele><time>2026-04-05T09:24:39.001Z</time></trkpt><trkpt lat="41.684278615252396" lon="13.408575755221026"><ele>325.5</ele><time>2026-04-05T09:24:40.001Z</time></trkpt><trkpt lat="41.68440120050856" lon="13.408518220120742"><ele>319.75</ele><time>2026-04-05T09:24:41.001Z</time></trkpt><trkpt lat="41.68450211082257" lon="13.408497601125852"><ele>314.0</ele><time>2026-04-05T09:24:42.001Z</time></trkpt><trkpt lat="41.68457967040848" lon="13.408461902603753"><ele>314.0</ele><time>2026-04-05T09:24:43.001Z</time></trkpt><trkpt lat="41.68462341601399" lon="13.40837432660117"><ele>314.0</ele><time>2026-04-05T09:24:44.001Z</time></trkpt><trkpt lat="41.684637049772974" lon="13.40826901443145"><ele>314.0</ele><time>2026-04-05T09:24:45.001Z</time></trkpt><trkpt lat="41.68456426868204" lon="13.408183786057789"><ele>314.0</ele><time>2026-04-05T09:24:46.001Z</time></trkpt><trkpt lat="41.68447298940666" lon="13.408160551529468"><ele>314.0</ele><time>2026-04-05T09:24:47.001Z</time></trkpt><trkpt lat="41.68437574200186" lon="13.408200275542914"><ele>313.6666666666667</ele><time>2026-04-05T09:24:48.001Z</time></trkpt><trkpt lat="41.684285317186706" lon="13.408263365987704"><ele>313.33333333333337</ele><time>2026-04-05T09:24:49.001Z</time></trkpt><trkpt lat="41.68420321340056" lon="13.408340619937155"><ele>313.0</ele><time>2026-04-05T09:24:50.001Z</time></trkpt><trkpt lat="41.68412851409807" lon="13.408361489079992"><ele>312.6666666666667</ele><time>2026-04-05T09:24:51.001Z</time></trkpt><trkpt lat="41.68407004551817" lon="13.408311499233982"><ele>312.3333333333333</ele><time>2026-04-05T09:24:52.001Z</time></trkpt><trkpt lat="41.684041336253415" lon="13.408211962708762"><ele>312.0</ele><time>2026-04-05T09:24:53.001Z</time></trkpt><trkpt lat="41.684066042144465" lon="13.408101251731468"><ele>312.0</ele><time>2026-04-05T09:24:54.001Z</time></trkpt><trkpt lat="41.684148441942675" lon="13.408013387293414"><ele>312.0</ele><time>2026-04-05T09:24:55.001Z</time></trkpt><trkpt lat="41.68428862273588" lon="13.408006957551674"><ele>312.0</ele><time>2026-04-05T09:24:56.001Z</time></trkpt><trkpt lat="41.68445036427062" lon="13.407943002347391"><ele>312.0</ele><time>2026-04-05T09:24:57.001Z</time></trkpt><trkpt lat="41.68461856703051" lon="13.407868823968071"><ele>309.0</ele><time>2026-04-05T09:24:58.001Z</time></trkpt><trkpt lat="41.68477616122223" lon="13.407827248098503"><ele>306.0</ele><time>2026-04-05T09:24:59.001Z</time></trkpt><trkpt lat="41.68492460010858" lon="13.407783985422851"><ele>303.0</ele><time>2026-04-05T09:25:00.001Z</time></trkpt><trkpt lat="41.68505272819363" lon="13.407762569601276"><ele>300.0</ele><time>2026-04-05T09:25:01.001Z</time></trkpt><trkpt lat="41.68514794108239" lon="13.40774766516865"><ele>300.0</ele><time>2026-04-05T09:25:02.001Z</time></trkpt><trkpt lat="41.685204219558436" lon="13.407704024137912"><ele>300.0</ele><time>2026-04-05T09:25:03.001Z</time></trkpt><trkpt lat="41.6852398553957" lon="13.407607548057497"><ele>300.0</ele><time>2026-04-05T09:25:04.001Z</time></trkpt><trkpt lat="41.68522057861099" lon="13.407483503197538"><ele>300.0</ele><time>2026-04-05T09:25:05Z</time></trkpt><trkpt lat="41.68514923049308" lon="13.407383375388825"><ele>300.0</ele><time>2026-04-05T09:25:06Z</time></trkpt><trkpt lat="41.685029721476916" lon="13.407345269920961"><ele>300.0</ele><time>2026-04-05T09:25:07Z</time></trkpt><trkpt lat="41.68487948597505" lon="13.40734442058478"><ele>300.0</ele><time>2026-04-05T09:25:08Z</time></trkpt><trkpt lat="41.68469512820785" lon="13.407357445503798"><ele>300.0</ele><time>2026-04-05T09:25:09Z</time></trkpt><trkpt lat="41.68450457680965" lon="13.407359508801399"><ele>299.0</ele><time>2026-04-05T09:25:10Z</time></trkpt><trkpt lat="41.68430535140382" lon="13.407352336635626"><ele>298.0</ele><time>2026-04-05T09:25:11Z</time></trkpt><trkpt lat="41.6841094027972" lon="13.407340075133236"><ele>297.0</ele><time>2026-04-05T09:25:12Z</time></trkpt><trkpt lat="41.68392613804996" lon="13.407320284564646"><ele>297.0</ele><time>2026-04-05T09:25:13Z</time></trkpt><trkpt lat="41.68376085399726" lon="13.407272856218066"><ele>297.0</ele><time>2026-04-05T09:25:14Z</time></trkpt><trkpt lat="41.6836106235641" lon="13.40717840544217"><ele>297.0</ele><time>2026-04-05T09:25:15Z</time></trkpt><trkpt lat="41.683473253319065" lon="13.407048984893894"><ele>293.5</ele><time>2026-04-05T09:25:16Z</time></trkpt><trkpt lat="41.68336665423971" lon="13.406895294545727"><ele>290.0</ele><time>2026-04-05T09:25:17Z</time></trkpt><trkpt lat="41.68329113976883" lon="13.406748509405967"><ele>286.5</ele><time>2026-04-05T09:25:18Z</time></trkpt><trkpt lat="41.68326515915387" lon="13.406565023031666"><ele>283.0</ele><time>2026-04-05T09:25:19Z</time></trkpt><trkpt lat="41.68325020959758" lon="13.40632264428237"><ele>280.0</ele><time>2026-04-05T09:25:20Z</time></trkpt><trkpt lat="41.683235257537184" lon="13.406039380815677"><ele>277.0</ele><time>2026-04-05T09:25:21Z</time></trkpt><trkpt lat="41.68321474770197" lon="13.405734705366294"><ele>274.0</ele><time>2026-04-05T09:25:22Z</time></trkpt><trkpt lat="41.683191754897486" lon="13.405451653569699"><ele>272.3333333333333</ele><time>2026-04-05T09:25:23Z</time></trkpt><trkpt lat="41.68316798928266" lon="13.405162533002981"><ele>270.6666666666667</ele><time>2026-04-05T09:25:24Z</time></trkpt><trkpt lat="41.6831447366288" lon="13.404872869153719"><ele>269.0</ele><time>2026-04-05T09:25:25Z</time></trkpt><trkpt lat="41.68313524638509" lon="13.404585154411363"><ele>268.6666666666667</ele><time>2026-04-05T09:25:26Z</time></trkpt><trkpt lat="41.68313470384226" lon="13.404299433717993"><ele>268.3333333333333</ele><time>2026-04-05T09:25:27Z</time></trkpt><trkpt lat="41.68314260675868" lon="13.404010453327642"><ele>268.0</ele><time>2026-04-05T09:25:28Z</time></trkpt><trkpt lat="41.68314167710275" lon="13.403727802973304"><ele>266.0</ele><time>2026-04-05T09:25:29Z</time></trkpt><trkpt lat="41.68310940075508" lon="13.40343978467493"><ele>264.0</ele><time>2026-04-05T09:25:30Z</time></trkpt><trkpt lat="41.68305336619507" lon="13.403138002632204"><ele>262.0</ele><time>2026-04-05T09:25:31Z</time></trkpt><trkpt lat="41.682993246959015" lon="13.402837954158233"><ele>260.0</ele><time>2026-04-05T09:25:32Z</time></trkpt><trkpt lat="41.68294349028016" lon="13.402529039370433"><ele>260.0</ele><time>2026-04-05T09:25:33Z</time></trkpt><trkpt lat="41.68289324975041" lon="13.402187201961041"><ele>260.0</ele><time>2026-04-05T09:25:34Z</time></trkpt><trkpt lat="41.68284364606635" lon="13.401850887823043"><ele>259.33333333333337</ele><time>2026-04-05T09:25:35Z</time></trkpt><trkpt lat="41.68279576973633" lon="13.401548386784158"><ele>258.6666666666667</ele><time>2026-04-05T09:25:36Z</time></trkpt><trkpt lat="41.68274978786239" lon="13.401263297915024"><ele>258.0</ele><time>2026-04-05T09:25:37Z</time></trkpt><trkpt lat="41.68270776286122" lon="13.4010056092201"><ele>257.3333333333333</ele><time>2026-04-05T09:25:38Z</time></trkpt><trkpt lat="41.68265934786223" lon="13.400761073847649"><ele>256.66666666666663</ele><time>2026-04-05T09:25:39Z</time></trkpt><trkpt lat="41.682579990596196" lon="13.400534496295434"><ele>256.0</ele><time>2026-04-05T09:25:40Z</time></trkpt><trkpt lat="41.682475277077174" lon="13.400325046988335"><ele>255.0</ele><time>2026-04-05T09:25:41Z</time></trkpt><trkpt lat="41.6823535808155" lon="13.400108799076275"><ele>254.0</ele><time>2026-04-05T09:25:42Z</time></trkpt><trkpt lat="41.682252888934954" lon="13.399907026934633"><ele>253.0</ele><time>2026-04-05T09:25:43Z</time></trkpt><trkpt lat="41.68216064974368" lon="13.399706869506915"><ele>252.33333333333331</ele><time>2026-04-05T09:25:44Z</time></trkpt><trkpt lat="41.68206933383549" lon="13.399515523541396"><ele>251.66666666666669</ele><time>2026-04-05T09:25:45Z</time></trkpt><trkpt lat="41.681965804889565" lon="13.399320350241009"><ele>251.0</ele><time>2026-04-05T09:25:46Z</time></trkpt><trkpt lat="41.6818564808945" lon="13.39910800320862"><ele>250.66666666666669</ele><time>2026-04-05T09:25:47Z</time></trkpt><trkpt lat="41.68174696848177" lon="13.3988842183047"><ele>250.33333333333331</ele><time>2026-04-05T09:25:48Z</time></trkpt><trkpt lat="41.68162757305973" lon="13.39863578898439"><ele>250.0</ele><time>2026-04-05T09:25:49Z</time></trkpt><trkpt lat="41.6815114203077" lon="13.398396466592773"><ele>249.33333333333331</ele><time>2026-04-05T09:25:50Z</time></trkpt><trkpt lat="41.68140245264791" lon="13.398182904140366"><ele>248.66666666666669</ele><time>2026-04-05T09:25:51Z</time></trkpt><trkpt lat="41.68130066089977" lon="13.397993489839447"><ele>248.0</ele><time>2026-04-05T09:25:52Z</time></trkpt><trkpt lat="41.6812009051748" lon="13.397831215606708"><ele>247.25</ele><time>2026-04-05T09:25:53Z</time></trkpt><trkpt lat="41.68109540813584" lon="13.397693833628578"><ele>246.5</ele><time>2026-04-05T09:25:54Z</time></trkpt><trkpt lat="41.68100494512086" lon="13.39755613539505"><ele>245.75</ele><time>2026-04-05T09:25:55Z</time></trkpt><trkpt lat="41.68090891200869" lon="13.397440521891664"><ele>245.0</ele><time>2026-04-05T09:25:56Z</time></trkpt><trkpt lat="41.68081365576927" lon="13.397330548590588"><ele>245.0</ele><time>2026-04-05T09:25:57Z</time></trkpt><trkpt lat="41.68071397181539" lon="13.397244537052828"><ele>245.0</ele><time>2026-04-05T09:25:58Z</time></trkpt><trkpt lat="41.680629657578905" lon="13.397139676575076"><ele>245.0</ele><time>2026-04-05T09:25:59Z</time></trkpt><trkpt lat="41.680544052069195" lon="13.39704445556904"><ele>245.0</ele><time>2026-04-05T09:26:00Z</time></trkpt><trkpt lat="41.68046175798222" lon="13.396956083219921"><ele>245.16666666666669</ele><time>2026-04-05T09:26:01Z</time></trkpt><trkpt lat="41.68038477463847" lon="13.396866771353409"><ele>245.33333333333334</ele><time>2026-04-05T09:26:02Z</time></trkpt><trkpt lat="41.68031685557769" lon="13.396787382190633"><ele>245.5</ele><time>2026-04-05T09:26:03Z</time></trkpt><trkpt lat="41.68025958413367" lon="13.396724492388937"><ele>245.66666666666669</ele><time>2026-04-05T09:26:04Z</time></trkpt><trkpt lat="41.6801981179754" lon="13.396699191015621"><ele>245.83333333333334</ele><time>2026-04-05T09:26:12Z</time></trkpt><trkpt lat="41.68013382467585" lon="13.396633917824216"><ele>246.0</ele><time>2026-04-05T09:26:15Z</time></trkpt><trkpt lat="41.680071993908065" lon="13.396572061236999"><ele>246.0</ele><time>2026-04-05T09:26:17.001Z</time></trkpt><trkpt lat="41.67996691267935" lon="13.3964863508356"><ele>246.00000000000003</ele><time>2026-04-05T09:26:19.001Z</time></trkpt><trkpt lat="41.679896662075535" lon="13.396440343217064"><ele>246.00000000000003</ele><time>2026-04-05T09:26:20.001Z</time></trkpt><trkpt lat="41.67981521241444" lon="13.396388771247505"><ele>246.0</ele><time>2026-04-05T09:26:21.001Z</time></trkpt><trkpt lat="41.679724484682346" lon="13.396331794940908"><ele>246.0</ele><time>2026-04-05T09:26:22.001Z</time></trkpt><trkpt lat="41.679588385160514" lon="13.39626932243528"><ele>245.0</ele><time>2026-04-05T09:26:23.001Z</time></trkpt><trkpt lat="41.67944702057078" lon="13.396161382148726"><ele>244.0</ele><time>2026-04-05T09:26:24.001Z</time></trkpt><trkpt lat="41.67929529550626" lon="13.396033093664903"><ele>243.0</ele><time>2026-04-05T09:26:25.001Z</time></trkpt><trkpt lat="41.67912470382695" lon="13.395892546531998"><ele>243.0</ele><time>2026-04-05T09:26:26.001Z</time></trkpt><trkpt lat="41.67895712119106" lon="13.395772419843373"><ele>243.0</ele><time>2026-04-05T09:26:27.001Z</time></trkpt><trkpt lat="41.67881771026126" lon="13.395659986940922"><ele>243.0</ele><time>2026-04-05T09:26:28.001Z</time></trkpt><trkpt lat="41.6787105401035" lon="13.395526108478057"><ele>241.66666666666669</ele><time>2026-04-05T09:26:29.001Z</time></trkpt><trkpt lat="41.67863788779427" lon="13.395360344265972"><ele>240.33333333333334</ele><time>2026-04-05T09:26:30.001Z</time></trkpt><trkpt lat="41.67856150719566" lon="13.395155102971879"><ele>239.0</ele><time>2026-04-05T09:26:31.001Z</time></trkpt><trkpt lat="41.67850715256016" lon="13.394921632312181"><ele>239.0</ele><time>2026-04-05T09:26:32.001Z</time></trkpt><trkpt lat="41.67844258466093" lon="13.394711453961978"><ele>239.0</ele><time>2026-04-05T09:26:33.001Z</time></trkpt><trkpt lat="41.678365565567745" lon="13.394493731773313"><ele>239.0</ele><time>2026-04-05T09:26:34.001Z</time></trkpt><trkpt lat="41.67827904957885" lon="13.394276588048378"><ele>238.33333333333334</ele><time>2026-04-05T09:26:35.001Z</time></trkpt><trkpt lat="41.67818647192648" lon="13.394052715940267"><ele>237.66666666666669</ele><time>2026-04-05T09:26:36.001Z</time></trkpt><trkpt lat="41.678098959004885" lon="13.393826995407242"><ele>237.0</ele><time>2026-04-05T09:26:37.001Z</time></trkpt><trkpt lat="41.678002056452165" lon="13.393595082405378"><ele>236.33333333333331</ele><time>2026-04-05T09:26:38.001Z</time></trkpt><trkpt lat="41.677885256968615" lon="13.393364768320923"><ele>235.66666666666666</ele><time>2026-04-05T09:26:39.001Z</time></trkpt><trkpt lat="41.67775422991179" lon="13.39314404672785"><ele>235.0</ele><time>2026-04-05T09:26:40.001Z</time></trkpt><trkpt lat="41.67762194717157" lon="13.392932603865223"><ele>234.0</ele><time>2026-04-05T09:26:41.001Z</time></trkpt><trkpt lat="41.67749991892572" lon="13.39273273057286"><ele>233.0</ele><time>2026-04-05T09:26:42.001Z</time></trkpt><trkpt lat="41.67738220952589" lon="13.392558340306293"><ele>232.0</ele><time>2026-04-05T09:26:43.001Z</time></trkpt><trkpt lat="41.67726076932648" lon="13.392415185110579"><ele>232.0</ele><time>2026-04-05T09:26:44.001Z</time></trkpt><trkpt lat="41.677129049807675" lon="13.392306035508208"><ele>232.0</ele><time>2026-04-05T09:26:45.001Z</time></trkpt><trkpt lat="41.676974954149244" lon="13.392206854789503"><ele>232.0</ele><time>2026-04-05T09:26:46.001Z</time></trkpt><trkpt lat="41.67680704359046" lon="13.392111739863667"><ele>231.33333333333331</ele><time>2026-04-05T09:26:47.001Z</time></trkpt><trkpt lat="41.67664731799026" lon="13.39201311106443"><ele>230.66666666666669</ele><time>2026-04-05T09:26:48.001Z</time></trkpt><trkpt lat="41.67648411765022" lon="13.391911086370728"><ele>230.0</ele><time>2026-04-05T09:26:49.001Z</time></trkpt><trkpt lat="41.676327169405546" lon="13.391802570907137"><ele>230.0</ele><time>2026-04-05T09:26:50.001Z</time></trkpt><trkpt lat="41.67618576241196" lon="13.391669671123339"><ele>230.0</ele><time>2026-04-05T09:26:51.001Z</time></trkpt><trkpt lat="41.67604799658197" lon="13.391508549696045"><ele>230.0</ele><time>2026-04-05T09:26:52.001Z</time></trkpt><trkpt lat="41.675905187884275" lon="13.391316927790697"><ele>229.5</ele><time>2026-04-05T09:26:53.001Z</time></trkpt><trkpt lat="41.67574921404664" lon="13.391101087730771"><ele>229.0</ele><time>2026-04-05T09:26:54.001Z</time></trkpt><trkpt lat="41.675574789472584" lon="13.390866972604462"><ele>229.0</ele><time>2026-04-05T09:26:55.001Z</time></trkpt><trkpt lat="41.67538704030921" lon="13.390620021056503"><ele>229.0</ele><time>2026-04-05T09:26:56.001Z</time></trkpt><trkpt lat="41.67519815613778" lon="13.39036563632365"><ele>229.0</ele><time>2026-04-05T09:26:57.001Z</time></trkpt><trkpt lat="41.67502939151453" lon="13.390136180801825"><ele>229.0</ele><time>2026-04-05T09:26:58.001Z</time></trkpt><trkpt lat="41.67486771576887" lon="13.389916064626064"><ele>229.0</ele><time>2026-04-05T09:26:59.001Z</time></trkpt><trkpt lat="41.67470860114874" lon="13.389701571103604"><ele>229.0</ele><time>2026-04-05T09:27:00.001Z</time></trkpt><trkpt lat="41.6745556031873" lon="13.389495417155613"><ele>229.0</ele><time>2026-04-05T09:27:01.001Z</time></trkpt><trkpt lat="41.6744026848158" lon="13.389285368167169"><ele>230.0</ele><time>2026-04-05T09:27:02.001Z</time></trkpt><trkpt lat="41.67424673168574" lon="13.389077386501837"><ele>231.0</ele><time>2026-04-05T09:27:03.001Z</time></trkpt><trkpt lat="41.67408625677923" lon="13.388857726095745"><ele>230.5</ele><time>2026-04-05T09:27:04.001Z</time></trkpt><trkpt lat="41.67392813593642" lon="13.388627786280193"><ele>230.0</ele><time>2026-04-05T09:27:05.001Z</time></trkpt><trkpt lat="41.67378210857048" lon="13.388385126653759"><ele>230.0</ele><time>2026-04-05T09:27:06.001Z</time></trkpt><trkpt lat="41.673641044269814" lon="13.388132014994634"><ele>230.0</ele><time>2026-04-05T09:27:07.001Z</time></trkpt><trkpt lat="41.67349880082355" lon="13.387876400843572"><ele>229.0</ele><time>2026-04-05T09:27:08.001Z</time></trkpt><trkpt lat="41.673354411029656" lon="13.387621843816358"><ele>228.0</ele><time>2026-04-05T09:27:09.001Z</time></trkpt><trkpt lat="41.67321702163623" lon="13.387371180779029"><ele>228.33333333333331</ele><time>2026-04-05T09:27:10.001Z</time></trkpt><trkpt lat="41.67308870662528" lon="13.387142668848641"><ele>228.66666666666666</ele><time>2026-04-05T09:27:11Z</time></trkpt><trkpt lat="41.67296022521848" lon="13.386934778385205"><ele>229.0</ele><time>2026-04-05T09:27:12Z</time></trkpt><trkpt lat="41.672827795358415" lon="13.386750597806682"><ele>228.0</ele><time>2026-04-05T09:27:13Z</time></trkpt><trkpt lat="41.67269702143064" lon="13.386593466397185"><ele>227.0</ele><time>2026-04-05T09:27:14Z</time></trkpt><trkpt lat="41.67255003405126" lon="13.386470489148236"><ele>226.0</ele><time>2026-04-05T09:27:15Z</time></trkpt><trkpt lat="41.67237765889456" lon="13.386380710608352"><ele>225.66666666666666</ele><time>2026-04-05T09:27:16Z</time></trkpt><trkpt lat="41.67219822860014" lon="13.3862659562998"><ele>225.33333333333331</ele><time>2026-04-05T09:27:17Z</time></trkpt><trkpt lat="41.67202829193043" lon="13.386090835644078"><ele>225.0</ele><time>2026-04-05T09:27:18Z</time></trkpt><trkpt lat="41.67187493895008" lon="13.38588672770386"><ele>225.0</ele><time>2026-04-05T09:27:19Z</time></trkpt><trkpt lat="41.67172250590433" lon="13.385695713469408"><ele>225.0</ele><time>2026-04-05T09:27:20Z</time></trkpt><trkpt lat="41.67155023938378" lon="13.385531997516999"><ele>225.0</ele><time>2026-04-05T09:27:21Z</time></trkpt><trkpt lat="41.671373144927195" lon="13.385390105511327"><ele>225.0</ele><time>2026-04-05T09:27:22Z</time></trkpt><trkpt lat="41.6712087076408" lon="13.385265321349072"><ele>225.0</ele><time>2026-04-05T09:27:23Z</time></trkpt><trkpt lat="41.671050911164436" lon="13.38514703819368"><ele>225.0</ele><time>2026-04-05T09:27:24Z</time></trkpt><trkpt lat="41.67089788768182" lon="13.385033925784338"><ele>224.33333333333331</ele><time>2026-04-05T09:27:25Z</time></trkpt><trkpt lat="41.67075017297656" lon="13.384926717254714"><ele>223.66666666666666</ele><time>2026-04-05T09:27:26Z</time></trkpt><trkpt lat="41.67060476990211" lon="13.384822200999634"><ele>223.0</ele><time>2026-04-05T09:27:27Z</time></trkpt><trkpt lat="41.670457326636566" lon="13.384711803923052"><ele>223.0</ele><time>2026-04-05T09:27:28Z</time></trkpt><trkpt lat="41.67031580980692" lon="13.384598184766968"><ele>223.0</ele><time>2026-04-05T09:27:29Z</time></trkpt><trkpt lat="41.670183328607166" lon="13.384479876791586"><ele>223.0</ele><time>2026-04-05T09:27:30Z</time></trkpt><trkpt lat="41.670058086132165" lon="13.384338134007605"><ele>223.66666666666666</ele><time>2026-04-05T09:27:31Z</time></trkpt><trkpt lat="41.66996588991789" lon="13.384167120288629"><ele>224.33333333333331</ele><time>2026-04-05T09:27:32Z</time></trkpt><trkpt lat="41.66989123253706" lon="13.383974482912153"><ele>225.0</ele><time>2026-04-05T09:27:33Z</time></trkpt><trkpt lat="41.669827151971006" lon="13.383756175126921"><ele>225.0</ele><time>2026-04-05T09:27:34Z</time></trkpt><trkpt lat="41.66976590519956" lon="13.383557541976218"><ele>225.0</ele><time>2026-04-05T09:27:35Z</time></trkpt><trkpt lat="41.66971216592332" lon="13.383382667500182"><ele>225.0</ele><time>2026-04-05T09:27:36Z</time></trkpt><trkpt lat="41.6696620184844" lon="13.38322648432008"><ele>225.0</ele><time>2026-04-05T09:27:37Z</time></trkpt><trkpt lat="41.66960500458116" lon="13.383098874651493"><ele>225.25</ele><time>2026-04-05T09:27:38Z</time></trkpt><trkpt lat="41.66952658475493" lon="13.382996194696801"><ele>225.5</ele><time>2026-04-05T09:27:39Z</time></trkpt><trkpt lat="41.66941812823418" lon="13.382927861748362"><ele>225.75</ele><time>2026-04-05T09:27:40Z</time></trkpt><trkpt lat="41.66928536077485" lon="13.382897897602959"><ele>226.0</ele><time>2026-04-05T09:27:41Z</time></trkpt><trkpt lat="41.66914251456326" lon="13.382904357375178"><ele>226.0</ele><time>2026-04-05T09:27:42Z</time></trkpt><trkpt lat="41.66900042686976" lon="13.382924355954083"><ele>226.0</ele><time>2026-04-05T09:27:43Z</time></trkpt><trkpt lat="41.668861174541355" lon="13.382940971206668"><ele>226.0</ele><time>2026-04-05T09:27:44Z</time></trkpt><trkpt lat="41.66871265298523" lon="13.382962420981308"><ele>226.0</ele><time>2026-04-05T09:27:45Z</time></trkpt><trkpt lat="41.668576149776726" lon="13.38299829439015"><ele>227.75</ele><time>2026-04-05T09:27:46Z</time></trkpt><trkpt lat="41.668451742217044" lon="13.383068439444381"><ele>229.5</ele><time>2026-04-05T09:27:47Z</time></trkpt><trkpt lat="41.66832632335053" lon="13.383183405794917"><ele>231.25</ele><time>2026-04-05T09:27:48Z</time></trkpt><trkpt lat="41.66821993967773" lon="13.383337048139303"><ele>233.0</ele><time>2026-04-05T09:27:49Z</time></trkpt><trkpt lat="41.66811057448265" lon="13.383541124567072"><ele>233.0</ele><time>2026-04-05T09:27:50Z</time></trkpt><trkpt lat="41.66799635340863" lon="13.383772737685891"><ele>233.0</ele><time>2026-04-05T09:27:51Z</time></trkpt><trkpt lat="41.66787656974178" lon="13.383959958632936"><ele>233.0</ele><time>2026-04-05T09:27:52Z</time></trkpt><trkpt lat="41.667740858891456" lon="13.384123317380574"><ele>234.5</ele><time>2026-04-05T09:27:53Z</time></trkpt><trkpt lat="41.66760962755514" lon="13.384250871147918"><ele>236.0</ele><time>2026-04-05T09:27:54Z</time></trkpt><trkpt lat="41.66748977591795" lon="13.38434554752206"><ele>237.5</ele><time>2026-04-05T09:27:55Z</time></trkpt><trkpt lat="41.667374764294856" lon="13.384386752032432"><ele>239.0</ele><time>2026-04-05T09:27:56Z</time></trkpt><trkpt lat="41.667270848276594" lon="13.384378387945308"><ele>239.0</ele><time>2026-04-05T09:27:57Z</time></trkpt><trkpt lat="41.66718854281775" lon="13.384310389060724"><ele>238.99999999999997</ele><time>2026-04-05T09:27:58Z</time></trkpt><trkpt lat="41.66712876053652" lon="13.384204262996152"><ele>238.99999999999997</ele><time>2026-04-05T09:27:59Z</time></trkpt><trkpt lat="41.66710229131113" lon="13.38407359546812"><ele>239.0</ele><time>2026-04-05T09:28:00Z</time></trkpt><trkpt lat="41.66710556331126" lon="13.383915082166183"><ele>239.0</ele><time>2026-04-05T09:28:01Z</time></trkpt><trkpt lat="41.667138178068136" lon="13.38371746813275"><ele>238.66666666666669</ele><time>2026-04-05T09:28:02Z</time></trkpt><trkpt lat="41.66719546709506" lon="13.383512365550324"><ele>238.33333333333331</ele><time>2026-04-05T09:28:03Z</time></trkpt><trkpt lat="41.667259838461426" lon="13.38326805690134"><ele>238.0</ele><time>2026-04-05T09:28:04Z</time></trkpt><trkpt lat="41.66730086695496" lon="13.382999712293998"><ele>238.75</ele><time>2026-04-05T09:28:05Z</time></trkpt><trkpt lat="41.66730510519126" lon="13.382769422673295"><ele>239.5</ele><time>2026-04-05T09:28:06Z</time></trkpt><trkpt lat="41.66728253496543" lon="13.382591823417984"><ele>240.25</ele><time>2026-04-05T09:28:07Z</time></trkpt><trkpt lat="41.66722313850905" lon="13.38244630215734"><ele>241.0</ele><time>2026-04-05T09:28:08Z</time></trkpt><trkpt lat="41.66712473162487" lon="13.38235288604277"><ele>241.0</ele><time>2026-04-05T09:28:09Z</time></trkpt><trkpt lat="41.666987620911335" lon="13.382290334736835"><ele>241.0</ele><time>2026-04-05T09:28:10Z</time></trkpt><trkpt lat="41.66682778874607" lon="13.382265081994047"><ele>241.0</ele><time>2026-04-05T09:28:11Z</time></trkpt><trkpt lat="41.666656789689355" lon="13.382257335256572"><ele>240.33333333333331</ele><time>2026-04-05T09:28:12Z</time></trkpt><trkpt lat="41.66649034640216" lon="13.38223273168926"><ele>239.66666666666669</ele><time>2026-04-05T09:28:13Z</time></trkpt><trkpt lat="41.66636483610482" lon="13.382134496173212"><ele>239.0</ele><time>2026-04-05T09:28:14Z</time></trkpt><trkpt lat="41.666284738142004" lon="13.381983623828564"><ele>239.0</ele><time>2026-04-05T09:28:15Z</time></trkpt><trkpt lat="41.66623968308615" lon="13.381766985385095"><ele>239.0</ele><time>2026-04-05T09:28:16Z</time></trkpt><trkpt lat="41.66619350256917" lon="13.381518713982064"><ele>239.0</ele><time>2026-04-05T09:28:17Z</time></trkpt><trkpt lat="41.666151198292205" lon="13.381239612180721"><ele>242.66666666666669</ele><time>2026-04-05T09:28:18Z</time></trkpt><trkpt lat="41.66610078346087" lon="13.38098553912735"><ele>246.33333333333331</ele><time>2026-04-05T09:28:19Z</time></trkpt><trkpt lat="41.666033483414225" lon="13.380739971189842"><ele>250.0</ele><time>2026-04-05T09:28:20Z</time></trkpt><trkpt lat="41.665962397017466" lon="13.380519025414987"><ele>249.0</ele><time>2026-04-05T09:28:21Z</time></trkpt><trkpt lat="41.66589276331831" lon="13.380323128995325"><ele>248.0</ele><time>2026-04-05T09:28:22Z</time></trkpt><trkpt lat="41.66582765014458" lon="13.380139910875666"><ele>247.0</ele><time>2026-04-05T09:28:23.001Z</time></trkpt><trkpt lat="41.66577078594293" lon="13.379982495866134"><ele>246.0</ele><time>2026-04-05T09:28:24.001Z</time></trkpt><trkpt lat="41.66572994197159" lon="13.379853682320807"><ele>246.0</ele><time>2026-04-05T09:28:25.001Z</time></trkpt><trkpt lat="41.665692528850606" lon="13.379753918185349"><ele>246.00000000000003</ele><time>2026-04-05T09:28:26.001Z</time></trkpt><trkpt lat="41.665662271716606" lon="13.379671628480649"><ele>246.00000000000003</ele><time>2026-04-05T09:28:27.001Z</time></trkpt><trkpt lat="41.66558000311182" lon="13.37952568338655"><ele>246.0</ele><time>2026-04-05T09:28:29.001Z</time></trkpt><trkpt lat="41.66553501454459" lon="13.379412232790065"><ele>246.0</ele><time>2026-04-05T09:28:30.001Z</time></trkpt><trkpt lat="41.665484540677426" lon="13.379316265889129"><ele>246.0</ele><time>2026-04-05T09:28:31.001Z</time></trkpt><trkpt lat="41.66540095774193" lon="13.379285799647404"><ele>246.0</ele><time>2026-04-05T09:28:32.001Z</time></trkpt><trkpt lat="41.66530310183735" lon="13.37933845394383"><ele>246.0</ele><time>2026-04-05T09:28:33.001Z</time></trkpt><trkpt lat="41.66522157449146" lon="13.379466721434964"><ele>246.0</ele><time>2026-04-05T09:28:34.001Z</time></trkpt><trkpt lat="41.66514381460084" lon="13.379649180860442"><ele>245.0</ele><time>2026-04-05T09:28:35.001Z</time></trkpt><trkpt lat="41.665041507683284" lon="13.37982062510627"><ele>244.0</ele><time>2026-04-05T09:28:36.001Z</time></trkpt><trkpt lat="41.66490900147216" lon="13.379994569413485"><ele>243.0</ele><time>2026-04-05T09:28:37.001Z</time></trkpt><trkpt lat="41.66476785949678" lon="13.380184182471016"><ele>243.0</ele><time>2026-04-05T09:28:38.001Z</time></trkpt><trkpt lat="41.664621285585056" lon="13.380386616823255"><ele>243.0</ele><time>2026-04-05T09:28:39.001Z</time></trkpt><trkpt lat="41.66447855381921" lon="13.38060765897619"><ele>243.0</ele><time>2026-04-05T09:28:40.001Z</time></trkpt><trkpt lat="41.6643549315355" lon="13.380851907118712"><ele>240.66666666666669</ele><time>2026-04-05T09:28:41.001Z</time></trkpt><trkpt lat="41.66424913786652" lon="13.381091576215514"><ele>238.33333333333334</ele><time>2026-04-05T09:28:42.001Z</time></trkpt><trkpt lat="41.6641655257539" lon="13.38133229016826"><ele>236.0</ele><time>2026-04-05T09:28:43.001Z</time></trkpt><trkpt lat="41.6641234576052" lon="13.38154302307623"><ele>236.0</ele><time>2026-04-05T09:28:44.001Z</time></trkpt><trkpt lat="41.664031127497864" lon="13.381716579285834"><ele>236.0</ele><time>2026-04-05T09:28:45.001Z</time></trkpt><trkpt lat="41.663928800283" lon="13.381887707325541"><ele>236.0</ele><time>2026-04-05T09:28:46.001Z</time></trkpt><trkpt lat="41.66380687324122" lon="13.382092566981505"><ele>237.0</ele><time>2026-04-05T09:28:47.001Z</time></trkpt><trkpt lat="41.66367030956973" lon="13.382345730020676"><ele>238.0</ele><time>2026-04-05T09:28:48.001Z</time></trkpt><trkpt lat="41.663536493530344" lon="13.382563923229922"><ele>239.0</ele><time>2026-04-05T09:28:49.001Z</time></trkpt><trkpt lat="41.663405205690886" lon="13.38274382181252"><ele>238.2</ele><time>2026-04-05T09:28:50.001Z</time></trkpt><trkpt lat="41.66330495949321" lon="13.382905140249783"><ele>237.39999999999998</ele><time>2026-04-05T09:28:51.001Z</time></trkpt><trkpt lat="41.663242223829464" lon="13.383027201316178"><ele>236.6</ele><time>2026-04-05T09:28:52.001Z</time></trkpt><trkpt lat="41.66317901390599" lon="13.38309793454714"><ele>235.8</ele><time>2026-04-05T09:28:53.001Z</time></trkpt><trkpt lat="41.66310751484324" lon="13.383153362764741"><ele>235.0</ele><time>2026-04-05T09:28:54.001Z</time></trkpt><trkpt lat="41.66303619284859" lon="13.383171258900864"><ele>235.0</ele><time>2026-04-05T09:28:55.001Z</time></trkpt><trkpt lat="41.66295477672006" lon="13.383254389902204"><ele>235.0</ele><time>2026-04-05T09:29:00.001Z</time></trkpt><trkpt lat="41.66295103256975" lon="13.383468673910137"><ele>235.0</ele><time>2026-04-05T09:29:02.001Z</time></trkpt><trkpt lat="41.662940872083766" lon="13.383647417619802"><ele>235.0</ele><time>2026-04-05T09:29:03.001Z</time></trkpt><trkpt lat="41.66293434271551" lon="13.38385095588003"><ele>236.33333333333331</ele><time>2026-04-05T09:29:04.001Z</time></trkpt><trkpt lat="41.662925603343844" lon="13.38409295596031"><ele>237.66666666666669</ele><time>2026-04-05T09:29:05.001Z</time></trkpt><trkpt lat="41.66291807072646" lon="13.384346091607211"><ele>239.0</ele><time>2026-04-05T09:29:06.001Z</time></trkpt><trkpt lat="41.6629209947967" lon="13.384625368478254"><ele>238.66666666666669</ele><time>2026-04-05T09:29:07.001Z</time></trkpt><trkpt lat="41.66290072337716" lon="13.384906249572685"><ele>238.33333333333331</ele><time>2026-04-05T09:29:08.001Z</time></trkpt><trkpt lat="41.66289384127651" lon="13.38515308026641"><ele>238.0</ele><time>2026-04-05T09:29:09.001Z</time></trkpt><trkpt lat="41.66288848165719" lon="13.385356165101388"><ele>238.0</ele><time>2026-04-05T09:29:10.001Z</time></trkpt><trkpt lat="41.66289772805079" lon="13.385499848359277"><ele>238.0</ele><time>2026-04-05T09:29:11.001Z</time></trkpt><trkpt lat="41.662896755861084" lon="13.385621098807988"><ele>238.0</ele><time>2026-04-05T09:29:12.001Z</time></trkpt><trkpt lat="41.66287971194804" lon="13.385709735311991"><ele>238.0</ele><time>2026-04-05T09:29:13.001Z</time></trkpt><trkpt lat="41.66299110016251" lon="13.385753320875512"><ele>238.0</ele><time>2026-04-05T09:29:16.001Z</time></trkpt><trkpt lat="41.66306550327084" lon="13.385774493183572"><ele>237.0</ele><time>2026-04-05T09:29:41Z</time></trkpt><trkpt lat="41.663140054352745" lon="13.385765381936524"><ele>237.0</ele><time>2026-04-05T09:29:43Z</time></trkpt><trkpt lat="41.66319686866418" lon="13.385810243197108"><ele>237.0</ele><time>2026-04-05T09:29:46Z</time></trkpt><trkpt lat="41.66326451455312" lon="13.385832346337963"><ele>237.0</ele><time>2026-04-05T09:29:55Z</time></trkpt><trkpt lat="41.66322252300205" lon="13.385762098817752"><ele>237.0</ele><time>2026-04-05T09:30:23Z</time></trkpt><trkpt lat="41.66320780635585" lon="13.385638730858323"><ele>237.0</ele><time>2026-04-05T09:30:27Z</time></trkpt><trkpt lat="41.66324837633632" lon="13.38570326568819"><ele>237.0</ele><time>2026-04-05T09:30:28Z</time></trkpt></trkseg></trk></gpx>